<?xml version="1.0" encoding="UTF-8" standalone="no" ?>
<gpx xmlns="http://www.topografix.com/GPX/1/1" creator="MapSource 6.16.3" version="1.1" xmlns:xsi="http://www.w3.org/2001/XMLSchema-instance" xsi:schemaLocation="http://www.topografix.com/GPX/1/1 http://www.topografix.com/GPX/1/1/gpx.xsd">

  <metadata>
    <link href="http://www.garmin.com">
      <text>Garmin International</text>
    </link>
    <time>2016-09-17T07:48:56Z</time>
    <bounds maxlat="43.088471526280046" maxlon="11.703625246882439" minlat="43.02730668336153" minlon="11.599324364215136"/>
  </metadata>

  <wpt lat="43.028137749060988" lon="11.61781283095479">
    <ele>308</ele>
    <name>BAGNO VIGNONI</name>
    <cmt>07-NOV-04 12:02:28</cmt>
    <desc>07-NOV-04 12:02:28</desc>
    <sym>Waypoint</sym>
    <extensions>
      <gpxx:WaypointExtension xmlns:gpxx="http://www.garmin.com/xmlschemas/GpxExtensions/v3">
        <gpxx:DisplayMode>SymbolAndName</gpxx:DisplayMode>
      </gpxx:WaypointExtension>
    </extensions>
  </wpt>

  <wpt lat="43.068638350814581" lon="11.678271498531103">
    <ele>354</ele>
    <name>BIVIO</name>
    <cmt>07-NOV-04 11:25:26</cmt>
    <desc>07-NOV-04 11:25:26</desc>
    <sym>Waypoint</sym>
    <extensions>
      <gpxx:WaypointExtension xmlns:gpxx="http://www.garmin.com/xmlschemas/GpxExtensions/v3">
        <gpxx:DisplayMode>SymbolAndName</gpxx:DisplayMode>
      </gpxx:WaypointExtension>
    </extensions>
  </wpt>

  <wpt lat="43.086164658889174" lon="11.661088680848479">
    <ele>442</ele>
    <name>INNESTO SS146</name>
    <cmt>07-NOV-04 13:52:39</cmt>
    <desc>07-NOV-04 13:52:39</desc>
    <sym>Waypoint</sym>
    <extensions>
      <gpxx:WaypointExtension xmlns:gpxx="http://www.garmin.com/xmlschemas/GpxExtensions/v3">
        <gpxx:DisplayMode>SymbolAndName</gpxx:DisplayMode>
      </gpxx:WaypointExtension>
    </extensions>
  </wpt>

  <wpt lat="43.069366654381156" lon="11.703616697341204">
    <name>PARTENZA</name>
    <sym>Trail Head</sym>
    <extensions>
      <gpxx:WaypointExtension xmlns:gpxx="http://www.garmin.com/xmlschemas/GpxExtensions/v3">
        <gpxx:DisplayMode>SymbolAndName</gpxx:DisplayMode>
      </gpxx:WaypointExtension>
    </extensions>
  </wpt>

  <wpt lat="43.059726795181632" lon="11.603216752409935">
    <ele>410</ele>
    <name>SAN QUIRICO D' ORCIA</name>
    <cmt>07-NOV-04 12:51:03</cmt>
    <desc>07-NOV-04 12:51:03</desc>
    <sym>Waypoint</sym>
    <extensions>
      <gpxx:WaypointExtension xmlns:gpxx="http://www.garmin.com/xmlschemas/GpxExtensions/v3">
        <gpxx:DisplayMode>SymbolAndName</gpxx:DisplayMode>
      </gpxx:WaypointExtension>
    </extensions>
  </wpt>

  <trk>
    <name>ACTIVE LOG</name>
    <extensions>
      <gpxx:TrackExtension xmlns:gpxx="http://www.garmin.com/xmlschemas/GpxExtensions/v3">
        <gpxx:DisplayColor>DarkGreen</gpxx:DisplayColor>
      </gpxx:TrackExtension>
    </extensions>
    <trkseg>
      <trkpt lat="43.069374030455947" lon="11.703616948798299">
        <ele>333.234130859375</ele>
        <time>2004-11-07T09:10:32Z</time>
      </trkpt>
      <trkpt lat="43.069319128990173" lon="11.703461045399308">
        <ele>332.7535400390625</ele>
        <time>2004-11-07T09:10:35Z</time>
      </trkpt>
      <trkpt lat="43.069265149533749" lon="11.703324085101485">
        <ele>332.2728271484375</ele>
        <time>2004-11-07T09:10:38Z</time>
      </trkpt>
      <trkpt lat="43.069228855893016" lon="11.703229285776615">
        <ele>333.234130859375</ele>
        <time>2004-11-07T09:10:42Z</time>
      </trkpt>
      <trkpt lat="43.069176888093352" lon="11.703124260529876">
        <ele>333.7147216796875</ele>
        <time>2004-11-07T09:10:48Z</time>
      </trkpt>
      <trkpt lat="43.069120729342103" lon="11.703013787046075">
        <ele>334.6761474609375</ele>
        <time>2004-11-07T09:10:55Z</time>
      </trkpt>
      <trkpt lat="43.069072365760803" lon="11.702910019084811">
        <ele>335.15673828125</ele>
        <time>2004-11-07T09:11:00Z</time>
      </trkpt>
      <trkpt lat="43.069015117362142" lon="11.702798036858439">
        <ele>336.598876953125</ele>
        <time>2004-11-07T09:11:05Z</time>
      </trkpt>
      <trkpt lat="43.068953258916736" lon="11.702681025490165">
        <ele>337.56005859375</ele>
        <time>2004-11-07T09:11:10Z</time>
      </trkpt>
      <trkpt lat="43.068888382986188" lon="11.702566025778651">
        <ele>338.040771484375</ele>
        <time>2004-11-07T09:11:15Z</time>
      </trkpt>
      <trkpt lat="43.068828033283353" lon="11.702454630285501">
        <ele>339.0020751953125</ele>
        <time>2004-11-07T09:11:20Z</time>
      </trkpt>
      <trkpt lat="43.068762235343456" lon="11.702334182336926">
        <ele>339.96337890625</ele>
        <time>2004-11-07T09:11:25Z</time>
      </trkpt>
      <trkpt lat="43.068697191774845" lon="11.702217757701874">
        <ele>341.885986328125</ele>
        <time>2004-11-07T09:11:30Z</time>
      </trkpt>
      <trkpt lat="43.068647990003228" lon="11.702113570645452">
        <ele>341.885986328125</ele>
        <time>2004-11-07T09:11:34Z</time>
      </trkpt>
      <trkpt lat="43.068590657785535" lon="11.701989937573671">
        <ele>343.327880859375</ele>
        <time>2004-11-07T09:11:39Z</time>
      </trkpt>
      <trkpt lat="43.068546736612916" lon="11.701878206804395">
        <ele>344.2894287109375</ele>
        <time>2004-11-07T09:11:43Z</time>
      </trkpt>
      <trkpt lat="43.068507509306073" lon="11.70174652710557">
        <ele>345.2506103515625</ele>
        <time>2004-11-07T09:11:47Z</time>
      </trkpt>
      <trkpt lat="43.068474065512419" lon="11.701609063893557">
        <ele>346.692626953125</ele>
        <time>2004-11-07T09:11:51Z</time>
      </trkpt>
      <trkpt lat="43.068446405231953" lon="11.701477551832795">
        <ele>347.6539306640625</ele>
        <time>2004-11-07T09:11:55Z</time>
      </trkpt>
      <trkpt lat="43.068414134904742" lon="11.701344531029463">
        <ele>347.6539306640625</ele>
        <time>2004-11-07T09:11:59Z</time>
      </trkpt>
      <trkpt lat="43.06838421151042" lon="11.701213018968701">
        <ele>348.1346435546875</ele>
        <time>2004-11-07T09:12:03Z</time>
      </trkpt>
      <trkpt lat="43.068351773545146" lon="11.701086368411779">
        <ele>349.5765380859375</ele>
        <time>2004-11-07T09:12:07Z</time>
      </trkpt>
      <trkpt lat="43.068318665027618" lon="11.700961980968714">
        <ele>350.537841796875</ele>
        <time>2004-11-07T09:12:11Z</time>
      </trkpt>
      <trkpt lat="43.068284131586552" lon="11.700845472514629">
        <ele>351.0184326171875</ele>
        <time>2004-11-07T09:12:15Z</time>
      </trkpt>
      <trkpt lat="43.068245910108089" lon="11.700732987374067">
        <ele>351.0184326171875</ele>
        <time>2004-11-07T09:12:19Z</time>
      </trkpt>
      <trkpt lat="43.068210789933801" lon="11.700616227462888">
        <ele>351.9798583984375</ele>
        <time>2004-11-07T09:12:23Z</time>
      </trkpt>
      <trkpt lat="43.068159492686391" lon="11.700503323227167">
        <ele>352.941162109375</ele>
        <time>2004-11-07T09:12:27Z</time>
      </trkpt>
      <trkpt lat="43.068109704181552" lon="11.700386144220829">
        <ele>353.421875</ele>
        <time>2004-11-07T09:12:31Z</time>
      </trkpt>
      <trkpt lat="43.068061172962189" lon="11.700262762606144">
        <ele>354.3831787109375</ele>
        <time>2004-11-07T09:12:35Z</time>
      </trkpt>
      <trkpt lat="43.068012557923794" lon="11.700146086513996">
        <ele>355.344482421875</ele>
        <time>2004-11-07T09:12:39Z</time>
      </trkpt>
      <trkpt lat="43.06796545162797" lon="11.700037373229861">
        <ele>355.8251953125</ele>
        <time>2004-11-07T09:12:43Z</time>
      </trkpt>
      <trkpt lat="43.067921278998256" lon="11.69992639683187">
        <ele>356.3057861328125</ele>
        <time>2004-11-07T09:12:47Z</time>
      </trkpt>
      <trkpt lat="43.067867970094085" lon="11.699788682162762">
        <ele>356.786376953125</ele>
        <time>2004-11-07T09:12:52Z</time>
      </trkpt>
      <trkpt lat="43.067818433046341" lon="11.699670162051916">
        <ele>357.747802734375</ele>
        <time>2004-11-07T09:12:56Z</time>
      </trkpt>
      <trkpt lat="43.067766297608614" lon="11.699556419625878">
        <ele>359.189697265625</ele>
        <time>2004-11-07T09:13:00Z</time>
      </trkpt>
      <trkpt lat="43.067712904885411" lon="11.699451981112361">
        <ele>359.67041015625</ele>
        <time>2004-11-07T09:13:04Z</time>
      </trkpt>
      <trkpt lat="43.067652303725481" lon="11.69936103746295">
        <ele>360.151123046875</ele>
        <time>2004-11-07T09:13:08Z</time>
      </trkpt>
      <trkpt lat="43.067581309005618" lon="11.699278140440583">
        <ele>360.6317138671875</ele>
        <time>2004-11-07T09:13:12Z</time>
      </trkpt>
      <trkpt lat="43.067495729774237" lon="11.699199853464961">
        <ele>361.1124267578125</ele>
        <time>2004-11-07T09:13:16Z</time>
      </trkpt>
      <trkpt lat="43.067418448626995" lon="11.699135899543762">
        <ele>360.151123046875</ele>
        <time>2004-11-07T09:13:19Z</time>
      </trkpt>
      <trkpt lat="43.06732633151114" lon="11.699061384424567">
        <ele>360.6317138671875</ele>
        <time>2004-11-07T09:13:22Z</time>
      </trkpt>
      <trkpt lat="43.0672213062644" lon="11.698976224288344">
        <ele>360.151123046875</ele>
        <time>2004-11-07T09:13:25Z</time>
      </trkpt>
      <trkpt lat="43.067115945741534" lon="11.698889220133424">
        <ele>360.151123046875</ele>
        <time>2004-11-07T09:13:28Z</time>
      </trkpt>
      <trkpt lat="43.067012848332524" lon="11.698807748034596">
        <ele>360.151123046875</ele>
        <time>2004-11-07T09:13:31Z</time>
      </trkpt>
      <trkpt lat="43.066898602992296" lon="11.698718564584851">
        <ele>360.151123046875</ele>
        <time>2004-11-07T09:13:34Z</time>
      </trkpt>
      <trkpt lat="43.066801624372602" lon="11.698641451075673">
        <ele>359.189697265625</ele>
        <time>2004-11-07T09:13:36Z</time>
      </trkpt>
      <trkpt lat="43.066683271899819" lon="11.698546148836613">
        <ele>357.26708984375</ele>
        <time>2004-11-07T09:13:38Z</time>
      </trkpt>
      <trkpt lat="43.066546814516187" lon="11.69844095595181">
        <ele>355.8251953125</ele>
        <time>2004-11-07T09:13:40Z</time>
      </trkpt>
      <trkpt lat="43.066408094018698" lon="11.698327884078026">
        <ele>354.3831787109375</ele>
        <time>2004-11-07T09:13:42Z</time>
      </trkpt>
      <trkpt lat="43.066273229196668" lon="11.698219673708081">
        <ele>353.421875</ele>
        <time>2004-11-07T09:13:44Z</time>
      </trkpt>
      <trkpt lat="43.066137358546257" lon="11.698110792785883">
        <ele>352.4605712890625</ele>
        <time>2004-11-07T09:13:46Z</time>
      </trkpt>
      <trkpt lat="43.066012719646096" lon="11.698009371757507">
        <ele>352.4605712890625</ele>
        <time>2004-11-07T09:13:48Z</time>
      </trkpt>
      <trkpt lat="43.065888918936253" lon="11.697911638766527">
        <ele>351.9798583984375</ele>
        <time>2004-11-07T09:13:50Z</time>
      </trkpt>
      <trkpt lat="43.065767297521234" lon="11.697790017351508">
        <ele>351.9798583984375</ele>
        <time>2004-11-07T09:13:52Z</time>
      </trkpt>
      <trkpt lat="43.065674677491188" lon="11.697622714564204">
        <ele>351.0184326171875</ele>
        <time>2004-11-07T09:13:54Z</time>
      </trkpt>
      <trkpt lat="43.065613741055131" lon="11.697433702647686">
        <ele>351.0184326171875</ele>
        <time>2004-11-07T09:13:56Z</time>
      </trkpt>
      <trkpt lat="43.065588511526585" lon="11.697297329083085">
        <ele>351.0184326171875</ele>
        <time>2004-11-07T09:13:58Z</time>
      </trkpt>
      <trkpt lat="43.065567556768656" lon="11.697146622464061">
        <ele>352.4605712890625</ele>
        <time>2004-11-07T09:14:01Z</time>
      </trkpt>
      <trkpt lat="43.065550960600376" lon="11.697010667994618">
        <ele>353.421875</ele>
        <time>2004-11-07T09:14:04Z</time>
      </trkpt>
      <trkpt lat="43.065533190965652" lon="11.696870606392622">
        <ele>354.3831787109375</ele>
        <time>2004-11-07T09:14:07Z</time>
      </trkpt>
      <trkpt lat="43.065517768263817" lon="11.696728952229023">
        <ele>355.344482421875</ele>
        <time>2004-11-07T09:14:10Z</time>
      </trkpt>
      <trkpt lat="43.065505614504218" lon="11.696582855656743">
        <ele>355.8251953125</ele>
        <time>2004-11-07T09:14:13Z</time>
      </trkpt>
      <trkpt lat="43.065490024164319" lon="11.696436004713178">
        <ele>355.8251953125</ele>
        <time>2004-11-07T09:14:16Z</time>
      </trkpt>
      <trkpt lat="43.065474182367325" lon="11.696288818493485">
        <ele>355.8251953125</ele>
        <time>2004-11-07T09:14:19Z</time>
      </trkpt>
      <trkpt lat="43.065447360277176" lon="11.696117408573627">
        <ele>356.786376953125</ele>
        <time>2004-11-07T09:14:22Z</time>
      </trkpt>
      <trkpt lat="43.065416682511568" lon="11.695920182392001">
        <ele>355.8251953125</ele>
        <time>2004-11-07T09:14:25Z</time>
      </trkpt>
      <trkpt lat="43.065395643934608" lon="11.695778695866466">
        <ele>356.3057861328125</ele>
        <time>2004-11-07T09:14:27Z</time>
      </trkpt>
      <trkpt lat="43.065375695005059" lon="11.695641651749611">
        <ele>355.8251953125</ele>
        <time>2004-11-07T09:14:29Z</time>
      </trkpt>
      <trkpt lat="43.065353063866496" lon="11.695501003414392">
        <ele>356.3057861328125</ele>
        <time>2004-11-07T09:14:31Z</time>
      </trkpt>
      <trkpt lat="43.065328756347299" lon="11.695351889356971">
        <ele>355.8251953125</ele>
        <time>2004-11-07T09:14:33Z</time>
      </trkpt>
      <trkpt lat="43.065307969227433" lon="11.695204116404057">
        <ele>356.3057861328125</ele>
        <time>2004-11-07T09:14:35Z</time>
      </trkpt>
      <trkpt lat="43.065286427736282" lon="11.69506405480206">
        <ele>356.3057861328125</ele>
        <time>2004-11-07T09:14:37Z</time>
      </trkpt>
      <trkpt lat="43.06526237167418" lon="11.694929860532284">
        <ele>356.3057861328125</ele>
        <time>2004-11-07T09:14:39Z</time>
      </trkpt>
      <trkpt lat="43.065243177115917" lon="11.694801282137632">
        <ele>356.786376953125</ele>
        <time>2004-11-07T09:14:41Z</time>
      </trkpt>
      <trkpt lat="43.065224653109908" lon="11.694677313789725">
        <ele>357.26708984375</ele>
        <time>2004-11-07T09:14:43Z</time>
      </trkpt>
      <trkpt lat="43.065207889303565" lon="11.694556698203087">
        <ele>356.786376953125</ele>
        <time>2004-11-07T09:14:45Z</time>
      </trkpt>
      <trkpt lat="43.065181570127606" lon="11.694380091503263">
        <ele>356.786376953125</ele>
        <time>2004-11-07T09:14:48Z</time>
      </trkpt>
      <trkpt lat="43.065154161304235" lon="11.69421480037272">
        <ele>357.747802734375</ele>
        <time>2004-11-07T09:14:51Z</time>
      </trkpt>
      <trkpt lat="43.065140834078193" lon="11.694066440686584">
        <ele>358.2283935546875</ele>
        <time>2004-11-07T09:14:54Z</time>
      </trkpt>
      <trkpt lat="43.06513287127018" lon="11.693928055465221">
        <ele>358.708984375</ele>
        <time>2004-11-07T09:14:57Z</time>
      </trkpt>
      <trkpt lat="43.065135218203068" lon="11.69378874823451">
        <ele>359.67041015625</ele>
        <time>2004-11-07T09:15:00Z</time>
      </trkpt>
      <trkpt lat="43.065145192667842" lon="11.693651368841529">
        <ele>360.151123046875</ele>
        <time>2004-11-07T09:15:03Z</time>
      </trkpt>
      <trkpt lat="43.065160280093551" lon="11.693513989448547">
        <ele>360.151123046875</ele>
        <time>2004-11-07T09:15:06Z</time>
      </trkpt>
      <trkpt lat="43.065176038071513" lon="11.69338122010231">
        <ele>361.1124267578125</ele>
        <time>2004-11-07T09:15:09Z</time>
      </trkpt>
      <trkpt lat="43.065194645896554" lon="11.693254401907325">
        <ele>361.1124267578125</ele>
        <time>2004-11-07T09:15:12Z</time>
      </trkpt>
      <trkpt lat="43.065212583169341" lon="11.693130014464259">
        <ele>361.1124267578125</ele>
        <time>2004-11-07T09:15:15Z</time>
      </trkpt>
      <trkpt lat="43.065225994214416" lon="11.692997412756085">
        <ele>363.0350341796875</ele>
        <time>2004-11-07T09:15:18Z</time>
      </trkpt>
      <trkpt lat="43.065242506563663" lon="11.692861542105675">
        <ele>363.0350341796875</ele>
        <time>2004-11-07T09:15:21Z</time>
      </trkpt>
      <trkpt lat="43.065261952579021" lon="11.69272743165493">
        <ele>363.5157470703125</ele>
        <time>2004-11-07T09:15:24Z</time>
      </trkpt>
      <trkpt lat="43.065274022519588" lon="11.692590471357107">
        <ele>364.4769287109375</ele>
        <time>2004-11-07T09:15:27Z</time>
      </trkpt>
      <trkpt lat="43.065290534868836" lon="11.692461473867297">
        <ele>364.9576416015625</ele>
        <time>2004-11-07T09:15:30Z</time>
      </trkpt>
      <trkpt lat="43.06530486792326" lon="11.692333146929741">
        <ele>365.9189453125</ele>
        <time>2004-11-07T09:15:33Z</time>
      </trkpt>
      <trkpt lat="43.065317524597049" lon="11.692204568535089">
        <ele>366.3995361328125</ele>
        <time>2004-11-07T09:15:36Z</time>
      </trkpt>
      <trkpt lat="43.065325487405062" lon="11.692069284617901">
        <ele>366.3995361328125</ele>
        <time>2004-11-07T09:15:39Z</time>
      </trkpt>
      <trkpt lat="43.065342837944627" lon="11.691936096176505">
        <ele>366.8802490234375</ele>
        <time>2004-11-07T09:15:42Z</time>
      </trkpt>
      <trkpt lat="43.065363373607397" lon="11.691799303516746">
        <ele>366.8802490234375</ele>
        <time>2004-11-07T09:15:45Z</time>
      </trkpt>
      <trkpt lat="43.065381729975343" lon="11.691667959094048">
        <ele>367.3609619140625</ele>
        <time>2004-11-07T09:15:48Z</time>
      </trkpt>
      <trkpt lat="43.065395895391703" lon="11.691536363214254">
        <ele>367.3609619140625</ele>
        <time>2004-11-07T09:15:51Z</time>
      </trkpt>
      <trkpt lat="43.065409725531936" lon="11.691409293562174">
        <ele>367.841552734375</ele>
        <time>2004-11-07T09:15:54Z</time>
      </trkpt>
      <trkpt lat="43.065424980595708" lon="11.691282810643315">
        <ele>368.802978515625</ele>
        <time>2004-11-07T09:15:57Z</time>
      </trkpt>
      <trkpt lat="43.065441325306892" lon="11.691151466220617">
        <ele>369.28369140625</ele>
        <time>2004-11-07T09:16:00Z</time>
      </trkpt>
      <trkpt lat="43.065451718866825" lon="11.691017020493746">
        <ele>370.244873046875</ele>
        <time>2004-11-07T09:16:03Z</time>
      </trkpt>
      <trkpt lat="43.065456161275506" lon="11.690877713263035">
        <ele>370.244873046875</ele>
        <time>2004-11-07T09:16:06Z</time>
      </trkpt>
      <trkpt lat="43.06545490399003" lon="11.690749637782574">
        <ele>370.7255859375</ele>
        <time>2004-11-07T09:16:09Z</time>
      </trkpt>
      <trkpt lat="43.065437888726592" lon="11.690629189833999">
        <ele>370.7255859375</ele>
        <time>2004-11-07T09:16:12Z</time>
      </trkpt>
      <trkpt lat="43.065404109656811" lon="11.690500695258379">
        <ele>370.7255859375</ele>
        <time>2004-11-07T09:16:15Z</time>
      </trkpt>
      <trkpt lat="43.06535616517067" lon="11.690349988639355">
        <ele>370.244873046875</ele>
        <time>2004-11-07T09:16:18Z</time>
      </trkpt>
      <trkpt lat="43.065293971449137" lon="11.690175058320165">
        <ele>369.28369140625</ele>
        <time>2004-11-07T09:16:21Z</time>
      </trkpt>
      <trkpt lat="43.06524870917201" lon="11.69002971611917">
        <ele>368.322265625</ele>
        <time>2004-11-07T09:16:23Z</time>
      </trkpt>
      <trkpt lat="43.06521006859839" lon="11.689860988408327">
        <ele>367.3609619140625</ele>
        <time>2004-11-07T09:16:25Z</time>
      </trkpt>
      <trkpt lat="43.065190371125937" lon="11.689681867137551">
        <ele>366.3995361328125</ele>
        <time>2004-11-07T09:16:27Z</time>
      </trkpt>
      <trkpt lat="43.065189868211746" lon="11.689486736431718">
        <ele>365.9189453125</ele>
        <time>2004-11-07T09:16:29Z</time>
      </trkpt>
      <trkpt lat="43.065201686695218" lon="11.689280206337571">
        <ele>364.9576416015625</ele>
        <time>2004-11-07T09:16:31Z</time>
      </trkpt>
      <trkpt lat="43.065217947587371" lon="11.689063869416714">
        <ele>363.5157470703125</ele>
        <time>2004-11-07T09:16:33Z</time>
      </trkpt>
      <trkpt lat="43.0652389023453" lon="11.688851471990347">
        <ele>362.5543212890625</ele>
        <time>2004-11-07T09:16:35Z</time>
      </trkpt>
      <trkpt lat="43.065264467149973" lon="11.688649635761976">
        <ele>361.5931396484375</ele>
        <time>2004-11-07T09:16:37Z</time>
      </trkpt>
      <trkpt lat="43.065290870144963" lon="11.688452074304223">
        <ele>360.6317138671875</ele>
        <time>2004-11-07T09:16:39Z</time>
      </trkpt>
      <trkpt lat="43.065332779660821" lon="11.688265828415751">
        <ele>360.151123046875</ele>
        <time>2004-11-07T09:16:41Z</time>
      </trkpt>
      <trkpt lat="43.065395308658481" lon="11.688094921410084">
        <ele>360.151123046875</ele>
        <time>2004-11-07T09:16:43Z</time>
      </trkpt>
      <trkpt lat="43.065479295328259" lon="11.687944466248155">
        <ele>358.708984375</ele>
        <time>2004-11-07T09:16:45Z</time>
      </trkpt>
      <trkpt lat="43.065574765205383" lon="11.687815887853503">
        <ele>358.708984375</ele>
        <time>2004-11-07T09:16:47Z</time>
      </trkpt>
      <trkpt lat="43.065647184848785" lon="11.687672976404428">
        <ele>358.2283935546875</ele>
        <time>2004-11-07T09:16:49Z</time>
      </trkpt>
      <trkpt lat="43.065683813765645" lon="11.687523107975721">
        <ele>358.708984375</ele>
        <time>2004-11-07T09:16:51Z</time>
      </trkpt>
      <trkpt lat="43.065709797665477" lon="11.687365947291255">
        <ele>358.708984375</ele>
        <time>2004-11-07T09:16:53Z</time>
      </trkpt>
      <trkpt lat="43.065732177346945" lon="11.68720250017941">
        <ele>358.708984375</ele>
        <time>2004-11-07T09:16:55Z</time>
      </trkpt>
      <trkpt lat="43.065753048285842" lon="11.687025642022491">
        <ele>357.747802734375</ele>
        <time>2004-11-07T09:16:57Z</time>
      </trkpt>
      <trkpt lat="43.065780205652118" lon="11.686824141070247">
        <ele>356.786376953125</ele>
        <time>2004-11-07T09:16:59Z</time>
      </trkpt>
      <trkpt lat="43.065810799598694" lon="11.686601852998137">
        <ele>355.8251953125</ele>
        <time>2004-11-07T09:17:01Z</time>
      </trkpt>
      <trkpt lat="43.065846171230078" lon="11.686379313468933">
        <ele>355.344482421875</ele>
        <time>2004-11-07T09:17:03Z</time>
      </trkpt>
      <trkpt lat="43.065886739641428" lon="11.686166580766439">
        <ele>354.3831787109375</ele>
        <time>2004-11-07T09:17:05Z</time>
      </trkpt>
      <trkpt lat="43.065952453762293" lon="11.685982430353761">
        <ele>352.941162109375</ele>
        <time>2004-11-07T09:17:07Z</time>
      </trkpt>
      <trkpt lat="43.066035099327564" lon="11.68581529520452">
        <ele>351.9798583984375</ele>
        <time>2004-11-07T09:17:09Z</time>
      </trkpt>
      <trkpt lat="43.066121349111199" lon="11.685646735131741">
        <ele>349.5765380859375</ele>
        <time>2004-11-07T09:17:11Z</time>
      </trkpt>
      <trkpt lat="43.066197205334902" lon="11.685491921380162">
        <ele>347.6539306640625</ele>
        <time>2004-11-07T09:17:13Z</time>
      </trkpt>
      <trkpt lat="43.06623911485076" lon="11.685342136770487">
        <ele>345.2506103515625</ele>
        <time>2004-11-07T09:17:15Z</time>
      </trkpt>
      <trkpt lat="43.066217992454767" lon="11.685193106532097">
        <ele>342.8472900390625</ele>
        <time>2004-11-07T09:17:17Z</time>
      </trkpt>
      <trkpt lat="43.066140543669462" lon="11.685077855363488">
        <ele>341.4052734375</ele>
        <time>2004-11-07T09:17:19Z</time>
      </trkpt>
      <trkpt lat="43.06600995361805" lon="11.685002250596881">
        <ele>339.482666015625</ele>
        <time>2004-11-07T09:17:21Z</time>
      </trkpt>
      <trkpt lat="43.065886152908206" lon="11.684854812920094">
        <ele>338.040771484375</ele>
        <time>2004-11-07T09:17:23Z</time>
      </trkpt>
      <trkpt lat="43.065810464322567" lon="11.684616347774863">
        <ele>336.1181640625</ele>
        <time>2004-11-07T09:17:25Z</time>
      </trkpt>
      <trkpt lat="43.065782971680164" lon="11.684481985867023">
        <ele>334.6761474609375</ele>
        <time>2004-11-07T09:17:26Z</time>
      </trkpt>
      <trkpt lat="43.065753886476159" lon="11.684341756626964">
        <ele>333.234130859375</ele>
        <time>2004-11-07T09:17:27Z</time>
      </trkpt>
      <trkpt lat="43.065722957253456" lon="11.68419842608273">
        <ele>331.3115234375</ele>
        <time>2004-11-07T09:17:28Z</time>
      </trkpt>
      <trkpt lat="43.065685154870152" lon="11.684052664786577">
        <ele>330.3502197265625</ele>
        <time>2004-11-07T09:17:29Z</time>
      </trkpt>
      <trkpt lat="43.065645424649119" lon="11.683909418061376">
        <ele>330.3502197265625</ele>
        <time>2004-11-07T09:17:30Z</time>
      </trkpt>
      <trkpt lat="43.065605023875833" lon="11.68376550078392">
        <ele>328.9083251953125</ele>
        <time>2004-11-07T09:17:31Z</time>
      </trkpt>
      <trkpt lat="43.065560851246119" lon="11.683619907125831">
        <ele>327.4661865234375</ele>
        <time>2004-11-07T09:17:32Z</time>
      </trkpt>
      <trkpt lat="43.065511733293533" lon="11.683474145829678">
        <ele>326.985595703125</ele>
        <time>2004-11-07T09:17:33Z</time>
      </trkpt>
      <trkpt lat="43.065462363883853" lon="11.683328384533525">
        <ele>326.024169921875</ele>
        <time>2004-11-07T09:17:34Z</time>
      </trkpt>
      <trkpt lat="43.065411485731602" lon="11.683183461427689">
        <ele>325.5435791015625</ele>
        <time>2004-11-07T09:17:35Z</time>
      </trkpt>
      <trkpt lat="43.065357757732272" lon="11.683040801435709">
        <ele>325.06298828125</ele>
        <time>2004-11-07T09:17:36Z</time>
      </trkpt>
      <trkpt lat="43.065305538475513" lon="11.682898141443729">
        <ele>324.582275390625</ele>
        <time>2004-11-07T09:17:37Z</time>
      </trkpt>
      <trkpt lat="43.065255917608738" lon="11.682762103155255">
        <ele>324.582275390625</ele>
        <time>2004-11-07T09:17:38Z</time>
      </trkpt>
      <trkpt lat="43.06520814076066" lon="11.682632267475128">
        <ele>323.6209716796875</ele>
        <time>2004-11-07T09:17:39Z</time>
      </trkpt>
      <trkpt lat="43.065164051949978" lon="11.682510059326887">
        <ele>323.140380859375</ele>
        <time>2004-11-07T09:17:40Z</time>
      </trkpt>
      <trkpt lat="43.065123315900564" lon="11.682392125949264">
        <ele>322.65966796875</ele>
        <time>2004-11-07T09:17:41Z</time>
      </trkpt>
      <trkpt lat="43.065082412213087" lon="11.682273438200355">
        <ele>322.65966796875</ele>
        <time>2004-11-07T09:17:42Z</time>
      </trkpt>
      <trkpt lat="43.065041843801737" lon="11.682156091555953">
        <ele>322.178955078125</ele>
        <time>2004-11-07T09:17:43Z</time>
      </trkpt>
      <trkpt lat="43.065000185742974" lon="11.682038493454456">
        <ele>322.178955078125</ele>
        <time>2004-11-07T09:17:44Z</time>
      </trkpt>
      <trkpt lat="43.064961461350322" lon="11.681933468207717">
        <ele>322.178955078125</ele>
        <time>2004-11-07T09:17:45Z</time>
      </trkpt>
      <trkpt lat="43.064904464408755" lon="11.681767674162984">
        <ele>321.2177734375</ele>
        <time>2004-11-07T09:17:47Z</time>
      </trkpt>
      <trkpt lat="43.064864231273532" lon="11.681630210950971">
        <ele>320.737060546875</ele>
        <time>2004-11-07T09:17:49Z</time>
      </trkpt>
      <trkpt lat="43.064821232110262" lon="11.681499620899558">
        <ele>319.775634765625</ele>
        <time>2004-11-07T09:17:52Z</time>
      </trkpt>
      <trkpt lat="43.06479281745851" lon="11.681405492126942">
        <ele>319.775634765625</ele>
        <time>2004-11-07T09:17:57Z</time>
      </trkpt>
      <trkpt lat="43.064771359786391" lon="11.68129401281476">
        <ele>319.775634765625</ele>
        <time>2004-11-07T09:19:56Z</time>
      </trkpt>
      <trkpt lat="43.06478938087821" lon="11.681231819093227">
        <ele>320.737060546875</ele>
        <time>2004-11-07T09:21:05Z</time>
      </trkpt>
      <trkpt lat="43.06488124653697" lon="11.681212540715933">
        <ele>320.737060546875</ele>
        <time>2004-11-07T09:21:15Z</time>
      </trkpt>
      <trkpt lat="43.064988367259502" lon="11.681212037801743">
        <ele>320.737060546875</ele>
        <time>2004-11-07T09:21:21Z</time>
      </trkpt>
      <trkpt lat="43.065091213211417" lon="11.681205332279205">
        <ele>320.737060546875</ele>
        <time>2004-11-07T09:21:26Z</time>
      </trkpt>
      <trkpt lat="43.065198082476854" lon="11.681201560422778">
        <ele>321.2177734375</ele>
        <time>2004-11-07T09:21:31Z</time>
      </trkpt>
      <trkpt lat="43.065310986712575" lon="11.681185802444816">
        <ele>322.178955078125</ele>
        <time>2004-11-07T09:21:35Z</time>
      </trkpt>
      <trkpt lat="43.065415928140283" lon="11.681166775524616">
        <ele>322.65966796875</ele>
        <time>2004-11-07T09:21:39Z</time>
      </trkpt>
      <trkpt lat="43.065530089661479" lon="11.6811503469944">
        <ele>322.65966796875</ele>
        <time>2004-11-07T09:21:43Z</time>
      </trkpt>
      <trkpt lat="43.065618937835097" lon="11.681140540167689">
        <ele>323.140380859375</ele>
        <time>2004-11-07T09:21:46Z</time>
      </trkpt>
      <trkpt lat="43.065714742988348" lon="11.681128554046154">
        <ele>322.65966796875</ele>
        <time>2004-11-07T09:21:49Z</time>
      </trkpt>
      <trkpt lat="43.065802501514554" lon="11.681110952049494">
        <ele>322.65966796875</ele>
        <time>2004-11-07T09:21:52Z</time>
      </trkpt>
      <trkpt lat="43.065909035503864" lon="11.681091170758009">
        <ele>324.582275390625</ele>
        <time>2004-11-07T09:21:56Z</time>
      </trkpt>
      <trkpt lat="43.066009869799018" lon="11.681046998128295">
        <ele>325.5435791015625</ele>
        <time>2004-11-07T09:22:00Z</time>
      </trkpt>
      <trkpt lat="43.066110284999013" lon="11.680997544899583">
        <ele>326.024169921875</ele>
        <time>2004-11-07T09:22:04Z</time>
      </trkpt>
      <trkpt lat="43.066167030483484" lon="11.680863350629807">
        <ele>326.5048828125</ele>
        <time>2004-11-07T09:22:08Z</time>
      </trkpt>
      <trkpt lat="43.066175663843751" lon="11.680697808042169">
        <ele>327.4661865234375</ele>
        <time>2004-11-07T09:22:12Z</time>
      </trkpt>
      <trkpt lat="43.06615948677063" lon="11.680565793067217">
        <ele>327.4661865234375</ele>
        <time>2004-11-07T09:22:15Z</time>
      </trkpt>
      <trkpt lat="43.066139789298177" lon="11.680440064519644">
        <ele>328.9083251953125</ele>
        <time>2004-11-07T09:22:18Z</time>
      </trkpt>
      <trkpt lat="43.066116571426392" lon="11.680281395092607">
        <ele>328.9083251953125</ele>
        <time>2004-11-07T09:22:22Z</time>
      </trkpt>
      <trkpt lat="43.066078936681151" lon="11.68011886999011">
        <ele>329.8695068359375</ele>
        <time>2004-11-07T09:22:26Z</time>
      </trkpt>
      <trkpt lat="43.066054042428732" lon="11.679968247190118">
        <ele>330.3502197265625</ele>
        <time>2004-11-07T09:22:30Z</time>
      </trkpt>
      <trkpt lat="43.066019341349602" lon="11.679819719865918">
        <ele>331.3115234375</ele>
        <time>2004-11-07T09:22:34Z</time>
      </trkpt>
      <trkpt lat="43.065977850928903" lon="11.679672198370099">
        <ele>331.3115234375</ele>
        <time>2004-11-07T09:22:38Z</time>
      </trkpt>
      <trkpt lat="43.065928732976317" lon="11.67952761054039">
        <ele>332.2728271484375</ele>
        <time>2004-11-07T09:22:42Z</time>
      </trkpt>
      <trkpt lat="43.065875424072146" lon="11.679390566423535">
        <ele>333.234130859375</ele>
        <time>2004-11-07T09:22:46Z</time>
      </trkpt>
      <trkpt lat="43.065819097682834" lon="11.679254360496998">
        <ele>333.7147216796875</ele>
        <time>2004-11-07T09:22:50Z</time>
      </trkpt>
      <trkpt lat="43.065772745758295" lon="11.679108766838908">
        <ele>334.6761474609375</ele>
        <time>2004-11-07T09:22:54Z</time>
      </trkpt>
      <trkpt lat="43.065743241459131" lon="11.678953785449266">
        <ele>335.15673828125</ele>
        <time>2004-11-07T09:22:58Z</time>
      </trkpt>
      <trkpt lat="43.0657465942204" lon="11.678802240639925">
        <ele>336.1181640625</ele>
        <time>2004-11-07T09:23:02Z</time>
      </trkpt>
      <trkpt lat="43.06577836163342" lon="11.678663771599531">
        <ele>337.0794677734375</ele>
        <time>2004-11-07T09:23:06Z</time>
      </trkpt>
      <trkpt lat="43.06581255979836" lon="11.678523374721408">
        <ele>337.56005859375</ele>
        <time>2004-11-07T09:23:10Z</time>
      </trkpt>
      <trkpt lat="43.065862096846104" lon="11.678390353918076">
        <ele>338.040771484375</ele>
        <time>2004-11-07T09:23:14Z</time>
      </trkpt>
      <trkpt lat="43.065914064645767" lon="11.678252806887031">
        <ele>338.521484375</ele>
        <time>2004-11-07T09:23:18Z</time>
      </trkpt>
      <trkpt lat="43.065986065194011" lon="11.678131772205234">
        <ele>339.96337890625</ele>
        <time>2004-11-07T09:23:22Z</time>
      </trkpt>
      <trkpt lat="43.066072566434741" lon="11.678027920424938">
        <ele>341.4052734375</ele>
        <time>2004-11-07T09:23:26Z</time>
      </trkpt>
      <trkpt lat="43.066170131787658" lon="11.67797033675015">
        <ele>341.4052734375</ele>
        <time>2004-11-07T09:23:30Z</time>
      </trkpt>
      <trkpt lat="43.066272977739573" lon="11.677948040887713">
        <ele>342.36669921875</ele>
        <time>2004-11-07T09:23:34Z</time>
      </trkpt>
      <trkpt lat="43.066378254443407" lon="11.677956003695726">
        <ele>343.327880859375</ele>
        <time>2004-11-07T09:23:38Z</time>
      </trkpt>
      <trkpt lat="43.066471880301833" lon="11.677992884069681">
        <ele>344.2894287109375</ele>
        <time>2004-11-07T09:23:42Z</time>
      </trkpt>
      <trkpt lat="43.066561231389642" lon="11.678051054477692">
        <ele>344.77001953125</ele>
        <time>2004-11-07T09:23:46Z</time>
      </trkpt>
      <trkpt lat="43.066650498658419" lon="11.678113248199224">
        <ele>345.7313232421875</ele>
        <time>2004-11-07T09:23:50Z</time>
      </trkpt>
      <trkpt lat="43.066738592460752" lon="11.678182315081358">
        <ele>346.692626953125</ele>
        <time>2004-11-07T09:23:54Z</time>
      </trkpt>
      <trkpt lat="43.066821657121181" lon="11.678248951211572">
        <ele>347.1732177734375</ele>
        <time>2004-11-07T09:23:58Z</time>
      </trkpt>
      <trkpt lat="43.066906398162246" lon="11.678308295086026">
        <ele>347.1732177734375</ele>
        <time>2004-11-07T09:24:02Z</time>
      </trkpt>
      <trkpt lat="43.06699063628912" lon="11.678361352533102">
        <ele>347.6539306640625</ele>
        <time>2004-11-07T09:24:06Z</time>
      </trkpt>
      <trkpt lat="43.067076383158565" lon="11.678405106067657">
        <ele>348.1346435546875</ele>
        <time>2004-11-07T09:24:10Z</time>
      </trkpt>
      <trkpt lat="43.067173948511481" lon="11.678454475477338">
        <ele>348.1346435546875</ele>
        <time>2004-11-07T09:24:14Z</time>
      </trkpt>
      <trkpt lat="43.067274698987603" lon="11.678495798259974">
        <ele>349.5765380859375</ele>
        <time>2004-11-07T09:24:18Z</time>
      </trkpt>
      <trkpt lat="43.067370168864727" lon="11.67853619903326">
        <ele>350.0572509765625</ele>
        <time>2004-11-07T09:24:22Z</time>
      </trkpt>
      <trkpt lat="43.067472008988261" lon="11.678564110770822">
        <ele>351.0184326171875</ele>
        <time>2004-11-07T09:24:26Z</time>
      </trkpt>
      <trkpt lat="43.067572256550193" lon="11.678594034165144">
        <ele>351.9798583984375</ele>
        <time>2004-11-07T09:24:30Z</time>
      </trkpt>
      <trkpt lat="43.067663284018636" lon="11.67862756177783">
        <ele>352.941162109375</ele>
        <time>2004-11-07T09:24:34Z</time>
      </trkpt>
      <trkpt lat="43.067784151062369" lon="11.678637117147446">
        <ele>354.3831787109375</ele>
        <time>2004-11-07T09:24:39Z</time>
      </trkpt>
      <trkpt lat="43.06788481771946" lon="11.678616413846612">
        <ele>354.86376953125</ele>
        <time>2004-11-07T09:24:43Z</time>
      </trkpt>
      <trkpt lat="43.067985568195581" lon="11.678581964224577">
        <ele>356.3057861328125</ele>
        <time>2004-11-07T09:24:47Z</time>
      </trkpt>
      <trkpt lat="43.068068297579885" lon="11.678515831008554">
        <ele>355.8251953125</ele>
        <time>2004-11-07T09:24:51Z</time>
      </trkpt>
      <trkpt lat="43.068150943145156" lon="11.67846143245697">
        <ele>358.2283935546875</ele>
        <time>2004-11-07T09:24:55Z</time>
      </trkpt>
      <trkpt lat="43.068260662257671" lon="11.678423210978508">
        <ele>358.708984375</ele>
        <time>2004-11-07T09:25:00Z</time>
      </trkpt>
      <trkpt lat="43.068370297551155" lon="11.678406279534101">
        <ele>359.189697265625</ele>
        <time>2004-11-07T09:25:05Z</time>
      </trkpt>
      <trkpt lat="43.068463085219264" lon="11.678418852388859">
        <ele>360.151123046875</ele>
        <time>2004-11-07T09:25:10Z</time>
      </trkpt>
      <trkpt lat="43.068553609773517" lon="11.678388845175505">
        <ele>360.6317138671875</ele>
        <time>2004-11-07T09:25:16Z</time>
      </trkpt>
      <trkpt lat="43.068616893142462" lon="11.678288010880351">
        <ele>360.6317138671875</ele>
        <time>2004-11-07T09:25:24Z</time>
      </trkpt>
      <trkpt lat="43.068641284480691" lon="11.678240820765495">
        <ele>359.67041015625</ele>
        <time>2004-11-07T09:26:17Z</time>
      </trkpt>
      <trkpt lat="43.068660562857985" lon="11.678140908479691">
        <ele>360.151123046875</ele>
        <time>2004-11-07T09:27:23Z</time>
      </trkpt>
      <trkpt lat="43.068706076592207" lon="11.678020628169179">
        <ele>359.67041015625</ele>
        <time>2004-11-07T09:28:33Z</time>
      </trkpt>
      <trkpt lat="43.068767013028264" lon="11.677874363958836">
        <ele>359.67041015625</ele>
        <time>2004-11-07T09:28:37Z</time>
      </trkpt>
      <trkpt lat="43.068823758512735" lon="11.677754921838641">
        <ele>359.67041015625</ele>
        <time>2004-11-07T09:28:40Z</time>
      </trkpt>
      <trkpt lat="43.068872960284352" lon="11.677634892985225">
        <ele>360.151123046875</ele>
        <time>2004-11-07T09:28:43Z</time>
      </trkpt>
      <trkpt lat="43.068919982761145" lon="11.677510002627969">
        <ele>360.151123046875</ele>
        <time>2004-11-07T09:28:46Z</time>
      </trkpt>
      <trkpt lat="43.068972453474998" lon="11.677388297393918">
        <ele>360.151123046875</ele>
        <time>2004-11-07T09:28:49Z</time>
      </trkpt>
      <trkpt lat="43.069020984694362" lon="11.677255360409617">
        <ele>359.67041015625</ele>
        <time>2004-11-07T09:28:52Z</time>
      </trkpt>
      <trkpt lat="43.069059792906046" lon="11.677100462839007">
        <ele>359.189697265625</ele>
        <time>2004-11-07T09:28:55Z</time>
      </trkpt>
      <trkpt lat="43.069061804562807" lon="11.676912037655711">
        <ele>358.708984375</ele>
        <time>2004-11-07T09:28:58Z</time>
      </trkpt>
      <trkpt lat="43.069022828713059" lon="11.676790164783597">
        <ele>358.2283935546875</ele>
        <time>2004-11-07T09:29:00Z</time>
      </trkpt>
      <trkpt lat="43.068963065743446" lon="11.676682205870748">
        <ele>358.2283935546875</ele>
        <time>2004-11-07T09:29:02Z</time>
      </trkpt>
      <trkpt lat="43.068889556452632" lon="11.676578437909484">
        <ele>358.2283935546875</ele>
        <time>2004-11-07T09:29:04Z</time>
      </trkpt>
      <trkpt lat="43.068804480135441" lon="11.676465114578605">
        <ele>357.747802734375</ele>
        <time>2004-11-07T09:29:06Z</time>
      </trkpt>
      <trkpt lat="43.068709764629602" lon="11.676342487335205">
        <ele>356.786376953125</ele>
        <time>2004-11-07T09:29:08Z</time>
      </trkpt>
      <trkpt lat="43.068611109629273" lon="11.676218435168266">
        <ele>355.344482421875</ele>
        <time>2004-11-07T09:29:10Z</time>
      </trkpt>
      <trkpt lat="43.068516058847308" lon="11.676092203706503">
        <ele>354.86376953125</ele>
        <time>2004-11-07T09:29:12Z</time>
      </trkpt>
      <trkpt lat="43.068420002236962" lon="11.675964212045074">
        <ele>354.86376953125</ele>
        <time>2004-11-07T09:29:14Z</time>
      </trkpt>
      <trkpt lat="43.068331740796566" lon="11.675844518467784">
        <ele>354.3831787109375</ele>
        <time>2004-11-07T09:29:16Z</time>
      </trkpt>
      <trkpt lat="43.068248676136136" lon="11.675732703879476">
        <ele>353.902587890625</ele>
        <time>2004-11-07T09:29:18Z</time>
      </trkpt>
      <trkpt lat="43.068167874589562" lon="11.675618961453438">
        <ele>353.902587890625</ele>
        <time>2004-11-07T09:29:20Z</time>
      </trkpt>
      <trkpt lat="43.068082965910435" lon="11.675496585667133">
        <ele>352.941162109375</ele>
        <time>2004-11-07T09:29:22Z</time>
      </trkpt>
      <trkpt lat="43.067988585680723" lon="11.675370773300529">
        <ele>352.941162109375</ele>
        <time>2004-11-07T09:29:24Z</time>
      </trkpt>
      <trkpt lat="43.067887919023633" lon="11.675250073894858">
        <ele>352.4605712890625</ele>
        <time>2004-11-07T09:29:26Z</time>
      </trkpt>
      <trkpt lat="43.067769734188914" lon="11.675154101103544">
        <ele>351.0184326171875</ele>
        <time>2004-11-07T09:29:28Z</time>
      </trkpt>
      <trkpt lat="43.067638222128153" lon="11.675079334527254">
        <ele>350.0572509765625</ele>
        <time>2004-11-07T09:29:30Z</time>
      </trkpt>
      <trkpt lat="43.067495813593268" lon="11.675005154684186">
        <ele>349.5765380859375</ele>
        <time>2004-11-07T09:29:32Z</time>
      </trkpt>
      <trkpt lat="43.067344771698117" lon="11.674927957355976">
        <ele>348.1346435546875</ele>
        <time>2004-11-07T09:29:34Z</time>
      </trkpt>
      <trkpt lat="43.067183252424002" lon="11.674845982342958">
        <ele>346.2120361328125</ele>
        <time>2004-11-07T09:29:36Z</time>
      </trkpt>
      <trkpt lat="43.06709767319262" lon="11.674802396446466">
        <ele>345.7313232421875</ele>
        <time>2004-11-07T09:29:37Z</time>
      </trkpt>
      <trkpt lat="43.067013770341873" lon="11.674759648740292">
        <ele>345.2506103515625</ele>
        <time>2004-11-07T09:29:38Z</time>
      </trkpt>
      <trkpt lat="43.066878402605653" lon="11.674655461683869">
        <ele>343.80859375</ele>
        <time>2004-11-07T09:29:40Z</time>
      </trkpt>
      <trkpt lat="43.066784860566258" lon="11.674485895782709">
        <ele>344.2894287109375</ele>
        <time>2004-11-07T09:29:42Z</time>
      </trkpt>
      <trkpt lat="43.06672677397728" lon="11.674282299354672">
        <ele>341.885986328125</ele>
        <time>2004-11-07T09:29:44Z</time>
      </trkpt>
      <trkpt lat="43.066676901653409" lon="11.674058418720961">
        <ele>339.96337890625</ele>
        <time>2004-11-07T09:29:46Z</time>
      </trkpt>
      <trkpt lat="43.066616216674447" lon="11.673878123983741">
        <ele>339.482666015625</ele>
        <time>2004-11-07T09:29:48Z</time>
      </trkpt>
      <trkpt lat="43.066553352400661" lon="11.673737978562713">
        <ele>339.0020751953125</ele>
        <time>2004-11-07T09:29:50Z</time>
      </trkpt>
      <trkpt lat="43.066502558067441" lon="11.673602862283587">
        <ele>338.040771484375</ele>
        <time>2004-11-07T09:29:52Z</time>
      </trkpt>
      <trkpt lat="43.066502725705504" lon="11.67345835827291">
        <ele>337.0794677734375</ele>
        <time>2004-11-07T09:29:54Z</time>
      </trkpt>
      <trkpt lat="43.066549329087138" lon="11.673317542299628">
        <ele>336.598876953125</ele>
        <time>2004-11-07T09:29:56Z</time>
      </trkpt>
      <trkpt lat="43.066616216674447" lon="11.67318276129663">
        <ele>335.15673828125</ele>
        <time>2004-11-07T09:29:58Z</time>
      </trkpt>
      <trkpt lat="43.066679751500487" lon="11.673045298084617">
        <ele>334.6761474609375</ele>
        <time>2004-11-07T09:30:00Z</time>
      </trkpt>
      <trkpt lat="43.066713362932205" lon="11.67290817014873">
        <ele>333.234130859375</ele>
        <time>2004-11-07T09:30:02Z</time>
      </trkpt>
      <trkpt lat="43.066693330183625" lon="11.67275863699615">
        <ele>330.3502197265625</ele>
        <time>2004-11-07T09:30:04Z</time>
      </trkpt>
      <trkpt lat="43.066615127027035" lon="11.672648331150413">
        <ele>328.9083251953125</ele>
        <time>2004-11-07T09:30:06Z</time>
      </trkpt>
      <trkpt lat="43.066523680463433" lon="11.672600973397493">
        <ele>327.4661865234375</ele>
        <time>2004-11-07T09:30:08Z</time>
      </trkpt>
      <trkpt lat="43.066400969401002" lon="11.672520842403173">
        <ele>326.5048828125</ele>
        <time>2004-11-07T09:30:11Z</time>
      </trkpt>
      <trkpt lat="43.066328298300505" lon="11.672398969531059">
        <ele>325.06298828125</ele>
        <time>2004-11-07T09:30:13Z</time>
      </trkpt>
      <trkpt lat="43.066274067386985" lon="11.672232169657946">
        <ele>324.1015625</ele>
        <time>2004-11-07T09:30:15Z</time>
      </trkpt>
      <trkpt lat="43.066187733784318" lon="11.672091940417886">
        <ele>322.178955078125</ele>
        <time>2004-11-07T09:30:17Z</time>
      </trkpt>
      <trkpt lat="43.066071895882487" lon="11.671987920999527">
        <ele>320.25634765625</ele>
        <time>2004-11-07T09:30:19Z</time>
      </trkpt>
      <trkpt lat="43.065952118486166" lon="11.671923799440265">
        <ele>318.8143310546875</ele>
        <time>2004-11-07T09:30:21Z</time>
      </trkpt>
      <trkpt lat="43.065824881196022" lon="11.671871412545443">
        <ele>317.3724365234375</ele>
        <time>2004-11-07T09:30:23Z</time>
      </trkpt>
      <trkpt lat="43.065705606713891" lon="11.671863617375493">
        <ele>315.930419921875</ele>
        <time>2004-11-07T09:30:25Z</time>
      </trkpt>
      <trkpt lat="43.065591780468822" lon="11.671928493306041">
        <ele>315.930419921875</ele>
        <time>2004-11-07T09:30:27Z</time>
      </trkpt>
      <trkpt lat="43.065486587584019" lon="11.672051707282662">
        <ele>314.4884033203125</ele>
        <time>2004-11-07T09:30:29Z</time>
      </trkpt>
      <trkpt lat="43.065365217626095" lon="11.672151703387499">
        <ele>313.0465087890625</ele>
        <time>2004-11-07T09:30:31Z</time>
      </trkpt>
      <trkpt lat="43.065228927880526" lon="11.672189673408866">
        <ele>311.123779296875</ele>
        <time>2004-11-07T09:30:33Z</time>
      </trkpt>
      <trkpt lat="43.065092302858829" lon="11.672125970944762">
        <ele>309.681884765625</ele>
        <time>2004-11-07T09:30:35Z</time>
      </trkpt>
      <trkpt lat="43.064955677837133" lon="11.672033602371812">
        <ele>308.2398681640625</ele>
        <time>2004-11-07T09:30:37Z</time>
      </trkpt>
      <trkpt lat="43.064813520759344" lon="11.671930504962802">
        <ele>306.7978515625</ele>
        <time>2004-11-07T09:30:39Z</time>
      </trkpt>
      <trkpt lat="43.064664574339986" lon="11.671826653182507">
        <ele>305.836669921875</ele>
        <time>2004-11-07T09:30:41Z</time>
      </trkpt>
      <trkpt lat="43.064509173855186" lon="11.671720203012228">
        <ele>304.3946533203125</ele>
        <time>2004-11-07T09:30:43Z</time>
      </trkpt>
      <trkpt lat="43.064349079504609" lon="11.671614674851298">
        <ele>303.9139404296875</ele>
        <time>2004-11-07T09:30:45Z</time>
      </trkpt>
      <trkpt lat="43.064267439767718" lon="11.671561365947127">
        <ele>303.4332275390625</ele>
        <time>2004-11-07T09:30:46Z</time>
      </trkpt>
      <trkpt lat="43.064185548573732" lon="11.671507889404893">
        <ele>302.9525146484375</ele>
        <time>2004-11-07T09:30:47Z</time>
      </trkpt>
      <trkpt lat="43.064103657379746" lon="11.671453574672341">
        <ele>302.9525146484375</ele>
        <time>2004-11-07T09:30:48Z</time>
      </trkpt>
      <trkpt lat="43.064021347090602" lon="11.671399930492043">
        <ele>302.471923828125</ele>
        <time>2004-11-07T09:30:49Z</time>
      </trkpt>
      <trkpt lat="43.063938533887267" lon="11.671346789225936">
        <ele>302.471923828125</ele>
        <time>2004-11-07T09:30:50Z</time>
      </trkpt>
      <trkpt lat="43.063855972141027" lon="11.671292977407575">
        <ele>302.471923828125</ele>
        <time>2004-11-07T09:30:51Z</time>
      </trkpt>
      <trkpt lat="43.063774416223168" lon="11.671237321570516">
        <ele>301.0299072265625</ele>
        <time>2004-11-07T09:30:52Z</time>
      </trkpt>
      <trkpt lat="43.063615160062909" lon="11.671127351000905">
        <ele>301.5106201171875</ele>
        <time>2004-11-07T09:30:54Z</time>
      </trkpt>
      <trkpt lat="43.06345833465457" lon="11.671018805354834">
        <ele>301.5106201171875</ele>
        <time>2004-11-07T09:30:56Z</time>
      </trkpt>
      <trkpt lat="43.063303856179118" lon="11.670913780108094">
        <ele>300.0687255859375</ele>
        <time>2004-11-07T09:30:58Z</time>
      </trkpt>
      <trkpt lat="43.063151724636555" lon="11.670809760689735">
        <ele>299.5880126953125</ele>
        <time>2004-11-07T09:31:00Z</time>
      </trkpt>
      <trkpt lat="43.063000263646245" lon="11.670707417652011">
        <ele>299.5880126953125</ele>
        <time>2004-11-07T09:31:02Z</time>
      </trkpt>
      <trkpt lat="43.062849221751094" lon="11.670608511194587">
        <ele>299.5880126953125</ele>
        <time>2004-11-07T09:31:04Z</time>
      </trkpt>
      <trkpt lat="43.062701867893338" lon="11.670503737404943">
        <ele>298.626708984375</ele>
        <time>2004-11-07T09:31:06Z</time>
      </trkpt>
      <trkpt lat="43.0625587888062" lon="11.67040541768074">
        <ele>298.1461181640625</ele>
        <time>2004-11-07T09:31:08Z</time>
      </trkpt>
      <trkpt lat="43.062419733032584" lon="11.67031011544168">
        <ele>298.1461181640625</ele>
        <time>2004-11-07T09:31:10Z</time>
      </trkpt>
      <trkpt lat="43.062281683087349" lon="11.670215651392937">
        <ele>297.1846923828125</ele>
        <time>2004-11-07T09:31:12Z</time>
      </trkpt>
      <trkpt lat="43.062143297865987" lon="11.670122276991606">
        <ele>297.1846923828125</ele>
        <time>2004-11-07T09:31:14Z</time>
      </trkpt>
      <trkpt lat="43.062007259577513" lon="11.670029237866402">
        <ele>297.1846923828125</ele>
        <time>2004-11-07T09:31:16Z</time>
      </trkpt>
      <trkpt lat="43.061871808022261" lon="11.669930834323168">
        <ele>297.1846923828125</ele>
        <time>2004-11-07T09:31:18Z</time>
      </trkpt>
      <trkpt lat="43.061740044504404" lon="11.66982782073319">
        <ele>296.7041015625</ele>
        <time>2004-11-07T09:31:20Z</time>
      </trkpt>
      <trkpt lat="43.061613477766514" lon="11.66971692815423">
        <ele>296.2235107421875</ele>
        <time>2004-11-07T09:31:22Z</time>
      </trkpt>
      <trkpt lat="43.061489844694734" lon="11.669603604823351">
        <ele>295.74267578125</ele>
        <time>2004-11-07T09:31:24Z</time>
      </trkpt>
      <trkpt lat="43.061367971822619" lon="11.669488605111837">
        <ele>295.74267578125</ele>
        <time>2004-11-07T09:31:26Z</time>
      </trkpt>
      <trkpt lat="43.061247188597918" lon="11.669370587915182">
        <ele>295.261962890625</ele>
        <time>2004-11-07T09:31:28Z</time>
      </trkpt>
      <trkpt lat="43.061130596324801" lon="11.669249553233385">
        <ele>295.261962890625</ele>
        <time>2004-11-07T09:31:30Z</time>
      </trkpt>
      <trkpt lat="43.061034791171551" lon="11.669104713946581">
        <ele>295.261962890625</ele>
        <time>2004-11-07T09:31:32Z</time>
      </trkpt>
      <trkpt lat="43.060959437862039" lon="11.668934561312199">
        <ele>295.261962890625</ele>
        <time>2004-11-07T09:31:34Z</time>
      </trkpt>
      <trkpt lat="43.060906548053026" lon="11.668741693720222">
        <ele>294.7813720703125</ele>
        <time>2004-11-07T09:31:36Z</time>
      </trkpt>
      <trkpt lat="43.060857262462378" lon="11.668554777279496">
        <ele>294.30078125</ele>
        <time>2004-11-07T09:31:38Z</time>
      </trkpt>
      <trkpt lat="43.060823148116469" lon="11.668378170579672">
        <ele>293.820068359375</ele>
        <time>2004-11-07T09:31:40Z</time>
      </trkpt>
      <trkpt lat="43.06078408844769" lon="11.668214304372668">
        <ele>294.30078125</ele>
        <time>2004-11-07T09:31:42Z</time>
      </trkpt>
      <trkpt lat="43.060744274407625" lon="11.668056305497885">
        <ele>293.820068359375</ele>
        <time>2004-11-07T09:31:44Z</time>
      </trkpt>
      <trkpt lat="43.060706974938512" lon="11.667904173955321">
        <ele>293.820068359375</ele>
        <time>2004-11-07T09:31:46Z</time>
      </trkpt>
      <trkpt lat="43.060670429840684" lon="11.667754808440804">
        <ele>293.820068359375</ele>
        <time>2004-11-07T09:31:48Z</time>
      </trkpt>
      <trkpt lat="43.060635896399617" lon="11.667610555887222">
        <ele>293.820068359375</ele>
        <time>2004-11-07T09:31:50Z</time>
      </trkpt>
      <trkpt lat="43.060600943863392" lon="11.667466973885894">
        <ele>294.30078125</ele>
        <time>2004-11-07T09:31:52Z</time>
      </trkpt>
      <trkpt lat="43.060568002983928" lon="11.667323056608438">
        <ele>295.261962890625</ele>
        <time>2004-11-07T09:31:54Z</time>
      </trkpt>
      <trkpt lat="43.060531793162227" lon="11.667180983349681">
        <ele>295.261962890625</ele>
        <time>2004-11-07T09:31:56Z</time>
      </trkpt>
      <trkpt lat="43.060495080426335" lon="11.667039915919304">
        <ele>295.261962890625</ele>
        <time>2004-11-07T09:31:58Z</time>
      </trkpt>
      <trkpt lat="43.060460211709142" lon="11.66690094396472">
        <ele>295.261962890625</ele>
        <time>2004-11-07T09:32:00Z</time>
      </trkpt>
      <trkpt lat="43.060423079878092" lon="11.666760127991438">
        <ele>295.74267578125</ele>
        <time>2004-11-07T09:32:02Z</time>
      </trkpt>
      <trkpt lat="43.060384774580598" lon="11.666620569303632">
        <ele>296.7041015625</ele>
        <time>2004-11-07T09:32:04Z</time>
      </trkpt>
      <trkpt lat="43.060341021046042" lon="11.666486794129014">
        <ele>296.2235107421875</ele>
        <time>2004-11-07T09:32:06Z</time>
      </trkpt>
      <trkpt lat="43.060292322188616" lon="11.666363496333361">
        <ele>296.7041015625</ele>
        <time>2004-11-07T09:32:08Z</time>
      </trkpt>
      <trkpt lat="43.060230715200305" lon="11.666253190487623">
        <ele>296.2235107421875</ele>
        <time>2004-11-07T09:32:10Z</time>
      </trkpt>
      <trkpt lat="43.060159888118505" lon="11.666146907955408">
        <ele>296.2235107421875</ele>
        <time>2004-11-07T09:32:12Z</time>
      </trkpt>
      <trkpt lat="43.060084115713835" lon="11.666033752262592">
        <ele>295.74267578125</ele>
        <time>2004-11-07T09:32:14Z</time>
      </trkpt>
      <trkpt lat="43.060008930042386" lon="11.665914561599493">
        <ele>295.261962890625</ele>
        <time>2004-11-07T09:32:16Z</time>
      </trkpt>
      <trkpt lat="43.059927290305495" lon="11.665794616565108">
        <ele>295.261962890625</ele>
        <time>2004-11-07T09:32:18Z</time>
      </trkpt>
      <trkpt lat="43.059839867055416" lon="11.66567450389266">
        <ele>295.261962890625</ele>
        <time>2004-11-07T09:32:20Z</time>
      </trkpt>
      <trkpt lat="43.059751857072115" lon="11.665549026802182">
        <ele>294.7813720703125</ele>
        <time>2004-11-07T09:32:22Z</time>
      </trkpt>
      <trkpt lat="43.059662841260433" lon="11.665424052625895">
        <ele>294.7813720703125</ele>
        <time>2004-11-07T09:32:24Z</time>
      </trkpt>
      <trkpt lat="43.059575418010354" lon="11.665300503373146">
        <ele>294.30078125</ele>
        <time>2004-11-07T09:32:26Z</time>
      </trkpt>
      <trkpt lat="43.059489000588655" lon="11.665178127586842">
        <ele>294.30078125</ele>
        <time>2004-11-07T09:32:28Z</time>
      </trkpt>
      <trkpt lat="43.059402583166957" lon="11.665054662153125">
        <ele>294.30078125</ele>
        <time>2004-11-07T09:32:30Z</time>
      </trkpt>
      <trkpt lat="43.059316501021385" lon="11.664933962747455">
        <ele>294.30078125</ele>
        <time>2004-11-07T09:32:32Z</time>
      </trkpt>
      <trkpt lat="43.059231927618384" lon="11.664817119017243">
        <ele>294.30078125</ele>
        <time>2004-11-07T09:32:34Z</time>
      </trkpt>
      <trkpt lat="43.059149449691176" lon="11.664704466238618">
        <ele>294.7813720703125</ele>
        <time>2004-11-07T09:32:36Z</time>
      </trkpt>
      <trkpt lat="43.059067390859127" lon="11.664592064917088">
        <ele>294.7813720703125</ele>
        <time>2004-11-07T09:32:38Z</time>
      </trkpt>
      <trkpt lat="43.058987259864807" lon="11.66447882540524">
        <ele>294.7813720703125</ele>
        <time>2004-11-07T09:32:40Z</time>
      </trkpt>
      <trkpt lat="43.058901429176331" lon="11.664369273930788">
        <ele>294.7813720703125</ele>
        <time>2004-11-07T09:32:42Z</time>
      </trkpt>
      <trkpt lat="43.058815347030759" lon="11.664258800446987">
        <ele>294.30078125</ele>
        <time>2004-11-07T09:32:44Z</time>
      </trkpt>
      <trkpt lat="43.058729348704219" lon="11.66414313018322">
        <ele>293.820068359375</ele>
        <time>2004-11-07T09:32:46Z</time>
      </trkpt>
      <trkpt lat="43.058638153597713" lon="11.664023604243994">
        <ele>293.33935546875</ele>
        <time>2004-11-07T09:32:48Z</time>
      </trkpt>
      <trkpt lat="43.05853983387351" lon="11.663893265649676">
        <ele>292.8587646484375</ele>
        <time>2004-11-07T09:32:50Z</time>
      </trkpt>
      <trkpt lat="43.058434640988708" lon="11.66375370696187">
        <ele>291.416748046875</ele>
        <time>2004-11-07T09:32:52Z</time>
      </trkpt>
      <trkpt lat="43.058323999866843" lon="11.663607442751527">
        <ele>290.45556640625</ele>
        <time>2004-11-07T09:32:54Z</time>
      </trkpt>
      <trkpt lat="43.058209419250488" lon="11.663455227389932">
        <ele>289.494140625</ele>
        <time>2004-11-07T09:32:56Z</time>
      </trkpt>
      <trkpt lat="43.058088216930628" lon="11.663296306505799">
        <ele>288.532958984375</ele>
        <time>2004-11-07T09:32:58Z</time>
      </trkpt>
      <trkpt lat="43.057963494211435" lon="11.663132859393954">
        <ele>287.5714111328125</ele>
        <time>2004-11-07T09:33:00Z</time>
      </trkpt>
      <trkpt lat="43.057837849482894" lon="11.662970669567585">
        <ele>286.6102294921875</ele>
        <time>2004-11-07T09:33:02Z</time>
      </trkpt>
      <trkpt lat="43.057721843943" lon="11.662811413407326">
        <ele>286.6102294921875</ele>
        <time>2004-11-07T09:33:04Z</time>
      </trkpt>
      <trkpt lat="43.057610196992755" lon="11.66265232488513">
        <ele>286.6102294921875</ele>
        <time>2004-11-07T09:33:06Z</time>
      </trkpt>
      <trkpt lat="43.057500477880239" lon="11.662506395950913">
        <ele>286.6102294921875</ele>
        <time>2004-11-07T09:33:08Z</time>
      </trkpt>
      <trkpt lat="43.057393860071898" lon="11.662370357662439">
        <ele>286.6102294921875</ele>
        <time>2004-11-07T09:33:10Z</time>
      </trkpt>
      <trkpt lat="43.057290175929666" lon="11.662236917763948">
        <ele>286.6102294921875</ele>
        <time>2004-11-07T09:33:12Z</time>
      </trkpt>
      <trkpt lat="43.057191018015146" lon="11.662103226408362">
        <ele>286.6102294921875</ele>
        <time>2004-11-07T09:33:14Z</time>
      </trkpt>
      <trkpt lat="43.057093285024166" lon="11.661968948319554">
        <ele>286.1295166015625</ele>
        <time>2004-11-07T09:33:16Z</time>
      </trkpt>
      <trkpt lat="43.056989936158061" lon="11.661841375753284">
        <ele>286.1295166015625</ele>
        <time>2004-11-07T09:33:18Z</time>
      </trkpt>
      <trkpt lat="43.056884156540036" lon="11.661715982481837">
        <ele>286.1295166015625</ele>
        <time>2004-11-07T09:33:20Z</time>
      </trkpt>
      <trkpt lat="43.056772761046886" lon="11.661598803475499">
        <ele>286.1295166015625</ele>
        <time>2004-11-07T09:33:22Z</time>
      </trkpt>
      <trkpt lat="43.056647116318345" lon="11.661521941423416">
        <ele>286.1295166015625</ele>
        <time>2004-11-07T09:33:24Z</time>
      </trkpt>
      <trkpt lat="43.05650906637311" lon="11.661480702459812">
        <ele>285.6488037109375</ele>
        <time>2004-11-07T09:33:26Z</time>
      </trkpt>
      <trkpt lat="43.056378979235888" lon="11.661451617255807">
        <ele>285.6488037109375</ele>
        <time>2004-11-07T09:33:28Z</time>
      </trkpt>
      <trkpt lat="43.056251909583807" lon="11.661432087421417">
        <ele>285.6488037109375</ele>
        <time>2004-11-07T09:33:30Z</time>
      </trkpt>
      <trkpt lat="43.056159624829888" lon="11.66139654815197">
        <ele>285.6488037109375</ele>
        <time>2004-11-07T09:33:32Z</time>
      </trkpt>
      <trkpt lat="43.056058622896671" lon="11.661362014710903">
        <ele>285.6488037109375</ele>
        <time>2004-11-07T09:33:34Z</time>
      </trkpt>
      <trkpt lat="43.055958123877645" lon="11.661340221762657">
        <ele>285.6488037109375</ele>
        <time>2004-11-07T09:33:36Z</time>
      </trkpt>
      <trkpt lat="43.055860223248601" lon="11.661316333338618">
        <ele>285.6488037109375</ele>
        <time>2004-11-07T09:33:38Z</time>
      </trkpt>
      <trkpt lat="43.05575461126864" lon="11.661294456571341">
        <ele>286.1295166015625</ele>
        <time>2004-11-07T09:33:40Z</time>
      </trkpt>
      <trkpt lat="43.055606754496694" lon="11.661271071061492">
        <ele>286.1295166015625</ele>
        <time>2004-11-07T09:33:43Z</time>
      </trkpt>
      <trkpt lat="43.055507512763143" lon="11.661256570369005">
        <ele>286.1295166015625</ele>
        <time>2004-11-07T09:33:45Z</time>
      </trkpt>
      <trkpt lat="43.055406678467989" lon="11.661246092990041">
        <ele>286.6102294921875</ele>
        <time>2004-11-07T09:33:47Z</time>
      </trkpt>
      <trkpt lat="43.055315148085356" lon="11.66121281683445">
        <ele>287.0908203125</ele>
        <time>2004-11-07T09:33:49Z</time>
      </trkpt>
      <trkpt lat="43.055222611874342" lon="11.661174679175019">
        <ele>287.0908203125</ele>
        <time>2004-11-07T09:33:51Z</time>
      </trkpt>
      <trkpt lat="43.055132674053311" lon="11.661131428554654">
        <ele>287.0908203125</ele>
        <time>2004-11-07T09:33:53Z</time>
      </trkpt>
      <trkpt lat="43.05504416115582" lon="11.661084657534957">
        <ele>287.5714111328125</ele>
        <time>2004-11-07T09:33:55Z</time>
      </trkpt>
      <trkpt lat="43.054957157000899" lon="11.661033863201737">
        <ele>287.5714111328125</ele>
        <time>2004-11-07T09:33:57Z</time>
      </trkpt>
      <trkpt lat="43.054873254150152" lon="11.660978542640805">
        <ele>288.05224609375</ele>
        <time>2004-11-07T09:33:59Z</time>
      </trkpt>
      <trkpt lat="43.054787926375866" lon="11.660920372232795">
        <ele>288.05224609375</ele>
        <time>2004-11-07T09:34:01Z</time>
      </trkpt>
      <trkpt lat="43.054703939706087" lon="11.66086052544415">
        <ele>288.05224609375</ele>
        <time>2004-11-07T09:34:03Z</time>
      </trkpt>
      <trkpt lat="43.054621545597911" lon="11.66079506278038">
        <ele>288.05224609375</ele>
        <time>2004-11-07T09:34:05Z</time>
      </trkpt>
      <trkpt lat="43.054539989680052" lon="11.66072859428823">
        <ele>288.532958984375</ele>
        <time>2004-11-07T09:34:07Z</time>
      </trkpt>
      <trkpt lat="43.054467234760523" lon="11.660652235150337">
        <ele>288.532958984375</ele>
        <time>2004-11-07T09:34:09Z</time>
      </trkpt>
      <trkpt lat="43.054398084059358" lon="11.660563889890909">
        <ele>288.532958984375</ele>
        <time>2004-11-07T09:34:11Z</time>
      </trkpt>
      <trkpt lat="43.054331783205271" lon="11.660463977605104">
        <ele>289.0135498046875</ele>
        <time>2004-11-07T09:34:13Z</time>
      </trkpt>
      <trkpt lat="43.054267074912786" lon="11.660358952358365">
        <ele>288.532958984375</ele>
        <time>2004-11-07T09:34:15Z</time>
      </trkpt>
      <trkpt lat="43.054204378277063" lon="11.660265745595098">
        <ele>289.0135498046875</ele>
        <time>2004-11-07T09:34:17Z</time>
      </trkpt>
      <trkpt lat="43.054122822359204" lon="11.660124426707625">
        <ele>289.0135498046875</ele>
        <time>2004-11-07T09:34:20Z</time>
      </trkpt>
      <trkpt lat="43.054048726335168" lon="11.659979335963726">
        <ele>289.0135498046875</ele>
        <time>2004-11-07T09:34:23Z</time>
      </trkpt>
      <trkpt lat="43.053998854011297" lon="11.659876573830843">
        <ele>289.0135498046875</ele>
        <time>2004-11-07T09:34:25Z</time>
      </trkpt>
      <trkpt lat="43.053936408832669" lon="11.659760735929012">
        <ele>289.494140625</ele>
        <time>2004-11-07T09:34:27Z</time>
      </trkpt>
      <trkpt lat="43.053875220939517" lon="11.659635845571756">
        <ele>289.0135498046875</ele>
        <time>2004-11-07T09:34:29Z</time>
      </trkpt>
      <trkpt lat="43.05380942299962" lon="11.659499388188124">
        <ele>289.0135498046875</ele>
        <time>2004-11-07T09:34:31Z</time>
      </trkpt>
      <trkpt lat="43.053742116317153" lon="11.659355303272605">
        <ele>288.05224609375</ele>
        <time>2004-11-07T09:34:33Z</time>
      </trkpt>
      <trkpt lat="43.053669445216656" lon="11.659200070425868">
        <ele>287.5714111328125</ele>
        <time>2004-11-07T09:34:35Z</time>
      </trkpt>
      <trkpt lat="43.053592331707478" lon="11.659036288037896">
        <ele>286.6102294921875</ele>
        <time>2004-11-07T09:34:37Z</time>
      </trkpt>
      <trkpt lat="43.05351278744638" lon="11.658866554498672">
        <ele>286.6102294921875</ele>
        <time>2004-11-07T09:34:39Z</time>
      </trkpt>
      <trkpt lat="43.053427711129189" lon="11.658692043274641">
        <ele>286.1295166015625</ele>
        <time>2004-11-07T09:34:41Z</time>
      </trkpt>
      <trkpt lat="43.053351435810328" lon="11.658518873155117">
        <ele>286.1295166015625</ele>
        <time>2004-11-07T09:34:43Z</time>
      </trkpt>
      <trkpt lat="43.053271723911166" lon="11.658352743834257">
        <ele>286.6102294921875</ele>
        <time>2004-11-07T09:34:45Z</time>
      </trkpt>
      <trkpt lat="43.053193353116512" lon="11.658188961446285">
        <ele>286.1295166015625</ele>
        <time>2004-11-07T09:34:47Z</time>
      </trkpt>
      <trkpt lat="43.053113305941224" lon="11.658029118552804">
        <ele>286.6102294921875</ele>
        <time>2004-11-07T09:34:49Z</time>
      </trkpt>
      <trkpt lat="43.053031330928206" lon="11.657880423590541">
        <ele>286.1295166015625</ele>
        <time>2004-11-07T09:34:51Z</time>
      </trkpt>
      <trkpt lat="43.052942818030715" lon="11.657741954550147">
        <ele>286.6102294921875</ele>
        <time>2004-11-07T09:34:53Z</time>
      </trkpt>
      <trkpt lat="43.052838714793324" lon="11.657634163275361">
        <ele>287.0908203125</ele>
        <time>2004-11-07T09:34:55Z</time>
      </trkpt>
      <trkpt lat="43.052730169147253" lon="11.657550847157836">
        <ele>287.0908203125</ele>
        <time>2004-11-07T09:34:57Z</time>
      </trkpt>
      <trkpt lat="43.052620114758611" lon="11.657466692849994">
        <ele>287.0908203125</ele>
        <time>2004-11-07T09:34:59Z</time>
      </trkpt>
      <trkpt lat="43.05250964127481" lon="11.657380694523454">
        <ele>286.6102294921875</ele>
        <time>2004-11-07T09:35:01Z</time>
      </trkpt>
      <trkpt lat="43.052399838343263" lon="11.657295450568199">
        <ele>286.1295166015625</ele>
        <time>2004-11-07T09:35:03Z</time>
      </trkpt>
      <trkpt lat="43.052287269383669" lon="11.657208949327469">
        <ele>286.6102294921875</ele>
        <time>2004-11-07T09:35:05Z</time>
      </trkpt>
      <trkpt lat="43.052178639918566" lon="11.657123956829309">
        <ele>285.6488037109375</ele>
        <time>2004-11-07T09:35:07Z</time>
      </trkpt>
      <trkpt lat="43.052067076787353" lon="11.65704382583499">
        <ele>286.1295166015625</ele>
        <time>2004-11-07T09:35:09Z</time>
      </trkpt>
      <trkpt lat="43.051952328532934" lon="11.656980877742171">
        <ele>286.1295166015625</ele>
        <time>2004-11-07T09:35:11Z</time>
      </trkpt>
      <trkpt lat="43.051835987716913" lon="11.656928407028317">
        <ele>285.168212890625</ele>
        <time>2004-11-07T09:35:13Z</time>
      </trkpt>
      <trkpt lat="43.051714282482862" lon="11.656883815303445">
        <ele>284.6876220703125</ele>
        <time>2004-11-07T09:35:15Z</time>
      </trkpt>
      <trkpt lat="43.051591236144304" lon="11.656846767291427">
        <ele>285.168212890625</ele>
        <time>2004-11-07T09:35:17Z</time>
      </trkpt>
      <trkpt lat="43.051467183977365" lon="11.656815251335502">
        <ele>285.168212890625</ele>
        <time>2004-11-07T09:35:19Z</time>
      </trkpt>
      <trkpt lat="43.051341036334634" lon="11.656787423416972">
        <ele>285.168212890625</ele>
        <time>2004-11-07T09:35:21Z</time>
      </trkpt>
      <trkpt lat="43.051214385777712" lon="11.65676387026906">
        <ele>284.6876220703125</ele>
        <time>2004-11-07T09:35:23Z</time>
      </trkpt>
      <trkpt lat="43.051089411601424" lon="11.656753057613969">
        <ele>284.2069091796875</ele>
        <time>2004-11-07T09:35:25Z</time>
      </trkpt>
      <trkpt lat="43.050966784358025" lon="11.656763451173902">
        <ele>284.2069091796875</ele>
        <time>2004-11-07T09:35:27Z</time>
      </trkpt>
      <trkpt lat="43.050841642543674" lon="11.656795050948858">
        <ele>284.2069091796875</ele>
        <time>2004-11-07T09:35:29Z</time>
      </trkpt>
      <trkpt lat="43.050720356404781" lon="11.656828327104449">
        <ele>284.2069091796875</ele>
        <time>2004-11-07T09:35:31Z</time>
      </trkpt>
      <trkpt lat="43.050602339208126" lon="11.656863279640675">
        <ele>283.7261962890625</ele>
        <time>2004-11-07T09:35:33Z</time>
      </trkpt>
      <trkpt lat="43.050482394173741" lon="11.656892700120807">
        <ele>283.7261962890625</ele>
        <time>2004-11-07T09:35:35Z</time>
      </trkpt>
      <trkpt lat="43.050360521301627" lon="11.656904770061374">
        <ele>283.24560546875</ele>
        <time>2004-11-07T09:35:37Z</time>
      </trkpt>
      <trkpt lat="43.05023898370564" lon="11.656897310167551">
        <ele>283.24560546875</ele>
        <time>2004-11-07T09:35:39Z</time>
      </trkpt>
      <trkpt lat="43.050121804699302" lon="11.65684450417757">
        <ele>282.7650146484375</ele>
        <time>2004-11-07T09:35:41Z</time>
      </trkpt>
      <trkpt lat="43.050011079758406" lon="11.656754147261381">
        <ele>282.2843017578125</ele>
        <time>2004-11-07T09:35:43Z</time>
      </trkpt>
      <trkpt lat="43.049903875216842" lon="11.656646188348532">
        <ele>282.2843017578125</ele>
        <time>2004-11-07T09:35:45Z</time>
      </trkpt>
      <trkpt lat="43.049801532179117" lon="11.656533284112811">
        <ele>281.8035888671875</ele>
        <time>2004-11-07T09:35:47Z</time>
      </trkpt>
      <trkpt lat="43.049693740904331" lon="11.656421888619661">
        <ele>281.8035888671875</ele>
        <time>2004-11-07T09:35:49Z</time>
      </trkpt>
      <trkpt lat="43.049582848325372" lon="11.65630848146975">
        <ele>281.322998046875</ele>
        <time>2004-11-07T09:35:51Z</time>
      </trkpt>
      <trkpt lat="43.04946843534708" lon="11.656193230301142">
        <ele>280.3616943359375</ele>
        <time>2004-11-07T09:35:53Z</time>
      </trkpt>
      <trkpt lat="43.049350837245584" lon="11.656077727675438">
        <ele>280.3616943359375</ele>
        <time>2004-11-07T09:35:55Z</time>
      </trkpt>
      <trkpt lat="43.049231059849262" lon="11.655962560325861">
        <ele>279.880859375</ele>
        <time>2004-11-07T09:35:57Z</time>
      </trkpt>
      <trkpt lat="43.04911463521421" lon="11.655847141519189">
        <ele>279.4002685546875</ele>
        <time>2004-11-07T09:35:59Z</time>
      </trkpt>
      <trkpt lat="43.049007682129741" lon="11.655740858986974">
        <ele>279.4002685546875</ele>
        <time>2004-11-07T09:36:01Z</time>
      </trkpt>
      <trkpt lat="43.048913469538093" lon="11.655650334432721">
        <ele>278.43896484375</ele>
        <time>2004-11-07T09:36:05Z</time>
      </trkpt>
      <trkpt lat="43.048842810094357" lon="11.655587051063776">
        <ele>279.4002685546875</ele>
        <time>2004-11-07T09:36:09Z</time>
      </trkpt>
      <trkpt lat="43.04875697940588" lon="11.65550172328949">
        <ele>278.919677734375</ele>
        <time>2004-11-07T09:36:13Z</time>
      </trkpt>
      <trkpt lat="43.048684308305383" lon="11.655431902036071">
        <ele>279.880859375</ele>
        <time>2004-11-07T09:36:16Z</time>
      </trkpt>
      <trkpt lat="43.048601998016238" lon="11.655360488221049">
        <ele>279.880859375</ele>
        <time>2004-11-07T09:36:19Z</time>
      </trkpt>
      <trkpt lat="43.048518849536777" lon="11.655276333913207">
        <ele>281.322998046875</ele>
        <time>2004-11-07T09:36:22Z</time>
      </trkpt>
      <trkpt lat="43.048435114324093" lon="11.655191844329238">
        <ele>281.322998046875</ele>
        <time>2004-11-07T09:36:25Z</time>
      </trkpt>
      <trkpt lat="43.048353893682361" lon="11.655108528211713">
        <ele>282.2843017578125</ele>
        <time>2004-11-07T09:36:28Z</time>
      </trkpt>
      <trkpt lat="43.048269068822265" lon="11.655024709179997">
        <ele>281.8035888671875</ele>
        <time>2004-11-07T09:36:31Z</time>
      </trkpt>
      <trkpt lat="43.048180975019932" lon="11.654931083321571">
        <ele>282.2843017578125</ele>
        <time>2004-11-07T09:36:34Z</time>
      </trkpt>
      <trkpt lat="43.048082152381539" lon="11.654832595959306">
        <ele>282.2843017578125</ele>
        <time>2004-11-07T09:36:37Z</time>
      </trkpt>
      <trkpt lat="43.04798006080091" lon="11.654729750007391">
        <ele>283.7261962890625</ele>
        <time>2004-11-07T09:36:40Z</time>
      </trkpt>
      <trkpt lat="43.047867575660348" lon="11.654640398919582">
        <ele>283.24560546875</ele>
        <time>2004-11-07T09:36:43Z</time>
      </trkpt>
      <trkpt lat="43.047742266207933" lon="11.654587760567665">
        <ele>282.7650146484375</ele>
        <time>2004-11-07T09:36:46Z</time>
      </trkpt>
      <trkpt lat="43.047652412205935" lon="11.65457334369421">
        <ele>283.24560546875</ele>
        <time>2004-11-07T09:36:48Z</time>
      </trkpt>
      <trkpt lat="43.047518217936158" lon="11.654573511332273">
        <ele>283.7261962890625</ele>
        <time>2004-11-07T09:36:51Z</time>
      </trkpt>
      <trkpt lat="43.047392573207617" lon="11.654588431119919">
        <ele>282.7650146484375</ele>
        <time>2004-11-07T09:36:54Z</time>
      </trkpt>
      <trkpt lat="43.0472725443542" lon="11.654602428898215">
        <ele>283.24560546875</ele>
        <time>2004-11-07T09:36:57Z</time>
      </trkpt>
      <trkpt lat="43.047150922939181" lon="11.654619527980685">
        <ele>282.7650146484375</ele>
        <time>2004-11-07T09:37:00Z</time>
      </trkpt>
      <trkpt lat="43.047031229361892" lon="11.654634028673172">
        <ele>283.24560546875</ele>
        <time>2004-11-07T09:37:03Z</time>
      </trkpt>
      <trkpt lat="43.046905249357224" lon="11.654654815793037">
        <ele>284.2069091796875</ele>
        <time>2004-11-07T09:37:06Z</time>
      </trkpt>
      <trkpt lat="43.046777341514826" lon="11.654661856591702">
        <ele>284.2069091796875</ele>
        <time>2004-11-07T09:37:09Z</time>
      </trkpt>
      <trkpt lat="43.046677680686116" lon="11.654685325920582">
        <ele>284.6876220703125</ele>
        <time>2004-11-07T09:37:12Z</time>
      </trkpt>
      <trkpt lat="43.046550527215004" lon="11.654683062806726">
        <ele>284.6876220703125</ele>
        <time>2004-11-07T09:37:15Z</time>
      </trkpt>
      <trkpt lat="43.046414153650403" lon="11.654669819399714">
        <ele>283.7261962890625</ele>
        <time>2004-11-07T09:37:18Z</time>
      </trkpt>
      <trkpt lat="43.046324802562594" lon="11.654608463868499">
        <ele>283.7261962890625</ele>
        <time>2004-11-07T09:37:20Z</time>
      </trkpt>
      <trkpt lat="43.046244755387306" lon="11.654519783332944">
        <ele>283.24560546875</ele>
        <time>2004-11-07T09:37:22Z</time>
      </trkpt>
      <trkpt lat="43.046172503381968" lon="11.654420793056488">
        <ele>282.7650146484375</ele>
        <time>2004-11-07T09:37:24Z</time>
      </trkpt>
      <trkpt lat="43.046106118708849" lon="11.654298501089215">
        <ele>282.2843017578125</ele>
        <time>2004-11-07T09:37:26Z</time>
      </trkpt>
      <trkpt lat="43.046041075140238" lon="11.654169168323278">
        <ele>282.2843017578125</ele>
        <time>2004-11-07T09:37:28Z</time>
      </trkpt>
      <trkpt lat="43.045971840620041" lon="11.654029190540314">
        <ele>281.322998046875</ele>
        <time>2004-11-07T09:37:30Z</time>
      </trkpt>
      <trkpt lat="43.04590092971921" lon="11.653884770348668">
        <ele>280.8424072265625</ele>
        <time>2004-11-07T09:37:32Z</time>
      </trkpt>
      <trkpt lat="43.045825073495507" lon="11.653743116185069">
        <ele>280.8424072265625</ele>
        <time>2004-11-07T09:37:34Z</time>
      </trkpt>
      <trkpt lat="43.045750306919217" lon="11.653606491163373">
        <ele>280.3616943359375</ele>
        <time>2004-11-07T09:37:36Z</time>
      </trkpt>
      <trkpt lat="43.045683670789003" lon="11.653471710160375">
        <ele>280.3616943359375</ele>
        <time>2004-11-07T09:37:38Z</time>
      </trkpt>
      <trkpt lat="43.045621477067471" lon="11.65334983728826">
        <ele>280.8424072265625</ele>
        <time>2004-11-07T09:37:40Z</time>
      </trkpt>
      <trkpt lat="43.045565821230412" lon="11.653239196166396">
        <ele>280.8424072265625</ele>
        <time>2004-11-07T09:37:42Z</time>
      </trkpt>
      <trkpt lat="43.045514607802033" lon="11.653134170919657">
        <ele>281.8035888671875</ele>
        <time>2004-11-07T09:37:44Z</time>
      </trkpt>
      <trkpt lat="43.04544067941606" lon="11.652992516756058">
        <ele>282.2843017578125</ele>
        <time>2004-11-07T09:37:47Z</time>
      </trkpt>
      <trkpt lat="43.045378485694528" lon="11.652866285294294">
        <ele>283.7261962890625</ele>
        <time>2004-11-07T09:37:50Z</time>
      </trkpt>
      <trkpt lat="43.045318806543946" lon="11.652748938649893">
        <ele>283.7261962890625</ele>
        <time>2004-11-07T09:37:53Z</time>
      </trkpt>
      <trkpt lat="43.045266503468156" lon="11.652639135718346">
        <ele>284.6876220703125</ele>
        <time>2004-11-07T09:37:56Z</time>
      </trkpt>
      <trkpt lat="43.04520707577467" lon="11.652525141835213">
        <ele>285.168212890625</ele>
        <time>2004-11-07T09:37:59Z</time>
      </trkpt>
      <trkpt lat="43.045153180137277" lon="11.652416763827205">
        <ele>286.1295166015625</ele>
        <time>2004-11-07T09:38:02Z</time>
      </trkpt>
      <trkpt lat="43.045098194852471" lon="11.652313666418195">
        <ele>288.05224609375</ele>
        <time>2004-11-07T09:38:05Z</time>
      </trkpt>
      <trkpt lat="43.045041197910905" lon="11.652216436341405">
        <ele>288.532958984375</ele>
        <time>2004-11-07T09:38:08Z</time>
      </trkpt>
      <trkpt lat="43.044968610629439" lon="11.652100933715701">
        <ele>289.0135498046875</ele>
        <time>2004-11-07T09:38:12Z</time>
      </trkpt>
      <trkpt lat="43.044895771890879" lon="11.651999680325389">
        <ele>289.494140625</ele>
        <time>2004-11-07T09:38:16Z</time>
      </trkpt>
      <trkpt lat="43.044819077476859" lon="11.651913179084659">
        <ele>289.974853515625</ele>
        <time>2004-11-07T09:38:20Z</time>
      </trkpt>
      <trkpt lat="43.044731067493558" lon="11.651839921250939">
        <ele>290.9361572265625</ele>
        <time>2004-11-07T09:38:25Z</time>
      </trkpt>
      <trkpt lat="43.04462562315166" lon="11.651775296777487">
        <ele>291.416748046875</ele>
        <time>2004-11-07T09:38:30Z</time>
      </trkpt>
      <trkpt lat="43.044523280113935" lon="11.651728693395853">
        <ele>291.416748046875</ele>
        <time>2004-11-07T09:38:34Z</time>
      </trkpt>
      <trkpt lat="43.044435940682888" lon="11.651673037558794">
        <ele>291.416748046875</ele>
        <time>2004-11-07T09:38:38Z</time>
      </trkpt>
      <trkpt lat="43.044414231553674" lon="11.651607658714056">
        <ele>291.416748046875</ele>
        <time>2004-11-07T09:40:26Z</time>
      </trkpt>
      <trkpt lat="43.044340386986732" lon="11.651483355090022">
        <ele>290.45556640625</ele>
        <time>2004-11-07T09:40:31Z</time>
      </trkpt>
      <trkpt lat="43.044283054769039" lon="11.651356033980846">
        <ele>290.45556640625</ele>
        <time>2004-11-07T09:40:34Z</time>
      </trkpt>
      <trkpt lat="43.044236786663532" lon="11.651233825832605">
        <ele>289.974853515625</ele>
        <time>2004-11-07T09:40:36Z</time>
      </trkpt>
      <trkpt lat="43.044178783893585" lon="11.651104912161827">
        <ele>289.494140625</ele>
        <time>2004-11-07T09:40:38Z</time>
      </trkpt>
      <trkpt lat="43.044109968468547" lon="11.650962922722101">
        <ele>289.494140625</ele>
        <time>2004-11-07T09:40:40Z</time>
      </trkpt>
      <trkpt lat="43.044039392843843" lon="11.65080945007503">
        <ele>289.0135498046875</ele>
        <time>2004-11-07T09:40:42Z</time>
      </trkpt>
      <trkpt lat="43.043963285163045" lon="11.65064818225801">
        <ele>288.532958984375</ele>
        <time>2004-11-07T09:40:44Z</time>
      </trkpt>
      <trkpt lat="43.04388583637774" lon="11.650480125099421">
        <ele>287.5714111328125</ele>
        <time>2004-11-07T09:40:46Z</time>
      </trkpt>
      <trkpt lat="43.043807633221149" lon="11.65030955336988">
        <ele>288.05224609375</ele>
        <time>2004-11-07T09:40:48Z</time>
      </trkpt>
      <trkpt lat="43.043729932978749" lon="11.650137640535831">
        <ele>286.6102294921875</ele>
        <time>2004-11-07T09:40:50Z</time>
      </trkpt>
      <trkpt lat="43.043649969622493" lon="11.649965643882751">
        <ele>286.1295166015625</ele>
        <time>2004-11-07T09:40:52Z</time>
      </trkpt>
      <trkpt lat="43.043563971295953" lon="11.649782918393612">
        <ele>285.168212890625</ele>
        <time>2004-11-07T09:40:54Z</time>
      </trkpt>
      <trkpt lat="43.043476045131683" lon="11.649596840143204">
        <ele>284.6876220703125</ele>
        <time>2004-11-07T09:40:56Z</time>
      </trkpt>
      <trkpt lat="43.043383676558733" lon="11.649396596476436">
        <ele>283.7261962890625</ele>
        <time>2004-11-07T09:40:58Z</time>
      </trkpt>
      <trkpt lat="43.043292229995131" lon="11.649193670600653">
        <ele>283.24560546875</ele>
        <time>2004-11-07T09:41:00Z</time>
      </trkpt>
      <trkpt lat="43.043187959119678" lon="11.648997366428375">
        <ele>282.7650146484375</ele>
        <time>2004-11-07T09:41:02Z</time>
      </trkpt>
      <trkpt lat="43.04306399077177" lon="11.64882805198431">
        <ele>281.8035888671875</ele>
        <time>2004-11-07T09:41:04Z</time>
      </trkpt>
      <trkpt lat="43.042926359921694" lon="11.648697126656771">
        <ele>281.322998046875</ele>
        <time>2004-11-07T09:41:06Z</time>
      </trkpt>
      <trkpt lat="43.042780682444572" lon="11.648594615980983">
        <ele>281.322998046875</ele>
        <time>2004-11-07T09:41:08Z</time>
      </trkpt>
      <trkpt lat="43.042632238939404" lon="11.648509036749601">
        <ele>280.8424072265625</ele>
        <time>2004-11-07T09:41:10Z</time>
      </trkpt>
      <trkpt lat="43.042484885081649" lon="11.648425301536918">
        <ele>280.8424072265625</ele>
        <time>2004-11-07T09:41:12Z</time>
      </trkpt>
      <trkpt lat="43.042336609214544" lon="11.648342404514551">
        <ele>280.3616943359375</ele>
        <time>2004-11-07T09:41:14Z</time>
      </trkpt>
      <trkpt lat="43.042189255356789" lon="11.648258166387677">
        <ele>279.880859375</ele>
        <time>2004-11-07T09:41:16Z</time>
      </trkpt>
      <trkpt lat="43.042039973661304" lon="11.648173676803708">
        <ele>279.880859375</ele>
        <time>2004-11-07T09:41:18Z</time>
      </trkpt>
      <trkpt lat="43.041889602318406" lon="11.648088097572327">
        <ele>278.919677734375</ele>
        <time>2004-11-07T09:41:20Z</time>
      </trkpt>
      <trkpt lat="43.041742835193872" lon="11.648000590503216">
        <ele>278.43896484375</ele>
        <time>2004-11-07T09:41:22Z</time>
      </trkpt>
      <trkpt lat="43.041594978421926" lon="11.647928254678845">
        <ele>277.4776611328125</ele>
        <time>2004-11-07T09:41:24Z</time>
      </trkpt>
      <trkpt lat="43.04143974557519" lon="11.647897241637111">
        <ele>276.9970703125</ele>
        <time>2004-11-07T09:41:26Z</time>
      </trkpt>
      <trkpt lat="43.041281579062343" lon="11.647913083434105">
        <ele>276.516357421875</ele>
        <time>2004-11-07T09:41:28Z</time>
      </trkpt>
      <trkpt lat="43.041123161092401" lon="11.647949125617743">
        <ele>275.5550537109375</ele>
        <time>2004-11-07T09:41:30Z</time>
      </trkpt>
      <trkpt lat="43.040963234379888" lon="11.647992711514235">
        <ele>275.074462890625</ele>
        <time>2004-11-07T09:41:32Z</time>
      </trkpt>
      <trkpt lat="43.040804816409945" lon="11.648035878315568">
        <ele>273.6324462890625</ele>
        <time>2004-11-07T09:41:34Z</time>
      </trkpt>
      <trkpt lat="43.040651008486748" lon="11.648080386221409">
        <ele>273.6324462890625</ele>
        <time>2004-11-07T09:41:36Z</time>
      </trkpt>
      <trkpt lat="43.040499296039343" lon="11.648121709004045">
        <ele>273.15185546875</ele>
        <time>2004-11-07T09:41:38Z</time>
      </trkpt>
      <trkpt lat="43.040349511429667" lon="11.648161942139268">
        <ele>272.671142578125</ele>
        <time>2004-11-07T09:41:40Z</time>
      </trkpt>
      <trkpt lat="43.040198972448707" lon="11.648205695673823">
        <ele>272.671142578125</ele>
        <time>2004-11-07T09:41:42Z</time>
      </trkpt>
      <trkpt lat="43.040050948038697" lon="11.648246515542269">
        <ele>272.671142578125</ele>
        <time>2004-11-07T09:41:44Z</time>
      </trkpt>
      <trkpt lat="43.039907030761242" lon="11.648285910487175">
        <ele>272.671142578125</ele>
        <time>2004-11-07T09:41:46Z</time>
      </trkpt>
      <trkpt lat="43.039764873683453" lon="11.648326646536589">
        <ele>272.1904296875</ele>
        <time>2004-11-07T09:41:48Z</time>
      </trkpt>
      <trkpt lat="43.039615089073777" lon="11.648349780589342">
        <ele>272.1904296875</ele>
        <time>2004-11-07T09:41:50Z</time>
      </trkpt>
      <trkpt lat="43.03945985622704" lon="11.648346595466137">
        <ele>271.2291259765625</ele>
        <time>2004-11-07T09:41:52Z</time>
      </trkpt>
      <trkpt lat="43.03930202499032" lon="11.648311140015721">
        <ele>270.7484130859375</ele>
        <time>2004-11-07T09:41:54Z</time>
      </trkpt>
      <trkpt lat="43.039144109934568" lon="11.648269984871149">
        <ele>269.787109375</ele>
        <time>2004-11-07T09:41:56Z</time>
      </trkpt>
      <trkpt lat="43.03898929618299" lon="11.648229835554957">
        <ele>269.787109375</ele>
        <time>2004-11-07T09:41:58Z</time>
      </trkpt>
      <trkpt lat="43.038837667554617" lon="11.648184154182673">
        <ele>268.8258056640625</ele>
        <time>2004-11-07T09:42:00Z</time>
      </trkpt>
      <trkpt lat="43.038763990625739" lon="11.648158505558968">
        <ele>268.8258056640625</ele>
        <time>2004-11-07T09:42:01Z</time>
      </trkpt>
      <trkpt lat="43.03861889988184" lon="11.648089522495866">
        <ele>268.3450927734375</ele>
        <time>2004-11-07T09:42:03Z</time>
      </trkpt>
      <trkpt lat="43.038476658985019" lon="11.647998914122581">
        <ele>268.3450927734375</ele>
        <time>2004-11-07T09:42:05Z</time>
      </trkpt>
      <trkpt lat="43.038333663716912" lon="11.647892547771335">
        <ele>266.9031982421875</ele>
        <time>2004-11-07T09:42:07Z</time>
      </trkpt>
      <trkpt lat="43.038186309859157" lon="11.647776374593377">
        <ele>266.4224853515625</ele>
        <time>2004-11-07T09:42:09Z</time>
      </trkpt>
      <trkpt lat="43.038038453087211" lon="11.647656010463834">
        <ele>265.4613037109375</ele>
        <time>2004-11-07T09:42:11Z</time>
      </trkpt>
      <trkpt lat="43.037891266867518" lon="11.647544866427779">
        <ele>265.4613037109375</ele>
        <time>2004-11-07T09:42:13Z</time>
      </trkpt>
      <trkpt lat="43.037750199437141" lon="11.647432800382376">
        <ele>264.4998779296875</ele>
        <time>2004-11-07T09:42:15Z</time>
      </trkpt>
      <trkpt lat="43.037615166977048" lon="11.647312603890896">
        <ele>264.9805908203125</ele>
        <time>2004-11-07T09:42:17Z</time>
      </trkpt>
      <trkpt lat="43.037478206679225" lon="11.647195341065526">
        <ele>264.9805908203125</ele>
        <time>2004-11-07T09:42:19Z</time>
      </trkpt>
      <trkpt lat="43.037340408191085" lon="11.647083442658186">
        <ele>264.4998779296875</ele>
        <time>2004-11-07T09:42:21Z</time>
      </trkpt>
      <trkpt lat="43.037200178951025" lon="11.646978836506605">
        <ele>264.4998779296875</ele>
        <time>2004-11-07T09:42:23Z</time>
      </trkpt>
      <trkpt lat="43.037056177854538" lon="11.646885462105274">
        <ele>264.019287109375</ele>
        <time>2004-11-07T09:42:25Z</time>
      </trkpt>
      <trkpt lat="43.036907482892275" lon="11.646808013319969">
        <ele>264.4998779296875</ele>
        <time>2004-11-07T09:42:27Z</time>
      </trkpt>
      <trkpt lat="43.036757027730346" lon="11.64673525840044">
        <ele>264.4998779296875</ele>
        <time>2004-11-07T09:42:29Z</time>
      </trkpt>
      <trkpt lat="43.036611936986446" lon="11.646665018051863">
        <ele>264.9805908203125</ele>
        <time>2004-11-07T09:42:31Z</time>
      </trkpt>
      <trkpt lat="43.036470785737038" lon="11.646589748561382">
        <ele>264.019287109375</ele>
        <time>2004-11-07T09:42:33Z</time>
      </trkpt>
      <trkpt lat="43.036327790468931" lon="11.646520597860217">
        <ele>263.53857421875</ele>
        <time>2004-11-07T09:42:35Z</time>
      </trkpt>
      <trkpt lat="43.036187058314681" lon="11.6464454960078">
        <ele>264.019287109375</ele>
        <time>2004-11-07T09:42:37Z</time>
      </trkpt>
      <trkpt lat="43.036051522940397" lon="11.646357318386436">
        <ele>264.019287109375</ele>
        <time>2004-11-07T09:42:39Z</time>
      </trkpt>
      <trkpt lat="43.035924453288317" lon="11.646252544596791">
        <ele>263.53857421875</ele>
        <time>2004-11-07T09:42:41Z</time>
      </trkpt>
      <trkpt lat="43.035805933177471" lon="11.646133940666914">
        <ele>263.53857421875</ele>
        <time>2004-11-07T09:42:43Z</time>
      </trkpt>
      <trkpt lat="43.035692693665624" lon="11.64600720629096">
        <ele>263.057861328125</ele>
        <time>2004-11-07T09:42:45Z</time>
      </trkpt>
      <trkpt lat="43.035579202696681" lon="11.645883405581117">
        <ele>263.53857421875</ele>
        <time>2004-11-07T09:42:47Z</time>
      </trkpt>
      <trkpt lat="43.035472584888339" lon="11.645753066986799">
        <ele>263.53857421875</ele>
        <time>2004-11-07T09:42:49Z</time>
      </trkpt>
      <trkpt lat="43.035377953201532" lon="11.645641336217523">
        <ele>263.53857421875</ele>
        <time>2004-11-07T09:42:51Z</time>
      </trkpt>
      <trkpt lat="43.03529136814177" lon="11.64554301649332">
        <ele>263.53857421875</ele>
        <time>2004-11-07T09:42:53Z</time>
      </trkpt>
      <trkpt lat="43.035212829709053" lon="11.645452827215195">
        <ele>263.53857421875</ele>
        <time>2004-11-07T09:42:55Z</time>
      </trkpt>
      <trkpt lat="43.035142756998539" lon="11.645368505269289">
        <ele>264.019287109375</ele>
        <time>2004-11-07T09:42:57Z</time>
      </trkpt>
      <trkpt lat="43.035050723701715" lon="11.645257947966456">
        <ele>264.019287109375</ele>
        <time>2004-11-07T09:43:00Z</time>
      </trkpt>
      <trkpt lat="43.034969167783856" lon="11.645185695961118">
        <ele>264.019287109375</ele>
        <time>2004-11-07T09:43:04Z</time>
      </trkpt>
      <trkpt lat="43.034869926050305" lon="11.645176475867629">
        <ele>264.4998779296875</ele>
        <time>2004-11-07T09:43:10Z</time>
      </trkpt>
      <trkpt lat="43.034854335710406" lon="11.645070360973477">
        <ele>264.4998779296875</ele>
        <time>2004-11-07T09:44:38Z</time>
      </trkpt>
      <trkpt lat="43.034879816696048" lon="11.644980004057288">
        <ele>264.9805908203125</ele>
        <time>2004-11-07T09:46:50Z</time>
      </trkpt>
      <trkpt lat="43.034851821139455" lon="11.644815886393189">
        <ele>264.4998779296875</ele>
        <time>2004-11-07T09:47:09Z</time>
      </trkpt>
      <trkpt lat="43.034823406487703" lon="11.644652606919408">
        <ele>264.4998779296875</ele>
        <time>2004-11-07T09:47:12Z</time>
      </trkpt>
      <trkpt lat="43.034790046513081" lon="11.644482621923089">
        <ele>264.4998779296875</ele>
        <time>2004-11-07T09:47:15Z</time>
      </trkpt>
      <trkpt lat="43.034758111461997" lon="11.644312050193548">
        <ele>264.4998779296875</ele>
        <time>2004-11-07T09:47:18Z</time>
      </trkpt>
      <trkpt lat="43.034728690981865" lon="11.644154973328114">
        <ele>264.4998779296875</ele>
        <time>2004-11-07T09:47:21Z</time>
      </trkpt>
      <trkpt lat="43.034702790901065" lon="11.644016336649656">
        <ele>264.4998779296875</ele>
        <time>2004-11-07T09:47:24Z</time>
      </trkpt>
      <trkpt lat="43.03467420861125" lon="11.643870659172535">
        <ele>264.019287109375</ele>
        <time>2004-11-07T09:47:27Z</time>
      </trkpt>
      <trkpt lat="43.034647135064006" lon="11.643721796572208">
        <ele>264.019287109375</ele>
        <time>2004-11-07T09:47:30Z</time>
      </trkpt>
      <trkpt lat="43.034615200012922" lon="11.64356354624033">
        <ele>263.53857421875</ele>
        <time>2004-11-07T09:47:33Z</time>
      </trkpt>
      <trkpt lat="43.034584103152156" lon="11.643408061936498">
        <ele>263.53857421875</ele>
        <time>2004-11-07T09:47:36Z</time>
      </trkpt>
      <trkpt lat="43.034555604681373" lon="11.643252996727824">
        <ele>263.057861328125</ele>
        <time>2004-11-07T09:47:39Z</time>
      </trkpt>
      <trkpt lat="43.034525429829955" lon="11.643091896548867">
        <ele>263.53857421875</ele>
        <time>2004-11-07T09:47:42Z</time>
      </trkpt>
      <trkpt lat="43.034495590254664" lon="11.642925012856722">
        <ele>263.53857421875</ele>
        <time>2004-11-07T09:47:45Z</time>
      </trkpt>
      <trkpt lat="43.034462230280042" lon="11.642747484147549">
        <ele>263.53857421875</ele>
        <time>2004-11-07T09:47:48Z</time>
      </trkpt>
      <trkpt lat="43.034438174217939" lon="11.642631478607655">
        <ele>263.53857421875</ele>
        <time>2004-11-07T09:47:50Z</time>
      </trkpt>
      <trkpt lat="43.034407328814268" lon="11.642462834715843">
        <ele>263.53857421875</ele>
        <time>2004-11-07T09:47:53Z</time>
      </trkpt>
      <trkpt lat="43.034376818686724" lon="11.642290502786636">
        <ele>263.53857421875</ele>
        <time>2004-11-07T09:47:56Z</time>
      </trkpt>
      <trkpt lat="43.034353936091065" lon="11.642169887199998">
        <ele>264.019287109375</ele>
        <time>2004-11-07T09:47:58Z</time>
      </trkpt>
      <trkpt lat="43.034331472590566" lon="11.642045918852091">
        <ele>264.019287109375</ele>
        <time>2004-11-07T09:48:00Z</time>
      </trkpt>
      <trkpt lat="43.03429844789207" lon="11.64187291637063">
        <ele>263.53857421875</ele>
        <time>2004-11-07T09:48:03Z</time>
      </trkpt>
      <trkpt lat="43.034266931936145" lon="11.641709553077817">
        <ele>264.019287109375</ele>
        <time>2004-11-07T09:48:06Z</time>
      </trkpt>
      <trkpt lat="43.034238098189235" lon="11.641552057117224">
        <ele>264.019287109375</ele>
        <time>2004-11-07T09:48:09Z</time>
      </trkpt>
      <trkpt lat="43.034203732386231" lon="11.641386179253459">
        <ele>264.019287109375</ele>
        <time>2004-11-07T09:48:12Z</time>
      </trkpt>
      <trkpt lat="43.034167690202594" lon="11.641210075467825">
        <ele>263.53857421875</ele>
        <time>2004-11-07T09:48:15Z</time>
      </trkpt>
      <trkpt lat="43.03414355032146" lon="11.64108619093895">
        <ele>264.019287109375</ele>
        <time>2004-11-07T09:48:17Z</time>
      </trkpt>
      <trkpt lat="43.03412058390677" lon="11.640961719676852">
        <ele>264.019287109375</ele>
        <time>2004-11-07T09:48:19Z</time>
      </trkpt>
      <trkpt lat="43.034098036587238" lon="11.640838254243135">
        <ele>264.019287109375</ele>
        <time>2004-11-07T09:48:21Z</time>
      </trkpt>
      <trkpt lat="43.034075824543834" lon="11.640716046094894">
        <ele>263.53857421875</ele>
        <time>2004-11-07T09:48:23Z</time>
      </trkpt>
      <trkpt lat="43.034042380750179" lon="11.64053943939507">
        <ele>264.019287109375</ele>
        <time>2004-11-07T09:48:26Z</time>
      </trkpt>
      <trkpt lat="43.034009020775557" lon="11.640367861837149">
        <ele>264.019287109375</ele>
        <time>2004-11-07T09:48:29Z</time>
      </trkpt>
      <trkpt lat="43.033977840095758" lon="11.640203492715955">
        <ele>264.019287109375</ele>
        <time>2004-11-07T09:48:32Z</time>
      </trkpt>
      <trkpt lat="43.033944396302104" lon="11.640028059482574">
        <ele>264.019287109375</ele>
        <time>2004-11-07T09:48:35Z</time>
      </trkpt>
      <trkpt lat="43.033922435715795" lon="11.63990811444819">
        <ele>264.019287109375</ele>
        <time>2004-11-07T09:48:37Z</time>
      </trkpt>
      <trkpt lat="43.033898379653692" lon="11.639783643186092">
        <ele>263.53857421875</ele>
        <time>2004-11-07T09:48:39Z</time>
      </trkpt>
      <trkpt lat="43.033875580877066" lon="11.639661686494946">
        <ele>263.53857421875</ele>
        <time>2004-11-07T09:48:41Z</time>
      </trkpt>
      <trkpt lat="43.033853452652693" lon="11.639538640156388">
        <ele>264.019287109375</ele>
        <time>2004-11-07T09:48:43Z</time>
      </trkpt>
      <trkpt lat="43.033830234780908" lon="11.639416348189116">
        <ele>264.019287109375</ele>
        <time>2004-11-07T09:48:45Z</time>
      </trkpt>
      <trkpt lat="43.033807603642344" lon="11.639293720945716">
        <ele>264.019287109375</ele>
        <time>2004-11-07T09:48:47Z</time>
      </trkpt>
      <trkpt lat="43.03378488868475" lon="11.639169584959745">
        <ele>264.019287109375</ele>
        <time>2004-11-07T09:48:49Z</time>
      </trkpt>
      <trkpt lat="43.03376049734652" lon="11.639042431488633">
        <ele>264.019287109375</ele>
        <time>2004-11-07T09:48:51Z</time>
      </trkpt>
      <trkpt lat="43.03373652510345" lon="11.638913685455918">
        <ele>264.019287109375</ele>
        <time>2004-11-07T09:48:53Z</time>
      </trkpt>
      <trkpt lat="43.033712049946189" lon="11.638782676309347">
        <ele>264.019287109375</ele>
        <time>2004-11-07T09:48:55Z</time>
      </trkpt>
      <trkpt lat="43.033688245341182" lon="11.638651248067617">
        <ele>264.019287109375</ele>
        <time>2004-11-07T09:48:57Z</time>
      </trkpt>
      <trkpt lat="43.033664943650365" lon="11.63852384313941">
        <ele>264.019287109375</ele>
        <time>2004-11-07T09:48:59Z</time>
      </trkpt>
      <trkpt lat="43.03363636136055" lon="11.638345392420888">
        <ele>263.53857421875</ele>
        <time>2004-11-07T09:49:02Z</time>
      </trkpt>
      <trkpt lat="43.033620938658714" lon="11.638221507892013">
        <ele>264.019287109375</ele>
        <time>2004-11-07T09:49:04Z</time>
      </trkpt>
      <trkpt lat="43.033606605604291" lon="11.638095276430249">
        <ele>264.019287109375</ele>
        <time>2004-11-07T09:49:06Z</time>
      </trkpt>
      <trkpt lat="43.033594703301787" lon="11.637970386072993">
        <ele>264.019287109375</ele>
        <time>2004-11-07T09:49:08Z</time>
      </trkpt>
      <trkpt lat="43.033580705523491" lon="11.637785397469997">
        <ele>263.53857421875</ele>
        <time>2004-11-07T09:49:11Z</time>
      </trkpt>
      <trkpt lat="43.033573664724827" lon="11.637662770226598">
        <ele>264.4998779296875</ele>
        <time>2004-11-07T09:49:13Z</time>
      </trkpt>
      <trkpt lat="43.033566456288099" lon="11.637537628412247">
        <ele>263.53857421875</ele>
        <time>2004-11-07T09:49:15Z</time>
      </trkpt>
      <trkpt lat="43.033559583127499" lon="11.637415168806911">
        <ele>264.019287109375</ele>
        <time>2004-11-07T09:49:17Z</time>
      </trkpt>
      <trkpt lat="43.033549021929502" lon="11.637238059192896">
        <ele>263.53857421875</ele>
        <time>2004-11-07T09:49:20Z</time>
      </trkpt>
      <trkpt lat="43.033539969474077" lon="11.637062709778547">
        <ele>263.53857421875</ele>
        <time>2004-11-07T09:49:23Z</time>
      </trkpt>
      <trkpt lat="43.033528486266732" lon="11.636885181069374">
        <ele>263.057861328125</ele>
        <time>2004-11-07T09:49:26Z</time>
      </trkpt>
      <trkpt lat="43.033517841249704" lon="11.636705975979567">
        <ele>263.53857421875</ele>
        <time>2004-11-07T09:49:29Z</time>
      </trkpt>
      <trkpt lat="43.033506274223328" lon="11.636521322652698">
        <ele>263.53857421875</ele>
        <time>2004-11-07T09:49:32Z</time>
      </trkpt>
      <trkpt lat="43.033500574529171" lon="11.636392325162888">
        <ele>263.057861328125</ele>
        <time>2004-11-07T09:49:34Z</time>
      </trkpt>
      <trkpt lat="43.033491857349873" lon="11.636259974911809">
        <ele>263.057861328125</ele>
        <time>2004-11-07T09:49:36Z</time>
      </trkpt>
      <trkpt lat="43.033482804894447" lon="11.636124439537525">
        <ele>262.5771484375</ele>
        <time>2004-11-07T09:49:38Z</time>
      </trkpt>
      <trkpt lat="43.033474087715149" lon="11.635993933305144">
        <ele>263.057861328125</ele>
        <time>2004-11-07T09:49:40Z</time>
      </trkpt>
      <trkpt lat="43.03346780128777" lon="11.635860409587622">
        <ele>262.5771484375</ele>
        <time>2004-11-07T09:49:42Z</time>
      </trkpt>
      <trkpt lat="43.033465957269073" lon="11.635723281651735">
        <ele>262.0965576171875</ele>
        <time>2004-11-07T09:49:44Z</time>
      </trkpt>
      <trkpt lat="43.033469393849373" lon="11.635586321353912">
        <ele>261.615966796875</ele>
        <time>2004-11-07T09:49:46Z</time>
      </trkpt>
      <trkpt lat="43.033478111028671" lon="11.635456318035722">
        <ele>261.615966796875</ele>
        <time>2004-11-07T09:49:48Z</time>
      </trkpt>
      <trkpt lat="43.033493449911475" lon="11.635324722155929">
        <ele>261.615966796875</ele>
        <time>2004-11-07T09:49:50Z</time>
      </trkpt>
      <trkpt lat="43.033510213717818" lon="11.635186085477471">
        <ele>261.615966796875</ele>
        <time>2004-11-07T09:49:52Z</time>
      </trkpt>
      <trkpt lat="43.033527731895447" lon="11.635042252019048">
        <ele>261.13525390625</ele>
        <time>2004-11-07T09:49:54Z</time>
      </trkpt>
      <trkpt lat="43.033545166254044" lon="11.634893389418721">
        <ele>261.13525390625</ele>
        <time>2004-11-07T09:49:56Z</time>
      </trkpt>
      <trkpt lat="43.033557487651706" lon="11.634743018075824">
        <ele>261.13525390625</ele>
        <time>2004-11-07T09:49:58Z</time>
      </trkpt>
      <trkpt lat="43.033569473773241" lon="11.634591640904546">
        <ele>260.654541015625</ele>
        <time>2004-11-07T09:50:00Z</time>
      </trkpt>
      <trkpt lat="43.033585986122489" lon="11.63443791680038">
        <ele>260.654541015625</ele>
        <time>2004-11-07T09:50:02Z</time>
      </trkpt>
      <trkpt lat="43.033599480986595" lon="11.634282683953643">
        <ele>260.654541015625</ele>
        <time>2004-11-07T09:50:04Z</time>
      </trkpt>
      <trkpt lat="43.033615322783589" lon="11.634125104174018">
        <ele>260.1739501953125</ele>
        <time>2004-11-07T09:50:06Z</time>
      </trkpt>
      <trkpt lat="43.033629907295108" lon="11.633968614041805">
        <ele>260.1739501953125</ele>
        <time>2004-11-07T09:50:08Z</time>
      </trkpt>
      <trkpt lat="43.033640384674072" lon="11.633816063404083">
        <ele>260.1739501953125</ele>
        <time>2004-11-07T09:50:10Z</time>
      </trkpt>
      <trkpt lat="43.033646838739514" lon="11.633665021508932">
        <ele>260.1739501953125</ele>
        <time>2004-11-07T09:50:12Z</time>
      </trkpt>
      <trkpt lat="43.03364809602499" lon="11.633513309061527">
        <ele>259.693359375</ele>
        <time>2004-11-07T09:50:14Z</time>
      </trkpt>
      <trkpt lat="43.033644827082753" lon="11.633367128670216">
        <ele>259.693359375</ele>
        <time>2004-11-07T09:50:16Z</time>
      </trkpt>
      <trkpt lat="43.033638205379248" lon="11.633225055411458">
        <ele>259.693359375</ele>
        <time>2004-11-07T09:50:18Z</time>
      </trkpt>
      <trkpt lat="43.03362806327641" lon="11.63308541290462">
        <ele>259.693359375</ele>
        <time>2004-11-07T09:50:20Z</time>
      </trkpt>
      <trkpt lat="43.033616244792938" lon="11.632945770397782">
        <ele>259.693359375</ele>
        <time>2004-11-07T09:50:22Z</time>
      </trkpt>
      <trkpt lat="43.033604761585593" lon="11.632806127890944">
        <ele>260.1739501953125</ele>
        <time>2004-11-07T09:50:24Z</time>
      </trkpt>
      <trkpt lat="43.033594116568565" lon="11.63266615010798">
        <ele>260.1739501953125</ele>
        <time>2004-11-07T09:50:26Z</time>
      </trkpt>
      <trkpt lat="43.033580705523491" lon="11.632530363276601">
        <ele>259.693359375</ele>
        <time>2004-11-07T09:50:28Z</time>
      </trkpt>
      <trkpt lat="43.033569306135178" lon="11.632395498454571">
        <ele>259.693359375</ele>
        <time>2004-11-07T09:50:30Z</time>
      </trkpt>
      <trkpt lat="43.033559331670403" lon="11.632261388003826">
        <ele>259.693359375</ele>
        <time>2004-11-07T09:50:32Z</time>
      </trkpt>
      <trkpt lat="43.033545166254044" lon="11.632127612829208">
        <ele>259.212646484375</ele>
        <time>2004-11-07T09:50:34Z</time>
      </trkpt>
      <trkpt lat="43.033534018322825" lon="11.631992496550083">
        <ele>259.693359375</ele>
        <time>2004-11-07T09:50:36Z</time>
      </trkpt>
      <trkpt lat="43.033522283658385" lon="11.631859224289656">
        <ele>259.693359375</ele>
        <time>2004-11-07T09:50:38Z</time>
      </trkpt>
      <trkpt lat="43.033511303365231" lon="11.631731651723385">
        <ele>259.693359375</ele>
        <time>2004-11-07T09:50:40Z</time>
      </trkpt>
      <trkpt lat="43.033499903976917" lon="11.63160776719451">
        <ele>259.693359375</ele>
        <time>2004-11-07T09:50:42Z</time>
      </trkpt>
      <trkpt lat="43.033486157655716" lon="11.631484469398856">
        <ele>259.693359375</ele>
        <time>2004-11-07T09:50:44Z</time>
      </trkpt>
      <trkpt lat="43.033474422991276" lon="11.631361255422235">
        <ele>259.693359375</ele>
        <time>2004-11-07T09:50:46Z</time>
      </trkpt>
      <trkpt lat="43.033464783802629" lon="11.631237454712391">
        <ele>259.693359375</ele>
        <time>2004-11-07T09:50:48Z</time>
      </trkpt>
      <trkpt lat="43.033455396071076" lon="11.631110301241279">
        <ele>259.693359375</ele>
        <time>2004-11-07T09:50:50Z</time>
      </trkpt>
      <trkpt lat="43.033443409949541" lon="11.630978789180517">
        <ele>259.693359375</ele>
        <time>2004-11-07T09:50:52Z</time>
      </trkpt>
      <trkpt lat="43.033430837094784" lon="11.630845852196217">
        <ele>259.693359375</ele>
        <time>2004-11-07T09:50:54Z</time>
      </trkpt>
      <trkpt lat="43.033416336402297" lon="11.630709562450647">
        <ele>259.212646484375</ele>
        <time>2004-11-07T09:50:56Z</time>
      </trkpt>
      <trkpt lat="43.033404182642698" lon="11.630572937428951">
        <ele>260.1739501953125</ele>
        <time>2004-11-07T09:50:58Z</time>
      </trkpt>
      <trkpt lat="43.033394291996956" lon="11.630432540550828">
        <ele>259.693359375</ele>
        <time>2004-11-07T09:51:00Z</time>
      </trkpt>
      <trkpt lat="43.033384485170245" lon="11.630291473120451">
        <ele>259.693359375</ele>
        <time>2004-11-07T09:51:02Z</time>
      </trkpt>
      <trkpt lat="43.0333764385432" lon="11.63014923222363">
        <ele>260.1739501953125</ele>
        <time>2004-11-07T09:51:04Z</time>
      </trkpt>
      <trkpt lat="43.033373253419995" lon="11.630006488412619">
        <ele>259.693359375</ele>
        <time>2004-11-07T09:51:06Z</time>
      </trkpt>
      <trkpt lat="43.033373672515154" lon="11.629866175353527">
        <ele>260.1739501953125</ele>
        <time>2004-11-07T09:51:08Z</time>
      </trkpt>
      <trkpt lat="43.033374259248376" lon="11.62972854450345">
        <ele>260.1739501953125</ele>
        <time>2004-11-07T09:51:10Z</time>
      </trkpt>
      <trkpt lat="43.033377947285771" lon="11.629594685509801">
        <ele>260.654541015625</ele>
        <time>2004-11-07T09:51:12Z</time>
      </trkpt>
      <trkpt lat="43.033384317532182" lon="11.629467867314816">
        <ele>260.1739501953125</ele>
        <time>2004-11-07T09:51:14Z</time>
      </trkpt>
      <trkpt lat="43.033397393301129" lon="11.629293523728848">
        <ele>260.654541015625</ele>
        <time>2004-11-07T09:51:17Z</time>
      </trkpt>
      <trkpt lat="43.033410301432014" lon="11.62912211380899">
        <ele>261.13525390625</ele>
        <time>2004-11-07T09:51:20Z</time>
      </trkpt>
      <trkpt lat="43.033423209562898" lon="11.628959001973271">
        <ele>261.615966796875</ele>
        <time>2004-11-07T09:51:23Z</time>
      </trkpt>
      <trkpt lat="43.033435447141528" lon="11.628791280090809">
        <ele>261.615966796875</ele>
        <time>2004-11-07T09:51:26Z</time>
      </trkpt>
      <trkpt lat="43.033443745225668" lon="11.628621965646744">
        <ele>262.0965576171875</ele>
        <time>2004-11-07T09:51:29Z</time>
      </trkpt>
      <trkpt lat="43.03345556370914" lon="11.628460278734565">
        <ele>262.5771484375</ele>
        <time>2004-11-07T09:51:32Z</time>
      </trkpt>
      <trkpt lat="43.033467130735517" lon="11.628302950412035">
        <ele>262.5771484375</ele>
        <time>2004-11-07T09:51:35Z</time>
      </trkpt>
      <trkpt lat="43.033477272838354" lon="11.628149813041091">
        <ele>263.057861328125</ele>
        <time>2004-11-07T09:51:38Z</time>
      </trkpt>
      <trkpt lat="43.033486660569906" lon="11.628006147220731">
        <ele>263.057861328125</ele>
        <time>2004-11-07T09:51:41Z</time>
      </trkpt>
      <trkpt lat="43.033496467396617" lon="11.627864828333259">
        <ele>263.53857421875</ele>
        <time>2004-11-07T09:51:44Z</time>
      </trkpt>
      <trkpt lat="43.033500071614981" lon="11.627730466425419">
        <ele>263.53857421875</ele>
        <time>2004-11-07T09:51:47Z</time>
      </trkpt>
      <trkpt lat="43.033485654741526" lon="11.627603732049465">
        <ele>264.019287109375</ele>
        <time>2004-11-07T09:51:50Z</time>
      </trkpt>
      <trkpt lat="43.033441314473748" lon="11.627504574134946">
        <ele>264.019287109375</ele>
        <time>2004-11-07T09:51:57Z</time>
      </trkpt>
      <trkpt lat="43.033404685556889" lon="11.627365769818425">
        <ele>264.4998779296875</ele>
        <time>2004-11-07T09:52:20Z</time>
      </trkpt>
      <trkpt lat="43.033293709158897" lon="11.627312796190381">
        <ele>264.4998779296875</ele>
        <time>2004-11-07T09:52:25Z</time>
      </trkpt>
      <trkpt lat="43.033202011138201" lon="11.627281699329615">
        <ele>264.4998779296875</ele>
        <time>2004-11-07T09:52:28Z</time>
      </trkpt>
      <trkpt lat="43.033107044175267" lon="11.627250351011753">
        <ele>264.019287109375</ele>
        <time>2004-11-07T09:52:31Z</time>
      </trkpt>
      <trkpt lat="43.033006628975272" lon="11.627215649932623">
        <ele>264.019287109375</ele>
        <time>2004-11-07T09:52:34Z</time>
      </trkpt>
      <trkpt lat="43.032899424433708" lon="11.627183128148317">
        <ele>263.53857421875</ele>
        <time>2004-11-07T09:52:37Z</time>
      </trkpt>
      <trkpt lat="43.032785346731544" lon="11.627142811194062">
        <ele>264.019287109375</ele>
        <time>2004-11-07T09:52:40Z</time>
      </trkpt>
      <trkpt lat="43.032655930146575" lon="11.627102326601744">
        <ele>263.53857421875</ele>
        <time>2004-11-07T09:52:43Z</time>
      </trkpt>
      <trkpt lat="43.032564735040069" lon="11.627074331045151">
        <ele>263.53857421875</ele>
        <time>2004-11-07T09:52:45Z</time>
      </trkpt>
      <trkpt lat="43.032471025362611" lon="11.627043904736638">
        <ele>263.057861328125</ele>
        <time>2004-11-07T09:52:47Z</time>
      </trkpt>
      <trkpt lat="43.032375136390328" lon="11.627011550590396">
        <ele>263.057861328125</ele>
        <time>2004-11-07T09:52:49Z</time>
      </trkpt>
      <trkpt lat="43.032273715361953" lon="11.626978944987059">
        <ele>263.057861328125</ele>
        <time>2004-11-07T09:52:51Z</time>
      </trkpt>
      <trkpt lat="43.032166594639421" lon="11.626944746822119">
        <ele>263.057861328125</ele>
        <time>2004-11-07T09:52:53Z</time>
      </trkpt>
      <trkpt lat="43.032056875526905" lon="11.62691012956202">
        <ele>262.0965576171875</ele>
        <time>2004-11-07T09:52:55Z</time>
      </trkpt>
      <trkpt lat="43.031946904957294" lon="11.62687785923481">
        <ele>262.5771484375</ele>
        <time>2004-11-07T09:52:57Z</time>
      </trkpt>
      <trkpt lat="43.031840790063143" lon="11.626843996345997">
        <ele>262.0965576171875</ele>
        <time>2004-11-07T09:52:59Z</time>
      </trkpt>
      <trkpt lat="43.031739452853799" lon="11.626812061294913">
        <ele>262.5771484375</ele>
        <time>2004-11-07T09:53:01Z</time>
      </trkpt>
      <trkpt lat="43.031642893329263" lon="11.626782556995749">
        <ele>262.0965576171875</ele>
        <time>2004-11-07T09:53:03Z</time>
      </trkpt>
      <trkpt lat="43.031546752899885" lon="11.626755064353347">
        <ele>262.5771484375</ele>
        <time>2004-11-07T09:53:05Z</time>
      </trkpt>
      <trkpt lat="43.031452037394047" lon="11.62672690115869">
        <ele>263.057861328125</ele>
        <time>2004-11-07T09:53:07Z</time>
      </trkpt>
      <trkpt lat="43.031364697962999" lon="11.626697983592749">
        <ele>263.057861328125</ele>
        <time>2004-11-07T09:53:09Z</time>
      </trkpt>
      <trkpt lat="43.031230084598064" lon="11.626662025228143">
        <ele>263.53857421875</ele>
        <time>2004-11-07T09:53:12Z</time>
      </trkpt>
      <trkpt lat="43.031125729903579" lon="11.626635454595089">
        <ele>263.53857421875</ele>
        <time>2004-11-07T09:53:14Z</time>
      </trkpt>
      <trkpt lat="43.031024476513267" lon="11.626602178439498">
        <ele>264.4998779296875</ele>
        <time>2004-11-07T09:53:16Z</time>
      </trkpt>
      <trkpt lat="43.030927833169699" lon="11.626565046608448">
        <ele>264.4998779296875</ele>
        <time>2004-11-07T09:53:18Z</time>
      </trkpt>
      <trkpt lat="43.030833201482892" lon="11.626527579501271">
        <ele>264.4998779296875</ele>
        <time>2004-11-07T09:53:20Z</time>
      </trkpt>
      <trkpt lat="43.030740916728973" lon="11.626497320830822">
        <ele>264.9805908203125</ele>
        <time>2004-11-07T09:53:22Z</time>
      </trkpt>
      <trkpt lat="43.030649637803435" lon="11.626473180949688">
        <ele>264.9805908203125</ele>
        <time>2004-11-07T09:53:24Z</time>
      </trkpt>
      <trkpt lat="43.030558945611119" lon="11.626451136544347">
        <ele>265.4613037109375</ele>
        <time>2004-11-07T09:53:26Z</time>
      </trkpt>
      <trkpt lat="43.030464481562376" lon="11.626432612538338">
        <ele>265.4613037109375</ele>
        <time>2004-11-07T09:53:28Z</time>
      </trkpt>
      <trkpt lat="43.030367083847523" lon="11.626416770741343">
        <ele>265.4613037109375</ele>
        <time>2004-11-07T09:53:30Z</time>
      </trkpt>
      <trkpt lat="43.030268931761384" lon="11.62639707326889">
        <ele>265.4613037109375</ele>
        <time>2004-11-07T09:53:32Z</time>
      </trkpt>
      <trkpt lat="43.030170695856214" lon="11.626367820426822">
        <ele>266.4224853515625</ele>
        <time>2004-11-07T09:53:34Z</time>
      </trkpt>
      <trkpt lat="43.030073884874582" lon="11.626327587291598">
        <ele>265.94189453125</ele>
        <time>2004-11-07T09:53:36Z</time>
      </trkpt>
      <trkpt lat="43.02998092956841" lon="11.626280229538679">
        <ele>266.4224853515625</ele>
        <time>2004-11-07T09:53:38Z</time>
      </trkpt>
      <trkpt lat="43.029890488833189" lon="11.626228094100952">
        <ele>267.3839111328125</ele>
        <time>2004-11-07T09:53:40Z</time>
      </trkpt>
      <trkpt lat="43.029800886288285" lon="11.626172102987766">
        <ele>267.3839111328125</ele>
        <time>2004-11-07T09:53:42Z</time>
      </trkpt>
      <trkpt lat="43.029672978445888" lon="11.626084176823497">
        <ele>267.864501953125</ele>
        <time>2004-11-07T09:53:45Z</time>
      </trkpt>
      <trkpt lat="43.02959100343287" lon="11.626030029729009">
        <ele>267.3839111328125</ele>
        <time>2004-11-07T09:53:47Z</time>
      </trkpt>
      <trkpt lat="43.029507687315345" lon="11.625976888462901">
        <ele>267.864501953125</ele>
        <time>2004-11-07T09:53:49Z</time>
      </trkpt>
      <trkpt lat="43.02938774228096" lon="11.625921567901969">
        <ele>267.864501953125</ele>
        <time>2004-11-07T09:53:52Z</time>
      </trkpt>
      <trkpt lat="43.02925581112504" lon="11.625885777175426">
        <ele>267.864501953125</ele>
        <time>2004-11-07T09:53:55Z</time>
      </trkpt>
      <trkpt lat="43.029127065092325" lon="11.625844622030854">
        <ele>268.3450927734375</ele>
        <time>2004-11-07T09:53:58Z</time>
      </trkpt>
      <trkpt lat="43.029009886085987" lon="11.625792738050222">
        <ele>268.3450927734375</ele>
        <time>2004-11-07T09:54:01Z</time>
      </trkpt>
      <trkpt lat="43.028891868889332" lon="11.625732723623514">
        <ele>268.3450927734375</ele>
        <time>2004-11-07T09:54:04Z</time>
      </trkpt>
      <trkpt lat="43.028815509751439" lon="11.625662650913">
        <ele>268.3450927734375</ele>
        <time>2004-11-07T09:54:06Z</time>
      </trkpt>
      <trkpt lat="43.028737809509039" lon="11.625575311481953">
        <ele>268.3450927734375</ele>
        <time>2004-11-07T09:54:08Z</time>
      </trkpt>
      <trkpt lat="43.028667569160461" lon="11.625474644824862">
        <ele>267.864501953125</ele>
        <time>2004-11-07T09:54:10Z</time>
      </trkpt>
      <trkpt lat="43.028600346297026" lon="11.625370206311345">
        <ele>268.3450927734375</ele>
        <time>2004-11-07T09:54:12Z</time>
      </trkpt>
      <trkpt lat="43.028525831177831" lon="11.625277837738395">
        <ele>267.864501953125</ele>
        <time>2004-11-07T09:54:14Z</time>
      </trkpt>
      <trkpt lat="43.028443772345781" lon="11.62519209086895">
        <ele>267.864501953125</ele>
        <time>2004-11-07T09:54:16Z</time>
      </trkpt>
      <trkpt lat="43.028370682150126" lon="11.625093519687653">
        <ele>267.864501953125</ele>
        <time>2004-11-07T09:54:18Z</time>
      </trkpt>
      <trkpt lat="43.028311422094703" lon="11.62499075755477">
        <ele>267.864501953125</ele>
        <time>2004-11-07T09:54:20Z</time>
      </trkpt>
      <trkpt lat="43.028248138725758" lon="11.624846421182156">
        <ele>268.8258056640625</ele>
        <time>2004-11-07T09:54:23Z</time>
      </trkpt>
      <trkpt lat="43.028195416554809" lon="11.624717507511377">
        <ele>270.2677001953125</ele>
        <time>2004-11-07T09:54:26Z</time>
      </trkpt>
      <trkpt lat="43.02814663387835" lon="11.624592617154121">
        <ele>270.2677001953125</ele>
        <time>2004-11-07T09:54:29Z</time>
      </trkpt>
      <trkpt lat="43.028102796524763" lon="11.62444937042892">
        <ele>271.709716796875</ele>
        <time>2004-11-07T09:54:33Z</time>
      </trkpt>
      <trkpt lat="43.028055857867002" lon="11.624298244714737">
        <ele>272.671142578125</ele>
        <time>2004-11-07T09:54:37Z</time>
      </trkpt>
      <trkpt lat="43.028026102110744" lon="11.62416061386466">
        <ele>273.15185546875</ele>
        <time>2004-11-07T09:54:41Z</time>
      </trkpt>
      <trkpt lat="43.028002632781863" lon="11.624024240300059">
        <ele>273.6324462890625</ele>
        <time>2004-11-07T09:54:45Z</time>
      </trkpt>
      <trkpt lat="43.027980420738459" lon="11.623885268345475">
        <ele>274.59375</ele>
        <time>2004-11-07T09:54:49Z</time>
      </trkpt>
      <trkpt lat="43.02796340547502" lon="11.623752834275365">
        <ele>276.03564453125</ele>
        <time>2004-11-07T09:54:53Z</time>
      </trkpt>
      <trkpt lat="43.027956448495388" lon="11.623623920604587">
        <ele>276.03564453125</ele>
        <time>2004-11-07T09:54:57Z</time>
      </trkpt>
      <trkpt lat="43.02795653231442" lon="11.623475309461355">
        <ele>276.9970703125</ele>
        <time>2004-11-07T09:55:02Z</time>
      </trkpt>
      <trkpt lat="43.027965920045972" lon="11.623329799622297">
        <ele>277.4776611328125</ele>
        <time>2004-11-07T09:55:07Z</time>
      </trkpt>
      <trkpt lat="43.027987377718091" lon="11.623199712485075">
        <ele>278.43896484375</ele>
        <time>2004-11-07T09:55:11Z</time>
      </trkpt>
      <trkpt lat="43.028016798198223" lon="11.623057052493095">
        <ele>279.880859375</ele>
        <time>2004-11-07T09:55:16Z</time>
      </trkpt>
      <trkpt lat="43.028043704107404" lon="11.622939705848694">
        <ele>281.322998046875</ele>
        <time>2004-11-07T09:55:20Z</time>
      </trkpt>
      <trkpt lat="43.028079243376851" lon="11.62279880605638">
        <ele>282.2843017578125</ele>
        <time>2004-11-07T09:55:25Z</time>
      </trkpt>
      <trkpt lat="43.028115117922425" lon="11.622660839930177">
        <ele>283.24560546875</ele>
        <time>2004-11-07T09:55:30Z</time>
      </trkpt>
      <trkpt lat="43.02814956754446" lon="11.622548019513488">
        <ele>284.2069091796875</ele>
        <time>2004-11-07T09:55:35Z</time>
      </trkpt>
      <trkpt lat="43.028178820386529" lon="11.622401755303144">
        <ele>285.168212890625</ele>
        <time>2004-11-07T09:55:41Z</time>
      </trkpt>
      <trkpt lat="43.02820136770606" lon="11.622263034805655">
        <ele>286.6102294921875</ele>
        <time>2004-11-07T09:55:47Z</time>
      </trkpt>
      <trkpt lat="43.02822282537818" lon="11.622118698433042">
        <ele>288.05224609375</ele>
        <time>2004-11-07T09:55:53Z</time>
      </trkpt>
      <trkpt lat="43.028241014108062" lon="11.621991880238056">
        <ele>289.494140625</ele>
        <time>2004-11-07T09:55:58Z</time>
      </trkpt>
      <trkpt lat="43.02826289087534" lon="11.621864475309849">
        <ele>290.9361572265625</ele>
        <time>2004-11-07T09:56:03Z</time>
      </trkpt>
      <trkpt lat="43.028281414881349" lon="11.621731538325548">
        <ele>291.8974609375</ele>
        <time>2004-11-07T09:56:08Z</time>
      </trkpt>
      <trkpt lat="43.028300777077675" lon="11.621600864455104">
        <ele>292.378173828125</ele>
        <time>2004-11-07T09:56:13Z</time>
      </trkpt>
      <trkpt lat="43.028320726007223" lon="11.621465664356947">
        <ele>293.33935546875</ele>
        <time>2004-11-07T09:56:18Z</time>
      </trkpt>
      <trkpt lat="43.028342938050628" lon="11.621336080133915">
        <ele>293.820068359375</ele>
        <time>2004-11-07T09:56:23Z</time>
      </trkpt>
      <trkpt lat="43.028365904465318" lon="11.621215296909213">
        <ele>294.7813720703125</ele>
        <time>2004-11-07T09:56:28Z</time>
      </trkpt>
      <trkpt lat="43.028385601937771" lon="11.621094429865479">
        <ele>295.74267578125</ele>
        <time>2004-11-07T09:56:33Z</time>
      </trkpt>
      <trkpt lat="43.028404545038939" lon="11.620966270565987">
        <ele>296.7041015625</ele>
        <time>2004-11-07T09:56:38Z</time>
      </trkpt>
      <trkpt lat="43.028424829244614" lon="11.620833585038781">
        <ele>298.1461181640625</ele>
        <time>2004-11-07T09:56:43Z</time>
      </trkpt>
      <trkpt lat="43.028440419584513" lon="11.620693858712912">
        <ele>299.1072998046875</ele>
        <time>2004-11-07T09:56:49Z</time>
      </trkpt>
      <trkpt lat="43.02846472710371" lon="11.620557904243469">
        <ele>300.54931640625</ele>
        <time>2004-11-07T09:56:55Z</time>
      </trkpt>
      <trkpt lat="43.028480401262641" lon="11.620427565649152">
        <ele>302.471923828125</ele>
        <time>2004-11-07T09:57:00Z</time>
      </trkpt>
      <trkpt lat="43.028483837842941" lon="11.620292952284217">
        <ele>302.9525146484375</ele>
        <time>2004-11-07T09:57:05Z</time>
      </trkpt>
      <trkpt lat="43.028489705175161" lon="11.620148783549666">
        <ele>303.4332275390625</ele>
        <time>2004-11-07T09:57:10Z</time>
      </trkpt>
      <trkpt lat="43.028503032401204" lon="11.620022300630808">
        <ele>303.9139404296875</ele>
        <time>2004-11-07T09:57:15Z</time>
      </trkpt>
      <trkpt lat="43.028520802035928" lon="11.619874862954021">
        <ele>304.875244140625</ele>
        <time>2004-11-07T09:57:21Z</time>
      </trkpt>
      <trkpt lat="43.028525495901704" lon="11.619732035323977">
        <ele>306.3172607421875</ele>
        <time>2004-11-07T09:57:26Z</time>
      </trkpt>
      <trkpt lat="43.028531614691019" lon="11.619592728093266">
        <ele>307.278564453125</ele>
        <time>2004-11-07T09:57:31Z</time>
      </trkpt>
      <trkpt lat="43.028523987159133" lon="11.619457108899951">
        <ele>306.7978515625</ele>
        <time>2004-11-07T09:57:36Z</time>
      </trkpt>
      <trkpt lat="43.028535805642605" lon="11.619328614324331">
        <ele>307.75927734375</ele>
        <time>2004-11-07T09:57:41Z</time>
      </trkpt>
      <trkpt lat="43.028563046827912" lon="11.619193498045206">
        <ele>308.720458984375</ele>
        <time>2004-11-07T09:57:46Z</time>
      </trkpt>
      <trkpt lat="43.028552317991853" lon="11.619063159450889">
        <ele>310.1624755859375</ele>
        <time>2004-11-07T09:57:51Z</time>
      </trkpt>
      <trkpt lat="43.028509989380836" lon="11.618911949917674">
        <ele>310.64306640625</ele>
        <time>2004-11-07T09:57:56Z</time>
      </trkpt>
      <trkpt lat="43.028461458161473" lon="11.618798542767763">
        <ele>311.123779296875</ele>
        <time>2004-11-07T09:58:00Z</time>
      </trkpt>
      <trkpt lat="43.028415273874998" lon="11.618687566369772">
        <ele>311.6044921875</ele>
        <time>2004-11-07T09:58:04Z</time>
      </trkpt>
      <trkpt lat="43.028358947485685" lon="11.618551947176456">
        <ele>312.085205078125</ele>
        <time>2004-11-07T09:58:09Z</time>
      </trkpt>
      <trkpt lat="43.02830739878118" lon="11.618442144244909">
        <ele>312.5657958984375</ele>
        <time>2004-11-07T09:58:13Z</time>
      </trkpt>
      <trkpt lat="43.028247216716409" lon="11.618328737094998">
        <ele>312.5657958984375</ele>
        <time>2004-11-07T09:58:17Z</time>
      </trkpt>
      <trkpt lat="43.028193069621921" lon="11.618218179792166">
        <ele>312.5657958984375</ele>
        <time>2004-11-07T09:58:21Z</time>
      </trkpt>
      <trkpt lat="43.02826439961791" lon="11.618124973028898">
        <ele>313.0465087890625</ele>
        <time>2004-11-07T09:58:27Z</time>
      </trkpt>
      <trkpt lat="43.02835525944829" lon="11.618069736286998">
        <ele>313.5272216796875</ele>
        <time>2004-11-07T09:58:34Z</time>
      </trkpt>
      <trkpt lat="43.028425583615899" lon="11.618052385747433">
        <ele>312.5657958984375</ele>
        <time>2004-11-07T10:00:38Z</time>
      </trkpt>
      <trkpt lat="43.02850479260087" lon="11.617992706596851">
        <ele>313.0465087890625</ele>
        <time>2004-11-07T10:00:50Z</time>
      </trkpt>
      <trkpt lat="43.028584085404873" lon="11.617917269468307">
        <ele>313.5272216796875</ele>
        <time>2004-11-07T10:00:55Z</time>
      </trkpt>
      <trkpt lat="43.028570171445608" lon="11.617778465151787">
        <ele>314.0078125</ele>
        <time>2004-11-07T10:01:01Z</time>
      </trkpt>
      <trkpt lat="43.028532871976495" lon="11.617650305852294">
        <ele>314.4884033203125</ele>
        <time>2004-11-07T10:01:07Z</time>
      </trkpt>
      <trkpt lat="43.028441173955798" lon="11.617619125172496">
        <ele>313.5272216796875</ele>
        <time>2004-11-07T10:01:18Z</time>
      </trkpt>
      <trkpt lat="43.02832692861557" lon="11.617681570351124">
        <ele>313.5272216796875</ele>
        <time>2004-11-07T10:01:42Z</time>
      </trkpt>
      <trkpt lat="43.028240678831935" lon="11.617737058550119">
        <ele>313.5272216796875</ele>
        <time>2004-11-07T10:01:58Z</time>
      </trkpt>
      <trkpt lat="43.028155602514744" lon="11.617784667760134">
        <ele>312.5657958984375</ele>
        <time>2004-11-07T10:02:12Z</time>
      </trkpt>
      <trkpt lat="43.028048733249307" lon="11.61784116178751">
        <ele>313.5272216796875</ele>
        <time>2004-11-07T10:05:21Z</time>
      </trkpt>
      <trkpt lat="43.027925183996558" lon="11.617911066859961">
        <ele>312.5657958984375</ele>
        <time>2004-11-07T10:05:30Z</time>
      </trkpt>
      <trkpt lat="43.027840526774526" lon="11.617993796244264">
        <ele>312.5657958984375</ele>
        <time>2004-11-07T10:05:33Z</time>
      </trkpt>
      <trkpt lat="43.027743212878704" lon="11.618092367425561">
        <ele>312.5657958984375</ele>
        <time>2004-11-07T10:05:36Z</time>
      </trkpt>
      <trkpt lat="43.027655873447657" lon="11.618175683543086">
        <ele>312.5657958984375</ele>
        <time>2004-11-07T10:05:39Z</time>
      </trkpt>
      <trkpt lat="43.027534419670701" lon="11.618266459554434">
        <ele>312.5657958984375</ele>
        <time>2004-11-07T10:05:43Z</time>
      </trkpt>
      <trkpt lat="43.027441632002592" lon="11.618339717388153">
        <ele>312.085205078125</ele>
        <time>2004-11-07T10:05:46Z</time>
      </trkpt>
      <trkpt lat="43.027346832677722" lon="11.618437953293324">
        <ele>312.085205078125</ele>
        <time>2004-11-07T10:05:50Z</time>
      </trkpt>
      <trkpt lat="43.02730668336153" lon="11.618599388748407">
        <ele>312.5657958984375</ele>
        <time>2004-11-07T10:05:56Z</time>
      </trkpt>
      <trkpt lat="43.02731498144567" lon="11.618744479492307">
        <ele>313.5272216796875</ele>
        <time>2004-11-07T10:06:01Z</time>
      </trkpt>
      <trkpt lat="43.027342222630978" lon="11.61888831295073">
        <ele>312.085205078125</ele>
        <time>2004-11-07T10:06:05Z</time>
      </trkpt>
      <trkpt lat="43.027413301169872" lon="11.619007252156734">
        <ele>311.6044921875</ele>
        <time>2004-11-07T10:06:09Z</time>
      </trkpt>
      <trkpt lat="43.027491169050336" lon="11.619054274633527">
        <ele>311.6044921875</ele>
        <time>2004-11-07T10:06:12Z</time>
      </trkpt>
      <trkpt lat="43.027584459632635" lon="11.619094759225845">
        <ele>311.6044921875</ele>
        <time>2004-11-07T10:06:15Z</time>
      </trkpt>
      <trkpt lat="43.027683198451996" lon="11.619137590751052">
        <ele>310.64306640625</ele>
        <time>2004-11-07T10:06:18Z</time>
      </trkpt>
      <trkpt lat="43.027796186506748" lon="11.619173130020499">
        <ele>310.64306640625</ele>
        <time>2004-11-07T10:06:21Z</time>
      </trkpt>
      <trkpt lat="43.027915293350816" lon="11.619195425882936">
        <ele>310.1624755859375</ele>
        <time>2004-11-07T10:06:24Z</time>
      </trkpt>
      <trkpt lat="43.028044290840626" lon="11.619218476116657">
        <ele>309.681884765625</ele>
        <time>2004-11-07T10:06:27Z</time>
      </trkpt>
      <trkpt lat="43.028170606121421" lon="11.619242951273918">
        <ele>309.681884765625</ele>
        <time>2004-11-07T10:06:30Z</time>
      </trkpt>
      <trkpt lat="43.028295245021582" lon="11.619302043691278">
        <ele>309.681884765625</ele>
        <time>2004-11-07T10:06:33Z</time>
      </trkpt>
      <trkpt lat="43.028369341045618" lon="11.619377480819821">
        <ele>309.201171875</ele>
        <time>2004-11-07T10:06:35Z</time>
      </trkpt>
      <trkpt lat="43.028442934155464" lon="11.619458282366395">
        <ele>308.720458984375</ele>
        <time>2004-11-07T10:06:37Z</time>
      </trkpt>
      <trkpt lat="43.028502780944109" lon="11.619567414745688">
        <ele>308.720458984375</ele>
        <time>2004-11-07T10:06:39Z</time>
      </trkpt>
      <trkpt lat="43.028546534478664" lon="11.619680821895599">
        <ele>307.75927734375</ele>
        <time>2004-11-07T10:06:41Z</time>
      </trkpt>
      <trkpt lat="43.028544103726745" lon="11.619845777750015">
        <ele>306.3172607421875</ele>
        <time>2004-11-07T10:06:44Z</time>
      </trkpt>
      <trkpt lat="43.028528597205877" lon="11.61999941803515">
        <ele>306.3172607421875</ele>
        <time>2004-11-07T10:06:47Z</time>
      </trkpt>
      <trkpt lat="43.028513174504042" lon="11.620143000036478">
        <ele>304.3946533203125</ele>
        <time>2004-11-07T10:06:51Z</time>
      </trkpt>
      <trkpt lat="43.028557598590851" lon="11.620234278962016">
        <ele>305.35595703125</ele>
        <time>2004-11-07T10:06:57Z</time>
      </trkpt>
      <trkpt lat="43.028632532805204" lon="11.620307704433799">
        <ele>305.836669921875</ele>
        <time>2004-11-07T10:07:04Z</time>
      </trkpt>
      <trkpt lat="43.028709227219224" lon="11.620394708588719">
        <ele>307.278564453125</ele>
        <time>2004-11-07T10:07:11Z</time>
      </trkpt>
      <trkpt lat="43.028777204453945" lon="11.620492022484541">
        <ele>308.2398681640625</ele>
        <time>2004-11-07T10:07:18Z</time>
      </trkpt>
      <trkpt lat="43.028862280771136" lon="11.620546923950315">
        <ele>310.64306640625</ele>
        <time>2004-11-07T10:07:24Z</time>
      </trkpt>
      <trkpt lat="43.028969317674637" lon="11.620566789060831">
        <ele>311.6044921875</ele>
        <time>2004-11-07T10:07:31Z</time>
      </trkpt>
      <trkpt lat="43.029066380113363" lon="11.620575506240129">
        <ele>312.5657958984375</ele>
        <time>2004-11-07T10:07:38Z</time>
      </trkpt>
      <trkpt lat="43.029164867475629" lon="11.620596628636122">
        <ele>313.5272216796875</ele>
        <time>2004-11-07T10:07:45Z</time>
      </trkpt>
      <trkpt lat="43.029262516647577" lon="11.620632922276855">
        <ele>314.9691162109375</ele>
        <time>2004-11-07T10:07:52Z</time>
      </trkpt>
      <trkpt lat="43.029358740895987" lon="11.62065957672894">
        <ele>316.4110107421875</ele>
        <time>2004-11-07T10:07:59Z</time>
      </trkpt>
      <trkpt lat="43.029455803334713" lon="11.620665779337287">
        <ele>317.3724365234375</ele>
        <time>2004-11-07T10:08:06Z</time>
      </trkpt>
      <trkpt lat="43.029547668993473" lon="11.620651446282864">
        <ele>318.8143310546875</ele>
        <time>2004-11-07T10:08:12Z</time>
      </trkpt>
      <trkpt lat="43.02964917384088" lon="11.620650943368673">
        <ele>319.2950439453125</ele>
        <time>2004-11-07T10:08:17Z</time>
      </trkpt>
      <trkpt lat="43.029747828841209" lon="11.620637029409409">
        <ele>320.25634765625</ele>
        <time>2004-11-07T10:08:22Z</time>
      </trkpt>
      <trkpt lat="43.029837682843208" lon="11.620632251724601">
        <ele>320.25634765625</ele>
        <time>2004-11-07T10:08:27Z</time>
      </trkpt>
      <trkpt lat="43.029940947890282" lon="11.620615404099226">
        <ele>320.25634765625</ele>
        <time>2004-11-07T10:08:33Z</time>
      </trkpt>
      <trkpt lat="43.030047900974751" lon="11.620604759082198">
        <ele>321.2177734375</ele>
        <time>2004-11-07T10:08:39Z</time>
      </trkpt>
      <trkpt lat="43.030141862109303" lon="11.62061314098537">
        <ele>322.65966796875</ele>
        <time>2004-11-07T10:08:44Z</time>
      </trkpt>
      <trkpt lat="43.030234482139349" lon="11.620664522051811">
        <ele>323.140380859375</ele>
        <time>2004-11-07T10:08:50Z</time>
      </trkpt>
      <trkpt lat="43.030327102169394" lon="11.620729314163327">
        <ele>324.582275390625</ele>
        <time>2004-11-07T10:08:57Z</time>
      </trkpt>
      <trkpt lat="43.030421314761043" lon="11.620746916159987">
        <ele>326.5048828125</ele>
        <time>2004-11-07T10:09:04Z</time>
      </trkpt>
      <trkpt lat="43.030501194298267" lon="11.620687656104565">
        <ele>327.94677734375</ele>
        <time>2004-11-07T10:09:11Z</time>
      </trkpt>
      <trkpt lat="43.030561460182071" lon="11.620589084923267">
        <ele>329.388916015625</ele>
        <time>2004-11-07T10:09:18Z</time>
      </trkpt>
      <trkpt lat="43.030599011108279" lon="11.620470397174358">
        <ele>330.3502197265625</ele>
        <time>2004-11-07T10:09:25Z</time>
      </trkpt>
      <trkpt lat="43.030624827370048" lon="11.620340393856168">
        <ele>332.2728271484375</ele>
        <time>2004-11-07T10:09:32Z</time>
      </trkpt>
      <trkpt lat="43.030630778521299" lon="11.620199829339981">
        <ele>332.7535400390625</ele>
        <time>2004-11-07T10:09:38Z</time>
      </trkpt>
      <trkpt lat="43.030604626983404" lon="11.62005465477705">
        <ele>333.7147216796875</ele>
        <time>2004-11-07T10:09:44Z</time>
      </trkpt>
      <trkpt lat="43.030578810721636" lon="11.619943007826805">
        <ele>333.7147216796875</ele>
        <time>2004-11-07T10:09:50Z</time>
      </trkpt>
      <trkpt lat="43.030538912862539" lon="11.619829852133989">
        <ele>334.6761474609375</ele>
        <time>2004-11-07T10:09:57Z</time>
      </trkpt>
      <trkpt lat="43.030496081337333" lon="11.619697166606784">
        <ele>337.0794677734375</ele>
        <time>2004-11-07T10:10:05Z</time>
      </trkpt>
      <trkpt lat="43.030465487390757" lon="11.619569510221481">
        <ele>338.521484375</ele>
        <time>2004-11-07T10:10:12Z</time>
      </trkpt>
      <trkpt lat="43.030439168214798" lon="11.619445038959384">
        <ele>339.96337890625</ele>
        <time>2004-11-07T10:10:19Z</time>
      </trkpt>
      <trkpt lat="43.03043682128191" lon="11.619324842467904">
        <ele>341.885986328125</ele>
        <time>2004-11-07T10:10:26Z</time>
      </trkpt>
      <trkpt lat="43.030435396358371" lon="11.6192024666816">
        <ele>343.327880859375</ele>
        <time>2004-11-07T10:10:33Z</time>
      </trkpt>
      <trkpt lat="43.030469007790089" lon="11.619077576324344">
        <ele>345.2506103515625</ele>
        <time>2004-11-07T10:10:40Z</time>
      </trkpt>
      <trkpt lat="43.030526759102941" lon="11.618966935202479">
        <ele>346.2120361328125</ele>
        <time>2004-11-07T10:10:47Z</time>
      </trkpt>
      <trkpt lat="43.030603369697928" lon="11.618892420083284">
        <ele>346.692626953125</ele>
        <time>2004-11-07T10:10:54Z</time>
      </trkpt>
      <trkpt lat="43.030679142102599" lon="11.618816731497645">
        <ele>346.692626953125</ele>
        <time>2004-11-07T10:11:02Z</time>
      </trkpt>
      <trkpt lat="43.030761368572712" lon="11.618751185014844">
        <ele>348.615234375</ele>
        <time>2004-11-07T10:11:10Z</time>
      </trkpt>
      <trkpt lat="43.030856503173709" lon="11.618729308247566">
        <ele>350.537841796875</ele>
        <time>2004-11-07T10:11:19Z</time>
      </trkpt>
      <trkpt lat="43.030950212851167" lon="11.6187016479671">
        <ele>352.4605712890625</ele>
        <time>2004-11-07T10:11:28Z</time>
      </trkpt>
      <trkpt lat="43.031040066853166" lon="11.618670802563429">
        <ele>354.3831787109375</ele>
        <time>2004-11-07T10:11:37Z</time>
      </trkpt>
      <trkpt lat="43.031131681054831" lon="11.618641801178455">
        <ele>355.8251953125</ele>
        <time>2004-11-07T10:11:46Z</time>
      </trkpt>
      <trkpt lat="43.031223379075527" lon="11.618632497265935">
        <ele>357.747802734375</ele>
        <time>2004-11-07T10:11:55Z</time>
      </trkpt>
      <trkpt lat="43.031312981620431" lon="11.618677340447903">
        <ele>359.67041015625</ele>
        <time>2004-11-07T10:12:04Z</time>
      </trkpt>
      <trkpt lat="43.031358076259494" lon="11.618781527504325">
        <ele>361.5931396484375</ele>
        <time>2004-11-07T10:12:13Z</time>
      </trkpt>
      <trkpt lat="43.031370313838124" lon="11.618908178061247">
        <ele>363.0350341796875</ele>
        <time>2004-11-07T10:12:22Z</time>
      </trkpt>
      <trkpt lat="43.031426221132278" lon="11.619007587432861">
        <ele>364.4769287109375</ele>
        <time>2004-11-07T10:12:31Z</time>
      </trkpt>
      <trkpt lat="43.031508112326264" lon="11.61905980668962">
        <ele>366.3995361328125</ele>
        <time>2004-11-07T10:12:40Z</time>
      </trkpt>
      <trkpt lat="43.031600061804056" lon="11.619066428393126">
        <ele>367.841552734375</ele>
        <time>2004-11-07T10:12:48Z</time>
      </trkpt>
      <trkpt lat="43.031694609671831" lon="11.619059219956398">
        <ele>368.322265625</ele>
        <time>2004-11-07T10:12:55Z</time>
      </trkpt>
      <trkpt lat="43.031777841970325" lon="11.619009934365749">
        <ele>368.802978515625</ele>
        <time>2004-11-07T10:13:01Z</time>
      </trkpt>
      <trkpt lat="43.031844310462475" lon="11.618931228294969">
        <ele>369.7642822265625</ele>
        <time>2004-11-07T10:13:07Z</time>
      </trkpt>
      <trkpt lat="43.031893093138933" lon="11.618815893307328">
        <ele>371.6868896484375</ele>
        <time>2004-11-07T10:13:14Z</time>
      </trkpt>
      <trkpt lat="43.031922178342938" lon="11.618696115911007">
        <ele>371.6868896484375</ele>
        <time>2004-11-07T10:13:21Z</time>
      </trkpt>
      <trkpt lat="43.031917233020067" lon="11.618567202240229">
        <ele>373.12890625</ele>
        <time>2004-11-07T10:13:29Z</time>
      </trkpt>
      <trkpt lat="43.031918238848448" lon="11.61843191832304">
        <ele>375.051513671875</ele>
        <time>2004-11-07T10:13:37Z</time>
      </trkpt>
      <trkpt lat="43.031939528882504" lon="11.618299232795835">
        <ele>375.5321044921875</ele>
        <time>2004-11-07T10:13:44Z</time>
      </trkpt>
      <trkpt lat="43.031982947140932" lon="11.618188004940748">
        <ele>376.9742431640625</ele>
        <time>2004-11-07T10:13:50Z</time>
      </trkpt>
      <trkpt lat="43.032047739252448" lon="11.618083063513041">
        <ele>377.9354248046875</ele>
        <time>2004-11-07T10:13:56Z</time>
      </trkpt>
      <trkpt lat="43.032131306827068" lon="11.61800142377615">
        <ele>379.37744140625</ele>
        <time>2004-11-07T10:14:02Z</time>
      </trkpt>
      <trkpt lat="43.032206743955612" lon="11.617911318317056">
        <ele>380.3387451171875</ele>
        <time>2004-11-07T10:14:08Z</time>
      </trkpt>
      <trkpt lat="43.032267093658447" lon="11.617801431566477">
        <ele>381.300048828125</ele>
        <time>2004-11-07T10:14:14Z</time>
      </trkpt>
      <trkpt lat="43.032326269894838" lon="11.617682324722409">
        <ele>382.2613525390625</ele>
        <time>2004-11-07T10:14:20Z</time>
      </trkpt>
      <trkpt lat="43.032373627647758" lon="11.617573024705052">
        <ele>383.22265625</ele>
        <time>2004-11-07T10:14:25Z</time>
      </trkpt>
      <trkpt lat="43.032437916845083" lon="11.617465317249298">
        <ele>383.22265625</ele>
        <time>2004-11-07T10:14:30Z</time>
      </trkpt>
      <trkpt lat="43.032495751976967" lon="11.617342690005898">
        <ele>382.7420654296875</ele>
        <time>2004-11-07T10:14:35Z</time>
      </trkpt>
      <trkpt lat="43.03255258128047" lon="11.617224421352148">
        <ele>382.7420654296875</ele>
        <time>2004-11-07T10:14:40Z</time>
      </trkpt>
      <trkpt lat="43.032599687576294" lon="11.617118725553155">
        <ele>383.22265625</ele>
        <time>2004-11-07T10:14:45Z</time>
      </trkpt>
      <trkpt lat="43.032640591263771" lon="11.617010599002242">
        <ele>383.7032470703125</ele>
        <time>2004-11-07T10:14:51Z</time>
      </trkpt>
      <trkpt lat="43.032675962895155" lon="11.616888223215938">
        <ele>385.6259765625</ele>
        <time>2004-11-07T10:14:58Z</time>
      </trkpt>
      <trkpt lat="43.032711837440729" lon="11.616771463304758">
        <ele>386.106689453125</ele>
        <time>2004-11-07T10:15:05Z</time>
      </trkpt>
      <trkpt lat="43.03274410776794" lon="11.616655960679054">
        <ele>387.548583984375</ele>
        <time>2004-11-07T10:15:12Z</time>
      </trkpt>
      <trkpt lat="43.032781239598989" lon="11.61653702147305">
        <ele>388.510009765625</ele>
        <time>2004-11-07T10:15:20Z</time>
      </trkpt>
      <trkpt lat="43.032817114144564" lon="11.616418669000268">
        <ele>389.951904296875</ele>
        <time>2004-11-07T10:15:28Z</time>
      </trkpt>
      <trkpt lat="43.032853659242392" lon="11.616303082555532">
        <ele>391.393798828125</ele>
        <time>2004-11-07T10:15:36Z</time>
      </trkpt>
      <trkpt lat="43.03288877941668" lon="11.616183556616306">
        <ele>393.3165283203125</ele>
        <time>2004-11-07T10:15:44Z</time>
      </trkpt>
      <trkpt lat="43.032919792458415" lon="11.616064365953207">
        <ele>393.7972412109375</ele>
        <time>2004-11-07T10:15:52Z</time>
      </trkpt>
      <trkpt lat="43.032957259565592" lon="11.615935284644365">
        <ele>395.7198486328125</ele>
        <time>2004-11-07T10:16:01Z</time>
      </trkpt>
      <trkpt lat="43.032997157424688" lon="11.6158177703619">
        <ele>398.1231689453125</ele>
        <time>2004-11-07T10:16:10Z</time>
      </trkpt>
      <trkpt lat="43.033044682815671" lon="11.615714002400637">
        <ele>399.0843505859375</ele>
        <time>2004-11-07T10:16:19Z</time>
      </trkpt>
      <trkpt lat="43.033101763576269" lon="11.615613335743546">
        <ele>401.48779296875</ele>
        <time>2004-11-07T10:16:28Z</time>
      </trkpt>
      <trkpt lat="43.033167812973261" lon="11.615509651601315">
        <ele>402.9296875</ele>
        <time>2004-11-07T10:16:37Z</time>
      </trkpt>
      <trkpt lat="43.033232185989618" lon="11.615405632182956">
        <ele>404.3717041015625</ele>
        <time>2004-11-07T10:16:46Z</time>
      </trkpt>
      <trkpt lat="43.033290021121502" lon="11.615302031859756">
        <ele>405.3330078125</ele>
        <time>2004-11-07T10:16:55Z</time>
      </trkpt>
      <trkpt lat="43.0333505384624" lon="11.615197341889143">
        <ele>407.255615234375</ele>
        <time>2004-11-07T10:17:04Z</time>
      </trkpt>
      <trkpt lat="43.03341306746006" lon="11.615102291107178">
        <ele>409.1783447265625</ele>
        <time>2004-11-07T10:17:13Z</time>
      </trkpt>
      <trkpt lat="43.033468136563897" lon="11.615005061030388">
        <ele>410.6202392578125</ele>
        <time>2004-11-07T10:17:21Z</time>
      </trkpt>
      <trkpt lat="43.03352689370513" lon="11.614904562011361">
        <ele>410.6202392578125</ele>
        <time>2004-11-07T10:17:29Z</time>
      </trkpt>
      <trkpt lat="43.033590344712138" lon="11.614806326106191">
        <ele>412.062255859375</ele>
        <time>2004-11-07T10:17:37Z</time>
      </trkpt>
      <trkpt lat="43.033647257834673" lon="11.614706246182323">
        <ele>413.5042724609375</ele>
        <time>2004-11-07T10:17:45Z</time>
      </trkpt>
      <trkpt lat="43.033705344423652" lon="11.614597784355283">
        <ele>414.4654541015625</ele>
        <time>2004-11-07T10:17:54Z</time>
      </trkpt>
      <trkpt lat="43.033749097958207" lon="11.614488149061799">
        <ele>415.4268798828125</ele>
        <time>2004-11-07T10:18:02Z</time>
      </trkpt>
      <trkpt lat="43.033784469589591" lon="11.614368455484509">
        <ele>417.349609375</ele>
        <time>2004-11-07T10:18:10Z</time>
      </trkpt>
      <trkpt lat="43.033808525651693" lon="11.614237446337938">
        <ele>418.310791015625</ele>
        <time>2004-11-07T10:18:18Z</time>
      </trkpt>
      <trkpt lat="43.033826882019639" lon="11.61411733366549">
        <ele>419.272216796875</ele>
        <time>2004-11-07T10:18:25Z</time>
      </trkpt>
      <trkpt lat="43.033832414075732" lon="11.613977942615747">
        <ele>420.2333984375</ele>
        <time>2004-11-07T10:18:33Z</time>
      </trkpt>
      <trkpt lat="43.033838700503111" lon="11.61385640501976">
        <ele>420.2333984375</ele>
        <time>2004-11-07T10:18:40Z</time>
      </trkpt>
      <trkpt lat="43.033842975273728" lon="11.613717516884208">
        <ele>422.63671875</ele>
        <time>2004-11-07T10:18:47Z</time>
      </trkpt>
      <trkpt lat="43.033839790150523" lon="11.613576365634799">
        <ele>423.117431640625</ele>
        <time>2004-11-07T10:18:54Z</time>
      </trkpt>
      <trkpt lat="43.033840544521809" lon="11.613443847745657">
        <ele>424.0787353515625</ele>
        <time>2004-11-07T10:19:01Z</time>
      </trkpt>
      <trkpt lat="43.033843394368887" lon="11.613316275179386">
        <ele>425.0401611328125</ele>
        <time>2004-11-07T10:19:08Z</time>
      </trkpt>
      <trkpt lat="43.03384892642498" lon="11.613188786432147">
        <ele>427.443359375</ele>
        <time>2004-11-07T10:19:15Z</time>
      </trkpt>
      <trkpt lat="43.033851608633995" lon="11.613056100904942">
        <ele>428.4046630859375</ele>
        <time>2004-11-07T10:19:22Z</time>
      </trkpt>
      <trkpt lat="43.033854039385915" lon="11.612922744825482">
        <ele>429.8465576171875</ele>
        <time>2004-11-07T10:19:29Z</time>
      </trkpt>
      <trkpt lat="43.033862002193928" lon="11.612796429544687">
        <ele>430.8079833984375</ele>
        <time>2004-11-07T10:19:36Z</time>
      </trkpt>
      <trkpt lat="43.033867031335831" lon="11.612668102607131">
        <ele>431.28857421875</ele>
        <time>2004-11-07T10:19:43Z</time>
      </trkpt>
      <trkpt lat="43.033872814849019" lon="11.612537428736687">
        <ele>432.730712890625</ele>
        <time>2004-11-07T10:19:50Z</time>
      </trkpt>
      <trkpt lat="43.033879855647683" lon="11.612409604713321">
        <ele>433.69189453125</ele>
        <time>2004-11-07T10:19:57Z</time>
      </trkpt>
      <trkpt lat="43.033885387703776" lon="11.612290581688285">
        <ele>434.6533203125</ele>
        <time>2004-11-07T10:20:04Z</time>
      </trkpt>
      <trkpt lat="43.033903073519468" lon="11.612160997465253">
        <ele>436.575927734375</ele>
        <time>2004-11-07T10:20:12Z</time>
      </trkpt>
      <trkpt lat="43.033915814012289" lon="11.612021774053574">
        <ele>438.49853515625</ele>
        <time>2004-11-07T10:20:20Z</time>
      </trkpt>
      <trkpt lat="43.033932913094759" lon="11.6118891723454">
        <ele>438.9791259765625</ele>
        <time>2004-11-07T10:20:28Z</time>
      </trkpt>
      <trkpt lat="43.033940875902772" lon="11.61175673827529">
        <ele>440.4212646484375</ele>
        <time>2004-11-07T10:20:36Z</time>
      </trkpt>
      <trkpt lat="43.033957639709115" lon="11.61162338219583">
        <ele>441.8631591796875</ele>
        <time>2004-11-07T10:20:44Z</time>
      </trkpt>
      <trkpt lat="43.033971972763538" lon="11.611491953954101">
        <ele>444.7470703125</ele>
        <time>2004-11-07T10:20:52Z</time>
      </trkpt>
      <trkpt lat="43.033992256969213" lon="11.61136144772172">
        <ele>445.2276611328125</ele>
        <time>2004-11-07T10:21:00Z</time>
      </trkpt>
      <trkpt lat="43.034009607508779" lon="11.611227001994848">
        <ele>446.669677734375</ele>
        <time>2004-11-07T10:21:08Z</time>
      </trkpt>
      <trkpt lat="43.034031400457025" lon="11.611096160486341">
        <ele>447.6309814453125</ele>
        <time>2004-11-07T10:21:16Z</time>
      </trkpt>
      <trkpt lat="43.034040033817291" lon="11.610972443595529">
        <ele>449.072998046875</ele>
        <time>2004-11-07T10:21:23Z</time>
      </trkpt>
      <trkpt lat="43.034068113192916" lon="11.610845038667321">
        <ele>450.99560546875</ele>
        <time>2004-11-07T10:21:31Z</time>
      </trkpt>
      <trkpt lat="43.034087894484401" lon="11.610723501071334">
        <ele>451.95703125</ele>
        <time>2004-11-07T10:21:38Z</time>
      </trkpt>
      <trkpt lat="43.034120835363865" lon="11.610592324286699">
        <ele>453.879638671875</ele>
        <time>2004-11-07T10:21:45Z</time>
      </trkpt>
      <trkpt lat="43.034184621647" lon="11.610516551882029">
        <ele>454.3602294921875</ele>
        <time>2004-11-07T10:21:51Z</time>
      </trkpt>
      <trkpt lat="43.03425838239491" lon="11.61043943837285">
        <ele>454.8408203125</ele>
        <time>2004-11-07T10:21:56Z</time>
      </trkpt>
      <trkpt lat="43.034324096515775" lon="11.610364085063338">
        <ele>454.8408203125</ele>
        <time>2004-11-07T10:22:00Z</time>
      </trkpt>
      <trkpt lat="43.034402634948492" lon="11.610282277688384">
        <ele>455.321533203125</ele>
        <time>2004-11-07T10:22:04Z</time>
      </trkpt>
      <trkpt lat="43.034475976601243" lon="11.610190831124783">
        <ele>455.80224609375</ele>
        <time>2004-11-07T10:22:08Z</time>
      </trkpt>
      <trkpt lat="43.034558957442641" lon="11.610097959637642">
        <ele>455.321533203125</ele>
        <time>2004-11-07T10:22:12Z</time>
      </trkpt>
      <trkpt lat="43.034645207226276" lon="11.610001735389233">
        <ele>456.282958984375</ele>
        <time>2004-11-07T10:22:16Z</time>
      </trkpt>
      <trkpt lat="43.034729110077024" lon="11.60992193967104">
        <ele>456.282958984375</ele>
        <time>2004-11-07T10:22:20Z</time>
      </trkpt>
      <trkpt lat="43.034819969907403" lon="11.609836611896753">
        <ele>457.2442626953125</ele>
        <time>2004-11-07T10:22:25Z</time>
      </trkpt>
      <trkpt lat="43.034903956577182" lon="11.609772993251681">
        <ele>458.20556640625</ele>
        <time>2004-11-07T10:22:30Z</time>
      </trkpt>
      <trkpt lat="43.034986853599548" lon="11.60971918143332">
        <ele>458.6861572265625</ele>
        <time>2004-11-07T10:22:35Z</time>
      </trkpt>
      <trkpt lat="43.035079725086689" lon="11.609677020460367">
        <ele>459.1668701171875</ele>
        <time>2004-11-07T10:22:41Z</time>
      </trkpt>
      <trkpt lat="43.035182822495699" lon="11.609649276360869">
        <ele>460.6087646484375</ele>
        <time>2004-11-07T10:22:48Z</time>
      </trkpt>
      <trkpt lat="43.035280723124743" lon="11.609645839780569">
        <ele>461.5701904296875</ele>
        <time>2004-11-07T10:22:56Z</time>
      </trkpt>
      <trkpt lat="43.035391867160797" lon="11.609665034338832">
        <ele>462.05078125</ele>
        <time>2004-11-07T10:23:05Z</time>
      </trkpt>
      <trkpt lat="43.03549169562757" lon="11.609668387100101">
        <ele>463.4927978515625</ele>
        <time>2004-11-07T10:23:14Z</time>
      </trkpt>
      <trkpt lat="43.035585237666965" lon="11.609637206420302">
        <ele>465.41552734375</ele>
        <time>2004-11-07T10:23:23Z</time>
      </trkpt>
      <trkpt lat="43.035665787756443" lon="11.609604600816965">
        <ele>467.338134765625</ele>
        <time>2004-11-07T10:23:32Z</time>
      </trkpt>
      <trkpt lat="43.035744493827224" lon="11.609571743756533">
        <ele>469.2607421875</ele>
        <time>2004-11-07T10:23:41Z</time>
      </trkpt>
      <trkpt lat="43.035795204341412" lon="11.609473088756204">
        <ele>471.6639404296875</ele>
        <time>2004-11-07T10:23:53Z</time>
      </trkpt>
      <trkpt lat="43.035797467455268" lon="11.609345683827996">
        <ele>474.5479736328125</ele>
        <time>2004-11-07T10:24:04Z</time>
      </trkpt>
      <trkpt lat="43.035782463848591" lon="11.609223475679755">
        <ele>477.431884765625</ele>
        <time>2004-11-07T10:24:15Z</time>
      </trkpt>
      <trkpt lat="43.035765280947089" lon="11.609103279188275">
        <ele>478.8739013671875</ele>
        <time>2004-11-07T10:24:25Z</time>
      </trkpt>
      <trkpt lat="43.035740135237575" lon="11.608988530933857">
        <ele>480.31591796875</ele>
        <time>2004-11-07T10:24:35Z</time>
      </trkpt>
      <trkpt lat="43.035724712535739" lon="11.608866322785616">
        <ele>481.2772216796875</ele>
        <time>2004-11-07T10:24:45Z</time>
      </trkpt>
      <trkpt lat="43.035758407786489" lon="11.608751406893134">
        <ele>483.1998291015625</ele>
        <time>2004-11-07T10:24:56Z</time>
      </trkpt>
      <trkpt lat="43.035829570144415" lon="11.608671946451068">
        <ele>483.680419921875</ele>
        <time>2004-11-07T10:25:03Z</time>
      </trkpt>
      <trkpt lat="43.035888997837901" lon="11.608587373048067">
        <ele>485.1224365234375</ele>
        <time>2004-11-07T10:25:10Z</time>
      </trkpt>
      <trkpt lat="43.035945910960436" lon="11.608460722491145">
        <ele>486.564453125</ele>
        <time>2004-11-07T10:25:18Z</time>
      </trkpt>
      <trkpt lat="43.035962004214525" lon="11.608328623697162">
        <ele>487.0450439453125</ele>
        <time>2004-11-07T10:25:23Z</time>
      </trkpt>
      <trkpt lat="43.035980276763439" lon="11.608168361708522">
        <ele>487.525634765625</ele>
        <time>2004-11-07T10:25:28Z</time>
      </trkpt>
      <trkpt lat="43.035996202379465" lon="11.608043136075139">
        <ele>488.0064697265625</ele>
        <time>2004-11-07T10:25:32Z</time>
      </trkpt>
      <trkpt lat="43.036023778840899" lon="11.607914641499519">
        <ele>488.0064697265625</ele>
        <time>2004-11-07T10:25:36Z</time>
      </trkpt>
      <trkpt lat="43.036057474091649" lon="11.607774496078491">
        <ele>488.0064697265625</ele>
        <time>2004-11-07T10:25:41Z</time>
      </trkpt>
      <trkpt lat="43.036115476861596" lon="11.607662932947278">
        <ele>489.4483642578125</ele>
        <time>2004-11-07T10:25:47Z</time>
      </trkpt>
      <trkpt lat="43.036198206245899" lon="11.607592273503542">
        <ele>490.4097900390625</ele>
        <time>2004-11-07T10:25:54Z</time>
      </trkpt>
      <trkpt lat="43.036297196522355" lon="11.607542484998703">
        <ele>491.8516845703125</ele>
        <time>2004-11-07T10:26:02Z</time>
      </trkpt>
      <trkpt lat="43.036393420770764" lon="11.607492696493864">
        <ele>492.81298828125</ele>
        <time>2004-11-07T10:26:10Z</time>
      </trkpt>
      <trkpt lat="43.036467432975769" lon="11.60743921995163">
        <ele>495.2161865234375</ele>
        <time>2004-11-07T10:26:18Z</time>
      </trkpt>
      <trkpt lat="43.036545217037201" lon="11.607470400631428">
        <ele>496.177734375</ele>
        <time>2004-11-07T10:26:26Z</time>
      </trkpt>
      <trkpt lat="43.036576397716999" lon="11.60760635510087">
        <ele>496.6583251953125</ele>
        <time>2004-11-07T10:26:33Z</time>
      </trkpt>
      <trkpt lat="43.036610428243876" lon="11.607749266549945">
        <ele>496.177734375</ele>
        <time>2004-11-07T10:26:39Z</time>
      </trkpt>
      <trkpt lat="43.036645129323006" lon="11.607873905450106">
        <ele>496.6583251953125</ele>
        <time>2004-11-07T10:26:44Z</time>
      </trkpt>
      <trkpt lat="43.036676310002804" lon="11.607991755008698">
        <ele>497.138916015625</ele>
        <time>2004-11-07T10:26:49Z</time>
      </trkpt>
      <trkpt lat="43.036689469590783" lon="11.608120417222381">
        <ele>497.61962890625</ele>
        <time>2004-11-07T10:26:55Z</time>
      </trkpt>
      <trkpt lat="43.036661390215158" lon="11.608240697532892">
        <ele>498.100341796875</ele>
        <time>2004-11-07T10:27:01Z</time>
      </trkpt>
      <trkpt lat="43.036617552861571" lon="11.60836081020534">
        <ele>498.100341796875</ele>
        <time>2004-11-07T10:27:07Z</time>
      </trkpt>
      <trkpt lat="43.036576816812158" lon="11.608481677249074">
        <ele>498.5809326171875</ele>
        <time>2004-11-07T10:27:13Z</time>
      </trkpt>
      <trkpt lat="43.036539852619171" lon="11.60860313102603">
        <ele>499.542236328125</ele>
        <time>2004-11-07T10:27:19Z</time>
      </trkpt>
      <trkpt lat="43.036574888974428" lon="11.608713855966926">
        <ele>500.02294921875</ele>
        <time>2004-11-07T10:27:25Z</time>
      </trkpt>
      <trkpt lat="43.036589808762074" lon="11.608822401612997">
        <ele>499.542236328125</ele>
        <time>2004-11-07T10:27:32Z</time>
      </trkpt>
      <trkpt lat="43.036542953923345" lon="11.608927510678768">
        <ele>499.0615234375</ele>
        <time>2004-11-07T10:27:36Z</time>
      </trkpt>
      <trkpt lat="43.036496182903647" lon="11.609034882858396">
        <ele>498.5809326171875</ele>
        <time>2004-11-07T10:27:40Z</time>
      </trkpt>
      <trkpt lat="43.036449495702982" lon="11.609142338857055">
        <ele>498.100341796875</ele>
        <time>2004-11-07T10:27:44Z</time>
      </trkpt>
      <trkpt lat="43.036391073837876" lon="11.609276616945863">
        <ele>498.100341796875</ele>
        <time>2004-11-07T10:27:49Z</time>
      </trkpt>
      <trkpt lat="43.036389397457242" lon="11.609366973862052">
        <ele>499.542236328125</ele>
        <time>2004-11-07T10:27:58Z</time>
      </trkpt>
      <trkpt lat="43.036479167640209" lon="11.609391700476408">
        <ele>499.0615234375</ele>
        <time>2004-11-07T10:28:14Z</time>
      </trkpt>
      <trkpt lat="43.036568937823176" lon="11.609416427090764">
        <ele>500.02294921875</ele>
        <time>2004-11-07T10:28:30Z</time>
      </trkpt>
      <trkpt lat="43.036658708006144" lon="11.609441069886088">
        <ele>499.542236328125</ele>
        <time>2004-11-07T10:28:46Z</time>
      </trkpt>
      <trkpt lat="43.036726014688611" lon="11.609459593892097">
        <ele>499.0615234375</ele>
        <time>2004-11-07T10:28:59Z</time>
      </trkpt>
      <trkpt lat="43.036871692165732" lon="11.609917664900422">
        <ele>500.984130859375</ele>
        <time>2004-11-07T10:33:03Z</time>
      </trkpt>
      <trkpt lat="43.036620151251554" lon="11.609199251979589">
        <ele>500.02294921875</ele>
        <time>2004-11-07T10:33:17Z</time>
      </trkpt>
      <trkpt lat="43.036532392725348" lon="11.60914015956223">
        <ele>500.02294921875</ele>
        <time>2004-11-07T10:33:39Z</time>
      </trkpt>
      <trkpt lat="43.036385960876942" lon="11.609217775985599">
        <ele>500.02294921875</ele>
        <time>2004-11-07T10:33:41Z</time>
      </trkpt>
      <trkpt lat="43.03624464198947" lon="11.609284412115812">
        <ele>500.5035400390625</ele>
        <time>2004-11-07T10:33:43Z</time>
      </trkpt>
      <trkpt lat="43.036231901496649" lon="11.609130268916488">
        <ele>500.984130859375</ele>
        <time>2004-11-07T10:33:49Z</time>
      </trkpt>
      <trkpt lat="43.036249838769436" lon="11.608961373567581">
        <ele>500.5035400390625</ele>
        <time>2004-11-07T10:33:53Z</time>
      </trkpt>
      <trkpt lat="43.036330556496978" lon="11.608797758817673">
        <ele>500.02294921875</ele>
        <time>2004-11-07T10:33:56Z</time>
      </trkpt>
      <trkpt lat="43.036418817937374" lon="11.608615703880787">
        <ele>499.0615234375</ele>
        <time>2004-11-07T10:33:59Z</time>
      </trkpt>
      <trkpt lat="43.036707323044538" lon="11.608144724741578">
        <ele>499.0615234375</ele>
        <time>2004-11-07T10:34:02Z</time>
      </trkpt>
      <trkpt lat="43.036675220355392" lon="11.607989575713873">
        <ele>498.100341796875</ele>
        <time>2004-11-07T10:34:04Z</time>
      </trkpt>
      <trkpt lat="43.03663901053369" lon="11.607848759740591">
        <ele>498.5809326171875</ele>
        <time>2004-11-07T10:34:06Z</time>
      </trkpt>
      <trkpt lat="43.036617804318666" lon="11.607727557420731">
        <ele>498.100341796875</ele>
        <time>2004-11-07T10:34:08Z</time>
      </trkpt>
      <trkpt lat="43.036514790728688" lon="11.607539970427752">
        <ele>497.138916015625</ele>
        <time>2004-11-07T10:34:10Z</time>
      </trkpt>
      <trkpt lat="43.036512862890959" lon="11.607450200244784">
        <ele>496.6583251953125</ele>
        <time>2004-11-07T10:34:12Z</time>
      </trkpt>
      <trkpt lat="43.036494674161077" lon="11.607295470312238">
        <ele>496.6583251953125</ele>
        <time>2004-11-07T10:34:15Z</time>
      </trkpt>
      <trkpt lat="43.036501379683614" lon="11.607177620753646">
        <ele>497.61962890625</ele>
        <time>2004-11-07T10:34:19Z</time>
      </trkpt>
      <trkpt lat="43.036532308906317" lon="11.60705323331058">
        <ele>499.0615234375</ele>
        <time>2004-11-07T10:34:25Z</time>
      </trkpt>
      <trkpt lat="43.036563992500305" lon="11.606915267184377">
        <ele>499.542236328125</ele>
        <time>2004-11-07T10:34:31Z</time>
      </trkpt>
      <trkpt lat="43.036601543426514" lon="11.606794483959675">
        <ele>500.984130859375</ele>
        <time>2004-11-07T10:34:36Z</time>
      </trkpt>
      <trkpt lat="43.036636328324676" lon="11.606681915000081">
        <ele>501.46484375</ele>
        <time>2004-11-07T10:34:41Z</time>
      </trkpt>
      <trkpt lat="43.036678656935692" lon="11.6065704356879">
        <ele>502.4261474609375</ele>
        <time>2004-11-07T10:34:46Z</time>
      </trkpt>
      <trkpt lat="43.036744454875588" lon="11.606461051851511">
        <ele>503.387451171875</ele>
        <time>2004-11-07T10:34:53Z</time>
      </trkpt>
      <trkpt lat="43.036820897832513" lon="11.606385530903935">
        <ele>504.8294677734375</ele>
        <time>2004-11-07T10:35:00Z</time>
      </trkpt>
      <trkpt lat="43.036895748227835" lon="11.606318978592753">
        <ele>506.271484375</ele>
        <time>2004-11-07T10:35:07Z</time>
      </trkpt>
      <trkpt lat="43.036978226155043" lon="11.60626751370728">
        <ele>507.7135009765625</ele>
        <time>2004-11-07T10:35:15Z</time>
      </trkpt>
      <trkpt lat="43.037069253623486" lon="11.606238093227148">
        <ele>509.1553955078125</ele>
        <time>2004-11-07T10:35:23Z</time>
      </trkpt>
      <trkpt lat="43.03716229274869" lon="11.606239685788751">
        <ele>510.11669921875</ele>
        <time>2004-11-07T10:35:33Z</time>
      </trkpt>
      <trkpt lat="43.037253320217133" lon="11.606220407411456">
        <ele>512.0394287109375</ele>
        <time>2004-11-07T10:35:41Z</time>
      </trkpt>
      <trkpt lat="43.037340911105275" lon="11.606208924204111">
        <ele>513.000732421875</ele>
        <time>2004-11-07T10:35:49Z</time>
      </trkpt>
      <trkpt lat="43.03742959164083" lon="11.606189729645848">
        <ele>514.92333984375</ele>
        <time>2004-11-07T10:35:57Z</time>
      </trkpt>
      <trkpt lat="43.037522714585066" lon="11.606189981102943">
        <ele>515.8846435546875</ele>
        <time>2004-11-07T10:36:05Z</time>
      </trkpt>
      <trkpt lat="43.037615837529302" lon="11.606168439611793">
        <ele>517.32666015625</ele>
        <time>2004-11-07T10:36:12Z</time>
      </trkpt>
      <trkpt lat="43.037710133939981" lon="11.606160644441843">
        <ele>517.8072509765625</ele>
        <time>2004-11-07T10:36:19Z</time>
      </trkpt>
      <trkpt lat="43.037801161408424" lon="11.606147736310959">
        <ele>519.249267578125</ele>
        <time>2004-11-07T10:36:26Z</time>
      </trkpt>
      <trkpt lat="43.037889590486884" lon="11.606138180941343">
        <ele>519.7298583984375</ele>
        <time>2004-11-07T10:36:33Z</time>
      </trkpt>
      <trkpt lat="43.037992771714926" lon="11.606117896735668">
        <ele>520.6912841796875</ele>
        <time>2004-11-07T10:36:41Z</time>
      </trkpt>
      <trkpt lat="43.038096455857158" lon="11.606090404093266">
        <ele>521.1719970703125</ele>
        <time>2004-11-07T10:36:49Z</time>
      </trkpt>
      <trkpt lat="43.038178682327271" lon="11.606042040511966">
        <ele>522.6138916015625</ele>
        <time>2004-11-07T10:36:56Z</time>
      </trkpt>
      <trkpt lat="43.03825730457902" lon="11.605961322784424">
        <ele>523.5751953125</ele>
        <time>2004-11-07T10:37:04Z</time>
      </trkpt>
      <trkpt lat="43.038317570462823" lon="11.605865601450205">
        <ele>524.5364990234375</ele>
        <time>2004-11-07T10:37:11Z</time>
      </trkpt>
      <trkpt lat="43.038364592939615" lon="11.605744399130344">
        <ele>525.0172119140625</ele>
        <time>2004-11-07T10:37:18Z</time>
      </trkpt>
      <trkpt lat="43.038394097238779" lon="11.605622610077262">
        <ele>525.497802734375</ele>
        <time>2004-11-07T10:37:23Z</time>
      </trkpt>
      <trkpt lat="43.038421254605055" lon="11.605489421635866">
        <ele>525.497802734375</ele>
        <time>2004-11-07T10:37:29Z</time>
      </trkpt>
      <trkpt lat="43.03843810223043" lon="11.605353718623519">
        <ele>525.497802734375</ele>
        <time>2004-11-07T10:37:35Z</time>
      </trkpt>
      <trkpt lat="43.038456374779344" lon="11.605207286775112">
        <ele>526.4591064453125</ele>
        <time>2004-11-07T10:37:41Z</time>
      </trkpt>
      <trkpt lat="43.038470540195704" lon="11.605069739744067">
        <ele>527.42041015625</ele>
        <time>2004-11-07T10:37:46Z</time>
      </trkpt>
      <trkpt lat="43.03848210722208" lon="11.604917775839567">
        <ele>527.42041015625</ele>
        <time>2004-11-07T10:37:51Z</time>
      </trkpt>
      <trkpt lat="43.038496356457472" lon="11.60477377474308">
        <ele>526.9398193359375</ele>
        <time>2004-11-07T10:37:55Z</time>
      </trkpt>
      <trkpt lat="43.038523178547621" lon="11.604629857465625">
        <ele>526.9398193359375</ele>
        <time>2004-11-07T10:37:59Z</time>
      </trkpt>
      <trkpt lat="43.038539523258805" lon="11.604515193030238">
        <ele>527.42041015625</ele>
        <time>2004-11-07T10:38:04Z</time>
      </trkpt>
      <trkpt lat="43.038567015901208" lon="11.604389548301697">
        <ele>528.3818359375</ele>
        <time>2004-11-07T10:38:11Z</time>
      </trkpt>
      <trkpt lat="43.038592329248786" lon="11.604244541376829">
        <ele>528.3818359375</ele>
        <time>2004-11-07T10:38:18Z</time>
      </trkpt>
      <trkpt lat="43.038639519363642" lon="11.604093248024583">
        <ele>527.42041015625</ele>
        <time>2004-11-07T10:38:22Z</time>
      </trkpt>
      <trkpt lat="43.038712190464139" lon="11.603945894166827">
        <ele>526.9398193359375</ele>
        <time>2004-11-07T10:38:25Z</time>
      </trkpt>
      <trkpt lat="43.03877430036664" lon="11.603844556957483">
        <ele>526.9398193359375</ele>
        <time>2004-11-07T10:38:27Z</time>
      </trkpt>
      <trkpt lat="43.038844205439091" lon="11.603746823966503">
        <ele>526.4591064453125</ele>
        <time>2004-11-07T10:38:29Z</time>
      </trkpt>
      <trkpt lat="43.03891260176897" lon="11.603648336604238">
        <ele>526.4591064453125</ele>
        <time>2004-11-07T10:38:31Z</time>
      </trkpt>
      <trkpt lat="43.038985189050436" lon="11.603553704917431">
        <ele>525.9783935546875</ele>
        <time>2004-11-07T10:38:33Z</time>
      </trkpt>
      <trkpt lat="43.039058363065124" lon="11.60341246984899">
        <ele>525.497802734375</ele>
        <time>2004-11-07T10:38:36Z</time>
      </trkpt>
      <trkpt lat="43.039125250652432" lon="11.603313982486725">
        <ele>525.9783935546875</ele>
        <time>2004-11-07T10:38:38Z</time>
      </trkpt>
      <trkpt lat="43.039205633103848" lon="11.603210298344493">
        <ele>525.9783935546875</ele>
        <time>2004-11-07T10:38:40Z</time>
      </trkpt>
      <trkpt lat="43.039265563711524" lon="11.603115415200591">
        <ele>525.0172119140625</ele>
        <time>2004-11-07T10:38:42Z</time>
      </trkpt>
      <trkpt lat="43.039327673614025" lon="11.603012066334486">
        <ele>524.5364990234375</ele>
        <time>2004-11-07T10:38:44Z</time>
      </trkpt>
      <trkpt lat="43.039400093257427" lon="11.60287250764668">
        <ele>525.0172119140625</ele>
        <time>2004-11-07T10:38:47Z</time>
      </trkpt>
      <trkpt lat="43.039461951702833" lon="11.602728422731161">
        <ele>524.5364990234375</ele>
        <time>2004-11-07T10:38:50Z</time>
      </trkpt>
      <trkpt lat="43.039511404931545" lon="11.602587355300784">
        <ele>524.0557861328125</ele>
        <time>2004-11-07T10:38:53Z</time>
      </trkpt>
      <trkpt lat="43.039550548419356" lon="11.60244251601398">
        <ele>524.0557861328125</ele>
        <time>2004-11-07T10:38:56Z</time>
      </trkpt>
      <trkpt lat="43.039579633623362" lon="11.602297928184271">
        <ele>524.0557861328125</ele>
        <time>2004-11-07T10:38:59Z</time>
      </trkpt>
      <trkpt lat="43.039598995819688" lon="11.602180162444711">
        <ele>524.0557861328125</ele>
        <time>2004-11-07T10:39:02Z</time>
      </trkpt>
      <trkpt lat="43.039623135700822" lon="11.602052925154567">
        <ele>523.0946044921875</ele>
        <time>2004-11-07T10:39:07Z</time>
      </trkpt>
      <trkpt lat="43.039639061316848" lon="11.601892076432705">
        <ele>523.5751953125</ele>
        <time>2004-11-07T10:39:37Z</time>
      </trkpt>
      <trkpt lat="43.039663787931204" lon="11.601753775030375">
        <ele>522.1331787109375</ele>
        <time>2004-11-07T10:39:40Z</time>
      </trkpt>
      <trkpt lat="43.039702260866761" lon="11.601585717871785">
        <ele>521.1719970703125</ele>
        <time>2004-11-07T10:39:43Z</time>
      </trkpt>
      <trkpt lat="43.039739141240716" lon="11.601464515551925">
        <ele>521.1719970703125</ele>
        <time>2004-11-07T10:39:45Z</time>
      </trkpt>
      <trkpt lat="43.039785660803318" lon="11.601336020976305">
        <ele>520.6912841796875</ele>
        <time>2004-11-07T10:39:47Z</time>
      </trkpt>
      <trkpt lat="43.039832850918174" lon="11.601210376247764">
        <ele>518.7685546875</ele>
        <time>2004-11-07T10:39:49Z</time>
      </trkpt>
      <trkpt lat="43.039891859516501" lon="11.601097388193011">
        <ele>518.7685546875</ele>
        <time>2004-11-07T10:39:51Z</time>
      </trkpt>
      <trkpt lat="43.039966206997633" lon="11.600992865860462">
        <ele>517.8072509765625</ele>
        <time>2004-11-07T10:39:53Z</time>
      </trkpt>
      <trkpt lat="43.040042482316494" lon="11.600884739309549">
        <ele>517.32666015625</ele>
        <time>2004-11-07T10:39:55Z</time>
      </trkpt>
      <trkpt lat="43.040125714614987" lon="11.600768817588687">
        <ele>516.365234375</ele>
        <time>2004-11-07T10:39:57Z</time>
      </trkpt>
      <trkpt lat="43.040211042389274" lon="11.600654236972332">
        <ele>515.404052734375</ele>
        <time>2004-11-07T10:39:59Z</time>
      </trkpt>
      <trkpt lat="43.040309445932508" lon="11.60053052008152">
        <ele>514.442626953125</ele>
        <time>2004-11-07T10:40:01Z</time>
      </trkpt>
      <trkpt lat="43.040408184751868" lon="11.600409904494882">
        <ele>513.9620361328125</ele>
        <time>2004-11-07T10:40:03Z</time>
      </trkpt>
      <trkpt lat="43.040514383465052" lon="11.600286103785038">
        <ele>512.52001953125</ele>
        <time>2004-11-07T10:40:05Z</time>
      </trkpt>
      <trkpt lat="43.040610691532493" lon="11.600186275318265">
        <ele>511.5587158203125</ele>
        <time>2004-11-07T10:40:07Z</time>
      </trkpt>
      <trkpt lat="43.040702473372221" lon="11.600110586732626">
        <ele>511.0780029296875</ele>
        <time>2004-11-07T10:40:09Z</time>
      </trkpt>
      <trkpt lat="43.040792495012283" lon="11.600051410496235">
        <ele>510.5972900390625</ele>
        <time>2004-11-07T10:40:11Z</time>
      </trkpt>
      <trkpt lat="43.040888635441661" lon="11.599993743002415">
        <ele>509.6361083984375</ele>
        <time>2004-11-07T10:40:13Z</time>
      </trkpt>
      <trkpt lat="43.040978405624628" lon="11.599945966154337">
        <ele>509.1553955078125</ele>
        <time>2004-11-07T10:40:15Z</time>
      </trkpt>
      <trkpt lat="43.041067589074373" lon="11.599887879565358">
        <ele>508.194091796875</ele>
        <time>2004-11-07T10:40:17Z</time>
      </trkpt>
      <trkpt lat="43.041156269609928" lon="11.599830631166697">
        <ele>508.194091796875</ele>
        <time>2004-11-07T10:40:19Z</time>
      </trkpt>
      <trkpt lat="43.04124771617353" lon="11.59977707080543">
        <ele>507.7135009765625</ele>
        <time>2004-11-07T10:40:21Z</time>
      </trkpt>
      <trkpt lat="43.041335726156831" lon="11.599723929539323">
        <ele>506.7520751953125</ele>
        <time>2004-11-07T10:40:23Z</time>
      </trkpt>
      <trkpt lat="43.041448881849647" lon="11.599667686969042">
        <ele>505.7908935546875</ele>
        <time>2004-11-07T10:40:26Z</time>
      </trkpt>
      <trkpt lat="43.041590116918087" lon="11.599672380834818">
        <ele>505.3101806640625</ele>
        <time>2004-11-07T10:40:29Z</time>
      </trkpt>
      <trkpt lat="43.041697070002556" lon="11.599686378613114">
        <ele>503.8681640625</ele>
        <time>2004-11-07T10:40:31Z</time>
      </trkpt>
      <trkpt lat="43.041815254837275" lon="11.599714541807771">
        <ele>500.984130859375</ele>
        <time>2004-11-07T10:40:33Z</time>
      </trkpt>
      <trkpt lat="43.041945174336433" lon="11.599776400253177">
        <ele>500.02294921875</ele>
        <time>2004-11-07T10:40:35Z</time>
      </trkpt>
      <trkpt lat="43.042066376656294" lon="11.599862650036812">
        <ele>496.6583251953125</ele>
        <time>2004-11-07T10:40:37Z</time>
      </trkpt>
      <trkpt lat="43.042187159880996" lon="11.599953006953001">
        <ele>495.2161865234375</ele>
        <time>2004-11-07T10:40:39Z</time>
      </trkpt>
      <trkpt lat="43.042314732447267" lon="11.600041352212429">
        <ele>494.2550048828125</ele>
        <time>2004-11-07T10:40:41Z</time>
      </trkpt>
      <trkpt lat="43.042467115446925" lon="11.600140761584044">
        <ele>492.81298828125</ele>
        <time>2004-11-07T10:40:43Z</time>
      </trkpt>
      <trkpt lat="43.042625617235899" lon="11.600263137370348">
        <ele>490.890380859375</ele>
        <time>2004-11-07T10:40:45Z</time>
      </trkpt>
      <trkpt lat="43.042709352448583" lon="11.600333629176021">
        <ele>489.9290771484375</ele>
        <time>2004-11-07T10:40:46Z</time>
      </trkpt>
      <trkpt lat="43.042792500928044" lon="11.600404288619757">
        <ele>488.9677734375</ele>
        <time>2004-11-07T10:40:47Z</time>
      </trkpt>
      <trkpt lat="43.042879421263933" lon="11.600465225055814">
        <ele>488.4871826171875</ele>
        <time>2004-11-07T10:40:48Z</time>
      </trkpt>
      <trkpt lat="43.042969107627869" lon="11.600512750446796">
        <ele>487.525634765625</ele>
        <time>2004-11-07T10:40:49Z</time>
      </trkpt>
      <trkpt lat="43.043063823133707" lon="11.600543512031436">
        <ele>487.0450439453125</ele>
        <time>2004-11-07T10:40:50Z</time>
      </trkpt>
      <trkpt lat="43.043162645772099" lon="11.600557342171669">
        <ele>486.564453125</ele>
        <time>2004-11-07T10:40:51Z</time>
      </trkpt>
      <trkpt lat="43.043267419561744" lon="11.600559270009398">
        <ele>485.60302734375</ele>
        <time>2004-11-07T10:40:52Z</time>
      </trkpt>
      <trkpt lat="43.043379737064242" lon="11.600562622770667">
        <ele>485.1224365234375</ele>
        <time>2004-11-07T10:40:53Z</time>
      </trkpt>
      <trkpt lat="43.043493311852217" lon="11.600562036037445">
        <ele>484.1611328125</ele>
        <time>2004-11-07T10:40:54Z</time>
      </trkpt>
      <trkpt lat="43.043610993772745" lon="11.600561030209064">
        <ele>482.71923828125</ele>
        <time>2004-11-07T10:40:55Z</time>
      </trkpt>
      <trkpt lat="43.043729849159718" lon="11.600560359656811">
        <ele>481.7578125</ele>
        <time>2004-11-07T10:40:56Z</time>
      </trkpt>
      <trkpt lat="43.043849878013134" lon="11.600560275837779">
        <ele>481.2772216796875</ele>
        <time>2004-11-07T10:40:57Z</time>
      </trkpt>
      <trkpt lat="43.043967895209789" lon="11.600559102371335">
        <ele>480.796630859375</ele>
        <time>2004-11-07T10:40:58Z</time>
      </trkpt>
      <trkpt lat="43.044085660949349" lon="11.600558096542954">
        <ele>479.8350830078125</ele>
        <time>2004-11-07T10:40:59Z</time>
      </trkpt>
      <trkpt lat="43.044204264879227" lon="11.600554743781686">
        <ele>479.8350830078125</ele>
        <time>2004-11-07T10:41:00Z</time>
      </trkpt>
      <trkpt lat="43.04431390017271" lon="11.600556755438447">
        <ele>478.8739013671875</ele>
        <time>2004-11-07T10:41:01Z</time>
      </trkpt>
      <trkpt lat="43.044428061693907" lon="11.600558180361986">
        <ele>477.431884765625</ele>
        <time>2004-11-07T10:41:02Z</time>
      </trkpt>
      <trkpt lat="43.044542139396071" lon="11.600559018552303">
        <ele>476.9512939453125</ele>
        <time>2004-11-07T10:41:03Z</time>
      </trkpt>
      <trkpt lat="43.044655714184046" lon="11.60056178458035">
        <ele>476.9512939453125</ele>
        <time>2004-11-07T10:41:04Z</time>
      </trkpt>
      <trkpt lat="43.044762751087546" lon="11.600568741559982">
        <ele>476.9512939453125</ele>
        <time>2004-11-07T10:41:05Z</time>
      </trkpt>
      <trkpt lat="43.044868698343635" lon="11.600575530901551">
        <ele>476.4705810546875</ele>
        <time>2004-11-07T10:41:06Z</time>
      </trkpt>
      <trkpt lat="43.044971376657486" lon="11.600585673004389">
        <ele>476.4705810546875</ele>
        <time>2004-11-07T10:41:07Z</time>
      </trkpt>
      <trkpt lat="43.045073971152306" lon="11.600596234202385">
        <ele>475.50927734375</ele>
        <time>2004-11-07T10:41:08Z</time>
      </trkpt>
      <trkpt lat="43.045169021934271" lon="11.600610986351967">
        <ele>474.5479736328125</ele>
        <time>2004-11-07T10:41:09Z</time>
      </trkpt>
      <trkpt lat="43.045255774632096" lon="11.60064828582108">
        <ele>474.0672607421875</ele>
        <time>2004-11-07T10:41:10Z</time>
      </trkpt>
      <trkpt lat="43.045341605320573" lon="11.600685333833098">
        <ele>472.6253662109375</ele>
        <time>2004-11-07T10:41:11Z</time>
      </trkpt>
      <trkpt lat="43.045435398817062" lon="11.600730009377003">
        <ele>471.183349609375</ele>
        <time>2004-11-07T10:41:12Z</time>
      </trkpt>
      <trkpt lat="43.045528354123235" lon="11.600774433463812">
        <ele>470.70263671875</ele>
        <time>2004-11-07T10:41:13Z</time>
      </trkpt>
      <trkpt lat="43.045622315257788" lon="11.60081684589386">
        <ele>469.7413330078125</ele>
        <time>2004-11-07T10:41:14Z</time>
      </trkpt>
      <trkpt lat="43.045721054077148" lon="11.600867388769984">
        <ele>468.780029296875</ele>
        <time>2004-11-07T10:41:15Z</time>
      </trkpt>
      <trkpt lat="43.045819206163287" lon="11.600916087627411">
        <ele>466.376708984375</ele>
        <time>2004-11-07T10:41:16Z</time>
      </trkpt>
      <trkpt lat="43.04591216146946" lon="11.600968390703201">
        <ele>465.8961181640625</ele>
        <time>2004-11-07T10:41:17Z</time>
      </trkpt>
      <trkpt lat="43.045999081805348" lon="11.601015077903867">
        <ele>464.4541015625</ele>
        <time>2004-11-07T10:41:18Z</time>
      </trkpt>
      <trkpt lat="43.046089438721538" lon="11.601064028218389">
        <ele>463.4927978515625</ele>
        <time>2004-11-07T10:41:19Z</time>
      </trkpt>
      <trkpt lat="43.046187339350581" lon="11.601118510589004">
        <ele>462.05078125</ele>
        <time>2004-11-07T10:41:20Z</time>
      </trkpt>
      <trkpt lat="43.046284569427371" lon="11.601173579692841">
        <ele>460.6087646484375</ele>
        <time>2004-11-07T10:41:21Z</time>
      </trkpt>
      <trkpt lat="43.046382134780288" lon="11.601228313520551">
        <ele>458.6861572265625</ele>
        <time>2004-11-07T10:41:22Z</time>
      </trkpt>
      <trkpt lat="43.046480705961585" lon="11.601281370967627">
        <ele>457.2442626953125</ele>
        <time>2004-11-07T10:41:23Z</time>
      </trkpt>
      <trkpt lat="43.046579277142882" lon="11.601334009319544">
        <ele>456.282958984375</ele>
        <time>2004-11-07T10:41:24Z</time>
      </trkpt>
      <trkpt lat="43.046794272959232" lon="11.601411290466785">
        <ele>453.879638671875</ele>
        <time>2004-11-07T10:41:26Z</time>
      </trkpt>
      <trkpt lat="43.046913128346205" lon="11.601435011252761">
        <ele>453.39892578125</ele>
        <time>2004-11-07T10:41:27Z</time>
      </trkpt>
      <trkpt lat="43.04702335037291" lon="11.601463174447417">
        <ele>450.5150146484375</ele>
        <time>2004-11-07T10:41:28Z</time>
      </trkpt>
      <trkpt lat="43.047132734209299" lon="11.601476250216365">
        <ele>449.072998046875</ele>
        <time>2004-11-07T10:41:29Z</time>
      </trkpt>
      <trkpt lat="43.047239519655704" lon="11.601470466703176">
        <ele>449.072998046875</ele>
        <time>2004-11-07T10:41:30Z</time>
      </trkpt>
      <trkpt lat="43.04733800701797" lon="11.601447835564613">
        <ele>449.072998046875</ele>
        <time>2004-11-07T10:41:31Z</time>
      </trkpt>
      <trkpt lat="43.04743037559092" lon="11.60141296684742">
        <ele>448.11181640625</ele>
        <time>2004-11-07T10:41:32Z</time>
      </trkpt>
      <trkpt lat="43.047519810497761" lon="11.601373488083482">
        <ele>448.11181640625</ele>
        <time>2004-11-07T10:41:33Z</time>
      </trkpt>
      <trkpt lat="43.047612765803933" lon="11.601318754255772">
        <ele>448.11181640625</ele>
        <time>2004-11-07T10:41:34Z</time>
      </trkpt>
      <trkpt lat="43.047705721110106" lon="11.601261422038078">
        <ele>447.1502685546875</ele>
        <time>2004-11-07T10:41:35Z</time>
      </trkpt>
      <trkpt lat="43.047801777720451" lon="11.601199563592672">
        <ele>446.1890869140625</ele>
        <time>2004-11-07T10:41:36Z</time>
      </trkpt>
      <trkpt lat="43.047897918149829" lon="11.601135525852442">
        <ele>445.7083740234375</ele>
        <time>2004-11-07T10:41:37Z</time>
      </trkpt>
      <trkpt lat="43.047992130741477" lon="11.601068135350943">
        <ele>445.7083740234375</ele>
        <time>2004-11-07T10:41:38Z</time>
      </trkpt>
      <trkpt lat="43.04808265529573" lon="11.601007701829076">
        <ele>445.7083740234375</ele>
        <time>2004-11-07T10:41:39Z</time>
      </trkpt>
      <trkpt lat="43.048169994726777" lon="11.600952632725239">
        <ele>445.2276611328125</ele>
        <time>2004-11-07T10:41:40Z</time>
      </trkpt>
      <trkpt lat="43.048250628635287" lon="11.600895887240767">
        <ele>444.7470703125</ele>
        <time>2004-11-07T10:41:41Z</time>
      </trkpt>
      <trkpt lat="43.048388930037618" lon="11.600799998268485">
        <ele>445.7083740234375</ele>
        <time>2004-11-07T10:41:43Z</time>
      </trkpt>
      <trkpt lat="43.048501666635275" lon="11.60071961581707">
        <ele>446.669677734375</ele>
        <time>2004-11-07T10:41:45Z</time>
      </trkpt>
      <trkpt lat="43.04859864525497" lon="11.600646944716573">
        <ele>446.669677734375</ele>
        <time>2004-11-07T10:41:47Z</time>
      </trkpt>
      <trkpt lat="43.048706771805882" lon="11.600573603063822">
        <ele>447.1502685546875</ele>
        <time>2004-11-07T10:41:49Z</time>
      </trkpt>
      <trkpt lat="43.048830907791853" lon="11.60048752091825">
        <ele>446.1890869140625</ele>
        <time>2004-11-07T10:41:51Z</time>
      </trkpt>
      <trkpt lat="43.04896024055779" lon="11.600396912544966">
        <ele>442.824462890625</ele>
        <time>2004-11-07T10:41:53Z</time>
      </trkpt>
      <trkpt lat="43.049121843650937" lon="11.60028719343245">
        <ele>440.90185546875</ele>
        <time>2004-11-07T10:41:55Z</time>
      </trkpt>
      <trkpt lat="43.049207758158445" lon="11.600229777395725">
        <ele>439.9404296875</ele>
        <time>2004-11-07T10:41:56Z</time>
      </trkpt>
      <trkpt lat="43.049297612160444" lon="11.600170768797398">
        <ele>439.459716796875</ele>
        <time>2004-11-07T10:41:57Z</time>
      </trkpt>
      <trkpt lat="43.04939123801887" lon="11.600111508741975">
        <ele>438.9791259765625</ele>
        <time>2004-11-07T10:41:58Z</time>
      </trkpt>
      <trkpt lat="43.04948796518147" lon="11.600050991401076">
        <ele>438.49853515625</ele>
        <time>2004-11-07T10:41:59Z</time>
      </trkpt>
      <trkpt lat="43.049583435058594" lon="11.599989803507924">
        <ele>437.537109375</ele>
        <time>2004-11-07T10:42:00Z</time>
      </trkpt>
      <trkpt lat="43.049680246040225" lon="11.599933141842484">
        <ele>437.537109375</ele>
        <time>2004-11-07T10:42:01Z</time>
      </trkpt>
      <trkpt lat="43.049775632098317" lon="11.599883437156677">
        <ele>436.575927734375</ele>
        <time>2004-11-07T10:42:02Z</time>
      </trkpt>
      <trkpt lat="43.049870179966092" lon="11.599838426336646">
        <ele>436.09521484375</ele>
        <time>2004-11-07T10:42:03Z</time>
      </trkpt>
      <trkpt lat="43.049964057281613" lon="11.59980003722012">
        <ele>436.09521484375</ele>
        <time>2004-11-07T10:42:04Z</time>
      </trkpt>
      <trkpt lat="43.050060113891959" lon="11.599766425788403">
        <ele>436.09521484375</ele>
        <time>2004-11-07T10:42:05Z</time>
      </trkpt>
      <trkpt lat="43.050153655931354" lon="11.599734239280224">
        <ele>435.614501953125</ele>
        <time>2004-11-07T10:42:06Z</time>
      </trkpt>
      <trkpt lat="43.050248036161065" lon="11.599703896790743">
        <ele>435.1339111328125</ele>
        <time>2004-11-07T10:42:07Z</time>
      </trkpt>
      <trkpt lat="43.050342248752713" lon="11.59967347048223">
        <ele>434.6533203125</ele>
        <time>2004-11-07T10:42:08Z</time>
      </trkpt>
      <trkpt lat="43.050433527678251" lon="11.599644552916288">
        <ele>434.172607421875</ele>
        <time>2004-11-07T10:42:09Z</time>
      </trkpt>
      <trkpt lat="43.050524806603789" lon="11.599616641178727">
        <ele>433.69189453125</ele>
        <time>2004-11-07T10:42:10Z</time>
      </trkpt>
      <trkpt lat="43.050614660605788" lon="11.599589735269547">
        <ele>433.69189453125</ele>
        <time>2004-11-07T10:42:11Z</time>
      </trkpt>
      <trkpt lat="43.050722200423479" lon="11.599558219313622">
        <ele>432.25</ele>
        <time>2004-11-07T10:42:12Z</time>
      </trkpt>
      <trkpt lat="43.050822196528316" lon="11.599528463557363">
        <ele>431.7691650390625</ele>
        <time>2004-11-07T10:42:13Z</time>
      </trkpt>
      <trkpt lat="43.050922444090247" lon="11.599498372524977">
        <ele>431.28857421875</ele>
        <time>2004-11-07T10:42:14Z</time>
      </trkpt>
      <trkpt lat="43.051024619489908" lon="11.599468030035496">
        <ele>430.8079833984375</ele>
        <time>2004-11-07T10:42:15Z</time>
      </trkpt>
      <trkpt lat="43.051128219813108" lon="11.599435759708285">
        <ele>429.365966796875</ele>
        <time>2004-11-07T10:42:16Z</time>
      </trkpt>
      <trkpt lat="43.051234669983387" lon="11.599402315914631">
        <ele>428.4046630859375</ele>
        <time>2004-11-07T10:42:17Z</time>
      </trkpt>
      <trkpt lat="43.051339946687222" lon="11.599370883777738">
        <ele>426.9627685546875</ele>
        <time>2004-11-07T10:42:18Z</time>
      </trkpt>
      <trkpt lat="43.051453353837132" lon="11.599343977868557">
        <ele>426.9627685546875</ele>
        <time>2004-11-07T10:42:19Z</time>
      </trkpt>
      <trkpt lat="43.051561899483204" lon="11.599325956776738">
        <ele>426.9627685546875</ele>
        <time>2004-11-07T10:42:20Z</time>
      </trkpt>
      <trkpt lat="43.051658710464835" lon="11.599324364215136">
        <ele>426.4820556640625</ele>
        <time>2004-11-07T10:42:21Z</time>
      </trkpt>
      <trkpt lat="43.051743870601058" lon="11.599360657855868">
        <ele>426.4820556640625</ele>
        <time>2004-11-07T10:42:22Z</time>
      </trkpt>
      <trkpt lat="43.051888709887862" lon="11.599441291764379">
        <ele>426.4820556640625</ele>
        <time>2004-11-07T10:42:24Z</time>
      </trkpt>
      <trkpt lat="43.052017036825418" lon="11.599521590396762">
        <ele>426.9627685546875</ele>
        <time>2004-11-07T10:42:26Z</time>
      </trkpt>
      <trkpt lat="43.052123570814729" lon="11.599594596773386">
        <ele>426.9627685546875</ele>
        <time>2004-11-07T10:42:28Z</time>
      </trkpt>
      <trkpt lat="43.052213760092854" lon="11.599662154912949">
        <ele>426.9627685546875</ele>
        <time>2004-11-07T10:42:30Z</time>
      </trkpt>
      <trkpt lat="43.052291627973318" lon="11.599723175168037">
        <ele>426.4820556640625</ele>
        <time>2004-11-07T10:42:32Z</time>
      </trkpt>
      <trkpt lat="43.052380811423063" lon="11.599819986149669">
        <ele>426.9627685546875</ele>
        <time>2004-11-07T10:42:35Z</time>
      </trkpt>
      <trkpt lat="43.05245784111321" lon="11.599917635321617">
        <ele>427.443359375</ele>
        <time>2004-11-07T10:42:38Z</time>
      </trkpt>
      <trkpt lat="43.052519867196679" lon="11.600012350827456">
        <ele>427.9239501953125</ele>
        <time>2004-11-07T10:42:41Z</time>
      </trkpt>
      <trkpt lat="43.052582396194339" lon="11.600140929222107">
        <ele>428.4046630859375</ele>
        <time>2004-11-07T10:42:45Z</time>
      </trkpt>
      <trkpt lat="43.052650205790997" lon="11.600286858156323">
        <ele>429.365966796875</ele>
        <time>2004-11-07T10:42:49Z</time>
      </trkpt>
      <trkpt lat="43.052709214389324" lon="11.600407054647803">
        <ele>429.365966796875</ele>
        <time>2004-11-07T10:42:52Z</time>
      </trkpt>
      <trkpt lat="43.052780376747251" lon="11.600518533959985">
        <ele>430.3272705078125</ele>
        <time>2004-11-07T10:42:55Z</time>
      </trkpt>
      <trkpt lat="43.052854221314192" lon="11.600617608055472">
        <ele>430.3272705078125</ele>
        <time>2004-11-07T10:42:58Z</time>
      </trkpt>
      <trkpt lat="43.052930664271116" lon="11.600705534219742">
        <ele>430.3272705078125</ele>
        <time>2004-11-07T10:43:01Z</time>
      </trkpt>
      <trkpt lat="43.053008364513516" lon="11.600784156471491">
        <ele>430.8079833984375</ele>
        <time>2004-11-07T10:43:04Z</time>
      </trkpt>
      <trkpt lat="43.053107522428036" lon="11.600873004645109">
        <ele>431.28857421875</ele>
        <time>2004-11-07T10:43:08Z</time>
      </trkpt>
      <trkpt lat="43.053202489390969" lon="11.600979957729578">
        <ele>431.28857421875</ele>
        <time>2004-11-07T10:43:12Z</time>
      </trkpt>
      <trkpt lat="43.053288571536541" lon="11.60106603987515">
        <ele>431.7691650390625</ele>
        <time>2004-11-07T10:43:15Z</time>
      </trkpt>
      <trkpt lat="43.053377419710159" lon="11.601147511973977">
        <ele>432.25</ele>
        <time>2004-11-07T10:43:18Z</time>
      </trkpt>
      <trkpt lat="43.053474733605981" lon="11.601223452016711">
        <ele>431.28857421875</ele>
        <time>2004-11-07T10:43:21Z</time>
      </trkpt>
      <trkpt lat="43.053572466596961" lon="11.60131230019033">
        <ele>432.25</ele>
        <time>2004-11-07T10:43:24Z</time>
      </trkpt>
      <trkpt lat="43.053679838776588" lon="11.601394694298506">
        <ele>431.7691650390625</ele>
        <time>2004-11-07T10:43:27Z</time>
      </trkpt>
      <trkpt lat="43.05379374884069" lon="11.601463677361608">
        <ele>431.7691650390625</ele>
        <time>2004-11-07T10:43:30Z</time>
      </trkpt>
      <trkpt lat="43.053903635591269" lon="11.601548502221704">
        <ele>431.7691650390625</ele>
        <time>2004-11-07T10:43:33Z</time>
      </trkpt>
      <trkpt lat="43.054012767970562" lon="11.60163726657629">
        <ele>431.7691650390625</ele>
        <time>2004-11-07T10:43:36Z</time>
      </trkpt>
      <trkpt lat="43.054130366072059" lon="11.601703986525536">
        <ele>431.7691650390625</ele>
        <time>2004-11-07T10:43:39Z</time>
      </trkpt>
      <trkpt lat="43.054252155125141" lon="11.601759055629373">
        <ele>431.7691650390625</ele>
        <time>2004-11-07T10:43:42Z</time>
      </trkpt>
      <trkpt lat="43.054384337738156" lon="11.60181269980967">
        <ele>431.7691650390625</ele>
        <time>2004-11-07T10:43:45Z</time>
      </trkpt>
      <trkpt lat="43.054476287215948" lon="11.601841198280454">
        <ele>431.28857421875</ele>
        <time>2004-11-07T10:43:47Z</time>
      </trkpt>
      <trkpt lat="43.054565638303757" lon="11.601874390617013">
        <ele>431.28857421875</ele>
        <time>2004-11-07T10:43:49Z</time>
      </trkpt>
      <trkpt lat="43.054649541154504" lon="11.601916383951902">
        <ele>431.28857421875</ele>
        <time>2004-11-07T10:43:51Z</time>
      </trkpt>
      <trkpt lat="43.054737383499742" lon="11.601962652057409">
        <ele>430.8079833984375</ele>
        <time>2004-11-07T10:43:53Z</time>
      </trkpt>
      <trkpt lat="43.054822208359838" lon="11.602026103064418">
        <ele>430.8079833984375</ele>
        <time>2004-11-07T10:43:55Z</time>
      </trkpt>
      <trkpt lat="43.054912984371185" lon="11.602096930146217">
        <ele>430.3272705078125</ele>
        <time>2004-11-07T10:43:57Z</time>
      </trkpt>
      <trkpt lat="43.055011555552483" lon="11.602188209071755">
        <ele>429.8465576171875</ele>
        <time>2004-11-07T10:43:59Z</time>
      </trkpt>
      <trkpt lat="43.055117251351476" lon="11.602294491603971">
        <ele>429.365966796875</ele>
        <time>2004-11-07T10:44:01Z</time>
      </trkpt>
      <trkpt lat="43.055227976292372" lon="11.602413514629006">
        <ele>428.4046630859375</ele>
        <time>2004-11-07T10:44:03Z</time>
      </trkpt>
      <trkpt lat="43.055341299623251" lon="11.602539410814643">
        <ele>427.9239501953125</ele>
        <time>2004-11-07T10:44:05Z</time>
      </trkpt>
      <trkpt lat="43.055450851097703" lon="11.602669581770897">
        <ele>427.443359375</ele>
        <time>2004-11-07T10:44:07Z</time>
      </trkpt>
      <trkpt lat="43.055566772818565" lon="11.602799249812961">
        <ele>426.4820556640625</ele>
        <time>2004-11-07T10:44:09Z</time>
      </trkpt>
      <trkpt lat="43.055684790015221" lon="11.602931600064039">
        <ele>425.0401611328125</ele>
        <time>2004-11-07T10:44:11Z</time>
      </trkpt>
      <trkpt lat="43.055804315954447" lon="11.603068141266704">
        <ele>424.5594482421875</ele>
        <time>2004-11-07T10:44:13Z</time>
      </trkpt>
      <trkpt lat="43.05593054741621" lon="11.603204263374209">
        <ele>423.5980224609375</ele>
        <time>2004-11-07T10:44:15Z</time>
      </trkpt>
      <trkpt lat="43.05605560541153" lon="11.60334256477654">
        <ele>423.117431640625</ele>
        <time>2004-11-07T10:44:17Z</time>
      </trkpt>
      <trkpt lat="43.056179992854595" lon="11.603484302759171">
        <ele>422.156005859375</ele>
        <time>2004-11-07T10:44:19Z</time>
      </trkpt>
      <trkpt lat="43.056300692260265" lon="11.603632075712085">
        <ele>421.6754150390625</ele>
        <time>2004-11-07T10:44:21Z</time>
      </trkpt>
      <trkpt lat="43.056425163522363" lon="11.603776663541794">
        <ele>421.19482421875</ele>
        <time>2004-11-07T10:44:23Z</time>
      </trkpt>
      <trkpt lat="43.056553155183792" lon="11.603932315483689">
        <ele>419.7528076171875</ele>
        <time>2004-11-07T10:44:25Z</time>
      </trkpt>
      <trkpt lat="43.056663712486625" lon="11.604109760373831">
        <ele>419.7528076171875</ele>
        <time>2004-11-07T10:44:27Z</time>
      </trkpt>
      <trkpt lat="43.056750297546387" lon="11.604293072596192">
        <ele>419.272216796875</ele>
        <time>2004-11-07T10:44:29Z</time>
      </trkpt>
      <trkpt lat="43.056849455460906" lon="11.604461297392845">
        <ele>418.79150390625</ele>
        <time>2004-11-07T10:44:31Z</time>
      </trkpt>
      <trkpt lat="43.056955821812153" lon="11.60461644642055">
        <ele>418.310791015625</ele>
        <time>2004-11-07T10:44:33Z</time>
      </trkpt>
      <trkpt lat="43.05705145932734" lon="11.604739325121045">
        <ele>417.8302001953125</ele>
        <time>2004-11-07T10:44:35Z</time>
      </trkpt>
      <trkpt lat="43.057091860100627" lon="11.604850720614195">
        <ele>415.907470703125</ele>
        <time>2004-11-07T10:44:38Z</time>
      </trkpt>
      <trkpt lat="43.057146174833179" lon="11.604994051158428">
        <ele>415.907470703125</ele>
        <time>2004-11-07T10:44:41Z</time>
      </trkpt>
      <trkpt lat="43.05720292031765" lon="11.605141488835216">
        <ele>414.9461669921875</ele>
        <time>2004-11-07T10:44:44Z</time>
      </trkpt>
      <trkpt lat="43.057233933359385" lon="11.605277359485626">
        <ele>414.4654541015625</ele>
        <time>2004-11-07T10:44:47Z</time>
      </trkpt>
      <trkpt lat="43.057245081290603" lon="11.605387665331364">
        <ele>413.98486328125</ele>
        <time>2004-11-07T10:44:50Z</time>
      </trkpt>
      <trkpt lat="43.057283302769065" lon="11.605479950085282">
        <ele>413.98486328125</ele>
        <time>2004-11-07T10:44:54Z</time>
      </trkpt>
      <trkpt lat="43.057424118742347" lon="11.605566451326013">
        <ele>413.0235595703125</ele>
        <time>2004-11-07T10:47:01Z</time>
      </trkpt>
      <trkpt lat="43.057460160925984" lon="11.605689497664571">
        <ele>413.0235595703125</ele>
        <time>2004-11-07T10:47:19Z</time>
      </trkpt>
      <trkpt lat="43.057480780407786" lon="11.605867110192776">
        <ele>412.5428466796875</ele>
        <time>2004-11-07T10:47:30Z</time>
      </trkpt>
      <trkpt lat="43.057517409324646" lon="11.605981774628162">
        <ele>412.062255859375</ele>
        <time>2004-11-07T10:47:32Z</time>
      </trkpt>
      <trkpt lat="43.057556636631489" lon="11.606102725490928">
        <ele>411.5816650390625</ele>
        <time>2004-11-07T10:47:34Z</time>
      </trkpt>
      <trkpt lat="43.057612208649516" lon="11.60623624920845">
        <ele>412.062255859375</ele>
        <time>2004-11-07T10:47:36Z</time>
      </trkpt>
      <trkpt lat="43.05767398327589" lon="11.606370275840163">
        <ele>410.6202392578125</ele>
        <time>2004-11-07T10:47:38Z</time>
      </trkpt>
      <trkpt lat="43.057727459818125" lon="11.60648250952363">
        <ele>410.1396484375</ele>
        <time>2004-11-07T10:47:40Z</time>
      </trkpt>
      <trkpt lat="43.057791497558355" lon="11.606576554477215">
        <ele>410.1396484375</ele>
        <time>2004-11-07T10:47:43Z</time>
      </trkpt>
      <trkpt lat="43.057896187528968" lon="11.606558365747333">
        <ele>410.1396484375</ele>
        <time>2004-11-07T10:47:48Z</time>
      </trkpt>
      <trkpt lat="43.057995932176709" lon="11.606520060449839">
        <ele>410.6202392578125</ele>
        <time>2004-11-07T10:47:53Z</time>
      </trkpt>
      <trkpt lat="43.058089138939977" lon="11.606437917798758">
        <ele>411.5816650390625</ele>
        <time>2004-11-07T10:47:58Z</time>
      </trkpt>
      <trkpt lat="43.058135993778706" lon="11.606324929744005">
        <ele>412.5428466796875</ele>
        <time>2004-11-07T10:48:02Z</time>
      </trkpt>
      <trkpt lat="43.058184441179037" lon="11.606180677190423">
        <ele>412.5428466796875</ele>
        <time>2004-11-07T10:48:07Z</time>
      </trkpt>
      <trkpt lat="43.058235989883542" lon="11.606071209535003">
        <ele>412.5428466796875</ele>
        <time>2004-11-07T10:48:11Z</time>
      </trkpt>
      <trkpt lat="43.058289382606745" lon="11.605965597555041">
        <ele>412.5428466796875</ele>
        <time>2004-11-07T10:48:15Z</time>
      </trkpt>
      <trkpt lat="43.058342859148979" lon="11.605859901756048">
        <ele>412.5428466796875</ele>
        <time>2004-11-07T10:48:19Z</time>
      </trkpt>
      <trkpt lat="43.058396251872182" lon="11.605754205957055">
        <ele>412.5428466796875</ele>
        <time>2004-11-07T10:48:23Z</time>
      </trkpt>
      <trkpt lat="43.058449728414416" lon="11.605648510158062">
        <ele>412.5428466796875</ele>
        <time>2004-11-07T10:48:27Z</time>
      </trkpt>
      <trkpt lat="43.058503121137619" lon="11.605542814359069">
        <ele>412.5428466796875</ele>
        <time>2004-11-07T10:48:31Z</time>
      </trkpt>
      <trkpt lat="43.058556597679853" lon="11.605437118560076">
        <ele>412.5428466796875</ele>
        <time>2004-11-07T10:48:35Z</time>
      </trkpt>
      <trkpt lat="43.058609990403056" lon="11.605331422761083">
        <ele>412.062255859375</ele>
        <time>2004-11-07T10:48:39Z</time>
      </trkpt>
      <trkpt lat="43.058663466945291" lon="11.60522572696209">
        <ele>411.5816650390625</ele>
        <time>2004-11-07T10:48:43Z</time>
      </trkpt>
      <trkpt lat="43.058716859668493" lon="11.605120031163096">
        <ele>411.1009521484375</ele>
        <time>2004-11-07T10:48:47Z</time>
      </trkpt>
      <trkpt lat="43.058770336210728" lon="11.605014335364103">
        <ele>411.1009521484375</ele>
        <time>2004-11-07T10:48:51Z</time>
      </trkpt>
      <trkpt lat="43.058884497731924" lon="11.604879470542073">
        <ele>411.5816650390625</ele>
        <time>2004-11-07T10:48:55Z</time>
      </trkpt>
      <trkpt lat="43.059009136632085" lon="11.604709569364786">
        <ele>412.062255859375</ele>
        <time>2004-11-07T10:49:00Z</time>
      </trkpt>
      <trkpt lat="43.059068899601698" lon="11.604585181921721">
        <ele>411.5816650390625</ele>
        <time>2004-11-07T10:49:05Z</time>
      </trkpt>
      <trkpt lat="43.059128746390343" lon="11.604460794478655">
        <ele>412.5428466796875</ele>
        <time>2004-11-07T10:49:10Z</time>
      </trkpt>
      <trkpt lat="43.059188509359956" lon="11.604336407035589">
        <ele>413.0235595703125</ele>
        <time>2004-11-07T10:49:15Z</time>
      </trkpt>
      <trkpt lat="43.059248356148601" lon="11.604211935773492">
        <ele>413.98486328125</ele>
        <time>2004-11-07T10:49:20Z</time>
      </trkpt>
      <trkpt lat="43.059308202937245" lon="11.604087548330426">
        <ele>414.4654541015625</ele>
        <time>2004-11-07T10:49:25Z</time>
      </trkpt>
      <trkpt lat="43.059367965906858" lon="11.603963160887361">
        <ele>414.4654541015625</ele>
        <time>2004-11-07T10:49:30Z</time>
      </trkpt>
      <trkpt lat="43.059427812695503" lon="11.603838773444295">
        <ele>414.4654541015625</ele>
        <time>2004-11-07T10:49:35Z</time>
      </trkpt>
      <trkpt lat="43.059487575665116" lon="11.603714386001229">
        <ele>414.9461669921875</ele>
        <time>2004-11-07T10:49:40Z</time>
      </trkpt>
      <trkpt lat="43.059547422453761" lon="11.603589998558164">
        <ele>415.907470703125</ele>
        <time>2004-11-07T10:49:45Z</time>
      </trkpt>
      <trkpt lat="43.059607185423374" lon="11.603465527296066">
        <ele>414.9461669921875</ele>
        <time>2004-11-07T10:49:50Z</time>
      </trkpt>
      <trkpt lat="43.059667032212019" lon="11.603341139853001">
        <ele>415.4268798828125</ele>
        <time>2004-11-07T10:49:55Z</time>
      </trkpt>
      <trkpt lat="43.059726795181632" lon="11.603216752409935">
        <ele>414.9461669921875</ele>
        <time>2004-11-07T10:50:00Z</time>
      </trkpt>
      <trkpt lat="43.059726795181632" lon="11.603216752409935">
        <ele>414.9461669921875</ele>
        <time>2004-11-07T10:50:01Z</time>
      </trkpt>
      <trkpt lat="43.060393240302801" lon="11.603603912517428">
        <ele>416.38818359375</ele>
        <time>2004-11-07T10:52:35Z</time>
      </trkpt>
      <trkpt lat="43.060544701293111" lon="11.605877168476582">
        <ele>415.4268798828125</ele>
        <time>2004-11-07T10:54:30Z</time>
      </trkpt>
      <trkpt lat="43.060138765722513" lon="11.605632835999131">
        <ele>412.062255859375</ele>
        <time>2004-11-07T10:56:28Z</time>
      </trkpt>
      <trkpt lat="43.06067219004035" lon="11.605689581483603">
        <ele>410.1396484375</ele>
        <time>2004-11-07T10:56:32Z</time>
      </trkpt>
      <trkpt lat="43.06070152670145" lon="11.605709111317992">
        <ele>410.1396484375</ele>
        <time>2004-11-07T10:56:35Z</time>
      </trkpt>
      <trkpt lat="43.060721140354872" lon="11.605699891224504">
        <ele>410.6202392578125</ele>
        <time>2004-11-07T10:56:41Z</time>
      </trkpt>
      <trkpt lat="43.060773108154535" lon="11.605707351118326">
        <ele>410.1396484375</ele>
        <time>2004-11-07T10:56:47Z</time>
      </trkpt>
      <trkpt lat="43.060821555554867" lon="11.605704333633184">
        <ele>410.6202392578125</ele>
        <time>2004-11-07T10:56:56Z</time>
      </trkpt>
      <trkpt lat="43.060648385435343" lon="11.605741800740361">
        <ele>410.1396484375</ele>
        <time>2004-11-07T10:58:24Z</time>
      </trkpt>
      <trkpt lat="43.060652073472738" lon="11.605887226760387">
        <ele>410.1396484375</ele>
        <time>2004-11-07T10:58:41Z</time>
      </trkpt>
      <trkpt lat="43.060588454827666" lon="11.605925867334008">
        <ele>407.255615234375</ele>
        <time>2004-11-07T10:58:57Z</time>
      </trkpt>
      <trkpt lat="43.060475718230009" lon="11.605933913961053">
        <ele>406.2943115234375</ele>
        <time>2004-11-07T10:59:00Z</time>
      </trkpt>
      <trkpt lat="43.060382176190615" lon="11.605925783514977">
        <ele>406.2943115234375</ele>
        <time>2004-11-07T10:59:02Z</time>
      </trkpt>
      <trkpt lat="43.060275390744209" lon="11.60589711740613">
        <ele>406.2943115234375</ele>
        <time>2004-11-07T10:59:04Z</time>
      </trkpt>
      <trkpt lat="43.060154858976603" lon="11.605865433812141">
        <ele>405.813720703125</ele>
        <time>2004-11-07T10:59:06Z</time>
      </trkpt>
      <trkpt lat="43.060024688020349" lon="11.605852022767067">
        <ele>405.3330078125</ele>
        <time>2004-11-07T10:59:08Z</time>
      </trkpt>
      <trkpt lat="43.059885464608669" lon="11.605863841250539">
        <ele>404.852294921875</ele>
        <time>2004-11-07T10:59:10Z</time>
      </trkpt>
      <trkpt lat="43.059741463512182" lon="11.605901308357716">
        <ele>404.852294921875</ele>
        <time>2004-11-07T10:59:12Z</time>
      </trkpt>
      <trkpt lat="43.059600731357932" lon="11.605962077155709">
        <ele>404.3717041015625</ele>
        <time>2004-11-07T10:59:14Z</time>
      </trkpt>
      <trkpt lat="43.059468129649758" lon="11.606042124330997">
        <ele>404.3717041015625</ele>
        <time>2004-11-07T10:59:16Z</time>
      </trkpt>
      <trkpt lat="43.059346340596676" lon="11.60613214597106">
        <ele>403.89111328125</ele>
        <time>2004-11-07T10:59:18Z</time>
      </trkpt>
      <trkpt lat="43.059227904304862" lon="11.606222335249186">
        <ele>402.4490966796875</ele>
        <time>2004-11-07T10:59:20Z</time>
      </trkpt>
      <trkpt lat="43.059115251526237" lon="11.606302550062537">
        <ele>402.4490966796875</ele>
        <time>2004-11-07T10:59:22Z</time>
      </trkpt>
      <trkpt lat="43.059004610404372" lon="11.606388380751014">
        <ele>402.4490966796875</ele>
        <time>2004-11-07T10:59:24Z</time>
      </trkpt>
      <trkpt lat="43.058902351185679" lon="11.606473373249173">
        <ele>402.4490966796875</ele>
        <time>2004-11-07T10:59:26Z</time>
      </trkpt>
      <trkpt lat="43.058807048946619" lon="11.606550319120288">
        <ele>402.4490966796875</ele>
        <time>2004-11-07T10:59:28Z</time>
      </trkpt>
      <trkpt lat="43.058727169409394" lon="11.606612931936979">
        <ele>403.89111328125</ele>
        <time>2004-11-07T10:59:30Z</time>
      </trkpt>
      <trkpt lat="43.058630274608731" lon="11.606680154800415">
        <ele>404.3717041015625</ele>
        <time>2004-11-07T10:59:33Z</time>
      </trkpt>
      <trkpt lat="43.058540923520923" lon="11.606749556958675">
        <ele>404.3717041015625</ele>
        <time>2004-11-07T10:59:36Z</time>
      </trkpt>
      <trkpt lat="43.058456182479858" lon="11.606812253594398">
        <ele>404.852294921875</ele>
        <time>2004-11-07T10:59:39Z</time>
      </trkpt>
      <trkpt lat="43.058355012908578" lon="11.606896994635463">
        <ele>406.77490234375</ele>
        <time>2004-11-07T10:59:43Z</time>
      </trkpt>
      <trkpt lat="43.058255016803741" lon="11.606986094266176">
        <ele>407.736328125</ele>
        <time>2004-11-07T10:59:47Z</time>
      </trkpt>
      <trkpt lat="43.0581587087363" lon="11.607067314907908">
        <ele>409.1783447265625</ele>
        <time>2004-11-07T10:59:51Z</time>
      </trkpt>
      <trkpt lat="43.058058880269527" lon="11.607142919674516">
        <ele>410.6202392578125</ele>
        <time>2004-11-07T10:59:55Z</time>
      </trkpt>
      <trkpt lat="43.057959387078881" lon="11.607192624360323">
        <ele>410.6202392578125</ele>
        <time>2004-11-07T10:59:59Z</time>
      </trkpt>
      <trkpt lat="43.057860732078552" lon="11.607240568846464">
        <ele>410.1396484375</ele>
        <time>2004-11-07T11:00:03Z</time>
      </trkpt>
      <trkpt lat="43.057767357677221" lon="11.607260014861822">
        <ele>409.6590576171875</ele>
        <time>2004-11-07T11:00:07Z</time>
      </trkpt>
      <trkpt lat="43.05767297744751" lon="11.607286920771003">
        <ele>409.1783447265625</ele>
        <time>2004-11-07T11:00:11Z</time>
      </trkpt>
      <trkpt lat="43.057594271376729" lon="11.607319861650467">
        <ele>408.217041015625</ele>
        <time>2004-11-07T11:00:14Z</time>
      </trkpt>
      <trkpt lat="43.057529730722308" lon="11.607425725087523">
        <ele>406.2943115234375</ele>
        <time>2004-11-07T11:00:16Z</time>
      </trkpt>
      <trkpt lat="43.057461250573397" lon="11.60753938369453">
        <ele>405.3330078125</ele>
        <time>2004-11-07T11:00:18Z</time>
      </trkpt>
      <trkpt lat="43.057392854243517" lon="11.607648683711886">
        <ele>403.89111328125</ele>
        <time>2004-11-07T11:00:20Z</time>
      </trkpt>
      <trkpt lat="43.057321524247527" lon="11.607762761414051">
        <ele>403.89111328125</ele>
        <time>2004-11-07T11:00:22Z</time>
      </trkpt>
      <trkpt lat="43.057246841490269" lon="11.607898967340589">
        <ele>402.4490966796875</ele>
        <time>2004-11-07T11:00:24Z</time>
      </trkpt>
      <trkpt lat="43.057164615020156" lon="11.608030730858445">
        <ele>400.5264892578125</ele>
        <time>2004-11-07T11:00:26Z</time>
      </trkpt>
      <trkpt lat="43.057078616693616" lon="11.608180850744247">
        <ele>400.0458984375</ele>
        <time>2004-11-07T11:00:28Z</time>
      </trkpt>
      <trkpt lat="43.056989936158061" lon="11.608330551534891">
        <ele>398.603759765625</ele>
        <time>2004-11-07T11:00:30Z</time>
      </trkpt>
      <trkpt lat="43.056894382461905" lon="11.608473798260093">
        <ele>395.7198486328125</ele>
        <time>2004-11-07T11:00:32Z</time>
      </trkpt>
      <trkpt lat="43.056791787967086" lon="11.6086271032691">
        <ele>393.3165283203125</ele>
        <time>2004-11-07T11:00:34Z</time>
      </trkpt>
      <trkpt lat="43.056685924530029" lon="11.6088015306741">
        <ele>391.87451171875</ele>
        <time>2004-11-07T11:00:36Z</time>
      </trkpt>
      <trkpt lat="43.056581821292639" lon="11.608978221192956">
        <ele>389.951904296875</ele>
        <time>2004-11-07T11:00:38Z</time>
      </trkpt>
      <trkpt lat="43.056467408314347" lon="11.609164047986269">
        <ele>388.029296875</ele>
        <time>2004-11-07T11:00:40Z</time>
      </trkpt>
      <trkpt lat="43.056354001164436" lon="11.609346102923155">
        <ele>386.106689453125</ele>
        <time>2004-11-07T11:00:42Z</time>
      </trkpt>
      <trkpt lat="43.056245958432555" lon="11.609537294134498">
        <ele>385.1453857421875</ele>
        <time>2004-11-07T11:00:44Z</time>
      </trkpt>
      <trkpt lat="43.05613967590034" lon="11.609724797308445">
        <ele>384.18408203125</ele>
        <time>2004-11-07T11:00:46Z</time>
      </trkpt>
      <trkpt lat="43.056034399196506" lon="11.609899895265698">
        <ele>383.22265625</ele>
        <time>2004-11-07T11:00:48Z</time>
      </trkpt>
      <trkpt lat="43.055974384769797" lon="11.610001232475042">
        <ele>380.3387451171875</ele>
        <time>2004-11-07T11:00:50Z</time>
      </trkpt>
      <trkpt lat="43.055897103622556" lon="11.610151184722781">
        <ele>378.4161376953125</ele>
        <time>2004-11-07T11:00:53Z</time>
      </trkpt>
      <trkpt lat="43.055843375623226" lon="11.610235255211592">
        <ele>376.9742431640625</ele>
        <time>2004-11-07T11:00:56Z</time>
      </trkpt>
      <trkpt lat="43.055785037577152" lon="11.610330808907747">
        <ele>376.9742431640625</ele>
        <time>2004-11-07T11:01:01Z</time>
      </trkpt>
      <trkpt lat="43.055732315406203" lon="11.610422590747476">
        <ele>375.5321044921875</ele>
        <time>2004-11-07T11:01:05Z</time>
      </trkpt>
      <trkpt lat="43.055668361485004" lon="11.610535243526101">
        <ele>375.051513671875</ele>
        <time>2004-11-07T11:01:09Z</time>
      </trkpt>
      <trkpt lat="43.055599378421903" lon="11.610646722838283">
        <ele>375.051513671875</ele>
        <time>2004-11-07T11:01:12Z</time>
      </trkpt>
      <trkpt lat="43.055538358166814" lon="11.610764656215906">
        <ele>374.090087890625</ele>
        <time>2004-11-07T11:01:15Z</time>
      </trkpt>
      <trkpt lat="43.055456047877669" lon="11.610923493281007">
        <ele>373.6094970703125</ele>
        <time>2004-11-07T11:01:18Z</time>
      </trkpt>
      <trkpt lat="43.055384801700711" lon="11.611055424436927">
        <ele>373.12890625</ele>
        <time>2004-11-07T11:01:20Z</time>
      </trkpt>
      <trkpt lat="43.055302994325757" lon="11.611217530444264">
        <ele>372.16748046875</ele>
        <time>2004-11-07T11:01:22Z</time>
      </trkpt>
      <trkpt lat="43.0552195943892" lon="11.611382989212871">
        <ele>371.206298828125</ele>
        <time>2004-11-07T11:01:24Z</time>
      </trkpt>
      <trkpt lat="43.055138373747468" lon="11.61153637804091">
        <ele>370.244873046875</ele>
        <time>2004-11-07T11:01:26Z</time>
      </trkpt>
      <trkpt lat="43.055046927183867" lon="11.611714325845242">
        <ele>368.802978515625</ele>
        <time>2004-11-07T11:01:28Z</time>
      </trkpt>
      <trkpt lat="43.054959923028946" lon="11.611885065212846">
        <ele>365.9189453125</ele>
        <time>2004-11-07T11:01:30Z</time>
      </trkpt>
      <trkpt lat="43.054873589426279" lon="11.612055134028196">
        <ele>365.9189453125</ele>
        <time>2004-11-07T11:01:32Z</time>
      </trkpt>
      <trkpt lat="43.054780634120107" lon="11.612227968871593">
        <ele>364.9576416015625</ele>
        <time>2004-11-07T11:01:34Z</time>
      </trkpt>
      <trkpt lat="43.054680386558175" lon="11.612400719895959">
        <ele>363.5157470703125</ele>
        <time>2004-11-07T11:01:36Z</time>
      </trkpt>
      <trkpt lat="43.054563291370869" lon="11.612547235563397">
        <ele>362.5543212890625</ele>
        <time>2004-11-07T11:01:38Z</time>
      </trkpt>
      <trkpt lat="43.05443144403398" lon="11.612672042101622">
        <ele>362.5543212890625</ele>
        <time>2004-11-07T11:01:40Z</time>
      </trkpt>
      <trkpt lat="43.054314097389579" lon="11.612774636596441">
        <ele>361.1124267578125</ele>
        <time>2004-11-07T11:01:42Z</time>
      </trkpt>
      <trkpt lat="43.054197253659368" lon="11.612872034311295">
        <ele>360.6317138671875</ele>
        <time>2004-11-07T11:01:44Z</time>
      </trkpt>
      <trkpt lat="43.054072028025985" lon="11.612961636856198">
        <ele>360.6317138671875</ele>
        <time>2004-11-07T11:01:46Z</time>
      </trkpt>
      <trkpt lat="43.053944706916809" lon="11.613050736486912">
        <ele>360.151123046875</ele>
        <time>2004-11-07T11:01:48Z</time>
      </trkpt>
      <trkpt lat="43.053818559274077" lon="11.613158779218793">
        <ele>358.708984375</ele>
        <time>2004-11-07T11:01:50Z</time>
      </trkpt>
      <trkpt lat="43.053689058870077" lon="11.613266235217452">
        <ele>357.26708984375</ele>
        <time>2004-11-07T11:01:52Z</time>
      </trkpt>
      <trkpt lat="43.053553020581603" lon="11.613381821662188">
        <ele>356.786376953125</ele>
        <time>2004-11-07T11:01:54Z</time>
      </trkpt>
      <trkpt lat="43.053410863503814" lon="11.613525236025453">
        <ele>356.3057861328125</ele>
        <time>2004-11-07T11:01:56Z</time>
      </trkpt>
      <trkpt lat="43.053334085270762" lon="11.613615760579705">
        <ele>355.8251953125</ele>
        <time>2004-11-07T11:01:57Z</time>
      </trkpt>
      <trkpt lat="43.053258983418345" lon="11.613699998706579">
        <ele>355.8251953125</ele>
        <time>2004-11-07T11:01:58Z</time>
      </trkpt>
      <trkpt lat="43.053184216842055" lon="11.613782560452819">
        <ele>354.86376953125</ele>
        <time>2004-11-07T11:01:59Z</time>
      </trkpt>
      <trkpt lat="43.053109031170607" lon="11.613867888227105">
        <ele>353.902587890625</ele>
        <time>2004-11-07T11:02:00Z</time>
      </trkpt>
      <trkpt lat="43.053045161068439" lon="11.613937206566334">
        <ele>352.941162109375</ele>
        <time>2004-11-07T11:02:01Z</time>
      </trkpt>
      <trkpt lat="43.052902417257428" lon="11.614077687263489">
        <ele>351.4991455078125</ele>
        <time>2004-11-07T11:02:03Z</time>
      </trkpt>
      <trkpt lat="43.052756823599339" lon="11.614207355305552">
        <ele>350.0572509765625</ele>
        <time>2004-11-07T11:02:05Z</time>
      </trkpt>
      <trkpt lat="43.05262397043407" lon="11.61426292732358">
        <ele>350.0572509765625</ele>
        <time>2004-11-07T11:02:07Z</time>
      </trkpt>
      <trkpt lat="43.052481226623058" lon="11.614301148802042">
        <ele>348.615234375</ele>
        <time>2004-11-07T11:02:09Z</time>
      </trkpt>
      <trkpt lat="43.052368322387338" lon="11.614368790760636">
        <ele>347.1732177734375</ele>
        <time>2004-11-07T11:02:11Z</time>
      </trkpt>
      <trkpt lat="43.052308894693851" lon="11.614540452137589">
        <ele>346.2120361328125</ele>
        <time>2004-11-07T11:02:13Z</time>
      </trkpt>
      <trkpt lat="43.052323646843433" lon="11.614723093807697">
        <ele>342.8472900390625</ele>
        <time>2004-11-07T11:02:15Z</time>
      </trkpt>
      <trkpt lat="43.052345355972648" lon="11.614935910329223">
        <ele>341.885986328125</ele>
        <time>2004-11-07T11:02:17Z</time>
      </trkpt>
      <trkpt lat="43.05238014087081" lon="11.615154258906841">
        <ele>340.444091796875</ele>
        <time>2004-11-07T11:02:19Z</time>
      </trkpt>
      <trkpt lat="43.052449962124228" lon="11.615352742373943">
        <ele>339.0020751953125</ele>
        <time>2004-11-07T11:02:21Z</time>
      </trkpt>
      <trkpt lat="43.052578289061785" lon="11.615485763177276">
        <ele>337.56005859375</ele>
        <time>2004-11-07T11:02:23Z</time>
      </trkpt>
      <trkpt lat="43.052713824436069" lon="11.615604618564248">
        <ele>337.0794677734375</ele>
        <time>2004-11-07T11:02:25Z</time>
      </trkpt>
      <trkpt lat="43.052820358425379" lon="11.615734789520502">
        <ele>336.1181640625</ele>
        <time>2004-11-07T11:02:27Z</time>
      </trkpt>
      <trkpt lat="43.052903842180967" lon="11.615854650735855">
        <ele>335.15673828125</ele>
        <time>2004-11-07T11:02:29Z</time>
      </trkpt>
      <trkpt lat="43.052989672869444" lon="11.615967890247703">
        <ele>335.6373291015625</ele>
        <time>2004-11-07T11:02:31Z</time>
      </trkpt>
      <trkpt lat="43.053021440282464" lon="11.616139886900783">
        <ele>334.6761474609375</ele>
        <time>2004-11-07T11:02:33Z</time>
      </trkpt>
      <trkpt lat="43.053000820800662" lon="11.616346081718802">
        <ele>332.2728271484375</ele>
        <time>2004-11-07T11:02:35Z</time>
      </trkpt>
      <trkpt lat="43.052964108064771" lon="11.616542972624302">
        <ele>329.8695068359375</ele>
        <time>2004-11-07T11:02:37Z</time>
      </trkpt>
      <trkpt lat="43.052915660664439" lon="11.616775318980217">
        <ele>327.94677734375</ele>
        <time>2004-11-07T11:02:39Z</time>
      </trkpt>
      <trkpt lat="43.052871907129884" lon="11.616997187957168">
        <ele>326.5048828125</ele>
        <time>2004-11-07T11:02:41Z</time>
      </trkpt>
      <trkpt lat="43.052833769470453" lon="11.617238502949476">
        <ele>325.06298828125</ele>
        <time>2004-11-07T11:02:43Z</time>
      </trkpt>
      <trkpt lat="43.052815077826381" lon="11.617366578429937">
        <ele>323.6209716796875</ele>
        <time>2004-11-07T11:02:44Z</time>
      </trkpt>
      <trkpt lat="43.052790518850088" lon="11.617597751319408">
        <ele>321.6983642578125</ele>
        <time>2004-11-07T11:02:46Z</time>
      </trkpt>
      <trkpt lat="43.052767217159271" lon="11.617818865925074">
        <ele>319.2950439453125</ele>
        <time>2004-11-07T11:02:48Z</time>
      </trkpt>
      <trkpt lat="43.052694210782647" lon="11.618028916418552">
        <ele>317.85302734375</ele>
        <time>2004-11-07T11:02:50Z</time>
      </trkpt>
      <trkpt lat="43.052641823887825" lon="11.618138216435909">
        <ele>316.8917236328125</ele>
        <time>2004-11-07T11:02:51Z</time>
      </trkpt>
      <trkpt lat="43.052588934078813" lon="11.618255311623216">
        <ele>315.930419921875</ele>
        <time>2004-11-07T11:02:52Z</time>
      </trkpt>
      <trkpt lat="43.052538894116879" lon="11.618366958573461">
        <ele>314.9691162109375</ele>
        <time>2004-11-07T11:02:53Z</time>
      </trkpt>
      <trkpt lat="43.052485752850771" lon="11.618485562503338">
        <ele>314.0078125</ele>
        <time>2004-11-07T11:02:54Z</time>
      </trkpt>
      <trkpt lat="43.052435545250773" lon="11.618605339899659">
        <ele>313.5272216796875</ele>
        <time>2004-11-07T11:02:55Z</time>
      </trkpt>
      <trkpt lat="43.05238651111722" lon="11.618723273277283">
        <ele>312.5657958984375</ele>
        <time>2004-11-07T11:02:56Z</time>
      </trkpt>
      <trkpt lat="43.052341751754284" lon="11.61884774453938">
        <ele>312.085205078125</ele>
        <time>2004-11-07T11:02:57Z</time>
      </trkpt>
      <trkpt lat="43.052301183342934" lon="11.618959056213498">
        <ele>311.6044921875</ele>
        <time>2004-11-07T11:02:58Z</time>
      </trkpt>
      <trkpt lat="43.052250975742936" lon="11.619092915207148">
        <ele>311.123779296875</ele>
        <time>2004-11-07T11:02:59Z</time>
      </trkpt>
      <trkpt lat="43.052201941609383" lon="11.619217218831182">
        <ele>311.123779296875</ele>
        <time>2004-11-07T11:03:00Z</time>
      </trkpt>
      <trkpt lat="43.052155170589685" lon="11.619327943772078">
        <ele>309.201171875</ele>
        <time>2004-11-07T11:03:01Z</time>
      </trkpt>
      <trkpt lat="43.052104711532593" lon="11.619431711733341">
        <ele>309.201171875</ele>
        <time>2004-11-07T11:03:02Z</time>
      </trkpt>
      <trkpt lat="43.052051067352295" lon="11.619536820799112">
        <ele>308.2398681640625</ele>
        <time>2004-11-07T11:03:03Z</time>
      </trkpt>
      <trkpt lat="43.051997506991029" lon="11.619637487456203">
        <ele>307.75927734375</ele>
        <time>2004-11-07T11:03:04Z</time>
      </trkpt>
      <trkpt lat="43.051944198086858" lon="11.619734549894929">
        <ele>307.278564453125</ele>
        <time>2004-11-07T11:03:05Z</time>
      </trkpt>
      <trkpt lat="43.051891224458814" lon="11.619830690324306">
        <ele>304.875244140625</ele>
        <time>2004-11-07T11:03:06Z</time>
      </trkpt>
      <trkpt lat="43.051835652440786" lon="11.61993102170527">
        <ele>304.875244140625</ele>
        <time>2004-11-07T11:03:07Z</time>
      </trkpt>
      <trkpt lat="43.051778990775347" lon="11.620026994496584">
        <ele>303.9139404296875</ele>
        <time>2004-11-07T11:03:08Z</time>
      </trkpt>
      <trkpt lat="43.051721910014749" lon="11.620113831013441">
        <ele>302.9525146484375</ele>
        <time>2004-11-07T11:03:09Z</time>
      </trkpt>
      <trkpt lat="43.051591822877526" lon="11.620250791311264">
        <ele>301.5106201171875</ele>
        <time>2004-11-07T11:03:11Z</time>
      </trkpt>
      <trkpt lat="43.051430974155664" lon="11.620335699990392">
        <ele>300.54931640625</ele>
        <time>2004-11-07T11:03:13Z</time>
      </trkpt>
      <trkpt lat="43.05126073770225" lon="11.620393451303244">
        <ele>300.0687255859375</ele>
        <time>2004-11-07T11:03:15Z</time>
      </trkpt>
      <trkpt lat="43.051089579239488" lon="11.620437791571021">
        <ele>299.1072998046875</ele>
        <time>2004-11-07T11:03:17Z</time>
      </trkpt>
      <trkpt lat="43.050913643091917" lon="11.6204768512398">
        <ele>298.626708984375</ele>
        <time>2004-11-07T11:03:19Z</time>
      </trkpt>
      <trkpt lat="43.050742484629154" lon="11.62050710991025">
        <ele>298.1461181640625</ele>
        <time>2004-11-07T11:03:21Z</time>
      </trkpt>
      <trkpt lat="43.050592532381415" lon="11.620529824867845">
        <ele>297.1846923828125</ele>
        <time>2004-11-07T11:03:23Z</time>
      </trkpt>
      <trkpt lat="43.050452386960387" lon="11.620545918121934">
        <ele>296.2235107421875</ele>
        <time>2004-11-07T11:03:25Z</time>
      </trkpt>
      <trkpt lat="43.050313498824835" lon="11.620571231469512">
        <ele>295.74267578125</ele>
        <time>2004-11-07T11:03:27Z</time>
      </trkpt>
      <trkpt lat="43.050178298726678" lon="11.620589001104236">
        <ele>295.261962890625</ele>
        <time>2004-11-07T11:03:29Z</time>
      </trkpt>
      <trkpt lat="43.050053156912327" lon="11.620637280866504">
        <ele>295.261962890625</ele>
        <time>2004-11-07T11:03:31Z</time>
      </trkpt>
      <trkpt lat="43.049944946542382" lon="11.620728727430105">
        <ele>294.7813720703125</ele>
        <time>2004-11-07T11:03:33Z</time>
      </trkpt>
      <trkpt lat="43.049845537170768" lon="11.620835848152637">
        <ele>294.30078125</ele>
        <time>2004-11-07T11:03:35Z</time>
      </trkpt>
      <trkpt lat="43.049784265458584" lon="11.620970712974668">
        <ele>294.30078125</ele>
        <time>2004-11-07T11:03:37Z</time>
      </trkpt>
      <trkpt lat="43.04973958991468" lon="11.621113540604711">
        <ele>294.30078125</ele>
        <time>2004-11-07T11:03:39Z</time>
      </trkpt>
      <trkpt lat="43.04969659075141" lon="11.621258882805705">
        <ele>294.7813720703125</ele>
        <time>2004-11-07T11:03:41Z</time>
      </trkpt>
      <trkpt lat="43.049669936299324" lon="11.621382432058454">
        <ele>294.7813720703125</ele>
        <time>2004-11-07T11:03:43Z</time>
      </trkpt>
      <trkpt lat="43.049642695114017" lon="11.621504724025726">
        <ele>295.261962890625</ele>
        <time>2004-11-07T11:03:45Z</time>
      </trkpt>
      <trkpt lat="43.04960573092103" lon="11.621678732335567">
        <ele>295.74267578125</ele>
        <time>2004-11-07T11:03:48Z</time>
      </trkpt>
      <trkpt lat="43.049570778384805" lon="11.621829438954592">
        <ele>296.2235107421875</ele>
        <time>2004-11-07T11:03:51Z</time>
      </trkpt>
      <trkpt lat="43.049540938809514" lon="11.621994646266103">
        <ele>296.2235107421875</ele>
        <time>2004-11-07T11:03:54Z</time>
      </trkpt>
      <trkpt lat="43.049513613805175" lon="11.622139569371939">
        <ele>297.1846923828125</ele>
        <time>2004-11-07T11:03:57Z</time>
      </trkpt>
      <trkpt lat="43.049489725381136" lon="11.622273428365588">
        <ele>297.1846923828125</ele>
        <time>2004-11-07T11:04:00Z</time>
      </trkpt>
      <trkpt lat="43.0494449660182" lon="11.622390272095799">
        <ele>297.1846923828125</ele>
        <time>2004-11-07T11:04:04Z</time>
      </trkpt>
      <trkpt lat="43.049392411485314" lon="11.622488759458065">
        <ele>296.7041015625</ele>
        <time>2004-11-07T11:04:10Z</time>
      </trkpt>
      <trkpt lat="43.049326362088323" lon="11.622596718370914">
        <ele>296.2235107421875</ele>
        <time>2004-11-07T11:04:14Z</time>
      </trkpt>
      <trkpt lat="43.049294929951429" lon="11.622711215168238">
        <ele>296.2235107421875</ele>
        <time>2004-11-07T11:04:17Z</time>
      </trkpt>
      <trkpt lat="43.049261150881648" lon="11.622833255678415">
        <ele>296.2235107421875</ele>
        <time>2004-11-07T11:04:20Z</time>
      </trkpt>
      <trkpt lat="43.049214882776141" lon="11.622974909842014">
        <ele>295.74267578125</ele>
        <time>2004-11-07T11:04:23Z</time>
      </trkpt>
      <trkpt lat="43.049156712368131" lon="11.623138273134828">
        <ele>295.261962890625</ele>
        <time>2004-11-07T11:04:26Z</time>
      </trkpt>
      <trkpt lat="43.049108767881989" lon="11.623257882893085">
        <ele>295.74267578125</ele>
        <time>2004-11-07T11:04:28Z</time>
      </trkpt>
      <trkpt lat="43.049056213349104" lon="11.623391741886735">
        <ele>295.261962890625</ele>
        <time>2004-11-07T11:04:30Z</time>
      </trkpt>
      <trkpt lat="43.048996450379491" lon="11.623539263382554">
        <ele>294.7813720703125</ele>
        <time>2004-11-07T11:04:32Z</time>
      </trkpt>
      <trkpt lat="43.048927970230579" lon="11.623688712716103">
        <ele>294.7813720703125</ele>
        <time>2004-11-07T11:04:34Z</time>
      </trkpt>
      <trkpt lat="43.048852700740099" lon="11.623835396021605">
        <ele>294.30078125</ele>
        <time>2004-11-07T11:04:36Z</time>
      </trkpt>
      <trkpt lat="43.048775671049953" lon="11.623983504250646">
        <ele>294.30078125</ele>
        <time>2004-11-07T11:04:38Z</time>
      </trkpt>
      <trkpt lat="43.048701826483011" lon="11.624137815088034">
        <ele>294.30078125</ele>
        <time>2004-11-07T11:04:40Z</time>
      </trkpt>
      <trkpt lat="43.048625886440277" lon="11.624292964115739">
        <ele>293.820068359375</ele>
        <time>2004-11-07T11:04:42Z</time>
      </trkpt>
      <trkpt lat="43.048551371321082" lon="11.624444760382175">
        <ele>293.820068359375</ele>
        <time>2004-11-07T11:04:44Z</time>
      </trkpt>
      <trkpt lat="43.048482304438949" lon="11.624588845297694">
        <ele>293.820068359375</ele>
        <time>2004-11-07T11:04:46Z</time>
      </trkpt>
      <trkpt lat="43.048412064090371" lon="11.624724045395851">
        <ele>293.820068359375</ele>
        <time>2004-11-07T11:04:48Z</time>
      </trkpt>
      <trkpt lat="43.048343332484365" lon="11.624868884682655">
        <ele>293.33935546875</ele>
        <time>2004-11-07T11:04:50Z</time>
      </trkpt>
      <trkpt lat="43.048269152641296" lon="11.625013137236238">
        <ele>293.33935546875</ele>
        <time>2004-11-07T11:04:52Z</time>
      </trkpt>
      <trkpt lat="43.04818038828671" lon="11.625168453902006">
        <ele>292.378173828125</ele>
        <time>2004-11-07T11:04:54Z</time>
      </trkpt>
      <trkpt lat="43.048066897317767" lon="11.625330140814185">
        <ele>291.8974609375</ele>
        <time>2004-11-07T11:04:56Z</time>
      </trkpt>
      <trkpt lat="43.047909149900079" lon="11.625459054484963">
        <ele>289.494140625</ele>
        <time>2004-11-07T11:04:58Z</time>
      </trkpt>
      <trkpt lat="43.04782030172646" lon="11.625490905717015">
        <ele>288.532958984375</ele>
        <time>2004-11-07T11:04:59Z</time>
      </trkpt>
      <trkpt lat="43.047657944262028" lon="11.625509178265929">
        <ele>287.0908203125</ele>
        <time>2004-11-07T11:05:01Z</time>
      </trkpt>
      <trkpt lat="43.047513104975224" lon="11.625511609017849">
        <ele>286.1295166015625</ele>
        <time>2004-11-07T11:05:03Z</time>
      </trkpt>
      <trkpt lat="43.047379748895764" lon="11.6255106870085">
        <ele>286.1295166015625</ele>
        <time>2004-11-07T11:05:05Z</time>
      </trkpt>
      <trkpt lat="43.047284362837672" lon="11.625511609017849">
        <ele>285.6488037109375</ele>
        <time>2004-11-07T11:05:07Z</time>
      </trkpt>
      <trkpt lat="43.04718654602766" lon="11.625540694221854">
        <ele>284.6876220703125</ele>
        <time>2004-11-07T11:05:10Z</time>
      </trkpt>
      <trkpt lat="43.047122843563557" lon="11.625623507425189">
        <ele>283.7261962890625</ele>
        <time>2004-11-07T11:05:15Z</time>
      </trkpt>
      <trkpt lat="43.047095937654376" lon="11.625760132446885">
        <ele>283.24560546875</ele>
        <time>2004-11-07T11:05:19Z</time>
      </trkpt>
      <trkpt lat="43.047071965411305" lon="11.625914191827178">
        <ele>283.7261962890625</ele>
        <time>2004-11-07T11:05:22Z</time>
      </trkpt>
      <trkpt lat="43.047067523002625" lon="11.626107646152377">
        <ele>282.7650146484375</ele>
        <time>2004-11-07T11:05:25Z</time>
      </trkpt>
      <trkpt lat="43.047063667327166" lon="11.626240750774741">
        <ele>282.7650146484375</ele>
        <time>2004-11-07T11:05:27Z</time>
      </trkpt>
      <trkpt lat="43.047077162191272" lon="11.626385170966387">
        <ele>281.8035888671875</ele>
        <time>2004-11-07T11:05:29Z</time>
      </trkpt>
      <trkpt lat="43.047126615419984" lon="11.626520622521639">
        <ele>281.322998046875</ele>
        <time>2004-11-07T11:05:31Z</time>
      </trkpt>
      <trkpt lat="43.047203728929162" lon="11.626633945852518">
        <ele>280.8424072265625</ele>
        <time>2004-11-07T11:05:33Z</time>
      </trkpt>
      <trkpt lat="43.047295762225986" lon="11.626719608902931">
        <ele>281.322998046875</ele>
        <time>2004-11-07T11:05:35Z</time>
      </trkpt>
      <trkpt lat="43.04738586768508" lon="11.626795465126634">
        <ele>280.8424072265625</ele>
        <time>2004-11-07T11:05:37Z</time>
      </trkpt>
      <trkpt lat="43.047476392239332" lon="11.626869980245829">
        <ele>281.8035888671875</ele>
        <time>2004-11-07T11:05:39Z</time>
      </trkpt>
      <trkpt lat="43.047564653679729" lon="11.626945752650499">
        <ele>280.3616943359375</ele>
        <time>2004-11-07T11:05:41Z</time>
      </trkpt>
      <trkpt lat="43.04765316657722" lon="11.627021441236138">
        <ele>280.8424072265625</ele>
        <time>2004-11-07T11:05:43Z</time>
      </trkpt>
      <trkpt lat="43.047744864597917" lon="11.627086233347654">
        <ele>280.3616943359375</ele>
        <time>2004-11-07T11:05:45Z</time>
      </trkpt>
      <trkpt lat="43.047840418294072" lon="11.627139961346984">
        <ele>279.880859375</ele>
        <time>2004-11-07T11:05:47Z</time>
      </trkpt>
      <trkpt lat="43.047943012788892" lon="11.627178015187383">
        <ele>280.3616943359375</ele>
        <time>2004-11-07T11:05:49Z</time>
      </trkpt>
      <trkpt lat="43.048047367483377" lon="11.627188324928284">
        <ele>280.3616943359375</ele>
        <time>2004-11-07T11:05:51Z</time>
      </trkpt>
      <trkpt lat="43.048157254233956" lon="11.627183631062508">
        <ele>279.880859375</ele>
        <time>2004-11-07T11:05:53Z</time>
      </trkpt>
      <trkpt lat="43.048261441290379" lon="11.627159658819437">
        <ele>279.880859375</ele>
        <time>2004-11-07T11:05:55Z</time>
      </trkpt>
      <trkpt lat="43.048363029956818" lon="11.627122946083546">
        <ele>280.3616943359375</ele>
        <time>2004-11-07T11:05:57Z</time>
      </trkpt>
      <trkpt lat="43.048461182042956" lon="11.627077432349324">
        <ele>280.3616943359375</ele>
        <time>2004-11-07T11:05:59Z</time>
      </trkpt>
      <trkpt lat="43.048553047701716" lon="11.627033594995737">
        <ele>280.8424072265625</ele>
        <time>2004-11-07T11:06:01Z</time>
      </trkpt>
      <trkpt lat="43.048638207837939" lon="11.626986404880881">
        <ele>280.8424072265625</ele>
        <time>2004-11-07T11:06:03Z</time>
      </trkpt>
      <trkpt lat="43.04875647649169" lon="11.626923121511936">
        <ele>280.8424072265625</ele>
        <time>2004-11-07T11:06:06Z</time>
      </trkpt>
      <trkpt lat="43.048870386555791" lon="11.626864448189735">
        <ele>281.322998046875</ele>
        <time>2004-11-07T11:06:09Z</time>
      </trkpt>
      <trkpt lat="43.048979770392179" lon="11.626799488440156">
        <ele>282.2843017578125</ele>
        <time>2004-11-07T11:06:12Z</time>
      </trkpt>
      <trkpt lat="43.049085382372141" lon="11.626737965270877">
        <ele>282.2843017578125</ele>
        <time>2004-11-07T11:06:15Z</time>
      </trkpt>
      <trkpt lat="43.049190742895007" lon="11.626682477071881">
        <ele>283.24560546875</ele>
        <time>2004-11-07T11:06:18Z</time>
      </trkpt>
      <trkpt lat="43.049298701807857" lon="11.626633862033486">
        <ele>284.2069091796875</ele>
        <time>2004-11-07T11:06:21Z</time>
      </trkpt>
      <trkpt lat="43.049408588558435" lon="11.626614918932319">
        <ele>283.7261962890625</ele>
        <time>2004-11-07T11:06:24Z</time>
      </trkpt>
      <trkpt lat="43.049522247165442" lon="11.626623636111617">
        <ele>283.24560546875</ele>
        <time>2004-11-07T11:06:27Z</time>
      </trkpt>
      <trkpt lat="43.049641605466604" lon="11.626652386039495">
        <ele>284.2069091796875</ele>
        <time>2004-11-07T11:06:30Z</time>
      </trkpt>
      <trkpt lat="43.049756605178118" lon="11.626694463193417">
        <ele>284.2069091796875</ele>
        <time>2004-11-07T11:06:33Z</time>
      </trkpt>
      <trkpt lat="43.049874622374773" lon="11.62674056366086">
        <ele>283.7261962890625</ele>
        <time>2004-11-07T11:06:36Z</time>
      </trkpt>
      <trkpt lat="43.049987778067589" lon="11.626779958605766">
        <ele>284.6876220703125</ele>
        <time>2004-11-07T11:06:39Z</time>
      </trkpt>
      <trkpt lat="43.05009238421917" lon="11.626817090436816">
        <ele>285.168212890625</ele>
        <time>2004-11-07T11:06:42Z</time>
      </trkpt>
      <trkpt lat="43.050198331475258" lon="11.6268558986485">
        <ele>285.168212890625</ele>
        <time>2004-11-07T11:06:45Z</time>
      </trkpt>
      <trkpt lat="43.050309056416154" lon="11.626896215602756">
        <ele>285.6488037109375</ele>
        <time>2004-11-07T11:06:48Z</time>
      </trkpt>
      <trkpt lat="43.050421457737684" lon="11.626939801499248">
        <ele>285.6488037109375</ele>
        <time>2004-11-07T11:06:51Z</time>
      </trkpt>
      <trkpt lat="43.050531931221485" lon="11.626984309405088">
        <ele>285.168212890625</ele>
        <time>2004-11-07T11:06:54Z</time>
      </trkpt>
      <trkpt lat="43.050640895962715" lon="11.627025883644819">
        <ele>285.6488037109375</ele>
        <time>2004-11-07T11:06:57Z</time>
      </trkpt>
      <trkpt lat="43.050751620903611" lon="11.627068379893899">
        <ele>285.6488037109375</ele>
        <time>2004-11-07T11:07:00Z</time>
      </trkpt>
      <trkpt lat="43.050863603129983" lon="11.627112217247486">
        <ele>285.6488037109375</ele>
        <time>2004-11-07T11:07:03Z</time>
      </trkpt>
      <trkpt lat="43.050971142947674" lon="11.627157479524612">
        <ele>285.6488037109375</ele>
        <time>2004-11-07T11:07:06Z</time>
      </trkpt>
      <trkpt lat="43.051079018041492" lon="11.627197209745646">
        <ele>285.6488037109375</ele>
        <time>2004-11-07T11:07:09Z</time>
      </trkpt>
      <trkpt lat="43.051186557859182" lon="11.627232162281871">
        <ele>285.6488037109375</ele>
        <time>2004-11-07T11:07:12Z</time>
      </trkpt>
      <trkpt lat="43.051290325820446" lon="11.627256888896227">
        <ele>286.1295166015625</ele>
        <time>2004-11-07T11:07:15Z</time>
      </trkpt>
      <trkpt lat="43.051393674686551" lon="11.627275329083204">
        <ele>286.6102294921875</ele>
        <time>2004-11-07T11:07:18Z</time>
      </trkpt>
      <trkpt lat="43.051492497324944" lon="11.627287650480866">
        <ele>286.6102294921875</ele>
        <time>2004-11-07T11:07:21Z</time>
      </trkpt>
      <trkpt lat="43.051593415439129" lon="11.627302318811417">
        <ele>286.6102294921875</ele>
        <time>2004-11-07T11:07:24Z</time>
      </trkpt>
      <trkpt lat="43.051698943600059" lon="11.627306258305907">
        <ele>287.0908203125</ele>
        <time>2004-11-07T11:07:28Z</time>
      </trkpt>
      <trkpt lat="43.051794162020087" lon="11.62730005569756">
        <ele>287.0908203125</ele>
        <time>2004-11-07T11:07:32Z</time>
      </trkpt>
      <trkpt lat="43.051908407360315" lon="11.627292595803738">
        <ele>287.0908203125</ele>
        <time>2004-11-07T11:07:36Z</time>
      </trkpt>
      <trkpt lat="43.051998009905219" lon="11.627276670187712">
        <ele>286.6102294921875</ele>
        <time>2004-11-07T11:07:39Z</time>
      </trkpt>
      <trkpt lat="43.052089540287852" lon="11.627254206687212">
        <ele>287.0908203125</ele>
        <time>2004-11-07T11:07:42Z</time>
      </trkpt>
      <trkpt lat="43.052183333784342" lon="11.627233000472188">
        <ele>287.5714111328125</ele>
        <time>2004-11-07T11:07:45Z</time>
      </trkpt>
      <trkpt lat="43.052273187786341" lon="11.627206848934293">
        <ele>288.532958984375</ele>
        <time>2004-11-07T11:07:48Z</time>
      </trkpt>
      <trkpt lat="43.052381314337254" lon="11.627178601920605">
        <ele>287.5714111328125</ele>
        <time>2004-11-07T11:07:51Z</time>
      </trkpt>
      <trkpt lat="43.052494889125228" lon="11.627138201147318">
        <ele>288.05224609375</ele>
        <time>2004-11-07T11:07:54Z</time>
      </trkpt>
      <trkpt lat="43.052612068131566" lon="11.62709872238338">
        <ele>287.5714111328125</ele>
        <time>2004-11-07T11:07:57Z</time>
      </trkpt>
      <trkpt lat="43.05272514000535" lon="11.627059578895569">
        <ele>288.532958984375</ele>
        <time>2004-11-07T11:08:00Z</time>
      </trkpt>
      <trkpt lat="43.052833434194326" lon="11.627019261941314">
        <ele>288.05224609375</ele>
        <time>2004-11-07T11:08:03Z</time>
      </trkpt>
      <trkpt lat="43.052943404763937" lon="11.626964192837477">
        <ele>288.532958984375</ele>
        <time>2004-11-07T11:08:06Z</time>
      </trkpt>
      <trkpt lat="43.053045412525535" lon="11.626906022429466">
        <ele>288.532958984375</ele>
        <time>2004-11-07T11:08:09Z</time>
      </trkpt>
      <trkpt lat="43.053140798583627" lon="11.626843577250838">
        <ele>288.532958984375</ele>
        <time>2004-11-07T11:08:12Z</time>
      </trkpt>
      <trkpt lat="43.053238531574607" lon="11.626778030768037">
        <ele>288.05224609375</ele>
        <time>2004-11-07T11:08:15Z</time>
      </trkpt>
      <trkpt lat="43.053344814106822" lon="11.626706197857857">
        <ele>288.532958984375</ele>
        <time>2004-11-07T11:08:18Z</time>
      </trkpt>
      <trkpt lat="43.053454030305147" lon="11.626630593091249">
        <ele>289.494140625</ele>
        <time>2004-11-07T11:08:21Z</time>
      </trkpt>
      <trkpt lat="43.053569449111819" lon="11.626549540087581">
        <ele>289.0135498046875</ele>
        <time>2004-11-07T11:08:24Z</time>
      </trkpt>
      <trkpt lat="43.053690986707807" lon="11.626469492912292">
        <ele>289.974853515625</ele>
        <time>2004-11-07T11:08:27Z</time>
      </trkpt>
      <trkpt lat="43.053811267018318" lon="11.626385254785419">
        <ele>290.45556640625</ele>
        <time>2004-11-07T11:08:30Z</time>
      </trkpt>
      <trkpt lat="43.053926602005959" lon="11.626309817656875">
        <ele>290.45556640625</ele>
        <time>2004-11-07T11:08:33Z</time>
      </trkpt>
      <trkpt lat="43.054041685536504" lon="11.626251898705959">
        <ele>290.45556640625</ele>
        <time>2004-11-07T11:08:36Z</time>
      </trkpt>
      <trkpt lat="43.054147716611624" lon="11.626214850693941">
        <ele>290.9361572265625</ele>
        <time>2004-11-07T11:08:39Z</time>
      </trkpt>
      <trkpt lat="43.054260285571218" lon="11.626183753833175">
        <ele>291.416748046875</ele>
        <time>2004-11-07T11:08:42Z</time>
      </trkpt>
      <trkpt lat="43.054389283061028" lon="11.62617227062583">
        <ele>290.9361572265625</ele>
        <time>2004-11-07T11:08:45Z</time>
      </trkpt>
      <trkpt lat="43.054523142054677" lon="11.626160368323326">
        <ele>291.8974609375</ele>
        <time>2004-11-07T11:08:48Z</time>
      </trkpt>
      <trkpt lat="43.054660186171532" lon="11.626156345009804">
        <ele>292.378173828125</ele>
        <time>2004-11-07T11:08:51Z</time>
      </trkpt>
      <trkpt lat="43.054749788716435" lon="11.626156764104962">
        <ele>291.8974609375</ele>
        <time>2004-11-07T11:08:53Z</time>
      </trkpt>
      <trkpt lat="43.054883647710085" lon="11.626158189028502">
        <ele>292.378173828125</ele>
        <time>2004-11-07T11:08:56Z</time>
      </trkpt>
      <trkpt lat="43.055017255246639" lon="11.626162966713309">
        <ele>292.8587646484375</ele>
        <time>2004-11-07T11:08:59Z</time>
      </trkpt>
      <trkpt lat="43.055105013772845" lon="11.626167492941022">
        <ele>292.8587646484375</ele>
        <time>2004-11-07T11:09:01Z</time>
      </trkpt>
      <trkpt lat="43.055194700136781" lon="11.626169923692942">
        <ele>292.8587646484375</ele>
        <time>2004-11-07T11:09:03Z</time>
      </trkpt>
      <trkpt lat="43.055287320166826" lon="11.626172019168735">
        <ele>292.378173828125</ele>
        <time>2004-11-07T11:09:05Z</time>
      </trkpt>
      <trkpt lat="43.055384214967489" lon="11.626179730519652">
        <ele>293.33935546875</ele>
        <time>2004-11-07T11:09:07Z</time>
      </trkpt>
      <trkpt lat="43.055470632389188" lon="11.626192135736346">
        <ele>292.378173828125</ele>
        <time>2004-11-07T11:09:09Z</time>
      </trkpt>
      <trkpt lat="43.055601892992854" lon="11.62621283903718">
        <ele>292.378173828125</ele>
        <time>2004-11-07T11:09:12Z</time>
      </trkpt>
      <trkpt lat="43.055736506357789" lon="11.626224322244525">
        <ele>292.8587646484375</ele>
        <time>2004-11-07T11:09:15Z</time>
      </trkpt>
      <trkpt lat="43.055826108902693" lon="11.626236056908965">
        <ele>292.378173828125</ele>
        <time>2004-11-07T11:09:17Z</time>
      </trkpt>
      <trkpt lat="43.055923255160451" lon="11.626252233982086">
        <ele>292.378173828125</ele>
        <time>2004-11-07T11:09:19Z</time>
      </trkpt>
      <trkpt lat="43.056020233780146" lon="11.626269668340683">
        <ele>292.378173828125</ele>
        <time>2004-11-07T11:09:21Z</time>
      </trkpt>
      <trkpt lat="43.056110674515367" lon="11.626293221488595">
        <ele>292.8587646484375</ele>
        <time>2004-11-07T11:09:23Z</time>
      </trkpt>
      <trkpt lat="43.056243779137731" lon="11.626322809606791">
        <ele>292.378173828125</ele>
        <time>2004-11-07T11:09:26Z</time>
      </trkpt>
      <trkpt lat="43.056374369189143" lon="11.626350888982415">
        <ele>292.378173828125</ele>
        <time>2004-11-07T11:09:29Z</time>
      </trkpt>
      <trkpt lat="43.056506132707" lon="11.626376202329993">
        <ele>292.8587646484375</ele>
        <time>2004-11-07T11:09:32Z</time>
      </trkpt>
      <trkpt lat="43.056633118540049" lon="11.626411741599441">
        <ele>292.378173828125</ele>
        <time>2004-11-07T11:09:35Z</time>
      </trkpt>
      <trkpt lat="43.056755578145385" lon="11.626472007483244">
        <ele>292.8587646484375</ele>
        <time>2004-11-07T11:09:38Z</time>
      </trkpt>
      <trkpt lat="43.056854903697968" lon="11.626584744080901">
        <ele>292.378173828125</ele>
        <time>2004-11-07T11:09:41Z</time>
      </trkpt>
      <trkpt lat="43.056903854012489" lon="11.626758920028806">
        <ele>292.378173828125</ele>
        <time>2004-11-07T11:09:44Z</time>
      </trkpt>
      <trkpt lat="43.056911313906312" lon="11.626890012994409">
        <ele>292.378173828125</ele>
        <time>2004-11-07T11:09:46Z</time>
      </trkpt>
      <trkpt lat="43.056913744658232" lon="11.627027560025454">
        <ele>291.416748046875</ele>
        <time>2004-11-07T11:09:48Z</time>
      </trkpt>
      <trkpt lat="43.056909553706646" lon="11.627184385433793">
        <ele>290.45556640625</ele>
        <time>2004-11-07T11:09:50Z</time>
      </trkpt>
      <trkpt lat="43.056902512907982" lon="11.627358812838793">
        <ele>288.532958984375</ele>
        <time>2004-11-07T11:09:52Z</time>
      </trkpt>
      <trkpt lat="43.056889101862907" lon="11.627537179738283">
        <ele>287.5714111328125</ele>
        <time>2004-11-07T11:09:54Z</time>
      </trkpt>
      <trkpt lat="43.056874768808484" lon="11.62771730683744">
        <ele>287.5714111328125</ele>
        <time>2004-11-07T11:09:56Z</time>
      </trkpt>
      <trkpt lat="43.056859178468585" lon="11.627892572432756">
        <ele>287.5714111328125</ele>
        <time>2004-11-07T11:09:58Z</time>
      </trkpt>
      <trkpt lat="43.056820621713996" lon="11.628004470840096">
        <ele>287.5714111328125</ele>
        <time>2004-11-07T11:10:00Z</time>
      </trkpt>
      <trkpt lat="43.056772761046886" lon="11.628132630139589">
        <ele>288.532958984375</ele>
        <time>2004-11-07T11:10:03Z</time>
      </trkpt>
      <trkpt lat="43.056728756055236" lon="11.628250647336245">
        <ele>289.494140625</ele>
        <time>2004-11-07T11:10:07Z</time>
      </trkpt>
      <trkpt lat="43.056685421615839" lon="11.628368580713868">
        <ele>290.45556640625</ele>
        <time>2004-11-07T11:10:11Z</time>
      </trkpt>
      <trkpt lat="43.056641416624188" lon="11.628502272069454">
        <ele>291.8974609375</ele>
        <time>2004-11-07T11:10:16Z</time>
      </trkpt>
      <trkpt lat="43.056608559563756" lon="11.628637555986643">
        <ele>291.8974609375</ele>
        <time>2004-11-07T11:10:21Z</time>
      </trkpt>
      <trkpt lat="43.056581234559417" lon="11.628785077482462">
        <ele>292.378173828125</ele>
        <time>2004-11-07T11:10:26Z</time>
      </trkpt>
      <trkpt lat="43.056562459096313" lon="11.628909129649401">
        <ele>292.378173828125</ele>
        <time>2004-11-07T11:10:30Z</time>
      </trkpt>
      <trkpt lat="43.056544521823525" lon="11.629049694165587">
        <ele>292.8587646484375</ele>
        <time>2004-11-07T11:10:34Z</time>
      </trkpt>
      <trkpt lat="43.056528344750404" lon="11.629199646413326">
        <ele>293.33935546875</ele>
        <time>2004-11-07T11:10:38Z</time>
      </trkpt>
      <trkpt lat="43.056516358628869" lon="11.629345156252384">
        <ele>293.820068359375</ele>
        <time>2004-11-07T11:10:42Z</time>
      </trkpt>
      <trkpt lat="43.056501941755414" lon="11.629498461261392">
        <ele>294.30078125</ele>
        <time>2004-11-07T11:10:46Z</time>
      </trkpt>
      <trkpt lat="43.05648853071034" lon="11.629631230607629">
        <ele>294.7813720703125</ele>
        <time>2004-11-07T11:10:49Z</time>
      </trkpt>
      <trkpt lat="43.056471683084965" lon="11.629768861457705">
        <ele>295.261962890625</ele>
        <time>2004-11-07T11:10:52Z</time>
      </trkpt>
      <trkpt lat="43.05646070279181" lon="11.62990054115653">
        <ele>295.74267578125</ele>
        <time>2004-11-07T11:10:55Z</time>
      </trkpt>
      <trkpt lat="43.056449806317687" lon="11.63002610206604">
        <ele>296.2235107421875</ele>
        <time>2004-11-07T11:10:58Z</time>
      </trkpt>
      <trkpt lat="43.056438742205501" lon="11.630186447873712">
        <ele>296.7041015625</ele>
        <time>2004-11-07T11:11:02Z</time>
      </trkpt>
      <trkpt lat="43.056423906236887" lon="11.630312260240316">
        <ele>297.1846923828125</ele>
        <time>2004-11-07T11:11:05Z</time>
      </trkpt>
      <trkpt lat="43.056416111066937" lon="11.630436228588223">
        <ele>297.1846923828125</ele>
        <time>2004-11-07T11:11:08Z</time>
      </trkpt>
      <trkpt lat="43.056406220421195" lon="11.630556173622608">
        <ele>297.1846923828125</ele>
        <time>2004-11-07T11:11:11Z</time>
      </trkpt>
      <trkpt lat="43.056394318118691" lon="11.630681483075023">
        <ele>298.1461181640625</ele>
        <time>2004-11-07T11:11:14Z</time>
      </trkpt>
      <trkpt lat="43.056384846568108" lon="11.630809307098389">
        <ele>299.1072998046875</ele>
        <time>2004-11-07T11:11:17Z</time>
      </trkpt>
      <trkpt lat="43.056376297026873" lon="11.630939897149801">
        <ele>299.1072998046875</ele>
        <time>2004-11-07T11:11:20Z</time>
      </trkpt>
      <trkpt lat="43.056368082761765" lon="11.631074929609895">
        <ele>299.1072998046875</ele>
        <time>2004-11-07T11:11:23Z</time>
      </trkpt>
      <trkpt lat="43.056369004771113" lon="11.631205854937434">
        <ele>298.626708984375</ele>
        <time>2004-11-07T11:11:26Z</time>
      </trkpt>
      <trkpt lat="43.056381326168776" lon="11.631324542686343">
        <ele>299.1072998046875</ele>
        <time>2004-11-07T11:11:29Z</time>
      </trkpt>
      <trkpt lat="43.056406890973449" lon="11.631460078060627">
        <ele>299.5880126953125</ele>
        <time>2004-11-07T11:11:33Z</time>
      </trkpt>
      <trkpt lat="43.056420050561428" lon="11.631599804386497">
        <ele>299.1072998046875</ele>
        <time>2004-11-07T11:11:37Z</time>
      </trkpt>
      <trkpt lat="43.056444525718689" lon="11.631743805482984">
        <ele>299.5880126953125</ele>
        <time>2004-11-07T11:11:42Z</time>
      </trkpt>
      <trkpt lat="43.056475538760424" lon="11.631889399141073">
        <ele>300.0687255859375</ele>
        <time>2004-11-07T11:11:47Z</time>
      </trkpt>
      <trkpt lat="43.056507557630539" lon="11.632030634209514">
        <ele>301.5106201171875</ele>
        <time>2004-11-07T11:11:52Z</time>
      </trkpt>
      <trkpt lat="43.056529266759753" lon="11.632154602557421">
        <ele>301.9913330078125</ele>
        <time>2004-11-07T11:11:56Z</time>
      </trkpt>
      <trkpt lat="43.056574361398816" lon="11.632247138768435">
        <ele>303.4332275390625</ele>
        <time>2004-11-07T11:13:42Z</time>
      </trkpt>
      <trkpt lat="43.056598166003823" lon="11.632373873144388">
        <ele>303.9139404296875</ele>
        <time>2004-11-07T11:13:46Z</time>
      </trkpt>
      <trkpt lat="43.056624988093972" lon="11.632505552843213">
        <ele>303.9139404296875</ele>
        <time>2004-11-07T11:13:50Z</time>
      </trkpt>
      <trkpt lat="43.056643009185791" lon="11.632635723799467">
        <ele>304.875244140625</ele>
        <time>2004-11-07T11:13:54Z</time>
      </trkpt>
      <trkpt lat="43.056652313098311" lon="11.632766146212816">
        <ele>304.875244140625</ele>
        <time>2004-11-07T11:13:58Z</time>
      </trkpt>
      <trkpt lat="43.056657761335373" lon="11.632911572232842">
        <ele>305.836669921875</ele>
        <time>2004-11-07T11:14:02Z</time>
      </trkpt>
      <trkpt lat="43.056658180430532" lon="11.633050628006458">
        <ele>306.7978515625</ele>
        <time>2004-11-07T11:14:06Z</time>
      </trkpt>
      <trkpt lat="43.056651558727026" lon="11.633189767599106">
        <ele>307.75927734375</ele>
        <time>2004-11-07T11:14:10Z</time>
      </trkpt>
      <trkpt lat="43.056631693616509" lon="11.63332387804985">
        <ele>308.2398681640625</ele>
        <time>2004-11-07T11:14:14Z</time>
      </trkpt>
      <trkpt lat="43.056599842384458" lon="11.633452456444502">
        <ele>308.720458984375</ele>
        <time>2004-11-07T11:14:18Z</time>
      </trkpt>
      <trkpt lat="43.056575199589133" lon="11.633578855544329">
        <ele>308.720458984375</ele>
        <time>2004-11-07T11:14:22Z</time>
      </trkpt>
      <trkpt lat="43.056550640612841" lon="11.633696621283889">
        <ele>309.681884765625</ele>
        <time>2004-11-07T11:14:26Z</time>
      </trkpt>
      <trkpt lat="43.056519459933043" lon="11.633811201900244">
        <ele>309.681884765625</ele>
        <time>2004-11-07T11:14:30Z</time>
      </trkpt>
      <trkpt lat="43.056487189605832" lon="11.633946485817432">
        <ele>311.6044921875</ele>
        <time>2004-11-07T11:14:35Z</time>
      </trkpt>
      <trkpt lat="43.056461205706" lon="11.634066430851817">
        <ele>313.0465087890625</ele>
        <time>2004-11-07T11:14:40Z</time>
      </trkpt>
      <trkpt lat="43.056427845731378" lon="11.634197942912579">
        <ele>313.5272216796875</ele>
        <time>2004-11-07T11:14:45Z</time>
      </trkpt>
      <trkpt lat="43.05640110746026" lon="11.634315457195044">
        <ele>314.0078125</ele>
        <time>2004-11-07T11:14:50Z</time>
      </trkpt>
      <trkpt lat="43.056361712515354" lon="11.634452166035771">
        <ele>314.9691162109375</ele>
        <time>2004-11-07T11:14:56Z</time>
      </trkpt>
      <trkpt lat="43.056327011436224" lon="11.63457521237433">
        <ele>316.4110107421875</ele>
        <time>2004-11-07T11:15:02Z</time>
      </trkpt>
      <trkpt lat="43.056294741109014" lon="11.634697839617729">
        <ele>317.85302734375</ele>
        <time>2004-11-07T11:15:08Z</time>
      </trkpt>
      <trkpt lat="43.056255178526044" lon="11.634813928976655">
        <ele>318.3336181640625</ele>
        <time>2004-11-07T11:15:14Z</time>
      </trkpt>
      <trkpt lat="43.056220225989819" lon="11.634927922859788">
        <ele>319.2950439453125</ele>
        <time>2004-11-07T11:15:20Z</time>
      </trkpt>
      <trkpt lat="43.056188793852925" lon="11.635048538446426">
        <ele>320.737060546875</ele>
        <time>2004-11-07T11:15:26Z</time>
      </trkpt>
      <trkpt lat="43.056146968156099" lon="11.635174015536904">
        <ele>322.178955078125</ele>
        <time>2004-11-07T11:15:33Z</time>
      </trkpt>
      <trkpt lat="43.056112518534064" lon="11.6353072039783">
        <ele>324.1015625</ele>
        <time>2004-11-07T11:15:40Z</time>
      </trkpt>
      <trkpt lat="43.056074632331729" lon="11.635434357449412">
        <ele>325.5435791015625</ele>
        <time>2004-11-07T11:15:47Z</time>
      </trkpt>
      <trkpt lat="43.05605661123991" lon="11.635565869510174">
        <ele>326.024169921875</ele>
        <time>2004-11-07T11:15:54Z</time>
      </trkpt>
      <trkpt lat="43.056040685623884" lon="11.635707020759583">
        <ele>327.4661865234375</ele>
        <time>2004-11-07T11:16:01Z</time>
      </trkpt>
      <trkpt lat="43.056027945131063" lon="11.635848674923182">
        <ele>328.4276123046875</ele>
        <time>2004-11-07T11:16:08Z</time>
      </trkpt>
      <trkpt lat="43.056020988151431" lon="11.635978426784277">
        <ele>330.3502197265625</ele>
        <time>2004-11-07T11:16:14Z</time>
      </trkpt>
      <trkpt lat="43.056020904332399" lon="11.636112369596958">
        <ele>330.8309326171875</ele>
        <time>2004-11-07T11:16:20Z</time>
      </trkpt>
      <trkpt lat="43.056023251265287" lon="11.636238433420658">
        <ele>332.7535400390625</ele>
        <time>2004-11-07T11:16:26Z</time>
      </trkpt>
      <trkpt lat="43.056030375882983" lon="11.636369694024324">
        <ele>333.7147216796875</ele>
        <time>2004-11-07T11:16:32Z</time>
      </trkpt>
      <trkpt lat="43.056036662310362" lon="11.636497853323817">
        <ele>334.6761474609375</ele>
        <time>2004-11-07T11:16:38Z</time>
      </trkpt>
      <trkpt lat="43.056040937080979" lon="11.636625342071056">
        <ele>335.15673828125</ele>
        <time>2004-11-07T11:16:44Z</time>
      </trkpt>
      <trkpt lat="43.05604537948966" lon="11.636756854131818">
        <ele>336.1181640625</ele>
        <time>2004-11-07T11:16:50Z</time>
      </trkpt>
      <trkpt lat="43.056048648431897" lon="11.636883839964867">
        <ele>336.598876953125</ele>
        <time>2004-11-07T11:16:56Z</time>
      </trkpt>
      <trkpt lat="43.056053509935737" lon="11.637012083083391">
        <ele>338.521484375</ele>
        <time>2004-11-07T11:17:02Z</time>
      </trkpt>
      <trkpt lat="43.05605560541153" lon="11.63714686408639">
        <ele>339.0020751953125</ele>
        <time>2004-11-07T11:17:08Z</time>
      </trkpt>
      <trkpt lat="43.056062310934067" lon="11.63728466257453">
        <ele>340.9246826171875</ele>
        <time>2004-11-07T11:17:14Z</time>
      </trkpt>
      <trkpt lat="43.056063232943416" lon="11.637412067502737">
        <ele>342.36669921875</ele>
        <time>2004-11-07T11:17:20Z</time>
      </trkpt>
      <trkpt lat="43.05608200840652" lon="11.637543076649308">
        <ele>342.8472900390625</ele>
        <time>2004-11-07T11:17:27Z</time>
      </trkpt>
      <trkpt lat="43.056095084175467" lon="11.637663524597883">
        <ele>342.8472900390625</ele>
        <time>2004-11-07T11:17:34Z</time>
      </trkpt>
      <trkpt lat="43.056095587089658" lon="11.637791264802217">
        <ele>343.80859375</ele>
        <time>2004-11-07T11:17:41Z</time>
      </trkpt>
      <trkpt lat="43.056104555726051" lon="11.637937612831593">
        <ele>343.327880859375</ele>
        <time>2004-11-07T11:17:48Z</time>
      </trkpt>
      <trkpt lat="43.056120816618204" lon="11.638052528724074">
        <ele>343.327880859375</ele>
        <time>2004-11-07T11:17:54Z</time>
      </trkpt>
      <trkpt lat="43.056158283725381" lon="11.638101143762469">
        <ele>343.80859375</ele>
        <time>2004-11-07T11:20:22Z</time>
      </trkpt>
      <trkpt lat="43.056132216006517" lon="11.638270458206534">
        <ele>344.77001953125</ele>
        <time>2004-11-07T11:20:29Z</time>
      </trkpt>
      <trkpt lat="43.056132467463613" lon="11.638422086834908">
        <ele>344.2894287109375</ele>
        <time>2004-11-07T11:20:32Z</time>
      </trkpt>
      <trkpt lat="43.056143196299672" lon="11.638588216155767">
        <ele>343.327880859375</ele>
        <time>2004-11-07T11:20:35Z</time>
      </trkpt>
      <trkpt lat="43.05615920573473" lon="11.638772701844573">
        <ele>343.327880859375</ele>
        <time>2004-11-07T11:20:38Z</time>
      </trkpt>
      <trkpt lat="43.056166414171457" lon="11.638916032388806">
        <ele>342.8472900390625</ele>
        <time>2004-11-07T11:20:40Z</time>
      </trkpt>
      <trkpt lat="43.056173203513026" lon="11.639069002121687">
        <ele>342.8472900390625</ele>
        <time>2004-11-07T11:20:42Z</time>
      </trkpt>
      <trkpt lat="43.056182758882642" lon="11.639232281595469">
        <ele>343.327880859375</ele>
        <time>2004-11-07T11:20:44Z</time>
      </trkpt>
      <trkpt lat="43.056203043088317" lon="11.639399165287614">
        <ele>342.36669921875</ele>
        <time>2004-11-07T11:20:46Z</time>
      </trkpt>
      <trkpt lat="43.056229781359434" lon="11.639552721753716">
        <ele>341.4052734375</ele>
        <time>2004-11-07T11:20:48Z</time>
      </trkpt>
      <trkpt lat="43.05627110414207" lon="11.639683395624161">
        <ele>341.4052734375</ele>
        <time>2004-11-07T11:20:50Z</time>
      </trkpt>
      <trkpt lat="43.056320892646909" lon="11.639800574630499">
        <ele>341.4052734375</ele>
        <time>2004-11-07T11:20:52Z</time>
      </trkpt>
      <trkpt lat="43.056371519342065" lon="11.639913395047188">
        <ele>341.4052734375</ele>
        <time>2004-11-07T11:20:54Z</time>
      </trkpt>
      <trkpt lat="43.056455841287971" lon="11.640046834945679">
        <ele>342.36669921875</ele>
        <time>2004-11-07T11:20:57Z</time>
      </trkpt>
      <trkpt lat="43.056541001424193" lon="11.640167450532317">
        <ele>343.327880859375</ele>
        <time>2004-11-07T11:21:00Z</time>
      </trkpt>
      <trkpt lat="43.056617612019181" lon="11.640297789126635">
        <ele>342.8472900390625</ele>
        <time>2004-11-07T11:21:03Z</time>
      </trkpt>
      <trkpt lat="43.056688606739044" lon="11.640422763302922">
        <ele>343.327880859375</ele>
        <time>2004-11-07T11:21:06Z</time>
      </trkpt>
      <trkpt lat="43.056762032210827" lon="11.640534577891231">
        <ele>343.80859375</ele>
        <time>2004-11-07T11:21:09Z</time>
      </trkpt>
      <trkpt lat="43.056832607835531" lon="11.640653684735298">
        <ele>345.2506103515625</ele>
        <time>2004-11-07T11:21:12Z</time>
      </trkpt>
      <trkpt lat="43.056914079934359" lon="11.640782682225108">
        <ele>345.7313232421875</ele>
        <time>2004-11-07T11:21:15Z</time>
      </trkpt>
      <trkpt lat="43.056984068825841" lon="11.640919810160995">
        <ele>344.77001953125</ele>
        <time>2004-11-07T11:21:18Z</time>
      </trkpt>
      <trkpt lat="43.057050872594118" lon="11.641050903126597">
        <ele>345.2506103515625</ele>
        <time>2004-11-07T11:21:21Z</time>
      </trkpt>
      <trkpt lat="43.057116083800793" lon="11.641174117103219">
        <ele>345.7313232421875</ele>
        <time>2004-11-07T11:21:24Z</time>
      </trkpt>
      <trkpt lat="43.057174924761057" lon="11.641301941126585">
        <ele>345.2506103515625</ele>
        <time>2004-11-07T11:21:27Z</time>
      </trkpt>
      <trkpt lat="43.05723175406456" lon="11.641441499814391">
        <ele>345.7313232421875</ele>
        <time>2004-11-07T11:21:30Z</time>
      </trkpt>
      <trkpt lat="43.057286320254207" lon="11.641586506739259">
        <ele>345.7313232421875</ele>
        <time>2004-11-07T11:21:33Z</time>
      </trkpt>
      <trkpt lat="43.057336192578077" lon="11.641725227236748">
        <ele>346.2120361328125</ele>
        <time>2004-11-07T11:21:36Z</time>
      </trkpt>
      <trkpt lat="43.057379946112633" lon="11.641859086230397">
        <ele>346.2120361328125</ele>
        <time>2004-11-07T11:21:39Z</time>
      </trkpt>
      <trkpt lat="43.057437697425485" lon="11.641982384026051">
        <ele>346.2120361328125</ele>
        <time>2004-11-07T11:21:42Z</time>
      </trkpt>
      <trkpt lat="43.057505171746016" lon="11.642096629366279">
        <ele>346.692626953125</ele>
        <time>2004-11-07T11:21:45Z</time>
      </trkpt>
      <trkpt lat="43.057590834796429" lon="11.642192350700498">
        <ele>346.2120361328125</ele>
        <time>2004-11-07T11:21:48Z</time>
      </trkpt>
      <trkpt lat="43.057688316330314" lon="11.642269380390644">
        <ele>347.6539306640625</ele>
        <time>2004-11-07T11:21:51Z</time>
      </trkpt>
      <trkpt lat="43.057798370718956" lon="11.64232193492353">
        <ele>346.692626953125</ele>
        <time>2004-11-07T11:21:54Z</time>
      </trkpt>
      <trkpt lat="43.057924685999751" lon="11.642357977107167">
        <ele>348.1346435546875</ele>
        <time>2004-11-07T11:21:57Z</time>
      </trkpt>
      <trkpt lat="43.05802334100008" lon="11.642372813075781">
        <ele>346.692626953125</ele>
        <time>2004-11-07T11:21:59Z</time>
      </trkpt>
      <trkpt lat="43.058133060112596" lon="11.642375579103827">
        <ele>346.2120361328125</ele>
        <time>2004-11-07T11:22:01Z</time>
      </trkpt>
      <trkpt lat="43.058249903842807" lon="11.642349176108837">
        <ele>345.7313232421875</ele>
        <time>2004-11-07T11:22:03Z</time>
      </trkpt>
      <trkpt lat="43.058380745351315" lon="11.642302488908172">
        <ele>345.2506103515625</ele>
        <time>2004-11-07T11:22:05Z</time>
      </trkpt>
      <trkpt lat="43.058519884943962" lon="11.642239456996322">
        <ele>344.2894287109375</ele>
        <time>2004-11-07T11:22:07Z</time>
      </trkpt>
      <trkpt lat="43.058662544935942" lon="11.642159828916192">
        <ele>343.327880859375</ele>
        <time>2004-11-07T11:22:09Z</time>
      </trkpt>
      <trkpt lat="43.058805875480175" lon="11.64208204485476">
        <ele>342.36669921875</ele>
        <time>2004-11-07T11:22:11Z</time>
      </trkpt>
      <trkpt lat="43.058942332863808" lon="11.642019348219037">
        <ele>342.36669921875</ele>
        <time>2004-11-07T11:22:13Z</time>
      </trkpt>
      <trkpt lat="43.059068312868476" lon="11.641974002122879">
        <ele>342.36669921875</ele>
        <time>2004-11-07T11:22:15Z</time>
      </trkpt>
      <trkpt lat="43.059179792180657" lon="11.641947012394667">
        <ele>341.885986328125</ele>
        <time>2004-11-07T11:22:17Z</time>
      </trkpt>
      <trkpt lat="43.059276938438416" lon="11.641931841149926">
        <ele>341.885986328125</ele>
        <time>2004-11-07T11:22:19Z</time>
      </trkpt>
      <trkpt lat="43.059398392215371" lon="11.641920860856771">
        <ele>341.4052734375</ele>
        <time>2004-11-07T11:22:22Z</time>
      </trkpt>
      <trkpt lat="43.059498723596334" lon="11.641915664076805">
        <ele>342.36669921875</ele>
        <time>2004-11-07T11:22:25Z</time>
      </trkpt>
      <trkpt lat="43.059606263414025" lon="11.641909461468458">
        <ele>342.36669921875</ele>
        <time>2004-11-07T11:22:29Z</time>
      </trkpt>
      <trkpt lat="43.059694776311517" lon="11.64190661162138">
        <ele>342.8472900390625</ele>
        <time>2004-11-07T11:22:33Z</time>
      </trkpt>
      <trkpt lat="43.059796867892146" lon="11.64190317504108">
        <ele>342.8472900390625</ele>
        <time>2004-11-07T11:22:37Z</time>
      </trkpt>
      <trkpt lat="43.059889487922192" lon="11.641907198354602">
        <ele>343.80859375</ele>
        <time>2004-11-07T11:22:41Z</time>
      </trkpt>
      <trkpt lat="43.05999300442636" lon="11.641910634934902">
        <ele>344.2894287109375</ele>
        <time>2004-11-07T11:22:46Z</time>
      </trkpt>
      <trkpt lat="43.060101801529527" lon="11.641925806179643">
        <ele>345.7313232421875</ele>
        <time>2004-11-07T11:22:51Z</time>
      </trkpt>
      <trkpt lat="43.060197774320841" lon="11.641948185861111">
        <ele>345.7313232421875</ele>
        <time>2004-11-07T11:22:55Z</time>
      </trkpt>
      <trkpt lat="43.060286706313491" lon="11.641982970759273">
        <ele>346.692626953125</ele>
        <time>2004-11-07T11:22:59Z</time>
      </trkpt>
      <trkpt lat="43.06037362664938" lon="11.6420385427773">
        <ele>347.1732177734375</ele>
        <time>2004-11-07T11:23:04Z</time>
      </trkpt>
      <trkpt lat="43.0604606308043" lon="11.64211381226778">
        <ele>349.0958251953125</ele>
        <time>2004-11-07T11:23:10Z</time>
      </trkpt>
      <trkpt lat="43.060530619695783" lon="11.642220681533217">
        <ele>350.0572509765625</ele>
        <time>2004-11-07T11:23:17Z</time>
      </trkpt>
      <trkpt lat="43.060594154521823" lon="11.642329646274447">
        <ele>351.4991455078125</ele>
        <time>2004-11-07T11:23:24Z</time>
      </trkpt>
      <trkpt lat="43.060660623013973" lon="11.64242553524673">
        <ele>352.941162109375</ele>
        <time>2004-11-07T11:23:30Z</time>
      </trkpt>
      <trkpt lat="43.060731701552868" lon="11.642536679282784">
        <ele>353.902587890625</ele>
        <time>2004-11-07T11:23:36Z</time>
      </trkpt>
      <trkpt lat="43.060790710151196" lon="11.642646733671427">
        <ele>354.3831787109375</ele>
        <time>2004-11-07T11:23:41Z</time>
      </trkpt>
      <trkpt lat="43.060856005176902" lon="11.642758632078767">
        <ele>355.8251953125</ele>
        <time>2004-11-07T11:23:46Z</time>
      </trkpt>
      <trkpt lat="43.06092138402164" lon="11.642864746972919">
        <ele>356.3057861328125</ele>
        <time>2004-11-07T11:23:51Z</time>
      </trkpt>
      <trkpt lat="43.060986008495092" lon="11.64296985603869">
        <ele>356.3057861328125</ele>
        <time>2004-11-07T11:23:56Z</time>
      </trkpt>
      <trkpt lat="43.06105381809175" lon="11.643066331744194">
        <ele>356.786376953125</ele>
        <time>2004-11-07T11:24:01Z</time>
      </trkpt>
      <trkpt lat="43.061119448393583" lon="11.643167585134506">
        <ele>356.786376953125</ele>
        <time>2004-11-07T11:24:06Z</time>
      </trkpt>
      <trkpt lat="43.061183653771877" lon="11.643268251791596">
        <ele>357.26708984375</ele>
        <time>2004-11-07T11:24:11Z</time>
      </trkpt>
      <trkpt lat="43.061246015131474" lon="11.643369672819972">
        <ele>357.747802734375</ele>
        <time>2004-11-07T11:24:16Z</time>
      </trkpt>
      <trkpt lat="43.061323296278715" lon="11.64348148740828">
        <ele>359.189697265625</ele>
        <time>2004-11-07T11:24:21Z</time>
      </trkpt>
      <trkpt lat="43.061391105875373" lon="11.643581818789244">
        <ele>359.189697265625</ele>
        <time>2004-11-07T11:24:25Z</time>
      </trkpt>
      <trkpt lat="43.061454053968191" lon="11.643687095493078">
        <ele>359.189697265625</ele>
        <time>2004-11-07T11:24:29Z</time>
      </trkpt>
      <trkpt lat="43.06152387522161" lon="11.643803771585226">
        <ele>360.6317138671875</ele>
        <time>2004-11-07T11:24:33Z</time>
      </trkpt>
      <trkpt lat="43.061603838577867" lon="11.643927153199911">
        <ele>360.6317138671875</ele>
        <time>2004-11-07T11:24:37Z</time>
      </trkpt>
      <trkpt lat="43.061660164967179" lon="11.644030502066016">
        <ele>361.5931396484375</ele>
        <time>2004-11-07T11:24:40Z</time>
      </trkpt>
      <trkpt lat="43.06172763928771" lon="11.644124547019601">
        <ele>360.6317138671875</ele>
        <time>2004-11-07T11:24:43Z</time>
      </trkpt>
      <trkpt lat="43.061795784160495" lon="11.644217167049646">
        <ele>362.5543212890625</ele>
        <time>2004-11-07T11:24:46Z</time>
      </trkpt>
      <trkpt lat="43.061860911548138" lon="11.644317582249641">
        <ele>362.07373046875</ele>
        <time>2004-11-07T11:24:49Z</time>
      </trkpt>
      <trkpt lat="43.061936432495713" lon="11.644423948600888">
        <ele>362.07373046875</ele>
        <time>2004-11-07T11:24:52Z</time>
      </trkpt>
      <trkpt lat="43.062021844089031" lon="11.64454372599721">
        <ele>361.5931396484375</ele>
        <time>2004-11-07T11:24:55Z</time>
      </trkpt>
      <trkpt lat="43.062109099701047" lon="11.644683787599206">
        <ele>360.6317138671875</ele>
        <time>2004-11-07T11:24:58Z</time>
      </trkpt>
      <trkpt lat="43.062170706689358" lon="11.644777664914727">
        <ele>359.67041015625</ele>
        <time>2004-11-07T11:25:00Z</time>
      </trkpt>
      <trkpt lat="43.06226952932775" lon="11.644922588020563">
        <ele>359.67041015625</ele>
        <time>2004-11-07T11:25:03Z</time>
      </trkpt>
      <trkpt lat="43.062334740534425" lon="11.645025182515383">
        <ele>359.189697265625</ele>
        <time>2004-11-07T11:25:05Z</time>
      </trkpt>
      <trkpt lat="43.06239802390337" lon="11.645125262439251">
        <ele>358.708984375</ele>
        <time>2004-11-07T11:25:07Z</time>
      </trkpt>
      <trkpt lat="43.062462564557791" lon="11.645220899954438">
        <ele>358.2283935546875</ele>
        <time>2004-11-07T11:25:09Z</time>
      </trkpt>
      <trkpt lat="43.062525680288672" lon="11.645322320982814">
        <ele>358.2283935546875</ele>
        <time>2004-11-07T11:25:11Z</time>
      </trkpt>
      <trkpt lat="43.062588963657618" lon="11.645425418391824">
        <ele>358.2283935546875</ele>
        <time>2004-11-07T11:25:13Z</time>
      </trkpt>
      <trkpt lat="43.06264822371304" lon="11.64552834816277">
        <ele>358.708984375</ele>
        <time>2004-11-07T11:25:15Z</time>
      </trkpt>
      <trkpt lat="43.062702035531402" lon="11.645628260448575">
        <ele>358.708984375</ele>
        <time>2004-11-07T11:25:17Z</time>
      </trkpt>
      <trkpt lat="43.062753584235907" lon="11.645733704790473">
        <ele>358.708984375</ele>
        <time>2004-11-07T11:25:19Z</time>
      </trkpt>
      <trkpt lat="43.062808653339744" lon="11.645836634561419">
        <ele>357.747802734375</ele>
        <time>2004-11-07T11:25:21Z</time>
      </trkpt>
      <trkpt lat="43.062864392995834" lon="11.645944006741047">
        <ele>357.747802734375</ele>
        <time>2004-11-07T11:25:23Z</time>
      </trkpt>
      <trkpt lat="43.062923150137067" lon="11.646054899320006">
        <ele>356.786376953125</ele>
        <time>2004-11-07T11:25:25Z</time>
      </trkpt>
      <trkpt lat="43.062976459041238" lon="11.646167552098632">
        <ele>356.786376953125</ele>
        <time>2004-11-07T11:25:27Z</time>
      </trkpt>
      <trkpt lat="43.063029516488314" lon="11.646270481869578">
        <ele>356.3057861328125</ele>
        <time>2004-11-07T11:25:29Z</time>
      </trkpt>
      <trkpt lat="43.063101265579462" lon="11.646421859040856">
        <ele>355.8251953125</ele>
        <time>2004-11-07T11:25:32Z</time>
      </trkpt>
      <trkpt lat="43.063163459300995" lon="11.646554712206125">
        <ele>356.3057861328125</ele>
        <time>2004-11-07T11:25:35Z</time>
      </trkpt>
      <trkpt lat="43.063214337453246" lon="11.646667029708624">
        <ele>357.747802734375</ele>
        <time>2004-11-07T11:25:38Z</time>
      </trkpt>
      <trkpt lat="43.063275022432208" lon="11.646789824590087">
        <ele>358.2283935546875</ele>
        <time>2004-11-07T11:25:42Z</time>
      </trkpt>
      <trkpt lat="43.063324391841888" lon="11.646900549530983">
        <ele>359.189697265625</ele>
        <time>2004-11-07T11:25:46Z</time>
      </trkpt>
      <trkpt lat="43.063368983566761" lon="11.647014711052179">
        <ele>359.67041015625</ele>
        <time>2004-11-07T11:25:50Z</time>
      </trkpt>
      <trkpt lat="43.063416173681617" lon="11.647122837603092">
        <ele>359.67041015625</ele>
        <time>2004-11-07T11:25:54Z</time>
      </trkpt>
      <trkpt lat="43.063463531434536" lon="11.647229623049498">
        <ele>361.5931396484375</ele>
        <time>2004-11-07T11:25:58Z</time>
      </trkpt>
      <trkpt lat="43.063520528376102" lon="11.647354764863849">
        <ele>362.5543212890625</ele>
        <time>2004-11-07T11:26:03Z</time>
      </trkpt>
      <trkpt lat="43.063571155071259" lon="11.647472782060504">
        <ele>363.5157470703125</ele>
        <time>2004-11-07T11:26:08Z</time>
      </trkpt>
      <trkpt lat="43.063626727089286" lon="11.647589793428779">
        <ele>363.996337890625</ele>
        <time>2004-11-07T11:26:13Z</time>
      </trkpt>
      <trkpt lat="43.063695961609483" lon="11.64770370349288">
        <ele>365.4383544921875</ele>
        <time>2004-11-07T11:26:18Z</time>
      </trkpt>
      <trkpt lat="43.06375983171165" lon="11.647788779810071">
        <ele>365.9189453125</ele>
        <time>2004-11-07T11:26:22Z</time>
      </trkpt>
      <trkpt lat="43.063844405114651" lon="11.647869413718581">
        <ele>366.8802490234375</ele>
        <time>2004-11-07T11:26:26Z</time>
      </trkpt>
      <trkpt lat="43.063937108963728" lon="11.647968152537942">
        <ele>365.9189453125</ele>
        <time>2004-11-07T11:26:30Z</time>
      </trkpt>
      <trkpt lat="43.064037524163723" lon="11.648061443120241">
        <ele>366.8802490234375</ele>
        <time>2004-11-07T11:26:34Z</time>
      </trkpt>
      <trkpt lat="43.064117822796106" lon="11.648129252716899">
        <ele>366.3995361328125</ele>
        <time>2004-11-07T11:26:37Z</time>
      </trkpt>
      <trkpt lat="43.064201138913631" lon="11.648200582712889">
        <ele>366.3995361328125</ele>
        <time>2004-11-07T11:26:40Z</time>
      </trkpt>
      <trkpt lat="43.064294848591089" lon="11.648271325975657">
        <ele>365.9189453125</ele>
        <time>2004-11-07T11:26:43Z</time>
      </trkpt>
      <trkpt lat="43.064403310418129" lon="11.648344248533249">
        <ele>365.4383544921875</ele>
        <time>2004-11-07T11:26:46Z</time>
      </trkpt>
      <trkpt lat="43.064519064500928" lon="11.648405268788338">
        <ele>365.4383544921875</ele>
        <time>2004-11-07T11:26:49Z</time>
      </trkpt>
      <trkpt lat="43.064638255164027" lon="11.648449189960957">
        <ele>364.4769287109375</ele>
        <time>2004-11-07T11:26:52Z</time>
      </trkpt>
      <trkpt lat="43.064760463312268" lon="11.64848011918366">
        <ele>364.9576416015625</ele>
        <time>2004-11-07T11:26:55Z</time>
      </trkpt>
      <trkpt lat="43.064881497994065" lon="11.648515909910202">
        <ele>364.9576416015625</ele>
        <time>2004-11-07T11:26:58Z</time>
      </trkpt>
      <trkpt lat="43.065002029761672" lon="11.648548264056444">
        <ele>364.9576416015625</ele>
        <time>2004-11-07T11:27:01Z</time>
      </trkpt>
      <trkpt lat="43.065127339214087" lon="11.64857592433691">
        <ele>365.4383544921875</ele>
        <time>2004-11-07T11:27:04Z</time>
      </trkpt>
      <trkpt lat="43.06526237167418" lon="11.64858908392489">
        <ele>364.4769287109375</ele>
        <time>2004-11-07T11:27:07Z</time>
      </trkpt>
      <trkpt lat="43.065355243161321" lon="11.648573828861117">
        <ele>364.9576416015625</ele>
        <time>2004-11-07T11:27:09Z</time>
      </trkpt>
      <trkpt lat="43.06544316932559" lon="11.648540971800685">
        <ele>365.4383544921875</ele>
        <time>2004-11-07T11:27:11Z</time>
      </trkpt>
      <trkpt lat="43.065526401624084" lon="11.648496044799685">
        <ele>365.4383544921875</ele>
        <time>2004-11-07T11:27:13Z</time>
      </trkpt>
      <trkpt lat="43.065639641135931" lon="11.648408537730575">
        <ele>365.9189453125</ele>
        <time>2004-11-07T11:27:16Z</time>
      </trkpt>
      <trkpt lat="43.06575489230454" lon="11.648331759497523">
        <ele>365.9189453125</ele>
        <time>2004-11-07T11:27:19Z</time>
      </trkpt>
      <trkpt lat="43.065874921157956" lon="11.648268308490515">
        <ele>365.9189453125</ele>
        <time>2004-11-07T11:27:22Z</time>
      </trkpt>
      <trkpt lat="43.066003667190671" lon="11.648233355954289">
        <ele>366.3995361328125</ele>
        <time>2004-11-07T11:27:25Z</time>
      </trkpt>
      <trkpt lat="43.066126378253102" lon="11.648207288235426">
        <ele>365.4383544921875</ele>
        <time>2004-11-07T11:27:28Z</time>
      </trkpt>
      <trkpt lat="43.066250011324883" lon="11.648197313770652">
        <ele>365.9189453125</ele>
        <time>2004-11-07T11:27:31Z</time>
      </trkpt>
      <trkpt lat="43.066371381282806" lon="11.648188345134258">
        <ele>365.4383544921875</ele>
        <time>2004-11-07T11:27:34Z</time>
      </trkpt>
      <trkpt lat="43.066497696563601" lon="11.648175185546279">
        <ele>364.9576416015625</ele>
        <time>2004-11-07T11:27:37Z</time>
      </trkpt>
      <trkpt lat="43.066631136462092" lon="11.648163283243775">
        <ele>364.9576416015625</ele>
        <time>2004-11-07T11:27:40Z</time>
      </trkpt>
      <trkpt lat="43.066723672673106" lon="11.648156074807048">
        <ele>364.9576416015625</ele>
        <time>2004-11-07T11:27:42Z</time>
      </trkpt>
      <trkpt lat="43.066821321845055" lon="11.64814786054194">
        <ele>363.996337890625</ele>
        <time>2004-11-07T11:27:44Z</time>
      </trkpt>
      <trkpt lat="43.066932465881109" lon="11.648142579942942">
        <ele>363.5157470703125</ele>
        <time>2004-11-07T11:27:46Z</time>
      </trkpt>
      <trkpt lat="43.067047465592623" lon="11.6481361258775">
        <ele>362.5543212890625</ele>
        <time>2004-11-07T11:27:48Z</time>
      </trkpt>
      <trkpt lat="43.067187024280429" lon="11.648121373727918">
        <ele>361.5931396484375</ele>
        <time>2004-11-07T11:27:50Z</time>
      </trkpt>
      <trkpt lat="43.067330019548535" lon="11.648103855550289">
        <ele>360.151123046875</ele>
        <time>2004-11-07T11:27:52Z</time>
      </trkpt>
      <trkpt lat="43.067481899634004" lon="11.648074435070157">
        <ele>359.67041015625</ele>
        <time>2004-11-07T11:27:54Z</time>
      </trkpt>
      <trkpt lat="43.067628247663379" lon="11.64802422747016">
        <ele>359.67041015625</ele>
        <time>2004-11-07T11:27:56Z</time>
      </trkpt>
      <trkpt lat="43.067764705047011" lon="11.647952729836106">
        <ele>359.189697265625</ele>
        <time>2004-11-07T11:27:58Z</time>
      </trkpt>
      <trkpt lat="43.067882806062698" lon="11.647857846692204">
        <ele>358.708984375</ele>
        <time>2004-11-07T11:28:00Z</time>
      </trkpt>
      <trkpt lat="43.067987831309438" lon="11.64775550365448">
        <ele>358.2283935546875</ele>
        <time>2004-11-07T11:28:02Z</time>
      </trkpt>
      <trkpt lat="43.068074500188231" lon="11.647642096504569">
        <ele>358.708984375</ele>
        <time>2004-11-07T11:28:04Z</time>
      </trkpt>
      <trkpt lat="43.068144069984555" lon="11.647516954690218">
        <ele>358.708984375</ele>
        <time>2004-11-07T11:28:06Z</time>
      </trkpt>
      <trkpt lat="43.068185392767191" lon="11.647369768470526">
        <ele>358.2283935546875</ele>
        <time>2004-11-07T11:28:08Z</time>
      </trkpt>
      <trkpt lat="43.068195870146155" lon="11.647206572815776">
        <ele>358.708984375</ele>
        <time>2004-11-07T11:28:10Z</time>
      </trkpt>
      <trkpt lat="43.068170389160514" lon="11.647039856761694">
        <ele>358.2283935546875</ele>
        <time>2004-11-07T11:28:12Z</time>
      </trkpt>
      <trkpt lat="43.0681262165308" lon="11.646874900907278">
        <ele>357.747802734375</ele>
        <time>2004-11-07T11:28:14Z</time>
      </trkpt>
      <trkpt lat="43.068069973960519" lon="11.646711872890592">
        <ele>357.26708984375</ele>
        <time>2004-11-07T11:28:16Z</time>
      </trkpt>
      <trkpt lat="43.068006187677383" lon="11.646552952006459">
        <ele>356.786376953125</ele>
        <time>2004-11-07T11:28:18Z</time>
      </trkpt>
      <trkpt lat="43.067938964813948" lon="11.646399227902293">
        <ele>356.786376953125</ele>
        <time>2004-11-07T11:28:20Z</time>
      </trkpt>
      <trkpt lat="43.067861432209611" lon="11.646247431635857">
        <ele>356.3057861328125</ele>
        <time>2004-11-07T11:28:22Z</time>
      </trkpt>
      <trkpt lat="43.067784905433655" lon="11.64609219878912">
        <ele>355.8251953125</ele>
        <time>2004-11-07T11:28:24Z</time>
      </trkpt>
      <trkpt lat="43.067707289010286" lon="11.645945180207491">
        <ele>355.344482421875</ele>
        <time>2004-11-07T11:28:26Z</time>
      </trkpt>
      <trkpt lat="43.067631684243679" lon="11.645797491073608">
        <ele>355.344482421875</ele>
        <time>2004-11-07T11:28:28Z</time>
      </trkpt>
      <trkpt lat="43.067558174952865" lon="11.645639576017857">
        <ele>354.3831787109375</ele>
        <time>2004-11-07T11:28:30Z</time>
      </trkpt>
      <trkpt lat="43.067491203546524" lon="11.645471518859267">
        <ele>353.902587890625</ele>
        <time>2004-11-07T11:28:32Z</time>
      </trkpt>
      <trkpt lat="43.067438313737512" lon="11.64528938010335">
        <ele>352.4605712890625</ele>
        <time>2004-11-07T11:28:34Z</time>
      </trkpt>
      <trkpt lat="43.067406797781587" lon="11.645099529996514">
        <ele>351.9798583984375</ele>
        <time>2004-11-07T11:28:36Z</time>
      </trkpt>
      <trkpt lat="43.067391626536846" lon="11.644914206117392">
        <ele>351.9798583984375</ele>
        <time>2004-11-07T11:28:38Z</time>
      </trkpt>
      <trkpt lat="43.067395146936178" lon="11.644740030169487">
        <ele>350.537841796875</ele>
        <time>2004-11-07T11:28:40Z</time>
      </trkpt>
      <trkpt lat="43.067427836358547" lon="11.644580019637942">
        <ele>351.0184326171875</ele>
        <time>2004-11-07T11:28:42Z</time>
      </trkpt>
      <trkpt lat="43.067480893805623" lon="11.644433671608567">
        <ele>351.0184326171875</ele>
        <time>2004-11-07T11:28:44Z</time>
      </trkpt>
      <trkpt lat="43.067551050335169" lon="11.644306601956487">
        <ele>351.0184326171875</ele>
        <time>2004-11-07T11:28:46Z</time>
      </trkpt>
      <trkpt lat="43.067622883245349" lon="11.644190847873688">
        <ele>351.0184326171875</ele>
        <time>2004-11-07T11:28:48Z</time>
      </trkpt>
      <trkpt lat="43.067696560174227" lon="11.644090516492724">
        <ele>351.0184326171875</ele>
        <time>2004-11-07T11:28:50Z</time>
      </trkpt>
      <trkpt lat="43.067768141627312" lon="11.644002506509423">
        <ele>351.4991455078125</ele>
        <time>2004-11-07T11:28:52Z</time>
      </trkpt>
      <trkpt lat="43.067837711423635" lon="11.643923046067357">
        <ele>351.0184326171875</ele>
        <time>2004-11-07T11:28:54Z</time>
      </trkpt>
      <trkpt lat="43.067940389737487" lon="11.643825313076377">
        <ele>351.4991455078125</ele>
        <time>2004-11-07T11:28:57Z</time>
      </trkpt>
      <trkpt lat="43.068022029474378" lon="11.643743505701423">
        <ele>351.9798583984375</ele>
        <time>2004-11-07T11:29:00Z</time>
      </trkpt>
      <trkpt lat="43.068104507401586" lon="11.643666978925467">
        <ele>352.4605712890625</ele>
        <time>2004-11-07T11:29:04Z</time>
      </trkpt>
      <trkpt lat="43.06819804944098" lon="11.64358165115118">
        <ele>353.902587890625</ele>
        <time>2004-11-07T11:29:09Z</time>
      </trkpt>
      <trkpt lat="43.068279605358839" lon="11.643504956737161">
        <ele>354.86376953125</ele>
        <time>2004-11-07T11:29:14Z</time>
      </trkpt>
      <trkpt lat="43.068371890112758" lon="11.643433375284076">
        <ele>355.8251953125</ele>
        <time>2004-11-07T11:29:20Z</time>
      </trkpt>
      <trkpt lat="43.068439280614257" lon="11.643358273431659">
        <ele>356.3057861328125</ele>
        <time>2004-11-07T11:29:27Z</time>
      </trkpt>
      <trkpt lat="43.068528631702065" lon="11.643312172964215">
        <ele>356.786376953125</ele>
        <time>2004-11-07T11:29:34Z</time>
      </trkpt>
      <trkpt lat="43.068623095750809" lon="11.643238747492433">
        <ele>357.747802734375</ele>
        <time>2004-11-07T11:29:41Z</time>
      </trkpt>
      <trkpt lat="43.068702640011907" lon="11.643180744722486">
        <ele>358.708984375</ele>
        <time>2004-11-07T11:29:47Z</time>
      </trkpt>
      <trkpt lat="43.06879224255681" lon="11.643117628991604">
        <ele>359.67041015625</ele>
        <time>2004-11-07T11:29:54Z</time>
      </trkpt>
      <trkpt lat="43.068881593644619" lon="11.643054177984595">
        <ele>362.07373046875</ele>
        <time>2004-11-07T11:30:01Z</time>
      </trkpt>
      <trkpt lat="43.068969352170825" lon="11.642992319539189">
        <ele>362.07373046875</ele>
        <time>2004-11-07T11:30:08Z</time>
      </trkpt>
      <trkpt lat="43.069054177030921" lon="11.642931969836354">
        <ele>363.996337890625</ele>
        <time>2004-11-07T11:30:15Z</time>
      </trkpt>
      <trkpt lat="43.069140259176493" lon="11.642873212695122">
        <ele>364.9576416015625</ele>
        <time>2004-11-07T11:30:22Z</time>
      </trkpt>
      <trkpt lat="43.069229945540428" lon="11.642814371734858">
        <ele>365.9189453125</ele>
        <time>2004-11-07T11:30:29Z</time>
      </trkpt>
      <trkpt lat="43.069320386275649" lon="11.64275192655623">
        <ele>366.8802490234375</ele>
        <time>2004-11-07T11:30:36Z</time>
      </trkpt>
      <trkpt lat="43.069411497563124" lon="11.642692750319839">
        <ele>368.802978515625</ele>
        <time>2004-11-07T11:30:43Z</time>
      </trkpt>
      <trkpt lat="43.069505291059613" lon="11.642636507749557">
        <ele>369.28369140625</ele>
        <time>2004-11-07T11:30:50Z</time>
      </trkpt>
      <trkpt lat="43.0696009285748" lon="11.642583198845387">
        <ele>370.244873046875</ele>
        <time>2004-11-07T11:30:57Z</time>
      </trkpt>
      <trkpt lat="43.069691956043243" lon="11.642527459189296">
        <ele>372.16748046875</ele>
        <time>2004-11-07T11:31:03Z</time>
      </trkpt>
      <trkpt lat="43.069775942713022" lon="11.642479849979281">
        <ele>372.648193359375</ele>
        <time>2004-11-07T11:31:08Z</time>
      </trkpt>
      <trkpt lat="43.069862946867943" lon="11.642429055646062">
        <ele>373.12890625</ele>
        <time>2004-11-07T11:31:13Z</time>
      </trkpt>
      <trkpt lat="43.069954393431544" lon="11.642377590760589">
        <ele>373.12890625</ele>
        <time>2004-11-07T11:31:18Z</time>
      </trkpt>
      <trkpt lat="43.070052796974778" lon="11.642321851104498">
        <ele>374.090087890625</ele>
        <time>2004-11-07T11:31:23Z</time>
      </trkpt>
      <trkpt lat="43.070142567157745" lon="11.642275499179959">
        <ele>374.090087890625</ele>
        <time>2004-11-07T11:31:27Z</time>
      </trkpt>
      <trkpt lat="43.070236695930362" lon="11.642226297408342">
        <ele>374.090087890625</ele>
        <time>2004-11-07T11:31:31Z</time>
      </trkpt>
      <trkpt lat="43.070329399779439" lon="11.642207186669111">
        <ele>374.090087890625</ele>
        <time>2004-11-07T11:31:35Z</time>
      </trkpt>
      <trkpt lat="43.070420427247882" lon="11.642192099243402">
        <ele>373.6094970703125</ele>
        <time>2004-11-07T11:31:39Z</time>
      </trkpt>
      <trkpt lat="43.070519249886274" lon="11.642198218032718">
        <ele>374.090087890625</ele>
        <time>2004-11-07T11:31:43Z</time>
      </trkpt>
      <trkpt lat="43.070633830502629" lon="11.642232500016689">
        <ele>374.57080078125</ele>
        <time>2004-11-07T11:31:47Z</time>
      </trkpt>
      <trkpt lat="43.070724941790104" lon="11.642267368733883">
        <ele>374.57080078125</ele>
        <time>2004-11-07T11:31:50Z</time>
      </trkpt>
      <trkpt lat="43.070814460515976" lon="11.642298465594649">
        <ele>374.57080078125</ele>
        <time>2004-11-07T11:31:53Z</time>
      </trkpt>
      <trkpt lat="43.070926358923316" lon="11.642355462536216">
        <ele>376.0128173828125</ele>
        <time>2004-11-07T11:31:57Z</time>
      </trkpt>
      <trkpt lat="43.071015039458871" lon="11.642400976270437">
        <ele>376.4935302734375</ele>
        <time>2004-11-07T11:32:00Z</time>
      </trkpt>
      <trkpt lat="43.071107156574726" lon="11.642445148900151">
        <ele>376.4935302734375</ele>
        <time>2004-11-07T11:32:03Z</time>
      </trkpt>
      <trkpt lat="43.071203464642167" lon="11.642494518309832">
        <ele>376.4935302734375</ele>
        <time>2004-11-07T11:32:06Z</time>
      </trkpt>
      <trkpt lat="43.071299772709608" lon="11.642541121691465">
        <ele>376.4935302734375</ele>
        <time>2004-11-07T11:32:09Z</time>
      </trkpt>
      <trkpt lat="43.071395074948668" lon="11.642584623768926">
        <ele>376.4935302734375</ele>
        <time>2004-11-07T11:32:12Z</time>
      </trkpt>
      <trkpt lat="43.071490963920951" lon="11.642628628760576">
        <ele>376.9742431640625</ele>
        <time>2004-11-07T11:32:15Z</time>
      </trkpt>
      <trkpt lat="43.071584338322282" lon="11.642673891037703">
        <ele>376.9742431640625</ele>
        <time>2004-11-07T11:32:18Z</time>
      </trkpt>
      <trkpt lat="43.071677209809422" lon="11.642723176628351">
        <ele>377.9354248046875</ele>
        <time>2004-11-07T11:32:21Z</time>
      </trkpt>
      <trkpt lat="43.071772260591388" lon="11.642765505239367">
        <ele>378.8968505859375</ele>
        <time>2004-11-07T11:32:24Z</time>
      </trkpt>
      <trkpt lat="43.071864293888211" lon="11.642809677869081">
        <ele>379.8580322265625</ele>
        <time>2004-11-07T11:32:27Z</time>
      </trkpt>
      <trkpt lat="43.07195314206183" lon="11.642860807478428">
        <ele>379.37744140625</ele>
        <time>2004-11-07T11:32:30Z</time>
      </trkpt>
      <trkpt lat="43.072042493149638" lon="11.642932975664735">
        <ele>378.8968505859375</ele>
        <time>2004-11-07T11:32:33Z</time>
      </trkpt>
      <trkpt lat="43.072123546153307" lon="11.643023919314146">
        <ele>378.8968505859375</ele>
        <time>2004-11-07T11:32:36Z</time>
      </trkpt>
      <trkpt lat="43.072194708511233" lon="11.643123580142856">
        <ele>378.8968505859375</ele>
        <time>2004-11-07T11:32:39Z</time>
      </trkpt>
      <trkpt lat="43.0722551420331" lon="11.643231622874737">
        <ele>379.8580322265625</ele>
        <time>2004-11-07T11:32:42Z</time>
      </trkpt>
      <trkpt lat="43.072305684909225" lon="11.643341593444347">
        <ele>380.3387451171875</ele>
        <time>2004-11-07T11:32:45Z</time>
      </trkpt>
      <trkpt lat="43.072350695729256" lon="11.643452737480402">
        <ele>381.300048828125</ele>
        <time>2004-11-07T11:32:48Z</time>
      </trkpt>
      <trkpt lat="43.072409369051456" lon="11.643593469634652">
        <ele>381.7806396484375</ele>
        <time>2004-11-07T11:32:52Z</time>
      </trkpt>
      <trkpt lat="43.072467790916562" lon="11.643730765208602">
        <ele>381.300048828125</ele>
        <time>2004-11-07T11:32:56Z</time>
      </trkpt>
      <trkpt lat="43.072512298822403" lon="11.643837969750166">
        <ele>381.7806396484375</ele>
        <time>2004-11-07T11:32:59Z</time>
      </trkpt>
      <trkpt lat="43.072554375976324" lon="11.643946766853333">
        <ele>382.2613525390625</ele>
        <time>2004-11-07T11:33:02Z</time>
      </trkpt>
      <trkpt lat="43.072600811719894" lon="11.644053719937801">
        <ele>381.7806396484375</ele>
        <time>2004-11-07T11:33:05Z</time>
      </trkpt>
      <trkpt lat="43.072646576911211" lon="11.644162181764841">
        <ele>382.7420654296875</ele>
        <time>2004-11-07T11:33:08Z</time>
      </trkpt>
      <trkpt lat="43.072707513347268" lon="11.644299058243632">
        <ele>382.7420654296875</ele>
        <time>2004-11-07T11:33:12Z</time>
      </trkpt>
      <trkpt lat="43.072766438126564" lon="11.644437108188868">
        <ele>382.7420654296875</ele>
        <time>2004-11-07T11:33:16Z</time>
      </trkpt>
      <trkpt lat="43.072825782001019" lon="11.644573733210564">
        <ele>382.7420654296875</ele>
        <time>2004-11-07T11:33:20Z</time>
      </trkpt>
      <trkpt lat="43.072887388989329" lon="11.644712118431926">
        <ele>383.22265625</ele>
        <time>2004-11-07T11:33:24Z</time>
      </trkpt>
      <trkpt lat="43.072934076189995" lon="11.644815634936094">
        <ele>383.7032470703125</ele>
        <time>2004-11-07T11:33:27Z</time>
      </trkpt>
      <trkpt lat="43.072985792532563" lon="11.64494538679719">
        <ele>385.1453857421875</ele>
        <time>2004-11-07T11:33:31Z</time>
      </trkpt>
      <trkpt lat="43.073046142235398" lon="11.645069774240255">
        <ele>384.664794921875</ele>
        <time>2004-11-07T11:33:35Z</time>
      </trkpt>
      <trkpt lat="43.073100205510855" lon="11.645199609920382">
        <ele>386.106689453125</ele>
        <time>2004-11-07T11:33:39Z</time>
      </trkpt>
      <trkpt lat="43.073154771700501" lon="11.64533531293273">
        <ele>385.6259765625</ele>
        <time>2004-11-07T11:33:43Z</time>
      </trkpt>
      <trkpt lat="43.073213361203671" lon="11.645480738952756">
        <ele>386.106689453125</ele>
        <time>2004-11-07T11:33:47Z</time>
      </trkpt>
      <trkpt lat="43.073263568803668" lon="11.645597415044904">
        <ele>386.106689453125</ele>
        <time>2004-11-07T11:33:50Z</time>
      </trkpt>
      <trkpt lat="43.073314027860761" lon="11.64571350440383">
        <ele>386.58740234375</ele>
        <time>2004-11-07T11:33:53Z</time>
      </trkpt>
      <trkpt lat="43.073362056165934" lon="11.645830851048231">
        <ele>387.0679931640625</ele>
        <time>2004-11-07T11:33:56Z</time>
      </trkpt>
      <trkpt lat="43.07340195402503" lon="11.645955238491297">
        <ele>386.58740234375</ele>
        <time>2004-11-07T11:33:59Z</time>
      </trkpt>
      <trkpt lat="43.073450401425362" lon="11.646071495488286">
        <ele>387.0679931640625</ele>
        <time>2004-11-07T11:34:02Z</time>
      </trkpt>
      <trkpt lat="43.073502285405993" lon="11.646183980628848">
        <ele>387.0679931640625</ele>
        <time>2004-11-07T11:34:05Z</time>
      </trkpt>
      <trkpt lat="43.07355877943337" lon="11.646300321444869">
        <ele>387.0679931640625</ele>
        <time>2004-11-07T11:34:08Z</time>
      </trkpt>
      <trkpt lat="43.073621392250061" lon="11.646413309499621">
        <ele>387.0679931640625</ele>
        <time>2004-11-07T11:34:11Z</time>
      </trkpt>
      <trkpt lat="43.073685765266418" lon="11.646529985591769">
        <ele>387.548583984375</ele>
        <time>2004-11-07T11:34:14Z</time>
      </trkpt>
      <trkpt lat="43.073762124404311" lon="11.646643225103617">
        <ele>388.9906005859375</ele>
        <time>2004-11-07T11:34:17Z</time>
      </trkpt>
      <trkpt lat="43.073843093588948" lon="11.646753866225481">
        <ele>388.9906005859375</ele>
        <time>2004-11-07T11:34:20Z</time>
      </trkpt>
      <trkpt lat="43.073924481868744" lon="11.646852856501937">
        <ele>388.9906005859375</ele>
        <time>2004-11-07T11:34:23Z</time>
      </trkpt>
      <trkpt lat="43.074008719995618" lon="11.646948242560029">
        <ele>388.9906005859375</ele>
        <time>2004-11-07T11:34:26Z</time>
      </trkpt>
      <trkpt lat="43.074099076911807" lon="11.647041784599423">
        <ele>389.951904296875</ele>
        <time>2004-11-07T11:34:29Z</time>
      </trkpt>
      <trkpt lat="43.074181973934174" lon="11.647135159000754">
        <ele>390.4326171875</ele>
        <time>2004-11-07T11:34:32Z</time>
      </trkpt>
      <trkpt lat="43.074271576479077" lon="11.647226773202419">
        <ele>389.951904296875</ele>
        <time>2004-11-07T11:34:35Z</time>
      </trkpt>
      <trkpt lat="43.074360759928823" lon="11.647321069613099">
        <ele>390.4326171875</ele>
        <time>2004-11-07T11:34:38Z</time>
      </trkpt>
      <trkpt lat="43.074449691921473" lon="11.64742031134665">
        <ele>389.47119140625</ele>
        <time>2004-11-07T11:34:41Z</time>
      </trkpt>
      <trkpt lat="43.074541809037328" lon="11.647515194490552">
        <ele>390.4326171875</ele>
        <time>2004-11-07T11:34:44Z</time>
      </trkpt>
      <trkpt lat="43.074644068256021" lon="11.647600186988711">
        <ele>389.951904296875</ele>
        <time>2004-11-07T11:34:47Z</time>
      </trkpt>
      <trkpt lat="43.074768874794245" lon="11.647664895281196">
        <ele>388.9906005859375</ele>
        <time>2004-11-07T11:34:50Z</time>
      </trkpt>
      <trkpt lat="43.074868619441986" lon="11.647690795361996">
        <ele>388.029296875</ele>
        <time>2004-11-07T11:34:52Z</time>
      </trkpt>
      <trkpt lat="43.074974818155169" lon="11.647710325196385">
        <ele>388.029296875</ele>
        <time>2004-11-07T11:34:54Z</time>
      </trkpt>
      <trkpt lat="43.075085124000907" lon="11.647722227498889">
        <ele>388.029296875</ele>
        <time>2004-11-07T11:34:56Z</time>
      </trkpt>
      <trkpt lat="43.075203476473689" lon="11.647736225277185">
        <ele>387.0679931640625</ele>
        <time>2004-11-07T11:34:58Z</time>
      </trkpt>
      <trkpt lat="43.07532568462193" lon="11.647751228883862">
        <ele>386.106689453125</ele>
        <time>2004-11-07T11:35:00Z</time>
      </trkpt>
      <trkpt lat="43.075448647141457" lon="11.647768495604396">
        <ele>385.6259765625</ele>
        <time>2004-11-07T11:35:02Z</time>
      </trkpt>
      <trkpt lat="43.075568005442619" lon="11.647782325744629">
        <ele>385.1453857421875</ele>
        <time>2004-11-07T11:35:04Z</time>
      </trkpt>
      <trkpt lat="43.075690297409892" lon="11.647791964933276">
        <ele>384.664794921875</ele>
        <time>2004-11-07T11:35:06Z</time>
      </trkpt>
      <trkpt lat="43.075803620740771" lon="11.647805627435446">
        <ele>384.664794921875</ele>
        <time>2004-11-07T11:35:08Z</time>
      </trkpt>
      <trkpt lat="43.075916524976492" lon="11.647820379585028">
        <ele>385.1453857421875</ele>
        <time>2004-11-07T11:35:10Z</time>
      </trkpt>
      <trkpt lat="43.076022220775485" lon="11.647835467010736">
        <ele>384.664794921875</ele>
        <time>2004-11-07T11:35:12Z</time>
      </trkpt>
      <trkpt lat="43.076119786128402" lon="11.647853907197714">
        <ele>384.664794921875</ele>
        <time>2004-11-07T11:35:14Z</time>
      </trkpt>
      <trkpt lat="43.076212657615542" lon="11.647871090099216">
        <ele>385.1453857421875</ele>
        <time>2004-11-07T11:35:16Z</time>
      </trkpt>
      <trkpt lat="43.076302679255605" lon="11.647891541942954">
        <ele>385.1453857421875</ele>
        <time>2004-11-07T11:35:18Z</time>
      </trkpt>
      <trkpt lat="43.076431006193161" lon="11.647925823926926">
        <ele>385.1453857421875</ele>
        <time>2004-11-07T11:35:21Z</time>
      </trkpt>
      <trkpt lat="43.076554303988814" lon="11.647960189729929">
        <ele>385.1453857421875</ele>
        <time>2004-11-07T11:35:24Z</time>
      </trkpt>
      <trkpt lat="43.07667626067996" lon="11.647994890809059">
        <ele>385.6259765625</ele>
        <time>2004-11-07T11:35:27Z</time>
      </trkpt>
      <trkpt lat="43.076799223199487" lon="11.648002434521914">
        <ele>385.6259765625</ele>
        <time>2004-11-07T11:35:30Z</time>
      </trkpt>
      <trkpt lat="43.076923526823521" lon="11.647960441187024">
        <ele>385.6259765625</ele>
        <time>2004-11-07T11:35:33Z</time>
      </trkpt>
      <trkpt lat="43.07700214907527" lon="11.647898498922586">
        <ele>386.106689453125</ele>
        <time>2004-11-07T11:35:35Z</time>
      </trkpt>
      <trkpt lat="43.07707398198545" lon="11.647809483110905">
        <ele>385.1453857421875</ele>
        <time>2004-11-07T11:35:37Z</time>
      </trkpt>
      <trkpt lat="43.077133577316999" lon="11.647703619673848">
        <ele>385.1453857421875</ele>
        <time>2004-11-07T11:35:39Z</time>
      </trkpt>
      <trkpt lat="43.077181773260236" lon="11.647584177553654">
        <ele>384.664794921875</ele>
        <time>2004-11-07T11:35:41Z</time>
      </trkpt>
      <trkpt lat="43.077231142669916" lon="11.647445457056165">
        <ele>384.18408203125</ele>
        <time>2004-11-07T11:35:43Z</time>
      </trkpt>
      <trkpt lat="43.077297192066908" lon="11.647294331341982">
        <ele>382.7420654296875</ele>
        <time>2004-11-07T11:35:45Z</time>
      </trkpt>
      <trkpt lat="43.07738478295505" lon="11.647150665521622">
        <ele>382.7420654296875</ele>
        <time>2004-11-07T11:35:47Z</time>
      </trkpt>
      <trkpt lat="43.077487125992775" lon="11.647031893953681">
        <ele>382.7420654296875</ele>
        <time>2004-11-07T11:35:49Z</time>
      </trkpt>
      <trkpt lat="43.077592402696609" lon="11.646932736039162">
        <ele>380.8194580078125</ele>
        <time>2004-11-07T11:35:51Z</time>
      </trkpt>
      <trkpt lat="43.077700445428491" lon="11.646862328052521">
        <ele>380.8194580078125</ele>
        <time>2004-11-07T11:35:53Z</time>
      </trkpt>
      <trkpt lat="43.077809577807784" lon="11.646807678043842">
        <ele>380.8194580078125</ele>
        <time>2004-11-07T11:35:55Z</time>
      </trkpt>
      <trkpt lat="43.077918626368046" lon="11.646758811548352">
        <ele>380.8194580078125</ele>
        <time>2004-11-07T11:35:57Z</time>
      </trkpt>
      <trkpt lat="43.0780263338238" lon="11.646715980023146">
        <ele>381.300048828125</ele>
        <time>2004-11-07T11:35:59Z</time>
      </trkpt>
      <trkpt lat="43.078130604699254" lon="11.646681446582079">
        <ele>380.8194580078125</ele>
        <time>2004-11-07T11:36:01Z</time>
      </trkpt>
      <trkpt lat="43.078234205022454" lon="11.646647248417139">
        <ele>380.8194580078125</ele>
        <time>2004-11-07T11:36:03Z</time>
      </trkpt>
      <trkpt lat="43.078341828659177" lon="11.646623192355037">
        <ele>381.300048828125</ele>
        <time>2004-11-07T11:36:05Z</time>
      </trkpt>
      <trkpt lat="43.078456073999405" lon="11.64660332724452">
        <ele>380.8194580078125</ele>
        <time>2004-11-07T11:36:07Z</time>
      </trkpt>
      <trkpt lat="43.078580629080534" lon="11.646596202626824">
        <ele>380.8194580078125</ele>
        <time>2004-11-07T11:36:09Z</time>
      </trkpt>
      <trkpt lat="43.078714236617088" lon="11.646596789360046">
        <ele>380.3387451171875</ele>
        <time>2004-11-07T11:36:11Z</time>
      </trkpt>
      <trkpt lat="43.078853795304894" lon="11.646606428548694">
        <ele>379.37744140625</ele>
        <time>2004-11-07T11:36:13Z</time>
      </trkpt>
      <trkpt lat="43.078999556601048" lon="11.646627718582749">
        <ele>378.8968505859375</ele>
        <time>2004-11-07T11:36:15Z</time>
      </trkpt>
      <trkpt lat="43.079155208542943" lon="11.646654875949025">
        <ele>376.0128173828125</ele>
        <time>2004-11-07T11:36:17Z</time>
      </trkpt>
      <trkpt lat="43.079315135255456" lon="11.646686308085918">
        <ele>374.57080078125</ele>
        <time>2004-11-07T11:36:19Z</time>
      </trkpt>
      <trkpt lat="43.079477744176984" lon="11.646710112690926">
        <ele>373.6094970703125</ele>
        <time>2004-11-07T11:36:21Z</time>
      </trkpt>
      <trkpt lat="43.079633312299848" lon="11.646731738001108">
        <ele>372.648193359375</ele>
        <time>2004-11-07T11:36:23Z</time>
      </trkpt>
      <trkpt lat="43.079782426357269" lon="11.646755877882242">
        <ele>372.648193359375</ele>
        <time>2004-11-07T11:36:25Z</time>
      </trkpt>
      <trkpt lat="43.079920308664441" lon="11.646765517070889">
        <ele>372.16748046875</ele>
        <time>2004-11-07T11:36:27Z</time>
      </trkpt>
      <trkpt lat="43.080050898715854" lon="11.646775659173727">
        <ele>372.16748046875</ele>
        <time>2004-11-07T11:36:29Z</time>
      </trkpt>
      <trkpt lat="43.080172101035714" lon="11.646792674437165">
        <ele>372.648193359375</ele>
        <time>2004-11-07T11:36:31Z</time>
      </trkpt>
      <trkpt lat="43.080290956422687" lon="11.646793261170387">
        <ele>372.16748046875</ele>
        <time>2004-11-07T11:36:33Z</time>
      </trkpt>
      <trkpt lat="43.080404363572598" lon="11.646778928115964">
        <ele>372.648193359375</ele>
        <time>2004-11-07T11:36:35Z</time>
      </trkpt>
      <trkpt lat="43.080509472638369" lon="11.646748166531324">
        <ele>373.6094970703125</ele>
        <time>2004-11-07T11:36:37Z</time>
      </trkpt>
      <trkpt lat="43.080606115981936" lon="11.646705586463213">
        <ele>372.648193359375</ele>
        <time>2004-11-07T11:36:39Z</time>
      </trkpt>
      <trkpt lat="43.080696305260062" lon="11.646660240367055">
        <ele>371.206298828125</ele>
        <time>2004-11-07T11:36:41Z</time>
      </trkpt>
      <trkpt lat="43.080780291929841" lon="11.646610116586089">
        <ele>373.12890625</ele>
        <time>2004-11-07T11:36:43Z</time>
      </trkpt>
      <trkpt lat="43.080896716564894" lon="11.646548174321651">
        <ele>371.6868896484375</ele>
        <time>2004-11-07T11:36:46Z</time>
      </trkpt>
      <trkpt lat="43.080992186442018" lon="11.646495452150702">
        <ele>374.57080078125</ele>
        <time>2004-11-07T11:36:49Z</time>
      </trkpt>
      <trkpt lat="43.081091763451695" lon="11.646428983658552">
        <ele>372.16748046875</ele>
        <time>2004-11-07T11:36:53Z</time>
      </trkpt>
      <trkpt lat="43.081178599968553" lon="11.646373495459557">
        <ele>373.6094970703125</ele>
        <time>2004-11-07T11:36:57Z</time>
      </trkpt>
      <trkpt lat="43.081259485334158" lon="11.6463228687644">
        <ele>374.090087890625</ele>
        <time>2004-11-07T11:37:01Z</time>
      </trkpt>
      <trkpt lat="43.081353278830647" lon="11.646264782175422">
        <ele>375.051513671875</ele>
        <time>2004-11-07T11:37:06Z</time>
      </trkpt>
      <trkpt lat="43.081441707909107" lon="11.646201498806477">
        <ele>375.5321044921875</ele>
        <time>2004-11-07T11:37:11Z</time>
      </trkpt>
      <trkpt lat="43.081533573567867" lon="11.646144837141037">
        <ele>376.0128173828125</ele>
        <time>2004-11-07T11:37:16Z</time>
      </trkpt>
      <trkpt lat="43.081621080636978" lon="11.646102173253894">
        <ele>376.4935302734375</ele>
        <time>2004-11-07T11:37:21Z</time>
      </trkpt>
      <trkpt lat="43.081712108105421" lon="11.646073088049889">
        <ele>378.8968505859375</ele>
        <time>2004-11-07T11:37:26Z</time>
      </trkpt>
      <trkpt lat="43.081806907430291" lon="11.646063113585114">
        <ele>379.37744140625</ele>
        <time>2004-11-07T11:37:31Z</time>
      </trkpt>
      <trkpt lat="43.081910172477365" lon="11.646088175475597">
        <ele>378.8968505859375</ele>
        <time>2004-11-07T11:37:37Z</time>
      </trkpt>
      <trkpt lat="43.081994578242302" lon="11.646164618432522">
        <ele>378.8968505859375</ele>
        <time>2004-11-07T11:37:44Z</time>
      </trkpt>
      <trkpt lat="43.082044785842299" lon="11.646266374737024">
        <ele>378.4161376953125</ele>
        <time>2004-11-07T11:37:52Z</time>
      </trkpt>
      <trkpt lat="43.082112427800894" lon="11.646390426903963">
        <ele>379.8580322265625</ele>
        <time>2004-11-07T11:38:26Z</time>
      </trkpt>
      <trkpt lat="43.082179985940456" lon="11.64651146158576">
        <ele>379.8580322265625</ele>
        <time>2004-11-07T11:38:30Z</time>
      </trkpt>
      <trkpt lat="43.082239581272006" lon="11.64661162532866">
        <ele>379.8580322265625</ele>
        <time>2004-11-07T11:38:33Z</time>
      </trkpt>
      <trkpt lat="43.082305882126093" lon="11.646722182631493">
        <ele>379.37744140625</ele>
        <time>2004-11-07T11:38:36Z</time>
      </trkpt>
      <trkpt lat="43.082372099161148" lon="11.646839948371053">
        <ele>379.37744140625</ele>
        <time>2004-11-07T11:38:39Z</time>
      </trkpt>
      <trkpt lat="43.082437058910728" lon="11.646953858435154">
        <ele>379.8580322265625</ele>
        <time>2004-11-07T11:38:42Z</time>
      </trkpt>
      <trkpt lat="43.082504030317068" lon="11.64706458337605">
        <ele>380.3387451171875</ele>
        <time>2004-11-07T11:38:45Z</time>
      </trkpt>
      <trkpt lat="43.082571672275662" lon="11.647173380479217">
        <ele>380.3387451171875</ele>
        <time>2004-11-07T11:38:48Z</time>
      </trkpt>
      <trkpt lat="43.082637973129749" lon="11.647285530343652">
        <ele>379.8580322265625</ele>
        <time>2004-11-07T11:38:51Z</time>
      </trkpt>
      <trkpt lat="43.082707459107041" lon="11.647403044626117">
        <ele>380.3387451171875</ele>
        <time>2004-11-07T11:38:54Z</time>
      </trkpt>
      <trkpt lat="43.08277971111238" lon="11.647522654384375">
        <ele>379.37744140625</ele>
        <time>2004-11-07T11:38:57Z</time>
      </trkpt>
      <trkpt lat="43.082857327535748" lon="11.647652070969343">
        <ele>378.8968505859375</ele>
        <time>2004-11-07T11:39:00Z</time>
      </trkpt>
      <trkpt lat="43.082939721643925" lon="11.647785091772676">
        <ele>378.8968505859375</ele>
        <time>2004-11-07T11:39:03Z</time>
      </trkpt>
      <trkpt lat="43.083020774647593" lon="11.64792213588953">
        <ele>378.4161376953125</ele>
        <time>2004-11-07T11:39:06Z</time>
      </trkpt>
      <trkpt lat="43.083097720518708" lon="11.648048367351294">
        <ele>378.4161376953125</ele>
        <time>2004-11-07T11:39:09Z</time>
      </trkpt>
      <trkpt lat="43.083179779350758" lon="11.648183902725577">
        <ele>377.9354248046875</ele>
        <time>2004-11-07T11:39:12Z</time>
      </trkpt>
      <trkpt lat="43.083265442401171" lon="11.648320946842432">
        <ele>377.9354248046875</ele>
        <time>2004-11-07T11:39:15Z</time>
      </trkpt>
      <trkpt lat="43.08334649540484" lon="11.648461176082492">
        <ele>377.9354248046875</ele>
        <time>2004-11-07T11:39:18Z</time>
      </trkpt>
      <trkpt lat="43.083429057151079" lon="11.648602997884154">
        <ele>376.4935302734375</ele>
        <time>2004-11-07T11:39:21Z</time>
      </trkpt>
      <trkpt lat="43.083488065749407" lon="11.648698467761278">
        <ele>376.0128173828125</ele>
        <time>2004-11-07T11:39:23Z</time>
      </trkpt>
      <trkpt lat="43.083544727414846" lon="11.64879678748548">
        <ele>376.4935302734375</ele>
        <time>2004-11-07T11:39:25Z</time>
      </trkpt>
      <trkpt lat="43.08360013179481" lon="11.648895274847746">
        <ele>375.051513671875</ele>
        <time>2004-11-07T11:39:27Z</time>
      </trkpt>
      <trkpt lat="43.083656122907996" lon="11.648993929848075">
        <ele>375.051513671875</ele>
        <time>2004-11-07T11:39:29Z</time>
      </trkpt>
      <trkpt lat="43.083712616935372" lon="11.649093255400658">
        <ele>376.4935302734375</ele>
        <time>2004-11-07T11:39:31Z</time>
      </trkpt>
      <trkpt lat="43.083775145933032" lon="11.649192161858082">
        <ele>376.0128173828125</ele>
        <time>2004-11-07T11:39:33Z</time>
      </trkpt>
      <trkpt lat="43.083833483979106" lon="11.649290565401316">
        <ele>375.5321044921875</ele>
        <time>2004-11-07T11:39:35Z</time>
      </trkpt>
      <trkpt lat="43.083890313282609" lon="11.649386202916503">
        <ele>375.5321044921875</ele>
        <time>2004-11-07T11:39:37Z</time>
      </trkpt>
      <trkpt lat="43.083945550024509" lon="11.649482510983944">
        <ele>374.57080078125</ele>
        <time>2004-11-07T11:39:39Z</time>
      </trkpt>
      <trkpt lat="43.084000870585442" lon="11.6495815012604">
        <ele>375.051513671875</ele>
        <time>2004-11-07T11:39:41Z</time>
      </trkpt>
      <trkpt lat="43.084059543907642" lon="11.649678647518158">
        <ele>375.051513671875</ele>
        <time>2004-11-07T11:39:43Z</time>
      </trkpt>
      <trkpt lat="43.084118468686938" lon="11.649774704128504">
        <ele>375.051513671875</ele>
        <time>2004-11-07T11:39:45Z</time>
      </trkpt>
      <trkpt lat="43.084206059575081" lon="11.649913089349866">
        <ele>375.5321044921875</ele>
        <time>2004-11-07T11:39:48Z</time>
      </trkpt>
      <trkpt lat="43.084267163649201" lon="11.650006212294102">
        <ele>375.051513671875</ele>
        <time>2004-11-07T11:39:50Z</time>
      </trkpt>
      <trkpt lat="43.08433597907424" lon="11.650100843980908">
        <ele>375.051513671875</ele>
        <time>2004-11-07T11:39:52Z</time>
      </trkpt>
      <trkpt lat="43.084411080926657" lon="11.650190278887749">
        <ele>375.5321044921875</ele>
        <time>2004-11-07T11:39:54Z</time>
      </trkpt>
      <trkpt lat="43.084486434236169" lon="11.650280971080065">
        <ele>376.0128173828125</ele>
        <time>2004-11-07T11:39:56Z</time>
      </trkpt>
      <trkpt lat="43.084562961012125" lon="11.650367807596922">
        <ele>375.051513671875</ele>
        <time>2004-11-07T11:39:58Z</time>
      </trkpt>
      <trkpt lat="43.084644516929984" lon="11.65044684894383">
        <ele>375.051513671875</ele>
        <time>2004-11-07T11:40:00Z</time>
      </trkpt>
      <trkpt lat="43.084723642095923" lon="11.650523459538817">
        <ele>375.5321044921875</ele>
        <time>2004-11-07T11:40:02Z</time>
      </trkpt>
      <trkpt lat="43.084804276004434" lon="11.6505968850106">
        <ele>374.57080078125</ele>
        <time>2004-11-07T11:40:04Z</time>
      </trkpt>
      <trkpt lat="43.084923718124628" lon="11.650704424828291">
        <ele>374.57080078125</ele>
        <time>2004-11-07T11:40:07Z</time>
      </trkpt>
      <trkpt lat="43.085004854947329" lon="11.650779526680708">
        <ele>375.5321044921875</ele>
        <time>2004-11-07T11:40:09Z</time>
      </trkpt>
      <trkpt lat="43.085086410865188" lon="11.650856137275696">
        <ele>376.4935302734375</ele>
        <time>2004-11-07T11:40:11Z</time>
      </trkpt>
      <trkpt lat="43.085165871307254" lon="11.650929814204574">
        <ele>376.0128173828125</ele>
        <time>2004-11-07T11:40:13Z</time>
      </trkpt>
      <trkpt lat="43.085244242101908" lon="11.651005335152149">
        <ele>376.0128173828125</ele>
        <time>2004-11-07T11:40:15Z</time>
      </trkpt>
      <trkpt lat="43.085325295105577" lon="11.65107817389071">
        <ele>376.4935302734375</ele>
        <time>2004-11-07T11:40:17Z</time>
      </trkpt>
      <trkpt lat="43.085408275946975" lon="11.651154449209571">
        <ele>375.051513671875</ele>
        <time>2004-11-07T11:40:19Z</time>
      </trkpt>
      <trkpt lat="43.085493184626102" lon="11.651231646537781">
        <ele>375.051513671875</ele>
        <time>2004-11-07T11:40:21Z</time>
      </trkpt>
      <trkpt lat="43.085578344762325" lon="11.651311190798879">
        <ele>376.0128173828125</ele>
        <time>2004-11-07T11:40:23Z</time>
      </trkpt>
      <trkpt lat="43.085663756355643" lon="11.651390483602881">
        <ele>374.57080078125</ele>
        <time>2004-11-07T11:40:25Z</time>
      </trkpt>
      <trkpt lat="43.085747407749295" lon="11.651466758921742">
        <ele>375.051513671875</ele>
        <time>2004-11-07T11:40:27Z</time>
      </trkpt>
      <trkpt lat="43.085830388590693" lon="11.651540938764811">
        <ele>374.090087890625</ele>
        <time>2004-11-07T11:40:29Z</time>
      </trkpt>
      <trkpt lat="43.085915297269821" lon="11.651613777503371">
        <ele>373.6094970703125</ele>
        <time>2004-11-07T11:40:31Z</time>
      </trkpt>
      <trkpt lat="43.086001379415393" lon="11.65168410167098">
        <ele>374.57080078125</ele>
        <time>2004-11-07T11:40:33Z</time>
      </trkpt>
      <trkpt lat="43.086088132113218" lon="11.651747720316052">
        <ele>375.051513671875</ele>
        <time>2004-11-07T11:40:35Z</time>
      </trkpt>
      <trkpt lat="43.086170945316553" lon="11.651813266798854">
        <ele>375.5321044921875</ele>
        <time>2004-11-07T11:40:37Z</time>
      </trkpt>
      <trkpt lat="43.0862548481673" lon="11.651875879615545">
        <ele>373.12890625</ele>
        <time>2004-11-07T11:40:39Z</time>
      </trkpt>
      <trkpt lat="43.08633841574192" lon="11.651933128014207">
        <ele>373.12890625</ele>
        <time>2004-11-07T11:40:41Z</time>
      </trkpt>
      <trkpt lat="43.086418127641082" lon="11.651988867670298">
        <ele>373.12890625</ele>
        <time>2004-11-07T11:40:43Z</time>
      </trkpt>
      <trkpt lat="43.0865260027349" lon="11.652077129110694">
        <ele>373.6094970703125</ele>
        <time>2004-11-07T11:40:46Z</time>
      </trkpt>
      <trkpt lat="43.086622981354594" lon="11.652148626744747">
        <ele>373.6094970703125</ele>
        <time>2004-11-07T11:40:49Z</time>
      </trkpt>
      <trkpt lat="43.086711326614022" lon="11.652208976447582">
        <ele>373.6094970703125</ele>
        <time>2004-11-07T11:40:52Z</time>
      </trkpt>
      <trkpt lat="43.086802437901497" lon="11.652273098006845">
        <ele>374.090087890625</ele>
        <time>2004-11-07T11:40:56Z</time>
      </trkpt>
      <trkpt lat="43.086881311610341" lon="11.652335207909346">
        <ele>374.090087890625</ele>
        <time>2004-11-07T11:41:00Z</time>
      </trkpt>
      <trkpt lat="43.086978876963258" lon="11.65238524787128">
        <ele>375.051513671875</ele>
        <time>2004-11-07T11:41:05Z</time>
      </trkpt>
      <trkpt lat="43.087069150060415" lon="11.652424391359091">
        <ele>375.5321044921875</ele>
        <time>2004-11-07T11:41:10Z</time>
      </trkpt>
      <trkpt lat="43.087149197235703" lon="11.652501588687301">
        <ele>376.4935302734375</ele>
        <time>2004-11-07T11:41:16Z</time>
      </trkpt>
      <trkpt lat="43.087229244410992" lon="11.65255774743855">
        <ele>376.4935302734375</ele>
        <time>2004-11-07T11:41:20Z</time>
      </trkpt>
      <trkpt lat="43.087314236909151" lon="11.652607619762421">
        <ele>376.9742431640625</ele>
        <time>2004-11-07T11:41:25Z</time>
      </trkpt>
      <trkpt lat="43.087391518056393" lon="11.652671238407493">
        <ele>377.9354248046875</ele>
        <time>2004-11-07T11:41:30Z</time>
      </trkpt>
      <trkpt lat="43.087464775890112" lon="11.652757320553064">
        <ele>378.8968505859375</ele>
        <time>2004-11-07T11:41:35Z</time>
      </trkpt>
      <trkpt lat="43.087538704276085" lon="11.652854550629854">
        <ele>380.3387451171875</ele>
        <time>2004-11-07T11:41:40Z</time>
      </trkpt>
      <trkpt lat="43.087599137797952" lon="11.652965946123004">
        <ele>380.3387451171875</ele>
        <time>2004-11-07T11:41:45Z</time>
      </trkpt>
      <trkpt lat="43.087656386196613" lon="11.653087232261896">
        <ele>381.7806396484375</ele>
        <time>2004-11-07T11:41:50Z</time>
      </trkpt>
      <trkpt lat="43.087712628766894" lon="11.653204327449203">
        <ele>381.7806396484375</ele>
        <time>2004-11-07T11:41:55Z</time>
      </trkpt>
      <trkpt lat="43.087770380079746" lon="11.653323350474238">
        <ele>382.7420654296875</ele>
        <time>2004-11-07T11:42:01Z</time>
      </trkpt>
      <trkpt lat="43.087814385071397" lon="11.653442876413465">
        <ele>383.22265625</ele>
        <time>2004-11-07T11:42:06Z</time>
      </trkpt>
      <trkpt lat="43.087848164141178" lon="11.653569443151355">
        <ele>383.7032470703125</ele>
        <time>2004-11-07T11:42:11Z</time>
      </trkpt>
      <trkpt lat="43.087895605713129" lon="11.653697183355689">
        <ele>384.18408203125</ele>
        <time>2004-11-07T11:42:16Z</time>
      </trkpt>
      <trkpt lat="43.087927959859371" lon="11.653821151703596">
        <ele>384.664794921875</ele>
        <time>2004-11-07T11:42:21Z</time>
      </trkpt>
      <trkpt lat="43.087988225743175" lon="11.653938833624125">
        <ele>385.1453857421875</ele>
        <time>2004-11-07T11:42:27Z</time>
      </trkpt>
      <trkpt lat="43.088039103895426" lon="11.654058527201414">
        <ele>386.58740234375</ele>
        <time>2004-11-07T11:42:33Z</time>
      </trkpt>
      <trkpt lat="43.088088892400265" lon="11.654181322082877">
        <ele>387.548583984375</ele>
        <time>2004-11-07T11:42:39Z</time>
      </trkpt>
      <trkpt lat="43.08813801035285" lon="11.654303194954991">
        <ele>389.47119140625</ele>
        <time>2004-11-07T11:42:45Z</time>
      </trkpt>
      <trkpt lat="43.088174052536488" lon="11.654425486922264">
        <ele>389.951904296875</ele>
        <time>2004-11-07T11:42:51Z</time>
      </trkpt>
      <trkpt lat="43.088220236822963" lon="11.654549119994044">
        <ele>390.9132080078125</ele>
        <time>2004-11-07T11:42:58Z</time>
      </trkpt>
      <trkpt lat="43.088279580697417" lon="11.654643248766661">
        <ele>391.87451171875</ele>
        <time>2004-11-07T11:43:04Z</time>
      </trkpt>
      <trkpt lat="43.088325597345829" lon="11.654758332297206">
        <ele>391.87451171875</ele>
        <time>2004-11-07T11:43:10Z</time>
      </trkpt>
      <trkpt lat="43.088370524346828" lon="11.654872577637434">
        <ele>392.3553466796875</ele>
        <time>2004-11-07T11:43:16Z</time>
      </trkpt>
      <trkpt lat="43.088410254567862" lon="11.655013980343938">
        <ele>393.3165283203125</ele>
        <time>2004-11-07T11:43:23Z</time>
      </trkpt>
      <trkpt lat="43.088437998667359" lon="11.655147839337587">
        <ele>395.7198486328125</ele>
        <time>2004-11-07T11:43:30Z</time>
      </trkpt>
      <trkpt lat="43.088454343378544" lon="11.655268706381321">
        <ele>396.68115234375</ele>
        <time>2004-11-07T11:43:39Z</time>
      </trkpt>
      <trkpt lat="43.088471526280046" lon="11.655396111309528">
        <ele>397.1617431640625</ele>
        <time>2004-11-07T11:43:48Z</time>
      </trkpt>
      <trkpt lat="43.088458450511098" lon="11.655542626976967">
        <ele>399.5650634765625</ele>
        <time>2004-11-07T11:44:00Z</time>
      </trkpt>
      <trkpt lat="43.088440345600247" lon="11.655670115724206">
        <ele>400.5264892578125</ele>
        <time>2004-11-07T11:44:07Z</time>
      </trkpt>
      <trkpt lat="43.088407991454005" lon="11.65579148568213">
        <ele>402.4490966796875</ele>
        <time>2004-11-07T11:44:18Z</time>
      </trkpt>
      <trkpt lat="43.088372284546494" lon="11.65590975433588">
        <ele>403.410400390625</ele>
        <time>2004-11-07T11:44:29Z</time>
      </trkpt>
      <trkpt lat="43.088333560153842" lon="11.656025089323521">
        <ele>403.89111328125</ele>
        <time>2004-11-07T11:44:38Z</time>
      </trkpt>
      <trkpt lat="43.088305396959186" lon="11.656148890033364">
        <ele>405.813720703125</ele>
        <time>2004-11-07T11:44:47Z</time>
      </trkpt>
      <trkpt lat="43.088274551555514" lon="11.65626690723002">
        <ele>406.2943115234375</ele>
        <time>2004-11-07T11:44:56Z</time>
      </trkpt>
      <trkpt lat="43.088237922638655" lon="11.656373692676425">
        <ele>407.736328125</ele>
        <time>2004-11-07T11:45:05Z</time>
      </trkpt>
      <trkpt lat="43.088193582370877" lon="11.656500091776252">
        <ele>409.1783447265625</ele>
        <time>2004-11-07T11:45:19Z</time>
      </trkpt>
      <trkpt lat="43.088147733360529" lon="11.65661534294486">
        <ele>410.6202392578125</ele>
        <time>2004-11-07T11:45:26Z</time>
      </trkpt>
      <trkpt lat="43.088094675913453" lon="11.656736461445689">
        <ele>411.1009521484375</ele>
        <time>2004-11-07T11:45:33Z</time>
      </trkpt>
      <trkpt lat="43.088051090016961" lon="11.656845342367887">
        <ele>412.5428466796875</ele>
        <time>2004-11-07T11:45:40Z</time>
      </trkpt>
      <trkpt lat="43.088004989549518" lon="11.656957324594259">
        <ele>413.98486328125</ele>
        <time>2004-11-07T11:45:47Z</time>
      </trkpt>
      <trkpt lat="43.087962158024311" lon="11.657077018171549">
        <ele>414.9461669921875</ele>
        <time>2004-11-07T11:45:54Z</time>
      </trkpt>
      <trkpt lat="43.087924690917134" lon="11.657195622101426">
        <ele>415.907470703125</ele>
        <time>2004-11-07T11:46:01Z</time>
      </trkpt>
      <trkpt lat="43.087881272658706" lon="11.657320763915777">
        <ele>417.349609375</ele>
        <time>2004-11-07T11:46:08Z</time>
      </trkpt>
      <trkpt lat="43.087818073108792" lon="11.657421682029963">
        <ele>417.8302001953125</ele>
        <time>2004-11-07T11:46:14Z</time>
      </trkpt>
      <trkpt lat="43.087775912135839" lon="11.657532071694732">
        <ele>418.79150390625</ele>
        <time>2004-11-07T11:46:21Z</time>
      </trkpt>
      <trkpt lat="43.087719837203622" lon="11.657637767493725">
        <ele>420.2333984375</ele>
        <time>2004-11-07T11:46:28Z</time>
      </trkpt>
      <trkpt lat="43.087660828605294" lon="11.657746313139796">
        <ele>421.19482421875</ele>
        <time>2004-11-07T11:46:35Z</time>
      </trkpt>
      <trkpt lat="43.087614560499787" lon="11.657857205718756">
        <ele>422.63671875</ele>
        <time>2004-11-07T11:46:42Z</time>
      </trkpt>
      <trkpt lat="43.08755261823535" lon="11.657973462715745">
        <ele>423.5980224609375</ele>
        <time>2004-11-07T11:46:49Z</time>
      </trkpt>
      <trkpt lat="43.087494112551212" lon="11.658086786046624">
        <ele>424.5594482421875</ele>
        <time>2004-11-07T11:46:56Z</time>
      </trkpt>
      <trkpt lat="43.08741632848978" lon="11.658176891505718">
        <ele>425.0401611328125</ele>
        <time>2004-11-07T11:47:03Z</time>
      </trkpt>
      <trkpt lat="43.087339047342539" lon="11.658272361382842">
        <ele>426.4820556640625</ele>
        <time>2004-11-07T11:47:09Z</time>
      </trkpt>
      <trkpt lat="43.087275177240372" lon="11.658376464620233">
        <ele>426.9627685546875</ele>
        <time>2004-11-07T11:47:15Z</time>
      </trkpt>
      <trkpt lat="43.087207367643714" lon="11.658460116013885">
        <ele>427.443359375</ele>
        <time>2004-11-07T11:47:21Z</time>
      </trkpt>
      <trkpt lat="43.087151711806655" lon="11.658557346090674">
        <ele>427.9239501953125</ele>
        <time>2004-11-07T11:47:27Z</time>
      </trkpt>
      <trkpt lat="43.087089266628027" lon="11.658656168729067">
        <ele>428.8853759765625</ele>
        <time>2004-11-07T11:47:33Z</time>
      </trkpt>
      <trkpt lat="43.087025480344892" lon="11.658759182319045">
        <ele>430.3272705078125</ele>
        <time>2004-11-07T11:47:39Z</time>
      </trkpt>
      <trkpt lat="43.086967309936881" lon="11.658876109868288">
        <ele>430.3272705078125</ele>
        <time>2004-11-07T11:47:45Z</time>
      </trkpt>
      <trkpt lat="43.086914336308837" lon="11.658983482047915">
        <ele>432.25</ele>
        <time>2004-11-07T11:47:51Z</time>
      </trkpt>
      <trkpt lat="43.086857842281461" lon="11.659106444567442">
        <ele>432.730712890625</ele>
        <time>2004-11-07T11:47:58Z</time>
      </trkpt>
      <trkpt lat="43.086800342425704" lon="11.659219600260258">
        <ele>433.2113037109375</ele>
        <time>2004-11-07T11:48:05Z</time>
      </trkpt>
      <trkpt lat="43.086741752922535" lon="11.659322697669268">
        <ele>435.614501953125</ele>
        <time>2004-11-07T11:48:12Z</time>
      </trkpt>
      <trkpt lat="43.086689785122871" lon="11.65944105014205">
        <ele>437.0565185546875</ele>
        <time>2004-11-07T11:48:19Z</time>
      </trkpt>
      <trkpt lat="43.086640331894159" lon="11.659551439806819">
        <ele>437.0565185546875</ele>
        <time>2004-11-07T11:48:25Z</time>
      </trkpt>
      <trkpt lat="43.086589705199003" lon="11.659652944654226">
        <ele>438.017822265625</ele>
        <time>2004-11-07T11:48:31Z</time>
      </trkpt>
      <trkpt lat="43.086528601124883" lon="11.65976014919579">
        <ele>439.9404296875</ele>
        <time>2004-11-07T11:48:38Z</time>
      </trkpt>
      <trkpt lat="43.08647571131587" lon="11.659872634336352">
        <ele>439.9404296875</ele>
        <time>2004-11-07T11:48:45Z</time>
      </trkpt>
      <trkpt lat="43.086432460695505" lon="11.65999174118042">
        <ele>440.90185546875</ele>
        <time>2004-11-07T11:48:52Z</time>
      </trkpt>
      <trkpt lat="43.086381917819381" lon="11.660097185522318">
        <ele>441.3824462890625</ele>
        <time>2004-11-07T11:48:58Z</time>
      </trkpt>
      <trkpt lat="43.086333554238081" lon="11.660218052566051">
        <ele>441.8631591796875</ele>
        <time>2004-11-07T11:49:03Z</time>
      </trkpt>
      <trkpt lat="43.086287872865796" lon="11.660341350361705">
        <ele>442.3438720703125</ele>
        <time>2004-11-07T11:49:09Z</time>
      </trkpt>
      <trkpt lat="43.086249651387334" lon="11.660463307052851">
        <ele>443.3050537109375</ele>
        <time>2004-11-07T11:49:16Z</time>
      </trkpt>
      <trkpt lat="43.086215704679489" lon="11.660581072792411">
        <ele>443.7857666015625</ele>
        <time>2004-11-07T11:49:23Z</time>
      </trkpt>
      <trkpt lat="43.086182093247771" lon="11.660705460235476">
        <ele>444.7470703125</ele>
        <time>2004-11-07T11:49:31Z</time>
      </trkpt>
      <trkpt lat="43.086153091862798" lon="11.660833870992064">
        <ele>445.2276611328125</ele>
        <time>2004-11-07T11:49:39Z</time>
      </trkpt>
      <trkpt lat="43.08611118234694" lon="11.660941578447819">
        <ele>446.1890869140625</ele>
        <time>2004-11-07T11:49:50Z</time>
      </trkpt>
      <trkpt lat="43.086179662495852" lon="11.661025648936629">
        <ele>445.7083740234375</ele>
        <time>2004-11-07T11:52:28Z</time>
      </trkpt>
      <trkpt lat="43.086117971688509" lon="11.661162944510579">
        <ele>446.669677734375</ele>
        <time>2004-11-07T11:52:51Z</time>
      </trkpt>
      <trkpt lat="43.086063992232084" lon="11.661281296983361">
        <ele>447.6309814453125</ele>
        <time>2004-11-07T11:52:56Z</time>
      </trkpt>
      <trkpt lat="43.086018478497863" lon="11.661410965025425">
        <ele>448.11181640625</ele>
        <time>2004-11-07T11:53:01Z</time>
      </trkpt>
      <trkpt lat="43.085971791297197" lon="11.661524539813399">
        <ele>448.5924072265625</ele>
        <time>2004-11-07T11:53:06Z</time>
      </trkpt>
      <trkpt lat="43.08592401444912" lon="11.661660326644778">
        <ele>449.072998046875</ele>
        <time>2004-11-07T11:53:12Z</time>
      </trkpt>
      <trkpt lat="43.085880680009723" lon="11.661779936403036">
        <ele>450.5150146484375</ele>
        <time>2004-11-07T11:53:17Z</time>
      </trkpt>
      <trkpt lat="43.085833489894867" lon="11.661896193400025">
        <ele>450.5150146484375</ele>
        <time>2004-11-07T11:53:22Z</time>
      </trkpt>
      <trkpt lat="43.085791831836104" lon="11.662012785673141">
        <ele>450.99560546875</ele>
        <time>2004-11-07T11:53:27Z</time>
      </trkpt>
      <trkpt lat="43.085740702226758" lon="11.662132814526558">
        <ele>451.476318359375</ele>
        <time>2004-11-07T11:53:32Z</time>
      </trkpt>
      <trkpt lat="43.08569778688252" lon="11.662252089008689">
        <ele>451.95703125</ele>
        <time>2004-11-07T11:53:37Z</time>
      </trkpt>
      <trkpt lat="43.085650680586696" lon="11.66236943565309">
        <ele>451.95703125</ele>
        <time>2004-11-07T11:53:42Z</time>
      </trkpt>
      <trkpt lat="43.085604328662157" lon="11.662486111745238">
        <ele>452.918212890625</ele>
        <time>2004-11-07T11:53:47Z</time>
      </trkpt>
      <trkpt lat="43.085559736937284" lon="11.662619970738888">
        <ele>453.879638671875</ele>
        <time>2004-11-07T11:53:52Z</time>
      </trkpt>
      <trkpt lat="43.085517240688205" lon="11.662750393152237">
        <ele>454.3602294921875</ele>
        <time>2004-11-07T11:53:57Z</time>
      </trkpt>
      <trkpt lat="43.085478683933616" lon="11.662889029830694">
        <ele>454.8408203125</ele>
        <time>2004-11-07T11:54:02Z</time>
      </trkpt>
      <trkpt lat="43.085443647578359" lon="11.663017021492124">
        <ele>454.3602294921875</ele>
        <time>2004-11-07T11:54:07Z</time>
      </trkpt>
      <trkpt lat="43.085407270118594" lon="11.663158759474754">
        <ele>455.80224609375</ele>
        <time>2004-11-07T11:54:12Z</time>
      </trkpt>
      <trkpt lat="43.085371311753988" lon="11.663301922380924">
        <ele>455.80224609375</ele>
        <time>2004-11-07T11:54:17Z</time>
      </trkpt>
      <trkpt lat="43.085343232378364" lon="11.663445252925158">
        <ele>455.80224609375</ele>
        <time>2004-11-07T11:54:22Z</time>
      </trkpt>
      <trkpt lat="43.085307776927948" lon="11.663591098040342">
        <ele>456.282958984375</ele>
        <time>2004-11-07T11:54:27Z</time>
      </trkpt>
      <trkpt lat="43.085278188809752" lon="11.663707438856363">
        <ele>456.7635498046875</ele>
        <time>2004-11-07T11:54:31Z</time>
      </trkpt>
      <trkpt lat="43.085249187424779" lon="11.663828641176224">
        <ele>457.2442626953125</ele>
        <time>2004-11-07T11:54:35Z</time>
      </trkpt>
      <trkpt lat="43.085222700610757" lon="11.663949675858021">
        <ele>458.20556640625</ele>
        <time>2004-11-07T11:54:39Z</time>
      </trkpt>
      <trkpt lat="43.085188502445817" lon="11.664092000573874">
        <ele>457.7249755859375</ele>
        <time>2004-11-07T11:54:44Z</time>
      </trkpt>
      <trkpt lat="43.085151202976704" lon="11.664238348603249">
        <ele>458.6861572265625</ele>
        <time>2004-11-07T11:54:49Z</time>
      </trkpt>
      <trkpt lat="43.085122033953667" lon="11.664381008595228">
        <ele>458.6861572265625</ele>
        <time>2004-11-07T11:54:54Z</time>
      </trkpt>
      <trkpt lat="43.085085153579712" lon="11.66451352648437">
        <ele>458.6861572265625</ele>
        <time>2004-11-07T11:54:59Z</time>
      </trkpt>
      <trkpt lat="43.085040645673871" lon="11.664639003574848">
        <ele>458.6861572265625</ele>
        <time>2004-11-07T11:55:03Z</time>
      </trkpt>
      <trkpt lat="43.084984486922622" lon="11.664780406281352">
        <ele>459.6475830078125</ele>
        <time>2004-11-07T11:55:07Z</time>
      </trkpt>
      <trkpt lat="43.084923969581723" lon="11.664917785674334">
        <ele>459.6475830078125</ele>
        <time>2004-11-07T11:55:11Z</time>
      </trkpt>
      <trkpt lat="43.084863955155015" lon="11.665046531707048">
        <ele>460.128173828125</ele>
        <time>2004-11-07T11:55:15Z</time>
      </trkpt>
      <trkpt lat="43.084804862737656" lon="11.665165722370148">
        <ele>461.5701904296875</ele>
        <time>2004-11-07T11:55:19Z</time>
      </trkpt>
      <trkpt lat="43.084749625995755" lon="11.665280722081661">
        <ele>460.6087646484375</ele>
        <time>2004-11-07T11:55:23Z</time>
      </trkpt>
      <trkpt lat="43.084689443930984" lon="11.66539597325027">
        <ele>461.5701904296875</ele>
        <time>2004-11-07T11:55:27Z</time>
      </trkpt>
      <trkpt lat="43.084630435332656" lon="11.665522120893002">
        <ele>461.5701904296875</ele>
        <time>2004-11-07T11:55:31Z</time>
      </trkpt>
      <trkpt lat="43.084572181105614" lon="11.665641814470291">
        <ele>461.5701904296875</ele>
        <time>2004-11-07T11:55:35Z</time>
      </trkpt>
      <trkpt lat="43.08451384305954" lon="11.66575170122087">
        <ele>462.05078125</ele>
        <time>2004-11-07T11:55:39Z</time>
      </trkpt>
      <trkpt lat="43.084456846117973" lon="11.66586359962821">
        <ele>462.5313720703125</ele>
        <time>2004-11-07T11:55:43Z</time>
      </trkpt>
      <trkpt lat="43.084403621032834" lon="11.665971139445901">
        <ele>462.05078125</ele>
        <time>2004-11-07T11:55:47Z</time>
      </trkpt>
      <trkpt lat="43.084347881376743" lon="11.666078763082623">
        <ele>463.0120849609375</ele>
        <time>2004-11-07T11:55:51Z</time>
      </trkpt>
      <trkpt lat="43.084288369864225" lon="11.6661939304322">
        <ele>463.0120849609375</ele>
        <time>2004-11-07T11:55:55Z</time>
      </trkpt>
      <trkpt lat="43.084232211112976" lon="11.666308343410492">
        <ele>463.4927978515625</ele>
        <time>2004-11-07T11:55:59Z</time>
      </trkpt>
      <trkpt lat="43.084183344617486" lon="11.666413703933358">
        <ele>463.0120849609375</ele>
        <time>2004-11-07T11:56:03Z</time>
      </trkpt>
      <trkpt lat="43.08412978425622" lon="11.666515544056892">
        <ele>463.4927978515625</ele>
        <time>2004-11-07T11:56:07Z</time>
      </trkpt>
      <trkpt lat="43.084079828113317" lon="11.66662534698844">
        <ele>464.4541015625</ele>
        <time>2004-11-07T11:56:12Z</time>
      </trkpt>
      <trkpt lat="43.083996092900634" lon="11.666672704741359">
        <ele>463.973388671875</ele>
        <time>2004-11-07T11:56:17Z</time>
      </trkpt>
      <trkpt lat="43.083889810368419" lon="11.666707405820489">
        <ele>464.934814453125</ele>
        <time>2004-11-07T11:56:22Z</time>
      </trkpt>
      <trkpt lat="43.083768943324685" lon="11.666728276759386">
        <ele>464.934814453125</ele>
        <time>2004-11-07T11:56:27Z</time>
      </trkpt>
      <trkpt lat="43.083658302202821" lon="11.666745794937015">
        <ele>464.4541015625</ele>
        <time>2004-11-07T11:56:32Z</time>
      </trkpt>
      <trkpt lat="43.083540955558419" lon="11.666754512116313">
        <ele>465.8961181640625</ele>
        <time>2004-11-07T11:56:37Z</time>
      </trkpt>
      <trkpt lat="43.083423608914018" lon="11.666735233739018">
        <ele>466.857421875</ele>
        <time>2004-11-07T11:56:42Z</time>
      </trkpt>
      <trkpt lat="43.08331816457212" lon="11.666716290637851">
        <ele>467.8187255859375</ele>
        <time>2004-11-07T11:56:47Z</time>
      </trkpt>
      <trkpt lat="43.083209116011858" lon="11.666706316173077">
        <ele>468.780029296875</ele>
        <time>2004-11-07T11:56:52Z</time>
      </trkpt>
      <trkpt lat="43.083105096593499" lon="11.666713105514646">
        <ele>469.2607421875</ele>
        <time>2004-11-07T11:56:57Z</time>
      </trkpt>
      <trkpt lat="43.083000406622887" lon="11.666730120778084">
        <ele>469.7413330078125</ele>
        <time>2004-11-07T11:57:02Z</time>
      </trkpt>
      <trkpt lat="43.082909714430571" lon="11.666772617027164">
        <ele>470.70263671875</ele>
        <time>2004-11-07T11:57:07Z</time>
      </trkpt>
      <trkpt lat="43.082809299230576" lon="11.666816370561719">
        <ele>471.183349609375</ele>
        <time>2004-11-07T11:57:12Z</time>
      </trkpt>
      <trkpt lat="43.082701843231916" lon="11.666878061369061">
        <ele>471.6639404296875</ele>
        <time>2004-11-07T11:57:17Z</time>
      </trkpt>
      <trkpt lat="43.082600422203541" lon="11.666947966441512">
        <ele>472.1446533203125</ele>
        <time>2004-11-07T11:57:21Z</time>
      </trkpt>
      <trkpt lat="43.082495229318738" lon="11.667031785473228">
        <ele>472.1446533203125</ele>
        <time>2004-11-07T11:57:25Z</time>
      </trkpt>
      <trkpt lat="43.082416020333767" lon="11.667101187631488">
        <ele>472.1446533203125</ele>
        <time>2004-11-07T11:57:28Z</time>
      </trkpt>
      <trkpt lat="43.082340499386191" lon="11.667179558426142">
        <ele>472.6253662109375</ele>
        <time>2004-11-07T11:57:31Z</time>
      </trkpt>
      <trkpt lat="43.082265062257648" lon="11.667254660278559">
        <ele>473.586669921875</ele>
        <time>2004-11-07T11:57:34Z</time>
      </trkpt>
      <trkpt lat="43.082193480804563" lon="11.667338311672211">
        <ele>472.6253662109375</ele>
        <time>2004-11-07T11:57:37Z</time>
      </trkpt>
      <trkpt lat="43.082123575732112" lon="11.667425399646163">
        <ele>473.1060791015625</ele>
        <time>2004-11-07T11:57:40Z</time>
      </trkpt>
      <trkpt lat="43.08204771950841" lon="11.667513074353337">
        <ele>473.1060791015625</ele>
        <time>2004-11-07T11:57:43Z</time>
      </trkpt>
      <trkpt lat="43.081971863284707" lon="11.667599240317941">
        <ele>473.1060791015625</ele>
        <time>2004-11-07T11:57:46Z</time>
      </trkpt>
      <trkpt lat="43.081899024546146" lon="11.667690016329288">
        <ele>473.1060791015625</ele>
        <time>2004-11-07T11:57:49Z</time>
      </trkpt>
      <trkpt lat="43.081822246313095" lon="11.667775930836797">
        <ele>473.1060791015625</ele>
        <time>2004-11-07T11:57:52Z</time>
      </trkpt>
      <trkpt lat="43.081744210794568" lon="11.667860923334956">
        <ele>472.6253662109375</ele>
        <time>2004-11-07T11:57:55Z</time>
      </trkpt>
      <trkpt lat="43.081666929647326" lon="11.667952369898558">
        <ele>472.6253662109375</ele>
        <time>2004-11-07T11:57:58Z</time>
      </trkpt>
      <trkpt lat="43.081587804481387" lon="11.668042978271842">
        <ele>473.1060791015625</ele>
        <time>2004-11-07T11:58:01Z</time>
      </trkpt>
      <trkpt lat="43.081511445343494" lon="11.668153284117579">
        <ele>472.1446533203125</ele>
        <time>2004-11-07T11:58:04Z</time>
      </trkpt>
      <trkpt lat="43.081444641575217" lon="11.668287729844451">
        <ele>473.1060791015625</ele>
        <time>2004-11-07T11:58:07Z</time>
      </trkpt>
      <trkpt lat="43.081385213881731" lon="11.668427037075162">
        <ele>471.6639404296875</ele>
        <time>2004-11-07T11:58:10Z</time>
      </trkpt>
      <trkpt lat="43.081321511417627" lon="11.668562823906541">
        <ele>473.1060791015625</ele>
        <time>2004-11-07T11:58:13Z</time>
      </trkpt>
      <trkpt lat="43.081246158108115" lon="11.668697101995349">
        <ele>473.1060791015625</ele>
        <time>2004-11-07T11:58:16Z</time>
      </trkpt>
      <trkpt lat="43.081171894446015" lon="11.668838001787663">
        <ele>472.1446533203125</ele>
        <time>2004-11-07T11:58:19Z</time>
      </trkpt>
      <trkpt lat="43.081094864755869" lon="11.668981835246086">
        <ele>472.6253662109375</ele>
        <time>2004-11-07T11:58:22Z</time>
      </trkpt>
      <trkpt lat="43.081018086522818" lon="11.66913690045476">
        <ele>472.1446533203125</ele>
        <time>2004-11-07T11:58:25Z</time>
      </trkpt>
      <trkpt lat="43.080975338816643" lon="11.669256594032049">
        <ele>471.183349609375</ele>
        <time>2004-11-07T11:58:27Z</time>
      </trkpt>
      <trkpt lat="43.080936279147863" lon="11.669390704482794">
        <ele>469.7413330078125</ele>
        <time>2004-11-07T11:58:29Z</time>
      </trkpt>
      <trkpt lat="43.080899398773909" lon="11.669534789398313">
        <ele>469.2607421875</ele>
        <time>2004-11-07T11:58:31Z</time>
      </trkpt>
      <trkpt lat="43.080857153981924" lon="11.66968172416091">
        <ele>469.2607421875</ele>
        <time>2004-11-07T11:58:33Z</time>
      </trkpt>
      <trkpt lat="43.080811975523829" lon="11.669822204858065">
        <ele>467.8187255859375</ele>
        <time>2004-11-07T11:58:35Z</time>
      </trkpt>
      <trkpt lat="43.080766713246703" lon="11.66996268555522">
        <ele>468.780029296875</ele>
        <time>2004-11-07T11:58:37Z</time>
      </trkpt>
      <trkpt lat="43.080707285553217" lon="11.670090341940522">
        <ele>469.2607421875</ele>
        <time>2004-11-07T11:58:39Z</time>
      </trkpt>
      <trkpt lat="43.080633357167244" lon="11.670161420479417">
        <ele>470.70263671875</ele>
        <time>2004-11-07T11:58:42Z</time>
      </trkpt>
      <trkpt lat="43.08052321895957" lon="11.670217998325825">
        <ele>472.6253662109375</ele>
        <time>2004-11-07T11:58:48Z</time>
      </trkpt>
      <trkpt lat="43.080413835123181" lon="11.670258399099112">
        <ele>473.1060791015625</ele>
        <time>2004-11-07T11:58:53Z</time>
      </trkpt>
      <trkpt lat="43.080307217314839" lon="11.670305840671062">
        <ele>473.586669921875</ele>
        <time>2004-11-07T11:58:58Z</time>
      </trkpt>
      <trkpt lat="43.080198084935546" lon="11.670346073806286">
        <ele>475.0286865234375</ele>
        <time>2004-11-07T11:59:03Z</time>
      </trkpt>
      <trkpt lat="43.080090461298823" lon="11.670366441830993">
        <ele>475.50927734375</ele>
        <time>2004-11-07T11:59:07Z</time>
      </trkpt>
      <trkpt lat="43.079986022785306" lon="11.670398712158203">
        <ele>475.50927734375</ele>
        <time>2004-11-07T11:59:11Z</time>
      </trkpt>
      <trkpt lat="43.079863814637065" lon="11.670426707714796">
        <ele>476.4705810546875</ele>
        <time>2004-11-07T11:59:15Z</time>
      </trkpt>
      <trkpt lat="43.079757699742913" lon="11.670468868687749">
        <ele>476.9512939453125</ele>
        <time>2004-11-07T11:59:19Z</time>
      </trkpt>
      <trkpt lat="43.079662146046758" lon="11.67052024975419">
        <ele>477.431884765625</ele>
        <time>2004-11-07T11:59:23Z</time>
      </trkpt>
      <trkpt lat="43.079570531845093" lon="11.670590741559863">
        <ele>477.9124755859375</ele>
        <time>2004-11-07T11:59:27Z</time>
      </trkpt>
      <trkpt lat="43.079484282061458" lon="11.670679925009608">
        <ele>478.3931884765625</ele>
        <time>2004-11-07T11:59:31Z</time>
      </trkpt>
      <trkpt lat="43.079396272078156" lon="11.670768354088068">
        <ele>477.9124755859375</ele>
        <time>2004-11-07T11:59:35Z</time>
      </trkpt>
      <trkpt lat="43.079314799979329" lon="11.67086323723197">
        <ele>478.8739013671875</ele>
        <time>2004-11-07T11:59:39Z</time>
      </trkpt>
      <trkpt lat="43.079235171899199" lon="11.670964658260345">
        <ele>478.8739013671875</ele>
        <time>2004-11-07T11:59:43Z</time>
      </trkpt>
      <trkpt lat="43.07921321131289" lon="11.67114369571209">
        <ele>478.8739013671875</ele>
        <time>2004-11-07T11:59:47Z</time>
      </trkpt>
      <trkpt lat="43.079189909622073" lon="11.671310998499393">
        <ele>480.31591796875</ele>
        <time>2004-11-07T11:59:51Z</time>
      </trkpt>
      <trkpt lat="43.079166691750288" lon="11.671457849442959">
        <ele>480.31591796875</ele>
        <time>2004-11-07T11:59:55Z</time>
      </trkpt>
      <trkpt lat="43.079122938215733" lon="11.67159715667367">
        <ele>479.8350830078125</ele>
        <time>2004-11-07T11:59:59Z</time>
      </trkpt>
      <trkpt lat="43.079064600169659" lon="11.671748030930758">
        <ele>479.8350830078125</ele>
        <time>2004-11-07T12:00:03Z</time>
      </trkpt>
      <trkpt lat="43.079010620713234" lon="11.671879710629582">
        <ele>480.31591796875</ele>
        <time>2004-11-07T12:00:07Z</time>
      </trkpt>
      <trkpt lat="43.078948175534606" lon="11.671994207426906">
        <ele>479.8350830078125</ele>
        <time>2004-11-07T12:00:11Z</time>
      </trkpt>
      <trkpt lat="43.078873660415411" lon="11.672068387269974">
        <ele>479.3544921875</ele>
        <time>2004-11-07T12:00:18Z</time>
      </trkpt>
      <trkpt lat="43.078825632110238" lon="11.672066207975149">
        <ele>480.796630859375</ele>
        <time>2004-11-07T12:01:35Z</time>
      </trkpt>
      <trkpt lat="43.078762013465166" lon="11.672211801633239">
        <ele>482.238525390625</ele>
        <time>2004-11-07T12:01:39Z</time>
      </trkpt>
      <trkpt lat="43.078698646277189" lon="11.672371057793498">
        <ele>481.2772216796875</ele>
        <time>2004-11-07T12:01:43Z</time>
      </trkpt>
      <trkpt lat="43.078639134764671" lon="11.672493517398834">
        <ele>482.238525390625</ele>
        <time>2004-11-07T12:01:46Z</time>
      </trkpt>
      <trkpt lat="43.078569816425443" lon="11.672640703618526">
        <ele>482.238525390625</ele>
        <time>2004-11-07T12:01:50Z</time>
      </trkpt>
      <trkpt lat="43.078500917181373" lon="11.672764755785465">
        <ele>482.71923828125</ele>
        <time>2004-11-07T12:01:55Z</time>
      </trkpt>
      <trkpt lat="43.078422546386719" lon="11.67296240106225">
        <ele>482.71923828125</ele>
        <time>2004-11-07T12:02:50Z</time>
      </trkpt>
      <trkpt lat="43.078387007117271" lon="11.673114784061909">
        <ele>484.1611328125</ele>
        <time>2004-11-07T12:04:32Z</time>
      </trkpt>
      <trkpt lat="43.078340403735638" lon="11.673210253939033">
        <ele>484.1611328125</ele>
        <time>2004-11-07T12:04:38Z</time>
      </trkpt>
      <trkpt lat="43.07828625664115" lon="11.673318715766072">
        <ele>484.1611328125</ele>
        <time>2004-11-07T12:04:43Z</time>
      </trkpt>
      <trkpt lat="43.078225236386061" lon="11.673417538404465">
        <ele>484.1611328125</ele>
        <time>2004-11-07T12:04:47Z</time>
      </trkpt>
      <trkpt lat="43.078165138140321" lon="11.673522479832172">
        <ele>484.1611328125</ele>
        <time>2004-11-07T12:04:51Z</time>
      </trkpt>
      <trkpt lat="43.078093891963363" lon="11.673624906688929">
        <ele>483.680419921875</ele>
        <time>2004-11-07T12:04:55Z</time>
      </trkpt>
      <trkpt lat="43.078037481755018" lon="11.673737391829491">
        <ele>484.1611328125</ele>
        <time>2004-11-07T12:04:59Z</time>
      </trkpt>
      <trkpt lat="43.077982412651181" lon="11.673853984102607">
        <ele>485.1224365234375</ele>
        <time>2004-11-07T12:05:03Z</time>
      </trkpt>
      <trkpt lat="43.077923487871885" lon="11.673982730135322">
        <ele>485.1224365234375</ele>
        <time>2004-11-07T12:05:07Z</time>
      </trkpt>
      <trkpt lat="43.077855594456196" lon="11.674127234145999">
        <ele>485.1224365234375</ele>
        <time>2004-11-07T12:05:11Z</time>
      </trkpt>
      <trkpt lat="43.077789209783077" lon="11.674251286312938">
        <ele>485.1224365234375</ele>
        <time>2004-11-07T12:05:14Z</time>
      </trkpt>
      <trkpt lat="43.077716622501612" lon="11.674379780888557">
        <ele>485.1224365234375</ele>
        <time>2004-11-07T12:05:17Z</time>
      </trkpt>
      <trkpt lat="43.077653171494603" lon="11.674508443102241">
        <ele>485.1224365234375</ele>
        <time>2004-11-07T12:05:20Z</time>
      </trkpt>
      <trkpt lat="43.077593240886927" lon="11.674630651250482">
        <ele>485.60302734375</ele>
        <time>2004-11-07T12:05:23Z</time>
      </trkpt>
      <trkpt lat="43.077537501230836" lon="11.674751602113247">
        <ele>485.1224365234375</ele>
        <time>2004-11-07T12:05:26Z</time>
      </trkpt>
      <trkpt lat="43.077482180669904" lon="11.674869619309902">
        <ele>485.60302734375</ele>
        <time>2004-11-07T12:05:29Z</time>
      </trkpt>
      <trkpt lat="43.077428955584764" lon="11.674984451383352">
        <ele>485.60302734375</ele>
        <time>2004-11-07T12:05:32Z</time>
      </trkpt>
      <trkpt lat="43.077371874824166" lon="11.675086878240108">
        <ele>486.083740234375</ele>
        <time>2004-11-07T12:05:35Z</time>
      </trkpt>
      <trkpt lat="43.077304232865572" lon="11.675211433321238">
        <ele>486.083740234375</ele>
        <time>2004-11-07T12:05:39Z</time>
      </trkpt>
      <trkpt lat="43.077238099649549" lon="11.675329115241766">
        <ele>485.1224365234375</ele>
        <time>2004-11-07T12:05:43Z</time>
      </trkpt>
      <trkpt lat="43.07719124481082" lon="11.67544168420136">
        <ele>485.1224365234375</ele>
        <time>2004-11-07T12:05:47Z</time>
      </trkpt>
      <trkpt lat="43.077135421335697" lon="11.675580404698849">
        <ele>485.60302734375</ele>
        <time>2004-11-07T12:05:51Z</time>
      </trkpt>
      <trkpt lat="43.077092170715332" lon="11.675690123811364">
        <ele>486.083740234375</ele>
        <time>2004-11-07T12:05:54Z</time>
      </trkpt>
      <trkpt lat="43.077057804912329" lon="11.675807386636734">
        <ele>485.60302734375</ele>
        <time>2004-11-07T12:05:57Z</time>
      </trkpt>
      <trkpt lat="43.07703148573637" lon="11.675925320014358">
        <ele>485.1224365234375</ele>
        <time>2004-11-07T12:06:00Z</time>
      </trkpt>
      <trkpt lat="43.077010782435536" lon="11.676049036905169">
        <ele>484.641845703125</ele>
        <time>2004-11-07T12:06:03Z</time>
      </trkpt>
      <trkpt lat="43.076993934810162" lon="11.676175519824028">
        <ele>484.641845703125</ele>
        <time>2004-11-07T12:06:06Z</time>
      </trkpt>
      <trkpt lat="43.076983541250229" lon="11.676300661638379">
        <ele>484.641845703125</ele>
        <time>2004-11-07T12:06:09Z</time>
      </trkpt>
      <trkpt lat="43.076977673918009" lon="11.676432508975267">
        <ele>484.641845703125</ele>
        <time>2004-11-07T12:06:12Z</time>
      </trkpt>
      <trkpt lat="43.076988235116005" lon="11.676595117896795">
        <ele>485.60302734375</ele>
        <time>2004-11-07T12:06:16Z</time>
      </trkpt>
      <trkpt lat="43.077004579827189" lon="11.676754290238023">
        <ele>485.60302734375</ele>
        <time>2004-11-07T12:06:20Z</time>
      </trkpt>
      <trkpt lat="43.07702218182385" lon="11.676896866410971">
        <ele>486.083740234375</ele>
        <time>2004-11-07T12:06:24Z</time>
      </trkpt>
      <trkpt lat="43.077024696394801" lon="11.677036425098777">
        <ele>486.564453125</ele>
        <time>2004-11-07T12:06:28Z</time>
      </trkpt>
      <trkpt lat="43.077038610354066" lon="11.677182773128152">
        <ele>486.564453125</ele>
        <time>2004-11-07T12:06:33Z</time>
      </trkpt>
      <trkpt lat="43.077036933973432" lon="11.67730045504868">
        <ele>486.564453125</ele>
        <time>2004-11-07T12:06:39Z</time>
      </trkpt>
      <trkpt lat="43.077040957286954" lon="11.677418975159526">
        <ele>487.525634765625</ele>
        <time>2004-11-07T12:06:46Z</time>
      </trkpt>
      <trkpt lat="43.077014470472932" lon="11.677511595189571">
        <ele>487.525634765625</ele>
        <time>2004-11-07T12:06:58Z</time>
      </trkpt>
      <trkpt lat="43.076981697231531" lon="11.677628858014941">
        <ele>487.525634765625</ele>
        <time>2004-11-07T12:07:05Z</time>
      </trkpt>
      <trkpt lat="43.076930567622185" lon="11.677730949595571">
        <ele>488.4871826171875</ele>
        <time>2004-11-07T12:07:11Z</time>
      </trkpt>
      <trkpt lat="43.07687122374773" lon="11.677839243784547">
        <ele>488.4871826171875</ele>
        <time>2004-11-07T12:07:17Z</time>
      </trkpt>
      <trkpt lat="43.076826464384794" lon="11.677947286516428">
        <ele>488.9677734375</ele>
        <time>2004-11-07T12:07:23Z</time>
      </trkpt>
      <trkpt lat="43.076774831861258" lon="11.678062872961164">
        <ele>488.9677734375</ele>
        <time>2004-11-07T12:07:29Z</time>
      </trkpt>
      <trkpt lat="43.076714398339391" lon="11.678178962320089">
        <ele>490.4097900390625</ele>
        <time>2004-11-07T12:07:35Z</time>
      </trkpt>
      <trkpt lat="43.076705010607839" lon="11.678359340876341">
        <ele>490.890380859375</ele>
        <time>2004-11-07T12:07:40Z</time>
      </trkpt>
      <trkpt lat="43.076679026708007" lon="11.678508706390858">
        <ele>490.890380859375</ele>
        <time>2004-11-07T12:07:44Z</time>
      </trkpt>
      <trkpt lat="43.076654216274619" lon="11.678649354726076">
        <ele>490.890380859375</ele>
        <time>2004-11-07T12:07:48Z</time>
      </trkpt>
      <trkpt lat="43.076619682833552" lon="11.678776256740093">
        <ele>491.3709716796875</ele>
        <time>2004-11-07T12:07:52Z</time>
      </trkpt>
      <trkpt lat="43.076584227383137" lon="11.678898129612207">
        <ele>491.8516845703125</ele>
        <time>2004-11-07T12:07:56Z</time>
      </trkpt>
      <trkpt lat="43.076548771932721" lon="11.679020002484322">
        <ele>491.3709716796875</ele>
        <time>2004-11-07T12:08:00Z</time>
      </trkpt>
      <trkpt lat="43.076513148844242" lon="11.679136930033565">
        <ele>491.3709716796875</ele>
        <time>2004-11-07T12:08:04Z</time>
      </trkpt>
      <trkpt lat="43.076459588482976" lon="11.679250672459602">
        <ele>492.3323974609375</ele>
        <time>2004-11-07T12:08:09Z</time>
      </trkpt>
      <trkpt lat="43.076329501345754" lon="11.679017655551434">
        <ele>491.3709716796875</ele>
        <time>2004-11-07T12:09:33Z</time>
      </trkpt>
      <trkpt lat="43.076353389769793" lon="11.679129470139742">
        <ele>491.3709716796875</ele>
        <time>2004-11-07T12:09:47Z</time>
      </trkpt>
      <trkpt lat="43.076463276520371" lon="11.678962418809533">
        <ele>492.3323974609375</ele>
        <time>2004-11-07T12:10:43Z</time>
      </trkpt>
      <trkpt lat="43.076477022841573" lon="11.678870134055614">
        <ele>492.3323974609375</ele>
        <time>2004-11-07T12:11:00Z</time>
      </trkpt>
      <trkpt lat="43.076399574056268" lon="11.679033916443586">
        <ele>493.2935791015625</ele>
        <time>2004-11-07T12:11:08Z</time>
      </trkpt>
      <trkpt lat="43.076395634561777" lon="11.679200883954763">
        <ele>493.2935791015625</ele>
        <time>2004-11-07T12:11:16Z</time>
      </trkpt>
      <trkpt lat="43.076352719217539" lon="11.679419400170445">
        <ele>494.2550048828125</ele>
        <time>2004-11-07T12:11:27Z</time>
      </trkpt>
      <trkpt lat="43.076315335929394" lon="11.679584858939052">
        <ele>495.2161865234375</ele>
        <time>2004-11-07T12:11:34Z</time>
      </trkpt>
      <trkpt lat="43.076266972348094" lon="11.679740678519011">
        <ele>494.735595703125</ele>
        <time>2004-11-07T12:11:44Z</time>
      </trkpt>
      <trkpt lat="43.076240988448262" lon="11.679903203621507">
        <ele>494.735595703125</ele>
        <time>2004-11-07T12:11:54Z</time>
      </trkpt>
      <trkpt lat="43.076214250177145" lon="11.680058101192117">
        <ele>494.735595703125</ele>
        <time>2004-11-07T12:12:01Z</time>
      </trkpt>
      <trkpt lat="43.076173011213541" lon="11.68022096157074">
        <ele>493.2935791015625</ele>
        <time>2004-11-07T12:12:06Z</time>
      </trkpt>
      <trkpt lat="43.076142081990838" lon="11.680354317650199">
        <ele>493.7742919921875</ele>
        <time>2004-11-07T12:12:09Z</time>
      </trkpt>
      <trkpt lat="43.076101178303361" lon="11.680486416444182">
        <ele>492.81298828125</ele>
        <time>2004-11-07T12:12:12Z</time>
      </trkpt>
      <trkpt lat="43.076087851077318" lon="11.680613653734326">
        <ele>493.2935791015625</ele>
        <time>2004-11-07T12:12:15Z</time>
      </trkpt>
      <trkpt lat="43.07611140422523" lon="11.680744243785739">
        <ele>492.81298828125</ele>
        <time>2004-11-07T12:12:19Z</time>
      </trkpt>
      <trkpt lat="43.076141159981489" lon="11.680879108607769">
        <ele>492.3323974609375</ele>
        <time>2004-11-07T12:12:24Z</time>
      </trkpt>
      <trkpt lat="43.076175525784492" lon="11.681015314534307">
        <ele>490.890380859375</ele>
        <time>2004-11-07T12:12:29Z</time>
      </trkpt>
      <trkpt lat="43.076206119731069" lon="11.681144144386053">
        <ele>488.9677734375</ele>
        <time>2004-11-07T12:12:34Z</time>
      </trkpt>
      <trkpt lat="43.076188769191504" lon="11.681299125775695">
        <ele>487.0450439453125</ele>
        <time>2004-11-07T12:12:39Z</time>
      </trkpt>
      <trkpt lat="43.07613043114543" lon="11.681422088295221">
        <ele>485.60302734375</ele>
        <time>2004-11-07T12:12:44Z</time>
      </trkpt>
      <trkpt lat="43.076117103919387" lon="11.681554270908237">
        <ele>485.1224365234375</ele>
        <time>2004-11-07T12:12:49Z</time>
      </trkpt>
      <trkpt lat="43.076117858290672" lon="11.681696260347962">
        <ele>484.1611328125</ele>
        <time>2004-11-07T12:13:43Z</time>
      </trkpt>
      <trkpt lat="43.076171670109034" lon="11.681808661669493">
        <ele>484.1611328125</ele>
        <time>2004-11-07T12:13:46Z</time>
      </trkpt>
      <trkpt lat="43.076266050338745" lon="11.681965487077832">
        <ele>483.1998291015625</ele>
        <time>2004-11-07T12:13:49Z</time>
      </trkpt>
      <trkpt lat="43.076361520215869" lon="11.682077804580331">
        <ele>480.31591796875</ele>
        <time>2004-11-07T12:13:51Z</time>
      </trkpt>
      <trkpt lat="43.076467216014862" lon="11.682183165103197">
        <ele>477.9124755859375</ele>
        <time>2004-11-07T12:13:53Z</time>
      </trkpt>
      <trkpt lat="43.076590010896325" lon="11.682302439585328">
        <ele>473.586669921875</ele>
        <time>2004-11-07T12:13:55Z</time>
      </trkpt>
      <trkpt lat="43.076709536835551" lon="11.682409225031734">
        <ele>470.221923828125</ele>
        <time>2004-11-07T12:13:57Z</time>
      </trkpt>
      <trkpt lat="43.076834343373775" lon="11.68250922113657">
        <ele>469.2607421875</ele>
        <time>2004-11-07T12:13:59Z</time>
      </trkpt>
      <trkpt lat="43.076955964788795" lon="11.68260988779366">
        <ele>467.8187255859375</ele>
        <time>2004-11-07T12:14:01Z</time>
      </trkpt>
      <trkpt lat="43.077068869024515" lon="11.682713991031051">
        <ele>465.41552734375</ele>
        <time>2004-11-07T12:14:03Z</time>
      </trkpt>
      <trkpt lat="43.077173475176096" lon="11.682814657688141">
        <ele>464.4541015625</ele>
        <time>2004-11-07T12:14:05Z</time>
      </trkpt>
      <trkpt lat="43.077280092984438" lon="11.682915072888136">
        <ele>463.973388671875</ele>
        <time>2004-11-07T12:14:07Z</time>
      </trkpt>
      <trkpt lat="43.077388470992446" lon="11.683020768687129">
        <ele>462.05078125</ele>
        <time>2004-11-07T12:14:09Z</time>
      </trkpt>
      <trkpt lat="43.077495340257883" lon="11.683124369010329">
        <ele>460.128173828125</ele>
        <time>2004-11-07T12:14:11Z</time>
      </trkpt>
      <trkpt lat="43.077604975551367" lon="11.683217994868755">
        <ele>458.6861572265625</ele>
        <time>2004-11-07T12:14:13Z</time>
      </trkpt>
      <trkpt lat="43.077707570046186" lon="11.683305334299803">
        <ele>457.7249755859375</ele>
        <time>2004-11-07T12:14:15Z</time>
      </trkpt>
      <trkpt lat="43.077795160934329" lon="11.683383285999298">
        <ele>456.7635498046875</ele>
        <time>2004-11-07T12:14:17Z</time>
      </trkpt>
      <trkpt lat="43.077871352434158" lon="11.683454196900129">
        <ele>455.80224609375</ele>
        <time>2004-11-07T12:14:19Z</time>
      </trkpt>
      <trkpt lat="43.077952656894922" lon="11.683525443077087">
        <ele>456.282958984375</ele>
        <time>2004-11-07T12:14:21Z</time>
      </trkpt>
      <trkpt lat="43.078037481755018" lon="11.683600209653378">
        <ele>455.321533203125</ele>
        <time>2004-11-07T12:14:23Z</time>
      </trkpt>
      <trkpt lat="43.078130688518286" lon="11.683681178838015">
        <ele>454.8408203125</ele>
        <time>2004-11-07T12:14:25Z</time>
      </trkpt>
      <trkpt lat="43.078227834776044" lon="11.683764075860381">
        <ele>452.918212890625</ele>
        <time>2004-11-07T12:14:27Z</time>
      </trkpt>
      <trkpt lat="43.078330093994737" lon="11.683850074186921">
        <ele>450.99560546875</ele>
        <time>2004-11-07T12:14:29Z</time>
      </trkpt>
      <trkpt lat="43.078437298536301" lon="11.683943113312125">
        <ele>450.034423828125</ele>
        <time>2004-11-07T12:14:31Z</time>
      </trkpt>
      <trkpt lat="43.078547604382038" lon="11.68404352851212">
        <ele>449.072998046875</ele>
        <time>2004-11-07T12:14:33Z</time>
      </trkpt>
      <trkpt lat="43.078661430627108" lon="11.684155007824302">
        <ele>446.1890869140625</ele>
        <time>2004-11-07T12:14:35Z</time>
      </trkpt>
      <trkpt lat="43.078760672360659" lon="11.684262799099088">
        <ele>443.7857666015625</ele>
        <time>2004-11-07T12:14:37Z</time>
      </trkpt>
      <trkpt lat="43.078859159722924" lon="11.684366399422288">
        <ele>441.8631591796875</ele>
        <time>2004-11-07T12:14:39Z</time>
      </trkpt>
      <trkpt lat="43.078963933512568" lon="11.6844676528126">
        <ele>440.90185546875</ele>
        <time>2004-11-07T12:14:41Z</time>
      </trkpt>
      <trkpt lat="43.079067533835769" lon="11.684565218165517">
        <ele>439.459716796875</ele>
        <time>2004-11-07T12:14:43Z</time>
      </trkpt>
      <trkpt lat="43.079187646508217" lon="11.684682397171855">
        <ele>437.0565185546875</ele>
        <time>2004-11-07T12:14:45Z</time>
      </trkpt>
      <trkpt lat="43.079317649826407" lon="11.684811059385538">
        <ele>435.614501953125</ele>
        <time>2004-11-07T12:14:47Z</time>
      </trkpt>
      <trkpt lat="43.079455615952611" lon="11.684938045218587">
        <ele>433.2113037109375</ele>
        <time>2004-11-07T12:14:49Z</time>
      </trkpt>
      <trkpt lat="43.079589307308197" lon="11.685065869241953">
        <ele>431.7691650390625</ele>
        <time>2004-11-07T12:14:51Z</time>
      </trkpt>
      <trkpt lat="43.07973263785243" lon="11.685182377696037">
        <ele>429.8465576171875</ele>
        <time>2004-11-07T12:14:53Z</time>
      </trkpt>
      <trkpt lat="43.079878482967615" lon="11.685277009382844">
        <ele>426.4820556640625</ele>
        <time>2004-11-07T12:14:55Z</time>
      </trkpt>
      <trkpt lat="43.080021142959595" lon="11.685368623584509">
        <ele>423.5980224609375</ele>
        <time>2004-11-07T12:14:57Z</time>
      </trkpt>
      <trkpt lat="43.080137567594647" lon="11.68546736240387">
        <ele>423.117431640625</ele>
        <time>2004-11-07T12:14:59Z</time>
      </trkpt>
      <trkpt lat="43.080221638083458" lon="11.685580434277654">
        <ele>420.2333984375</ele>
        <time>2004-11-07T12:15:01Z</time>
      </trkpt>
      <trkpt lat="43.080302439630032" lon="11.68570389971137">
        <ele>416.868896484375</ele>
        <time>2004-11-07T12:15:03Z</time>
      </trkpt>
      <trkpt lat="43.08038835413754" lon="11.685853684321046">
        <ele>415.4268798828125</ele>
        <time>2004-11-07T12:15:05Z</time>
      </trkpt>
      <trkpt lat="43.08046848513186" lon="11.686001541092992">
        <ele>413.98486328125</ele>
        <time>2004-11-07T12:15:07Z</time>
      </trkpt>
      <trkpt lat="43.080542916432023" lon="11.686114361509681">
        <ele>410.6202392578125</ele>
        <time>2004-11-07T12:15:09Z</time>
      </trkpt>
      <trkpt lat="43.080649534240365" lon="11.68618124909699">
        <ele>407.736328125</ele>
        <time>2004-11-07T12:15:12Z</time>
      </trkpt>
      <trkpt lat="43.080743746832013" lon="11.686064740642905">
        <ele>405.3330078125</ele>
        <time>2004-11-07T12:15:15Z</time>
      </trkpt>
      <trkpt lat="43.080788590013981" lon="11.685881512239575">
        <ele>403.89111328125</ele>
        <time>2004-11-07T12:15:17Z</time>
      </trkpt>
      <trkpt lat="43.080849694088101" lon="11.685751676559448">
        <ele>403.410400390625</ele>
        <time>2004-11-07T12:15:19Z</time>
      </trkpt>
      <trkpt lat="43.080952791497111" lon="11.68569509871304">
        <ele>403.410400390625</ele>
        <time>2004-11-07T12:15:22Z</time>
      </trkpt>
      <trkpt lat="43.081041136756539" lon="11.685740863904357">
        <ele>402.9296875</ele>
        <time>2004-11-07T12:15:26Z</time>
      </trkpt>
      <trkpt lat="43.08113451115787" lon="11.685796352103353">
        <ele>405.813720703125</ele>
        <time>2004-11-07T12:15:34Z</time>
      </trkpt>
      <trkpt lat="43.081206763163209" lon="11.685872711241245">
        <ele>407.736328125</ele>
        <time>2004-11-07T12:15:42Z</time>
      </trkpt>
      <trkpt lat="43.081287816166878" lon="11.685954015702009">
        <ele>409.1783447265625</ele>
        <time>2004-11-07T12:15:51Z</time>
      </trkpt>
      <trkpt lat="43.081349087879062" lon="11.686055855825543">
        <ele>410.6202392578125</ele>
        <time>2004-11-07T12:16:00Z</time>
      </trkpt>
      <trkpt lat="43.081412287428975" lon="11.686159456148744">
        <ele>411.5816650390625</ele>
        <time>2004-11-07T12:16:09Z</time>
      </trkpt>
      <trkpt lat="43.081470374017954" lon="11.686260541900992">
        <ele>413.0235595703125</ele>
        <time>2004-11-07T12:16:18Z</time>
      </trkpt>
      <trkpt lat="43.08152636513114" lon="11.686375625431538">
        <ele>413.98486328125</ele>
        <time>2004-11-07T12:16:27Z</time>
      </trkpt>
      <trkpt lat="43.081578584387898" lon="11.686491966247559">
        <ele>414.9461669921875</ele>
        <time>2004-11-07T12:16:35Z</time>
      </trkpt>
      <trkpt lat="43.081628289073706" lon="11.686601517722011">
        <ele>417.8302001953125</ele>
        <time>2004-11-07T12:16:42Z</time>
      </trkpt>
      <trkpt lat="43.08167640119791" lon="11.686726156622171">
        <ele>418.310791015625</ele>
        <time>2004-11-07T12:16:49Z</time>
      </trkpt>
      <trkpt lat="43.081723675131798" lon="11.686832774430513">
        <ele>418.79150390625</ele>
        <time>2004-11-07T12:16:55Z</time>
      </trkpt>
      <trkpt lat="43.081766339018941" lon="11.686946852132678">
        <ele>420.2333984375</ele>
        <time>2004-11-07T12:17:00Z</time>
      </trkpt>
      <trkpt lat="43.081814032047987" lon="11.687075765803456">
        <ele>420.714111328125</ele>
        <time>2004-11-07T12:17:06Z</time>
      </trkpt>
      <trkpt lat="43.081857115030289" lon="11.687187915667892">
        <ele>421.6754150390625</ele>
        <time>2004-11-07T12:17:11Z</time>
      </trkpt>
      <trkpt lat="43.081864239647985" lon="11.687317751348019">
        <ele>421.19482421875</ele>
        <time>2004-11-07T12:17:15Z</time>
      </trkpt>
      <trkpt lat="43.081815876066685" lon="11.687453789636493">
        <ele>420.2333984375</ele>
        <time>2004-11-07T12:17:19Z</time>
      </trkpt>
      <trkpt lat="43.081758124753833" lon="11.687582619488239">
        <ele>421.19482421875</ele>
        <time>2004-11-07T12:17:23Z</time>
      </trkpt>
      <trkpt lat="43.081690147519112" lon="11.687697535380721">
        <ele>421.19482421875</ele>
        <time>2004-11-07T12:17:27Z</time>
      </trkpt>
      <trkpt lat="43.081618146970868" lon="11.687803314998746">
        <ele>422.63671875</ele>
        <time>2004-11-07T12:17:31Z</time>
      </trkpt>
      <trkpt lat="43.081538686528802" lon="11.687903897836804">
        <ele>422.156005859375</ele>
        <time>2004-11-07T12:17:35Z</time>
      </trkpt>
      <trkpt lat="43.081457801163197" lon="11.688006827607751">
        <ele>422.63671875</ele>
        <time>2004-11-07T12:17:39Z</time>
      </trkpt>
      <trkpt lat="43.081373563036323" lon="11.688093999400735">
        <ele>422.156005859375</ele>
        <time>2004-11-07T12:17:43Z</time>
      </trkpt>
      <trkpt lat="43.08127423748374" lon="11.688150744885206">
        <ele>423.117431640625</ele>
        <time>2004-11-07T12:17:47Z</time>
      </trkpt>
      <trkpt lat="43.081173654645681" lon="11.68819097802043">
        <ele>424.0787353515625</ele>
        <time>2004-11-07T12:17:51Z</time>
      </trkpt>
      <trkpt lat="43.081073742359877" lon="11.688235569745302">
        <ele>425.0401611328125</ele>
        <time>2004-11-07T12:17:55Z</time>
      </trkpt>
      <trkpt lat="43.080965112894773" lon="11.688286699354649">
        <ele>423.5980224609375</ele>
        <time>2004-11-07T12:17:59Z</time>
      </trkpt>
      <trkpt lat="43.08087551034987" lon="11.688328273594379">
        <ele>424.0787353515625</ele>
        <time>2004-11-07T12:18:02Z</time>
      </trkpt>
      <trkpt lat="43.080782387405634" lon="11.688370099291205">
        <ele>424.5594482421875</ele>
        <time>2004-11-07T12:18:05Z</time>
      </trkpt>
      <trkpt lat="43.080665711313486" lon="11.68841821141541">
        <ele>423.5980224609375</ele>
        <time>2004-11-07T12:18:08Z</time>
      </trkpt>
      <trkpt lat="43.080576276406646" lon="11.68846171349287">
        <ele>422.156005859375</ele>
        <time>2004-11-07T12:18:10Z</time>
      </trkpt>
      <trkpt lat="43.08047141879797" lon="11.688508484512568">
        <ele>421.6754150390625</ele>
        <time>2004-11-07T12:18:12Z</time>
      </trkpt>
      <trkpt lat="43.080355245620012" lon="11.688559530302882">
        <ele>421.19482421875</ele>
        <time>2004-11-07T12:18:14Z</time>
      </trkpt>
      <trkpt lat="43.080225493758917" lon="11.688625495880842">
        <ele>420.2333984375</ele>
        <time>2004-11-07T12:18:16Z</time>
      </trkpt>
      <trkpt lat="43.080089539289474" lon="11.68870696797967">
        <ele>419.7528076171875</ele>
        <time>2004-11-07T12:18:18Z</time>
      </trkpt>
      <trkpt lat="43.079942688345909" lon="11.688809562474489">
        <ele>420.2333984375</ele>
        <time>2004-11-07T12:18:20Z</time>
      </trkpt>
      <trkpt lat="43.079787958413363" lon="11.688905535265803">
        <ele>418.79150390625</ele>
        <time>2004-11-07T12:18:22Z</time>
      </trkpt>
      <trkpt lat="43.07963247410953" lon="11.68895423412323">
        <ele>418.79150390625</ele>
        <time>2004-11-07T12:18:24Z</time>
      </trkpt>
      <trkpt lat="43.079495932906866" lon="11.68898792937398">
        <ele>418.79150390625</ele>
        <time>2004-11-07T12:18:26Z</time>
      </trkpt>
      <trkpt lat="43.079378334805369" lon="11.689040819182992">
        <ele>419.272216796875</ele>
        <time>2004-11-07T12:18:28Z</time>
      </trkpt>
      <trkpt lat="43.079278087243438" lon="11.689116172492504">
        <ele>419.272216796875</ele>
        <time>2004-11-07T12:18:30Z</time>
      </trkpt>
      <trkpt lat="43.079180018976331" lon="11.689191944897175">
        <ele>419.272216796875</ele>
        <time>2004-11-07T12:18:32Z</time>
      </trkpt>
      <trkpt lat="43.079076083377004" lon="11.689259083941579">
        <ele>419.272216796875</ele>
        <time>2004-11-07T12:18:34Z</time>
      </trkpt>
      <trkpt lat="43.078964184969664" lon="11.689327480271459">
        <ele>418.79150390625</ele>
        <time>2004-11-07T12:18:36Z</time>
      </trkpt>
      <trkpt lat="43.078857567161322" lon="11.689396882429719">
        <ele>418.79150390625</ele>
        <time>2004-11-07T12:18:38Z</time>
      </trkpt>
      <trkpt lat="43.078766707330942" lon="11.689479360356927">
        <ele>419.272216796875</ele>
        <time>2004-11-07T12:18:40Z</time>
      </trkpt>
      <trkpt lat="43.07867618277669" lon="11.68957332149148">
        <ele>418.79150390625</ele>
        <time>2004-11-07T12:18:42Z</time>
      </trkpt>
      <trkpt lat="43.078589346259832" lon="11.689683375880122">
        <ele>418.79150390625</ele>
        <time>2004-11-07T12:18:44Z</time>
      </trkpt>
      <trkpt lat="43.078509299084544" lon="11.689798207953572">
        <ele>418.79150390625</ele>
        <time>2004-11-07T12:18:46Z</time>
      </trkpt>
      <trkpt lat="43.07844266295433" lon="11.689885212108493">
        <ele>418.310791015625</ele>
        <time>2004-11-07T12:18:48Z</time>
      </trkpt>
      <trkpt lat="43.078363370150328" lon="11.689964001998305">
        <ele>418.79150390625</ele>
        <time>2004-11-07T12:25:53Z</time>
      </trkpt>
      <trkpt lat="43.078280305489898" lon="11.690032230690122">
        <ele>418.310791015625</ele>
        <time>2004-11-07T12:25:58Z</time>
      </trkpt>
      <trkpt lat="43.078176872804761" lon="11.690067686140537">
        <ele>419.272216796875</ele>
        <time>2004-11-07T12:26:03Z</time>
      </trkpt>
      <trkpt lat="43.078073188662529" lon="11.690067183226347">
        <ele>418.310791015625</ele>
        <time>2004-11-07T12:26:08Z</time>
      </trkpt>
      <trkpt lat="43.077990291640162" lon="11.690065925940871">
        <ele>418.79150390625</ele>
        <time>2004-11-07T12:26:36Z</time>
      </trkpt>
      <trkpt lat="43.077873699367046" lon="11.690070452168584">
        <ele>417.8302001953125</ele>
        <time>2004-11-07T12:26:40Z</time>
      </trkpt>
      <trkpt lat="43.07776297442615" lon="11.690069194883108">
        <ele>418.310791015625</ele>
        <time>2004-11-07T12:26:43Z</time>
      </trkpt>
      <trkpt lat="43.077639089897275" lon="11.690073469653726">
        <ele>417.8302001953125</ele>
        <time>2004-11-07T12:26:46Z</time>
      </trkpt>
      <trkpt lat="43.077499363571405" lon="11.690076990053058">
        <ele>417.349609375</ele>
        <time>2004-11-07T12:26:49Z</time>
      </trkpt>
      <trkpt lat="43.077405150979757" lon="11.690080678090453">
        <ele>417.8302001953125</ele>
        <time>2004-11-07T12:26:51Z</time>
      </trkpt>
      <trkpt lat="43.07731194421649" lon="11.690076990053058">
        <ele>417.8302001953125</ele>
        <time>2004-11-07T12:26:53Z</time>
      </trkpt>
      <trkpt lat="43.077218066900969" lon="11.690076990053058">
        <ele>417.8302001953125</ele>
        <time>2004-11-07T12:26:55Z</time>
      </trkpt>
      <trkpt lat="43.077126452699304" lon="11.690076151862741">
        <ele>418.310791015625</ele>
        <time>2004-11-07T12:26:57Z</time>
      </trkpt>
      <trkpt lat="43.076994773000479" lon="11.690077660605311">
        <ele>418.79150390625</ele>
        <time>2004-11-07T12:27:00Z</time>
      </trkpt>
      <trkpt lat="43.076858734712005" lon="11.690085707232356">
        <ele>417.349609375</ele>
        <time>2004-11-07T12:27:03Z</time>
      </trkpt>
      <trkpt lat="43.076761923730373" lon="11.690090820193291">
        <ele>417.349609375</ele>
        <time>2004-11-07T12:27:05Z</time>
      </trkpt>
      <trkpt lat="43.076659999787807" lon="11.690100291743875">
        <ele>417.8302001953125</ele>
        <time>2004-11-07T12:27:07Z</time>
      </trkpt>
      <trkpt lat="43.076551454141736" lon="11.690106494352221">
        <ele>417.349609375</ele>
        <time>2004-11-07T12:27:09Z</time>
      </trkpt>
      <trkpt lat="43.07644366286695" lon="11.690113535150886">
        <ele>417.349609375</ele>
        <time>2004-11-07T12:27:11Z</time>
      </trkpt>
      <trkpt lat="43.076335452497005" lon="11.690119402483106">
        <ele>418.310791015625</ele>
        <time>2004-11-07T12:27:13Z</time>
      </trkpt>
      <trkpt lat="43.076225146651268" lon="11.690123677253723">
        <ele>417.349609375</ele>
        <time>2004-11-07T12:27:15Z</time>
      </trkpt>
      <trkpt lat="43.07611433789134" lon="11.69012987986207">
        <ele>416.38818359375</ele>
        <time>2004-11-07T12:27:17Z</time>
      </trkpt>
      <trkpt lat="43.076003864407539" lon="11.69013574719429">
        <ele>416.38818359375</ele>
        <time>2004-11-07T12:27:19Z</time>
      </trkpt>
      <trkpt lat="43.075892888009548" lon="11.690143710002303">
        <ele>415.907470703125</ele>
        <time>2004-11-07T12:27:21Z</time>
      </trkpt>
      <trkpt lat="43.07578400708735" lon="11.690148906782269">
        <ele>415.4268798828125</ele>
        <time>2004-11-07T12:27:23Z</time>
      </trkpt>
      <trkpt lat="43.075684765353799" lon="11.690153852105141">
        <ele>415.4268798828125</ele>
        <time>2004-11-07T12:27:25Z</time>
      </trkpt>
      <trkpt lat="43.075592983514071" lon="11.690155109390616">
        <ele>416.38818359375</ele>
        <time>2004-11-07T12:27:27Z</time>
      </trkpt>
      <trkpt lat="43.075469098985195" lon="11.690156701952219">
        <ele>416.38818359375</ele>
        <time>2004-11-07T12:27:30Z</time>
      </trkpt>
      <trkpt lat="43.075359128415585" lon="11.690146392211318">
        <ele>416.38818359375</ele>
        <time>2004-11-07T12:27:33Z</time>
      </trkpt>
      <trkpt lat="43.075257455930114" lon="11.690130801871419">
        <ele>416.38818359375</ele>
        <time>2004-11-07T12:27:36Z</time>
      </trkpt>
      <trkpt lat="43.075158130377531" lon="11.690111439675093">
        <ele>417.8302001953125</ele>
        <time>2004-11-07T12:27:40Z</time>
      </trkpt>
      <trkpt lat="43.075071545317769" lon="11.690082438290119">
        <ele>418.79150390625</ele>
        <time>2004-11-07T12:27:46Z</time>
      </trkpt>
      <trkpt lat="43.074970124289393" lon="11.690066596493125">
        <ele>420.2333984375</ele>
        <time>2004-11-07T12:27:53Z</time>
      </trkpt>
      <trkpt lat="43.074884545058012" lon="11.690057124942541">
        <ele>421.19482421875</ele>
        <time>2004-11-07T12:28:00Z</time>
      </trkpt>
      <trkpt lat="43.074789997190237" lon="11.69002728536725">
        <ele>422.63671875</ele>
        <time>2004-11-07T12:28:08Z</time>
      </trkpt>
      <trkpt lat="43.074697041884065" lon="11.690008090808988">
        <ele>424.0787353515625</ele>
        <time>2004-11-07T12:28:15Z</time>
      </trkpt>
      <trkpt lat="43.07462939992547" lon="11.689997278153896">
        <ele>425.0401611328125</ele>
        <time>2004-11-07T12:30:45Z</time>
      </trkpt>
      <trkpt lat="43.074526386335492" lon="11.689986800774932">
        <ele>425.520751953125</ele>
        <time>2004-11-07T12:30:53Z</time>
      </trkpt>
      <trkpt lat="43.074424546211958" lon="11.689969953149557">
        <ele>427.443359375</ele>
        <time>2004-11-07T12:31:01Z</time>
      </trkpt>
      <trkpt lat="43.074331674724817" lon="11.68996668420732">
        <ele>429.365966796875</ele>
        <time>2004-11-07T12:31:09Z</time>
      </trkpt>
      <trkpt lat="43.074234528467059" lon="11.689968192949891">
        <ele>429.365966796875</ele>
        <time>2004-11-07T12:31:22Z</time>
      </trkpt>
      <trkpt lat="43.07413344271481" lon="11.68998428620398">
        <ele>430.3272705078125</ele>
        <time>2004-11-07T12:31:28Z</time>
      </trkpt>
      <trkpt lat="43.074041912332177" lon="11.690018232911825">
        <ele>431.28857421875</ele>
        <time>2004-11-07T12:31:34Z</time>
      </trkpt>
      <trkpt lat="43.073955327272415" lon="11.690052598714828">
        <ele>432.25</ele>
        <time>2004-11-07T12:31:40Z</time>
      </trkpt>
      <trkpt lat="43.073871172964573" lon="11.690095514059067">
        <ele>433.69189453125</ele>
        <time>2004-11-07T12:31:46Z</time>
      </trkpt>
      <trkpt lat="43.073790036141872" lon="11.690151002258062">
        <ele>436.09521484375</ele>
        <time>2004-11-07T12:31:52Z</time>
      </trkpt>
      <trkpt lat="43.073696745559573" lon="11.69022174552083">
        <ele>438.017822265625</ele>
        <time>2004-11-07T12:31:59Z</time>
      </trkpt>
      <trkpt lat="43.073616279289126" lon="11.690305480733514">
        <ele>439.459716796875</ele>
        <time>2004-11-07T12:32:05Z</time>
      </trkpt>
      <trkpt lat="43.0735485535115" lon="11.690411511808634">
        <ele>438.49853515625</ele>
        <time>2004-11-07T12:32:11Z</time>
      </trkpt>
      <trkpt lat="43.073486359789968" lon="11.690518297255039">
        <ele>439.9404296875</ele>
        <time>2004-11-07T12:32:17Z</time>
      </trkpt>
      <trkpt lat="43.07343858294189" lon="11.690643271431327">
        <ele>440.4212646484375</ele>
        <time>2004-11-07T12:32:24Z</time>
      </trkpt>
      <trkpt lat="43.073399187996984" lon="11.690751314163208">
        <ele>441.3824462890625</ele>
        <time>2004-11-07T12:32:31Z</time>
      </trkpt>
      <trkpt lat="43.073363061994314" lon="11.690862374380231">
        <ele>443.3050537109375</ele>
        <time>2004-11-07T12:32:38Z</time>
      </trkpt>
      <trkpt lat="43.073308747261763" lon="11.690977877005935">
        <ele>444.2664794921875</ele>
        <time>2004-11-07T12:32:46Z</time>
      </trkpt>
      <trkpt lat="43.073257282376289" lon="11.691095978021622">
        <ele>446.1890869140625</ele>
        <time>2004-11-07T12:32:54Z</time>
      </trkpt>
      <trkpt lat="43.073199363425374" lon="11.691211480647326">
        <ele>447.6309814453125</ele>
        <time>2004-11-07T12:33:01Z</time>
      </trkpt>
      <trkpt lat="43.073139097541571" lon="11.691330000758171">
        <ele>447.6309814453125</ele>
        <time>2004-11-07T12:33:07Z</time>
      </trkpt>
      <trkpt lat="43.073083693161607" lon="11.691444665193558">
        <ele>449.5537109375</ele>
        <time>2004-11-07T12:33:13Z</time>
      </trkpt>
      <trkpt lat="43.07302669622004" lon="11.691567627713084">
        <ele>448.5924072265625</ele>
        <time>2004-11-07T12:33:19Z</time>
      </trkpt>
      <trkpt lat="43.072972549125552" lon="11.691678268834949">
        <ele>450.5150146484375</ele>
        <time>2004-11-07T12:33:24Z</time>
      </trkpt>
      <trkpt lat="43.072917899116874" lon="11.691797710955143">
        <ele>450.034423828125</ele>
        <time>2004-11-07T12:33:29Z</time>
      </trkpt>
      <trkpt lat="43.072868445888162" lon="11.691905334591866">
        <ele>450.034423828125</ele>
        <time>2004-11-07T12:33:33Z</time>
      </trkpt>
      <trkpt lat="43.072811448946595" lon="11.692022932693362">
        <ele>450.034423828125</ele>
        <time>2004-11-07T12:33:37Z</time>
      </trkpt>
      <trkpt lat="43.072742717340589" lon="11.692155953496695">
        <ele>449.5537109375</ele>
        <time>2004-11-07T12:33:41Z</time>
      </trkpt>
      <trkpt lat="43.072687480598688" lon="11.692258547991514">
        <ele>450.034423828125</ele>
        <time>2004-11-07T12:33:44Z</time>
      </trkpt>
      <trkpt lat="43.072623610496521" lon="11.69238394126296">
        <ele>450.99560546875</ele>
        <time>2004-11-07T12:33:48Z</time>
      </trkpt>
      <trkpt lat="43.072574324905872" lon="11.692496342584491">
        <ele>450.99560546875</ele>
        <time>2004-11-07T12:33:52Z</time>
      </trkpt>
      <trkpt lat="43.072531493380666" lon="11.692614024505019">
        <ele>450.5150146484375</ele>
        <time>2004-11-07T12:33:56Z</time>
      </trkpt>
      <trkpt lat="43.072486817836761" lon="11.692720558494329">
        <ele>450.99560546875</ele>
        <time>2004-11-07T12:34:00Z</time>
      </trkpt>
      <trkpt lat="43.072444992139935" lon="11.692840922623873">
        <ele>451.95703125</ele>
        <time>2004-11-07T12:34:05Z</time>
      </trkpt>
      <trkpt lat="43.072406351566315" lon="11.692968243733048">
        <ele>451.95703125</ele>
        <time>2004-11-07T12:34:11Z</time>
      </trkpt>
      <trkpt lat="43.072351701557636" lon="11.693067569285631">
        <ele>450.99560546875</ele>
        <time>2004-11-07T12:34:16Z</time>
      </trkpt>
      <trkpt lat="43.072238378226757" lon="11.693249540403485">
        <ele>448.5924072265625</ele>
        <time>2004-11-07T12:34:36Z</time>
      </trkpt>
      <trkpt lat="43.072181968018413" lon="11.693355236202478">
        <ele>447.6309814453125</ele>
        <time>2004-11-07T12:34:38Z</time>
      </trkpt>
      <trkpt lat="43.072118181735277" lon="11.693468810990453">
        <ele>447.1502685546875</ele>
        <time>2004-11-07T12:34:40Z</time>
      </trkpt>
      <trkpt lat="43.072055568918586" lon="11.693591186776757">
        <ele>444.7470703125</ele>
        <time>2004-11-07T12:34:42Z</time>
      </trkpt>
      <trkpt lat="43.07194584980607" lon="11.693690931424499">
        <ele>442.824462890625</ele>
        <time>2004-11-07T12:34:44Z</time>
      </trkpt>
      <trkpt lat="43.071817187592387" lon="11.693740636110306">
        <ele>441.8631591796875</ele>
        <time>2004-11-07T12:34:46Z</time>
      </trkpt>
      <trkpt lat="43.071709731593728" lon="11.693742480129004">
        <ele>441.3824462890625</ele>
        <time>2004-11-07T12:34:48Z</time>
      </trkpt>
      <trkpt lat="43.071658266708255" lon="11.693859240040183">
        <ele>439.9404296875</ele>
        <time>2004-11-07T12:34:51Z</time>
      </trkpt>
      <trkpt lat="43.071693973615766" lon="11.69397147372365">
        <ele>438.017822265625</ele>
        <time>2004-11-07T12:34:53Z</time>
      </trkpt>
      <trkpt lat="43.071750719100237" lon="11.694098878651857">
        <ele>434.6533203125</ele>
        <time>2004-11-07T12:34:55Z</time>
      </trkpt>
      <trkpt lat="43.071790365502238" lon="11.694316808134317">
        <ele>432.730712890625</ele>
        <time>2004-11-07T12:34:57Z</time>
      </trkpt>
      <trkpt lat="43.071798663586378" lon="11.69453633017838">
        <ele>429.8465576171875</ele>
        <time>2004-11-07T12:34:59Z</time>
      </trkpt>
      <trkpt lat="43.071781564503908" lon="11.694765910506248">
        <ele>426.9627685546875</ele>
        <time>2004-11-07T12:35:01Z</time>
      </trkpt>
      <trkpt lat="43.071751473471522" lon="11.694979900494218">
        <ele>424.0787353515625</ele>
        <time>2004-11-07T12:35:03Z</time>
      </trkpt>
      <trkpt lat="43.071694225072861" lon="11.695172684267163">
        <ele>422.156005859375</ele>
        <time>2004-11-07T12:35:05Z</time>
      </trkpt>
      <trkpt lat="43.071600599214435" lon="11.69536747969687">
        <ele>419.7528076171875</ele>
        <time>2004-11-07T12:35:07Z</time>
      </trkpt>
      <trkpt lat="43.07147579267621" lon="11.695536626502872">
        <ele>418.310791015625</ele>
        <time>2004-11-07T12:35:09Z</time>
      </trkpt>
      <trkpt lat="43.07140689343214" lon="11.695619104430079">
        <ele>417.349609375</ele>
        <time>2004-11-07T12:35:10Z</time>
      </trkpt>
      <trkpt lat="43.071337072178721" lon="11.695692613720894">
        <ele>415.907470703125</ele>
        <time>2004-11-07T12:35:11Z</time>
      </trkpt>
      <trkpt lat="43.071236573159695" lon="11.69574617408216">
        <ele>414.9461669921875</ele>
        <time>2004-11-07T12:35:12Z</time>
      </trkpt>
      <trkpt lat="43.071124423295259" lon="11.695804679766297">
        <ele>413.98486328125</ele>
        <time>2004-11-07T12:35:13Z</time>
      </trkpt>
      <trkpt lat="43.071025935932994" lon="11.695865448564291">
        <ele>414.9461669921875</ele>
        <time>2004-11-07T12:35:14Z</time>
      </trkpt>
      <trkpt lat="43.070927448570728" lon="11.695926133543253">
        <ele>413.5042724609375</ele>
        <time>2004-11-07T12:35:15Z</time>
      </trkpt>
      <trkpt lat="43.070828961208463" lon="11.695986902341247">
        <ele>412.062255859375</ele>
        <time>2004-11-07T12:35:16Z</time>
      </trkpt>
      <trkpt lat="43.070729719474912" lon="11.696052448824048">
        <ele>410.6202392578125</ele>
        <time>2004-11-07T12:35:17Z</time>
      </trkpt>
      <trkpt lat="43.070636261254549" lon="11.696132579818368">
        <ele>408.6976318359375</ele>
        <time>2004-11-07T12:35:18Z</time>
      </trkpt>
      <trkpt lat="43.070548418909311" lon="11.696212459355593">
        <ele>407.736328125</ele>
        <time>2004-11-07T12:35:19Z</time>
      </trkpt>
      <trkpt lat="43.070462420582771" lon="11.696291668340564">
        <ele>407.255615234375</ele>
        <time>2004-11-07T12:35:20Z</time>
      </trkpt>
      <trkpt lat="43.070379104465246" lon="11.69637355953455">
        <ele>407.255615234375</ele>
        <time>2004-11-07T12:35:21Z</time>
      </trkpt>
      <trkpt lat="43.07030450552702" lon="11.69645176269114">
        <ele>407.255615234375</ele>
        <time>2004-11-07T12:35:22Z</time>
      </trkpt>
      <trkpt lat="43.070183554664254" lon="11.69658419676125">
        <ele>405.813720703125</ele>
        <time>2004-11-07T12:35:24Z</time>
      </trkpt>
      <trkpt lat="43.070067716762424" lon="11.696713110432029">
        <ele>403.410400390625</ele>
        <time>2004-11-07T12:35:26Z</time>
      </trkpt>
      <trkpt lat="43.069966631010175" lon="11.696845041587949">
        <ele>401.968505859375</ele>
        <time>2004-11-07T12:35:28Z</time>
      </trkpt>
      <trkpt lat="43.069889601320028" lon="11.696925424039364">
        <ele>400.0458984375</ele>
        <time>2004-11-07T12:35:30Z</time>
      </trkpt>
      <trkpt lat="43.069864371791482" lon="11.697058863937855">
        <ele>399.0843505859375</ele>
        <time>2004-11-07T12:35:32Z</time>
      </trkpt>
      <trkpt lat="43.069875100627542" lon="11.697193142026663">
        <ele>397.6424560546875</ele>
        <time>2004-11-07T12:35:34Z</time>
      </trkpt>
      <trkpt lat="43.069918351247907" lon="11.697347788140178">
        <ele>396.68115234375</ele>
        <time>2004-11-07T12:35:36Z</time>
      </trkpt>
      <trkpt lat="43.069997811689973" lon="11.697503691539168">
        <ele>395.7198486328125</ele>
        <time>2004-11-07T12:35:38Z</time>
      </trkpt>
      <trkpt lat="43.070090180262923" lon="11.697651967406273">
        <ele>393.7972412109375</ele>
        <time>2004-11-07T12:35:40Z</time>
      </trkpt>
      <trkpt lat="43.070162516087294" lon="11.69781013391912">
        <ele>388.9906005859375</ele>
        <time>2004-11-07T12:35:42Z</time>
      </trkpt>
      <trkpt lat="43.070185231044888" lon="11.698018256574869">
        <ele>386.58740234375</ele>
        <time>2004-11-07T12:35:44Z</time>
      </trkpt>
      <trkpt lat="43.070159833878279" lon="11.698252279311419">
        <ele>383.22265625</ele>
        <time>2004-11-07T12:35:46Z</time>
      </trkpt>
      <trkpt lat="43.070089090615511" lon="11.698458138853312">
        <ele>380.3387451171875</ele>
        <time>2004-11-07T12:35:48Z</time>
      </trkpt>
      <trkpt lat="43.069997057318687" lon="11.698660310357809">
        <ele>380.3387451171875</ele>
        <time>2004-11-07T12:35:50Z</time>
      </trkpt>
      <trkpt lat="43.069948358461261" lon="11.698760641738772">
        <ele>378.4161376953125</ele>
        <time>2004-11-07T12:35:51Z</time>
      </trkpt>
      <trkpt lat="43.069898234680295" lon="11.698864493519068">
        <ele>377.454833984375</ele>
        <time>2004-11-07T12:35:52Z</time>
      </trkpt>
      <trkpt lat="43.069851715117693" lon="11.698965914547443">
        <ele>376.4935302734375</ele>
        <time>2004-11-07T12:35:53Z</time>
      </trkpt>
      <trkpt lat="43.069776445627213" lon="11.69916314072907">
        <ele>375.051513671875</ele>
        <time>2004-11-07T12:35:55Z</time>
      </trkpt>
      <trkpt lat="43.069723304361105" lon="11.699382578954101">
        <ele>373.12890625</ele>
        <time>2004-11-07T12:35:57Z</time>
      </trkpt>
      <trkpt lat="43.06970402598381" lon="11.699506714940071">
        <ele>371.6868896484375</ele>
        <time>2004-11-07T12:35:58Z</time>
      </trkpt>
      <trkpt lat="43.069687932729721" lon="11.699639232829213">
        <ele>370.244873046875</ele>
        <time>2004-11-07T12:35:59Z</time>
      </trkpt>
      <trkpt lat="43.069675276055932" lon="11.699780970811844">
        <ele>368.802978515625</ele>
        <time>2004-11-07T12:36:00Z</time>
      </trkpt>
      <trkpt lat="43.069664295762777" lon="11.699931845068932">
        <ele>367.841552734375</ele>
        <time>2004-11-07T12:36:01Z</time>
      </trkpt>
      <trkpt lat="43.069655410945415" lon="11.70008079148829">
        <ele>366.8802490234375</ele>
        <time>2004-11-07T12:36:02Z</time>
      </trkpt>
      <trkpt lat="43.069645939394832" lon="11.700214566662908">
        <ele>365.9189453125</ele>
        <time>2004-11-07T12:36:03Z</time>
      </trkpt>
      <trkpt lat="43.06963655166328" lon="11.700355382636189">
        <ele>364.4769287109375</ele>
        <time>2004-11-07T12:36:04Z</time>
      </trkpt>
      <trkpt lat="43.069622972980142" lon="11.700500389561057">
        <ele>363.0350341796875</ele>
        <time>2004-11-07T12:36:05Z</time>
      </trkpt>
      <trkpt lat="43.069607969373465" lon="11.700635505840182">
        <ele>359.189697265625</ele>
        <time>2004-11-07T12:36:06Z</time>
      </trkpt>
      <trkpt lat="43.06959355250001" lon="11.700757881626487">
        <ele>357.747802734375</ele>
        <time>2004-11-07T12:36:07Z</time>
      </trkpt>
      <trkpt lat="43.069560863077641" lon="11.700965166091919">
        <ele>354.3831787109375</ele>
        <time>2004-11-07T12:36:09Z</time>
      </trkpt>
      <trkpt lat="43.069516438990831" lon="11.701171025633812">
        <ele>352.4605712890625</ele>
        <time>2004-11-07T12:36:11Z</time>
      </trkpt>
      <trkpt lat="43.069458855316043" lon="11.701346877962351">
        <ele>350.537841796875</ele>
        <time>2004-11-07T12:36:13Z</time>
      </trkpt>
      <trkpt lat="43.069429183378816" lon="11.701518120244145">
        <ele>349.0958251953125</ele>
        <time>2004-11-07T12:36:15Z</time>
      </trkpt>
      <trkpt lat="43.069451479241252" lon="11.701686680316925">
        <ele>347.1732177734375</ele>
        <time>2004-11-07T12:36:17Z</time>
      </trkpt>
      <trkpt lat="43.069512834772468" lon="11.701866555958986">
        <ele>345.2506103515625</ele>
        <time>2004-11-07T12:36:19Z</time>
      </trkpt>
      <trkpt lat="43.069603946059942" lon="11.702072499319911">
        <ele>344.2894287109375</ele>
        <time>2004-11-07T12:36:21Z</time>
      </trkpt>
      <trkpt lat="43.069648537784815" lon="11.702195210382342">
        <ele>342.36669921875</ele>
        <time>2004-11-07T12:36:22Z</time>
      </trkpt>
      <trkpt lat="43.06967812590301" lon="11.702330075204372">
        <ele>340.444091796875</ele>
        <time>2004-11-07T12:36:23Z</time>
      </trkpt>
      <trkpt lat="43.069691201671958" lon="11.702459491789341">
        <ele>338.521484375</ele>
        <time>2004-11-07T12:36:24Z</time>
      </trkpt>
      <trkpt lat="43.069688770920038" lon="11.702579185366631">
        <ele>336.1181640625</ele>
        <time>2004-11-07T12:36:25Z</time>
      </trkpt>
      <trkpt lat="43.069670163094997" lon="11.702699298039079">
        <ele>335.6373291015625</ele>
        <time>2004-11-07T12:36:26Z</time>
      </trkpt>
      <trkpt lat="43.069636970758438" lon="11.70281664468348">
        <ele>335.6373291015625</ele>
        <time>2004-11-07T12:36:27Z</time>
      </trkpt>
      <trkpt lat="43.069597659632564" lon="11.702937008813024">
        <ele>335.15673828125</ele>
        <time>2004-11-07T12:36:28Z</time>
      </trkpt>
      <trkpt lat="43.069559521973133" lon="11.703051505610347">
        <ele>334.6761474609375</ele>
        <time>2004-11-07T12:36:29Z</time>
      </trkpt>
      <trkpt lat="43.069489281624556" lon="11.703238924965262">
        <ele>332.2728271484375</ele>
        <time>2004-11-07T12:36:31Z</time>
      </trkpt>
      <trkpt lat="43.069434044882655" lon="11.703365324065089">
        <ele>331.3115234375</ele>
        <time>2004-11-07T12:36:33Z</time>
      </trkpt>
      <trkpt lat="43.069397332146764" lon="11.703511252999306">
        <ele>330.3502197265625</ele>
        <time>2004-11-07T12:36:36Z</time>
      </trkpt>
      <trkpt lat="43.069397332146764" lon="11.703625246882439">
        <ele>329.8695068359375</ele>
        <time>2004-11-07T12:36:39Z</time>
      </trkpt>
    </trkseg>
  </trk>

</gpx>
